GFSSGP_prec_precacc_027.txt.gz
Total_Precipitation_Accumulation
0.00 0.01 0.07 0.42 0.88 0.36 0.40 0.27 0.10 0.08 0.03 0.00 0.00 0.01 0.07 0.11 0.18 0.15 0.11 0.07 0.01 0.02 0.09 0.52 0.86 0.55 0.25 0.13 0.16 0.06 0.01 0.01 0.01 0.01 0.01 0.00 0.00 0.00 0.00 0.00 0.00 0.00 0.01 0.05 0.05 0.01 0.01 0.04 0.09
0.00 0.11 0.66 1.81 0.79 0.28 0.22 0.15 0.10 0.02 0.02 0.01 0.01 0.03 0.00 0.01 0.01 0.03 0.09 0.04 0.00 0.00 0.01 0.25 0.66 0.21 0.15 0.09 0.08 0.05 0.02 0.01 0.02 0.01 0.00 0.00 0.00 0.00 0.00 0.00 0.00 0.00 0.04 0.05 0.07 0.06 0.05 0.09 0.13
0.03 0.61 1.75 1.24 0.21 0.21 0.07 0.06 0.05 0.05 0.10 0.04 0.05 0.08 0.00 0.01 0.01 0.00 0.00 0.00 0.01 0.00 0.01 0.16 0.25 0.13 0.09 0.11 0.06 0.05 0.04 0.01 0.00 0.00 0.00 0.00 0.00 0.00 0.00 0.00 0.00 0.00 0.01 0.01 0.02 0.01 0.03 0.11 0.06
0.25 1.27 1.74 1.06 0.11 0.04 0.01 0.05 0.03 0.10 0.16 0.05 0.02 0.00 0.00 0.00 0.00 0.00 0.00 0.00 0.00 0.00 0.03 0.15 0.14 0.09 0.14 0.12 0.07 0.02 0.01 0.00 0.01 0.01 0.00 0.00 0.00 0.00 0.00 0.00 0.00 0.01 0.01 0.00 0.00 0.00 0.00 0.06 0.10
0.39 0.44 0.58 0.62 0.02 0.03 0.01 0.04 0.07 0.03 0.04 0.02 0.00 0.00 0.01 0.01 0.00 0.00 0.00 0.00 0.00 0.00 0.03 0.04 0.14 0.10 0.10 0.07 0.03 0.02 0.01 0.00 0.00 0.00 0.00 0.00 0.00 0.00 0.00 0.03 0.00 0.02 0.00 0.00 0.00 0.00 0.00 0.00 0.05
1.03 0.15 0.14 0.02 0.03 0.01 0.03 0.06 0.05 0.01 0.02 0.01 0.00 0.00 0.02 0.00 0.00 0.00 0.00 0.00 0.01 0.01 0.02 0.02 0.09 0.13 0.07 0.02 0.01 0.01 0.00 0.00 0.00 0.01 0.00 0.00 0.05 0.01 0.03 0.03 0.03 0.01 0.00 0.01 0.02 0.02 0.01 0.01 0.04
0.14 0.01 0.02 0.01 0.03 0.00 0.02 0.02 0.01 0.00 0.00 0.01 0.00 0.00 0.01 0.00 0.00 0.00 0.00 0.00 0.02 0.02 0.01 0.04 0.07 0.09 0.05 0.03 0.01 0.01 0.00 0.00 0.00 0.00 0.00 0.03 0.07 0.10 0.09 0.12 0.09 0.05 0.04 0.06 0.13 0.10 0.05 0.03 0.06
0.04 0.01 0.08 0.06 0.02 0.01 0.02 0.01 0.00 0.00 0.00 0.00 0.02 0.00 0.00 0.00 0.00 0.00 0.00 0.00 0.02 0.02 0.02 0.04 0.08 0.11 0.05 0.01 0.02 0.03 0.02 0.01 0.02 0.01 0.03 0.04 0.03 0.04 0.04 0.10 0.07 0.04 0.09 0.15 0.11 0.12 0.06 0.10 0.08
0.14 0.01 0.07 0.01 0.00 0.00 0.00 0.00 0.00 0.00 0.00 0.02 0.05 0.01 0.00 0.00 0.00 0.00 0.00 0.01 0.03 0.03 0.03 0.03 0.01 0.05 0.05 0.02 0.03 0.03 0.01 0.01 0.02 0.02 0.01 0.03 0.02 0.04 0.06 0.17 0.10 0.01 0.03 0.06 0.06 0.08 0.13 0.15 0.08
0.03 0.02 0.01 0.00 0.00 0.00 0.00 0.00 0.00 0.00 0.00 0.00 0.00 0.00 0.00 0.00 0.00 0.00 0.00 0.00 0.01 0.01 0.01 0.02 0.01 0.02 0.01 0.02 0.02 0.02 0.00 0.00 0.00 0.00 0.01 0.01 0.10 0.07 0.10 0.16 0.06 0.06 0.06 0.10 0.11 0.13 0.11 0.04 0.00
0.00 0.02 0.00 0.00 0.00 0.01 0.00 0.00 0.00 0.00 0.00 0.00 0.00 0.00 0.00 0.00 0.00 0.00 0.00 0.00 0.00 0.00 0.00 0.00 0.00 0.00 0.00 0.02 0.04 0.04 0.01 0.00 0.00 0.00 0.00 0.02 0.07 0.16 0.21 0.22 0.22 0.14 0.48 0.52 0.11 0.07 0.02 0.01 0.00
0.00 0.00 0.00 0.00 0.00 0.00 0.00 0.00 0.00 0.00 0.00 0.00 0.00 0.00 0.00 0.00 0.00 0.00 0.00 0.00 0.00 0.00 0.00 0.00 0.00 0.01 0.02 0.02 0.02 0.05 0.01 0.01 0.00 0.00 0.00 0.00 0.05 0.06 0.13 0.28 0.14 0.35 0.20 0.41 0.12 0.06 0.01 0.00 0.00
0.00 0.00 0.00 0.00 0.00 0.00 0.01 0.00 0.00 0.00 0.00 0.00 0.00 0.00 0.00 0.00 0.00 0.00 0.00 0.00 0.00 0.00 0.00 0.00 0.00 0.00 0.01 0.00 0.00 0.00 0.01 0.00 0.00 0.00 0.00 0.01 0.02 0.14 0.16 0.16 0.16 0.16 0.10 0.07 0.04 0.08 0.02 0.00 0.00
0.00 0.00 0.00 0.00 0.00 0.00 0.00 0.00 0.00 0.00 0.00 0.00 0.00 0.00 0.00 0.00 0.00 0.00 0.00 0.00 0.00 0.00 0.00 0.00 0.00 0.00 0.01 0.00 0.00 0.01 0.00 0.00 0.00 0.00 0.00 0.00 0.04 0.20 0.16 0.16 0.16 0.07 0.05 0.03 0.09 0.05 0.02 0.00 0.00
0.00 0.00 0.00 0.00 0.00 0.00 0.00 0.01 0.00 0.00 0.00 0.00 0.00 0.00 0.00 0.00 0.00 0.00 0.00 0.00 0.00 0.00 0.00 0.00 0.00 0.00 0.01 0.03 0.01 0.01 0.00 0.00 0.00 0.00 0.00 0.04 0.20 0.23 0.13 0.16 0.13 0.06 0.07 0.07 0.07 0.05 0.04 0.00 0.00
0.00 0.00 0.00 0.00 0.00 0.00 0.00 0.00 0.00 0.00 0.00 0.00 0.00 0.00 0.00 0.00 0.00 0.00 0.00 0.00 0.00 0.00 0.00 0.00 0.00 0.00 0.00 0.01 0.04 0.00 0.00 0.00 0.01 0.05 0.08 0.22 0.20 0.17 0.14 0.22 0.20 0.10 0.06 0.07 0.05 0.08 0.05 0.00 0.00
0.00 0.00 0.00 0.00 0.00 0.00 0.00 0.03 0.02 0.00 0.00 0.00 0.00 0.00 0.00 0.00 0.00 0.00 0.00 0.00 0.00 0.00 0.00 0.00 0.00 0.00 0.00 0.01 0.05 0.04 0.08 0.15 0.13 0.07 0.09 0.12 0.11 0.13 0.20 0.15 0.12 0.10 0.07 0.14 0.09 0.03 0.01 0.00 0.00
0.00 0.00 0.00 0.00 0.00 0.00 0.00 0.09 0.08 0.00 0.00 0.00 0.00 0.00 0.00 0.00 0.00 0.00 0.00 0.00 0.00 0.00 0.00 0.00 0.00 0.03 0.13 0.24 0.24 0.16 0.11 0.09 0.02 0.00 0.06 0.08 0.18 0.08 0.14 0.11 0.09 0.06 0.11 0.07 0.09 0.02 0.00 0.00 0.00
0.00 0.00 0.00 0.00 0.00 0.00 0.00 0.03 0.12 0.00 0.00 0.00 0.00 0.00 0.00 0.00 0.00 0.00 0.00 0.00 0.00 0.00 0.00 0.00 0.00 0.04 0.13 0.11 0.07 0.02 0.02 0.00 0.01 0.04 0.09 0.10 0.08 0.10 0.13 0.08 0.09 0.05 0.03 0.01 0.01 0.00 0.00 0.00 0.00
0.00 0.00 0.00 0.00 0.00 0.00 0.00 0.00 0.00 0.00 0.00 0.00 0.00 0.00 0.00 0.00 0.00 0.00 0.00 0.00 0.00 0.00 0.00 0.00 0.00 0.00 0.08 0.02 0.02 0.02 0.01 0.00 0.01 0.01 0.04 0.02 0.01 0.05 0.06 0.06 0.03 0.01 0.01 0.00 0.00 0.00 0.00 0.00 0.00
0.00 0.00 0.00 0.00 0.00 0.00 0.00 0.00 0.00 0.00 0.00 0.00 0.00 0.00 0.00 0.00 0.00 0.00 0.00 0.00 0.00 0.00 0.00 0.00 0.00 0.00 0.06 0.04 0.05 0.08 0.07 0.03 0.02 0.01 0.02 0.02 0.02 0.04 0.05 0.05 0.02 0.01 0.00 0.00 0.00 0.00 0.00 0.01 0.01
0.00 0.00 0.00 0.00 0.00 0.00 0.00 0.00 0.00 0.02 0.08 0.01 0.00 0.00 0.00 0.00 0.00 0.00 0.00 0.00 0.00 0.00 0.00 0.00 0.00 0.00 0.01 0.04 0.01 0.05 0.01 0.00 0.00 0.00 0.00 0.01 0.01 0.01 0.00 0.00 0.00 0.00 0.00 0.00 0.00 0.00 0.00 0.00 0.00
0.00 0.00 0.00 0.00 0.00 0.00 0.00 0.00 0.00 0.00 0.02 0.01 0.00 0.00 0.00 0.00 0.00 0.00 0.00 0.00 0.00 0.00 0.00 0.00 0.00 0.00 0.00 0.02 0.01 0.03 0.01 0.00 0.00 0.00 0.00 0.01 0.02 0.00 0.00 0.00 0.00 0.00 0.00 0.00 0.00 0.00 0.00 0.00 0.00
0.00 0.00 0.00 0.00 0.00 0.00 0.00 0.01 0.00 0.00 0.00 0.00 0.01 0.00 0.00 0.00 0.00 0.00 0.00 0.00 0.00 0.00 0.00 0.00 0.00 0.00 0.00 0.01 0.00 0.02 0.01 0.00 0.00 0.00 0.00 0.00 0.00 0.00 0.00 0.00 0.00 0.00 0.00 0.00 0.00 0.00 0.00 0.00 0.00
0.00 0.00 0.00 0.00 0.00 0.00 0.00 0.00 0.00 0.00 0.00 0.00 0.01 0.01 0.00 0.00 0.00 0.00 0.00 0.00 0.00 0.00 0.00 0.00 0.00 0.00 0.00 0.00 0.00 0.00 0.01 0.00 0.00 0.00 0.00 0.00 0.00 0.00 0.00 0.00 0.00 0.00 0.00 0.00 0.00 0.00 0.00 0.00 0.00
0.00 0.00 0.00 0.00 0.00 0.00 0.00 0.00 0.00 0.00 0.00 0.00 0.00 0.00 0.00 0.00 0.00 0.00 0.00 0.00 0.00 0.00 0.00 0.00 0.00 0.00 0.00 0.00 0.00 0.00 0.00 0.00 0.00 0.00 0.00 0.00 0.00 0.00 0.00 0.00 0.00 0.00 0.00 0.00 0.00 0.00 0.00 0.00 0.00
0.00 0.00 0.00 0.00 0.00 0.00 0.00 0.00 0.00 0.00 0.00 0.00 0.00 0.00 0.00 0.00 0.00 0.00 0.00 0.00 0.00 0.00 0.00 0.00 0.00 0.00 0.00 0.00 0.00 0.00 0.00 0.00 0.00 0.00 0.00 0.00 0.00 0.00 0.00 0.00 0.00 0.00 0.00 0.00 0.00 0.00 0.00 0.00 0.00
0.00 0.00 0.00 0.00 0.00 0.00 0.00 0.00 0.00 0.00 0.00 0.00 0.00 0.00 0.00 0.00 0.00 0.00 0.00 0.00 0.00 0.00 0.00 0.00 0.00 0.00 0.00 0.00 0.00 0.00 0.00 0.00 0.00 0.00 0.00 0.00 0.00 0.00 0.00 0.00 0.00 0.00 0.00 0.00 0.00 0.00 0.00 0.00 0.00
0.00 0.00 0.00 0.00 0.00 0.00 0.00 0.00 0.00 0.00 0.00 0.00 0.00 0.00 0.00 0.00 0.00 0.00 0.00 0.00 0.00 0.00 0.00 0.00 0.00 0.00 0.00 0.00 0.00 0.00 0.00 0.00 0.00 0.00 0.00 0.00 0.00 0.00 0.00 0.00 0.00 0.00 0.00 0.00 0.00 0.00 0.00 0.00 0.00
0.00 0.00 0.00 0.00 0.00 0.00 0.00 0.00 0.00 0.00 0.00 0.00 0.00 0.00 0.00 0.00 0.00 0.00 0.00 0.00 0.00 0.00 0.00 0.00 0.00 0.00 0.00 0.00 0.00 0.00 0.00 0.00 0.00 0.01 0.01 0.00 0.00 0.00 0.00 0.00 0.00 0.00 0.00 0.00 0.00 0.00 0.00 0.00 0.00

GFSSGP_prec_precacc_030.txt.gz
Total_Precipitation_Accumulation
0.01 0.03 0.16 0.49 0.94 0.41 0.49 0.33 0.10 0.08 0.03 0.00 0.00 0.01 0.08 0.13 0.19 0.21 0.12 0.09 0.01 0.05 0.13 0.60 0.95 0.63 0.30 0.15 0.16 0.06 0.01 0.01 0.01 0.01 0.01 0.00 0.00 0.00 0.00 0.00 0.01 0.00 0.01 0.05 0.05 0.03 0.01 0.04 0.09
0.01 0.12 0.67 1.82 0.87 0.37 0.28 0.17 0.11 0.02 0.02 0.01 0.01 0.03 0.00 0.01 0.01 0.04 0.11 0.06 0.00 0.00 0.02 0.29 0.77 0.25 0.16 0.09 0.08 0.05 0.02 0.01 0.02 0.01 0.00 0.00 0.00 0.00 0.00 0.00 0.01 0.01 0.04 0.05 0.07 0.06 0.05 0.09 0.13
0.04 0.62 1.75 1.25 0.29 0.27 0.11 0.07 0.05 0.05 0.10 0.04 0.05 0.08 0.00 0.01 0.01 0.00 0.00 0.00 0.01 0.00 0.02 0.19 0.31 0.16 0.09 0.11 0.06 0.05 0.04 0.01 0.00 0.00 0.00 0.00 0.00 0.00 0.00 0.00 0.02 0.02 0.01 0.01 0.02 0.01 0.03 0.11 0.08
0.26 1.27 1.74 1.11 0.13 0.05 0.01 0.05 0.03 0.10 0.16 0.05 0.02 0.00 0.00 0.00 0.00 0.00 0.00 0.00 0.00 0.01 0.04 0.15 0.16 0.09 0.14 0.12 0.07 0.02 0.01 0.00 0.01 0.01 0.00 0.00 0.00 0.00 0.00 0.01 0.04 0.04 0.01 0.00 0.00 0.00 0.00 0.06 0.15
0.39 0.44 0.59 0.64 0.02 0.03 0.01 0.04 0.07 0.03 0.04 0.02 0.00 0.00 0.02 0.02 0.00 0.00 0.00 0.00 0.00 0.01 0.03 0.04 0.15 0.10 0.10 0.07 0.03 0.02 0.01 0.00 0.00 0.00 0.00 0.00 0.00 0.00 0.00 0.03 0.03 0.03 0.00 0.00 0.00 0.00 0.00 0.00 0.05
1.03 0.15 0.14 0.03 0.03 0.01 0.03 0.06 0.05 0.01 0.02 0.01 0.00 0.00 0.03 0.01 0.00 0.00 0.00 0.00 0.01 0.01 0.02 0.03 0.09 0.13 0.07 0.03 0.01 0.01 0.00 0.00 0.00 0.01 0.00 0.00 0.05 0.01 0.03 0.03 0.04 0.01 0.00 0.01 0.02 0.02 0.01 0.01 0.04
0.14 0.01 0.02 0.01 0.03 0.00 0.02 0.02 0.01 0.00 0.00 0.01 0.00 0.00 0.02 0.01 0.00 0.00 0.00 0.00 0.02 0.02 0.01 0.04 0.07 0.09 0.05 0.03 0.01 0.01 0.00 0.00 0.00 0.00 0.00 0.03 0.07 0.10 0.09 0.12 0.09 0.05 0.04 0.06 0.13 0.10 0.05 0.03 0.08
0.04 0.01 0.08 0.06 0.02 0.01 0.02 0.01 0.00 0.00 0.00 0.00 0.02 0.00 0.00 0.00 0.00 0.00 0.00 0.00 0.02 0.02 0.02 0.04 0.08 0.11 0.05 0.01 0.02 0.03 0.02 0.01 0.02 0.01 0.03 0.04 0.03 0.04 0.05 0.11 0.08 0.04 0.09 0.15 0.11 0.12 0.06 0.10 0.08
0.14 0.01 0.07 0.01 0.00 0.00 0.00 0.00 0.00 0.00 0.00 0.02 0.05 0.01 0.00 0.00 0.00 0.00 0.00 0.01 0.03 0.03 0.03 0.03 0.01 0.05 0.05 0.02 0.03 0.03 0.01 0.01 0.02 0.02 0.01 0.03 0.05 0.05 0.07 0.17 0.10 0.02 0.04 0.06 0.06 0.08 0.13 0.15 0.08
0.03 0.02 0.01 0.00 0.00 0.00 0.00 0.00 0.00 0.00 0.00 0.00 0.00 0.00 0.00 0.00 0.00 0.00 0.00 0.00 0.01 0.01 0.01 0.02 0.01 0.02 0.01 0.02 0.02 0.02 0.00 0.00 0.00 0.00 0.01 0.01 0.10 0.07 0.10 0.16 0.06 0.08 0.07 0.10 0.11 0.13 0.11 0.04 0.00
0.00 0.02 0.00 0.00 0.00 0.01 0.00 0.00 0.00 0.00 0.00 0.00 0.00 0.00 0.00 0.00 0.00 0.00 0.00 0.00 0.00 0.00 0.00 0.00 0.00 0.00 0.00 0.02 0.04 0.04 0.01 0.00 0.00 0.00 0.00 0.02 0.07 0.16 0.21 0.22 0.22 0.14 0.48 0.52 0.11 0.07 0.02 0.01 0.00
0.00 0.00 0.00 0.00 0.00 0.00 0.00 0.00 0.00 0.00 0.00 0.00 0.00 0.00 0.00 0.00 0.00 0.00 0.00 0.00 0.00 0.00 0.00 0.00 0.00 0.01 0.02 0.02 0.02 0.05 0.01 0.01 0.00 0.00 0.00 0.00 0.05 0.06 0.13 0.28 0.14 0.35 0.20 0.41 0.12 0.08 0.04 0.00 0.00
0.00 0.00 0.00 0.00 0.00 0.00 0.01 0.00 0.00 0.00 0.00 0.00 0.00 0.00 0.00 0.00 0.00 0.00 0.00 0.00 0.00 0.00 0.00 0.00 0.00 0.00 0.01 0.00 0.00 0.00 0.01 0.00 0.00 0.00 0.00 0.01 0.02 0.14 0.16 0.16 0.16 0.16 0.10 0.07 0.07 0.12 0.07 0.05 0.00
0.00 0.00 0.00 0.00 0.00 0.00 0.00 0.00 0.00 0.00 0.00 0.00 0.00 0.00 0.00 0.00 0.00 0.00 0.00 0.00 0.00 0.00 0.00 0.00 0.00 0.00 0.01 0.00 0.00 0.01 0.00 0.00 0.00 0.00 0.00 0.00 0.04 0.20 0.16 0.16 0.16 0.07 0.05 0.04 0.16 0.13 0.06 0.00 0.00
0.00 0.00 0.00 0.00 0.00 0.00 0.00 0.01 0.00 0.00 0.00 0.00 0.00 0.00 0.00 0.00 0.00 0.00 0.00 0.00 0.00 0.00 0.00 0.00 0.00 0.00 0.01 0.03 0.01 0.01 0.00 0.00 0.00 0.00 0.00 0.04 0.20 0.23 0.14 0.23 0.16 0.06 0.09 0.15 0.12 0.11 0.06 0.00 0.00
0.00 0.00 0.00 0.00 0.00 0.00 0.00 0.00 0.00 0.00 0.00 0.00 0.00 0.00 0.00 0.00 0.00 0.00 0.00 0.00 0.00 0.00 0.00 0.00 0.00 0.00 0.00 0.01 0.04 0.00 0.00 0.00 0.01 0.05 0.08 0.22 0.20 0.17 0.15 0.35 0.29 0.11 0.09 0.13 0.08 0.12 0.07 0.00 0.00
0.00 0.00 0.00 0.00 0.00 0.00 0.00 0.03 0.02 0.00 0.00 0.00 0.00 0.00 0.00 0.00 0.00 0.00 0.00 0.00 0.00 0.00 0.00 0.00 0.00 0.00 0.00 0.01 0.05 0.04 0.08 0.15 0.13 0.07 0.09 0.12 0.11 0.13 0.20 0.18 0.15 0.10 0.07 0.17 0.13 0.06 0.02 0.00 0.00
0.00 0.00 0.00 0.00 0.00 0.00 0.00 0.09 0.08 0.00 0.00 0.00 0.00 0.00 0.00 0.00 0.00 0.00 0.00 0.00 0.00 0.00 0.00 0.00 0.00 0.03 0.13 0.24 0.24 0.16 0.11 0.09 0.02 0.00 0.06 0.08 0.18 0.08 0.14 0.12 0.18 0.08 0.11 0.09 0.13 0.05 0.00 0.00 0.00
0.00 0.00 0.00 0.00 0.00 0.00 0.00 0.03 0.12 0.00 0.00 0.00 0.00 0.00 0.00 0.00 0.00 0.00 0.00 0.00 0.00 0.00 0.00 0.00 0.00 0.04 0.13 0.11 0.07 0.02 0.02 0.00 0.01 0.04 0.09 0.10 0.08 0.10 0.14 0.10 0.15 0.06 0.04 0.08 0.05 0.02 0.00 0.00 0.00
0.00 0.00 0.00 0.00 0.00 0.00 0.00 0.00 0.00 0.00 0.00 0.00 0.00 0.00 0.00 0.00 0.00 0.00 0.00 0.00 0.00 0.00 0.00 0.00 0.00 0.00 0.08 0.02 0.02 0.02 0.01 0.00 0.01 0.01 0.04 0.02 0.01 0.05 0.07 0.10 0.09 0.04 0.02 0.03 0.03 0.03 0.01 0.00 0.00
0.00 0.00 0.00 0.00 0.00 0.00 0.00 0.00 0.00 0.00 0.00 0.00 0.00 0.00 0.00 0.00 0.00 0.00 0.00 0.00 0.00 0.00 0.00 0.00 0.00 0.00 0.06 0.04 0.05 0.08 0.07 0.03 0.02 0.01 0.02 0.02 0.02 0.04 0.05 0.13 0.05 0.03 0.01 0.03 0.04 0.01 0.00 0.01 0.01
0.00 0.00 0.00 0.00 0.00 0.00 0.00 0.00 0.00 0.02 0.08 0.01 0.00 0.00 0.00 0.00 0.00 0.00 0.00 0.00 0.00 0.00 0.00 0.00 0.00 0.00 0.01 0.04 0.01 0.05 0.01 0.00 0.00 0.00 0.00 0.01 0.01 0.01 0.00 0.03 0.02 0.00 0.00 0.02 0.04 0.00 0.00 0.00 0.00
0.00 0.00 0.00 0.00 0.00 0.00 0.00 0.00 0.00 0.00 0.02 0.01 0.00 0.00 0.00 0.00 0.00 0.00 0.00 0.00 0.00 0.00 0.00 0.00 0.00 0.00 0.00 0.02 0.01 0.03 0.01 0.00 0.00 0.00 0.00 0.01 0.02 0.00 0.00 0.00 0.00 0.00 0.00 0.00 0.00 0.00 0.00 0.00 0.00
0.00 0.00 0.00 0.00 0.00 0.00 0.00 0.01 0.00 0.00 0.00 0.00 0.01 0.00 0.00 0.00 0.00 0.00 0.00 0.00 0.00 0.00 0.00 0.00 0.00 0.00 0.00 0.01 0.00 0.02 0.01 0.00 0.00 0.00 0.00 0.00 0.00 0.00 0.00 0.00 0.00 0.00 0.00 0.00 0.00 0.00 0.00 0.00 0.00
0.00 0.00 0.00 0.00 0.00 0.00 0.00 0.00 0.00 0.00 0.00 0.00 0.01 0.01 0.00 0.00 0.00 0.00 0.00 0.00 0.00 0.00 0.00 0.00 0.00 0.00 0.00 0.00 0.00 0.00 0.01 0.00 0.00 0.00 0.00 0.00 0.00 0.00 0.00 0.00 0.00 0.00 0.00 0.00 0.00 0.00 0.00 0.00 0.00
0.00 0.00 0.00 0.00 0.00 0.00 0.00 0.00 0.00 0.00 0.00 0.00 0.00 0.00 0.00 0.00 0.00 0.00 0.00 0.00 0.00 0.00 0.00 0.00 0.00 0.00 0.00 0.00 0.00 0.00 0.00 0.00 0.00 0.00 0.00 0.00 0.00 0.00 0.00 0.00 0.00 0.00 0.00 0.00 0.00 0.00 0.00 0.00 0.00
0.00 0.00 0.00 0.00 0.00 0.00 0.00 0.00 0.00 0.00 0.00 0.00 0.00 0.00 0.00 0.00 0.00 0.00 0.00 0.00 0.00 0.00 0.00 0.00 0.00 0.00 0.00 0.00 0.00 0.00 0.00 0.00 0.00 0.00 0.00 0.00 0.00 0.00 0.00 0.00 0.00 0.00 0.00 0.00 0.00 0.00 0.00 0.00 0.00
0.00 0.00 0.00 0.00 0.00 0.00 0.00 0.00 0.00 0.00 0.00 0.00 0.00 0.00 0.00 0.00 0.00 0.00 0.00 0.00 0.00 0.00 0.00 0.00 0.00 0.00 0.00 0.00 0.00 0.00 0.00 0.00 0.00 0.00 0.00 0.00 0.00 0.00 0.00 0.00 0.00 0.00 0.00 0.00 0.00 0.00 0.00 0.00 0.00
0.00 0.00 0.00 0.00 0.00 0.00 0.00 0.00 0.00 0.00 0.00 0.00 0.00 0.00 0.00 0.00 0.00 0.00 0.00 0.00 0.00 0.00 0.00 0.00 0.00 0.00 0.00 0.00 0.00 0.00 0.00 0.00 0.00 0.00 0.00 0.00 0.00 0.00 0.00 0.00 0.00 0.00 0.00 0.00 0.00 0.00 0.00 0.00 0.00
0.00 0.00 0.00 0.00 0.00 0.00 0.00 0.00 0.00 0.00 0.00 0.00 0.00 0.00 0.00 0.00 0.00 0.00 0.00 0.00 0.00 0.00 0.00 0.00 0.00 0.00 0.00 0.00 0.00 0.00 0.00 0.00 0.00 0.01 0.01 0.00 0.00 0.00 0.00 0.00 0.00 0.00 0.00 0.00 0.00 0.00 0.00 0.00 0.00

GFSSGP_prec_precacc_033.txt.gz
Total_Precipitation_Accumulation
0.01 0.03 0.27 0.61 1.01 0.52 0.61 0.37 0.11 0.09 0.03 0.00 0.00 0.02 0.12 0.17 0.27 0.27 0.18 0.13 0.02 0.09 0.18 0.61 0.97 0.63 0.30 0.16 0.16 0.06 0.01 0.01 0.01 0.01 0.01 0.00 0.01 0.00 0.00 0.01 0.02 0.01 0.01 0.06 0.05 0.03 0.01 0.04 0.09
0.01 0.13 0.76 1.89 1.08 0.54 0.33 0.20 0.13 0.04 0.02 0.02 0.01 0.04 0.01 0.01 0.01 0.06 0.15 0.07 0.00 0.01 0.04 0.30 0.79 0.27 0.16 0.10 0.08 0.05 0.02 0.01 0.02 0.01 0.00 0.01 0.01 0.00 0.00 0.01 0.01 0.01 0.04 0.05 0.07 0.06 0.05 0.09 0.13
0.04 0.62 1.77 1.32 0.38 0.38 0.16 0.09 0.05 0.05 0.10 0.05 0.05 0.10 0.01 0.01 0.01 0.03 0.02 0.00 0.02 0.02 0.03 0.21 0.33 0.17 0.09 0.11 0.06 0.05 0.04 0.01 0.00 0.00 0.00 0.00 0.00 0.00 0.00 0.00 0.02 0.02 0.01 0.01 0.02 0.01 0.03 0.11 0.08
0.26 1.28 1.76 1.25 0.19 0.05 0.03 0.07 0.03 0.10 0.16 0.05 0.03 0.00 0.00 0.00 0.01 0.01 0.00 0.01 0.03 0.01 0.05 0.16 0.17 0.11 0.14 0.12 0.07 0.02 0.01 0.00 0.01 0.01 0.00 0.00 0.00 0.00 0.00 0.01 0.04 0.04 0.01 0.00 0.00 0.00 0.00 0.06 0.15
0.39 0.45 0.73 0.73 0.02 0.03 0.02 0.04 0.07 0.04 0.04 0.02 0.00 0.00 0.02 0.03 0.00 0.00 0.00 0.01 0.01 0.02 0.03 0.05 0.18 0.12 0.11 0.07 0.03 0.02 0.01 0.00 0.00 0.00 0.00 0.00 0.00 0.00 0.00 0.03 0.03 0.03 0.00 0.00 0.00 0.00 0.00 0.00 0.05
1.05 0.23 0.29 0.03 0.03 0.01 0.03 0.06 0.06 0.01 0.02 0.01 0.00 0.00 0.05 0.02 0.00 0.00 0.00 0.01 0.02 0.02 0.02 0.03 0.10 0.13 0.07 0.03 0.01 0.01 0.00 0.00 0.00 0.01 0.00 0.00 0.05 0.01 0.03 0.03 0.04 0.01 0.00 0.01 0.02 0.02 0.01 0.01 0.04
0.14 0.11 0.08 0.01 0.03 0.00 0.02 0.02 0.02 0.00 0.00 0.01 0.00 0.00 0.03 0.02 0.00 0.00 0.00 0.00 0.02 0.02 0.01 0.04 0.07 0.09 0.06 0.03 0.01 0.01 0.00 0.00 0.00 0.00 0.00 0.03 0.07 0.10 0.09 0.12 0.09 0.05 0.04 0.06 0.13 0.10 0.05 0.03 0.08
0.04 0.02 0.08 0.06 0.04 0.01 0.02 0.01 0.00 0.00 0.00 0.00 0.02 0.00 0.01 0.01 0.00 0.00 0.00 0.00 0.02 0.02 0.02 0.04 0.08 0.11 0.05 0.01 0.02 0.03 0.02 0.01 0.02 0.01 0.03 0.04 0.03 0.04 0.05 0.11 0.08 0.04 0.09 0.15 0.11 0.12 0.06 0.10 0.08
0.14 0.02 0.08 0.01 0.01 0.00 0.00 0.00 0.00 0.00 0.00 0.02 0.05 0.01 0.00 0.00 0.00 0.00 0.00 0.01 0.03 0.03 0.03 0.03 0.01 0.05 0.05 0.02 0.03 0.03 0.01 0.01 0.02 0.02 0.01 0.12 0.10 0.09 0.08 0.18 0.10 0.02 0.04 0.06 0.06 0.08 0.13 0.15 0.08
0.03 0.20 0.03 0.00 0.00 0.00 0.00 0.00 0.00 0.00 0.00 0.00 0.00 0.00 0.00 0.00 0.00 0.00 0.00 0.00 0.01 0.01 0.01 0.02 0.01 0.02 0.01 0.02 0.02 0.02 0.00 0.00 0.00 0.01 0.01 0.18 0.11 0.08 0.11 0.16 0.06 0.08 0.07 0.10 0.11 0.13 0.12 0.04 0.00
0.00 0.11 0.02 0.00 0.00 0.01 0.00 0.00 0.00 0.00 0.00 0.00 0.00 0.00 0.00 0.00 0.00 0.00 0.00 0.00 0.00 0.00 0.00 0.00 0.00 0.00 0.00 0.02 0.04 0.04 0.01 0.00 0.00 0.00 0.03 0.13 0.08 0.17 0.31 0.23 0.22 0.14 0.48 0.53 0.21 0.14 0.03 0.01 0.00
0.00 0.00 0.00 0.00 0.00 0.00 0.00 0.00 0.00 0.00 0.00 0.00 0.00 0.00 0.00 0.00 0.00 0.00 0.00 0.00 0.00 0.00 0.00 0.00 0.00 0.01 0.02 0.02 0.02 0.05 0.01 0.01 0.00 0.00 0.00 0.00 0.09 0.07 0.16 0.29 0.14 0.35 0.20 0.41 0.20 0.14 0.04 0.01 0.00
0.00 0.00 0.00 0.00 0.00 0.00 0.01 0.00 0.00 0.00 0.00 0.00 0.00 0.00 0.00 0.00 0.00 0.00 0.00 0.00 0.00 0.00 0.00 0.00 0.00 0.00 0.01 0.00 0.00 0.00 0.01 0.00 0.00 0.00 0.00 0.01 0.03 0.14 0.16 0.16 0.16 0.16 0.11 0.08 0.07 0.12 0.07 0.05 0.00
0.00 0.00 0.00 0.00 0.00 0.00 0.00 0.00 0.00 0.00 0.00 0.00 0.00 0.00 0.00 0.00 0.00 0.00 0.00 0.00 0.00 0.00 0.00 0.00 0.00 0.00 0.01 0.00 0.00 0.01 0.00 0.00 0.00 0.00 0.00 0.00 0.04 0.20 0.16 0.16 0.16 0.08 0.06 0.06 0.16 0.13 0.07 0.00 0.00
0.00 0.00 0.00 0.00 0.00 0.00 0.00 0.01 0.00 0.00 0.00 0.00 0.00 0.00 0.00 0.00 0.00 0.00 0.00 0.00 0.00 0.00 0.00 0.00 0.00 0.00 0.01 0.03 0.01 0.01 0.00 0.00 0.00 0.00 0.00 0.04 0.20 0.23 0.16 0.24 0.16 0.06 0.09 0.15 0.12 0.11 0.07 0.00 0.00
0.00 0.00 0.00 0.00 0.00 0.00 0.00 0.00 0.00 0.00 0.00 0.00 0.00 0.00 0.00 0.00 0.00 0.00 0.00 0.00 0.00 0.00 0.00 0.00 0.00 0.00 0.00 0.01 0.04 0.00 0.00 0.00 0.01 0.05 0.08 0.22 0.20 0.17 0.19 0.37 0.29 0.11 0.09 0.13 0.09 0.12 0.07 0.00 0.00
0.00 0.00 0.00 0.00 0.00 0.00 0.00 0.03 0.02 0.00 0.00 0.00 0.00 0.00 0.00 0.00 0.00 0.00 0.00 0.00 0.00 0.00 0.00 0.00 0.00 0.00 0.00 0.01 0.05 0.04 0.08 0.15 0.13 0.07 0.09 0.12 0.11 0.13 0.21 0.27 0.22 0.10 0.07 0.17 0.13 0.06 0.02 0.00 0.00
0.00 0.00 0.00 0.00 0.00 0.00 0.00 0.09 0.08 0.00 0.00 0.00 0.00 0.00 0.00 0.00 0.00 0.00 0.00 0.00 0.00 0.00 0.00 0.00 0.00 0.03 0.13 0.24 0.24 0.16 0.11 0.09 0.02 0.00 0.06 0.08 0.18 0.08 0.14 0.13 0.20 0.08 0.11 0.10 0.13 0.05 0.00 0.00 0.00
0.00 0.00 0.00 0.00 0.00 0.00 0.00 0.03 0.12 0.00 0.00 0.00 0.00 0.00 0.00 0.00 0.00 0.00 0.00 0.00 0.00 0.00 0.00 0.00 0.00 0.04 0.13 0.11 0.07 0.02 0.02 0.00 0.01 0.04 0.09 0.10 0.08 0.10 0.16 0.11 0.16 0.06 0.04 0.08 0.05 0.02 0.00 0.00 0.00
0.00 0.00 0.00 0.00 0.00 0.00 0.00 0.00 0.00 0.00 0.00 0.00 0.00 0.00 0.00 0.00 0.00 0.00 0.00 0.00 0.00 0.00 0.00 0.00 0.00 0.00 0.08 0.02 0.02 0.02 0.01 0.00 0.01 0.01 0.04 0.02 0.01 0.05 0.07 0.15 0.12 0.05 0.06 0.05 0.06 0.03 0.01 0.00 0.00
0.00 0.00 0.00 0.00 0.00 0.00 0.00 0.00 0.00 0.00 0.00 0.00 0.00 0.00 0.00 0.00 0.00 0.00 0.00 0.00 0.00 0.00 0.00 0.00 0.00 0.00 0.06 0.04 0.05 0.08 0.07 0.03 0.02 0.01 0.02 0.02 0.02 0.04 0.09 0.18 0.05 0.03 0.01 0.09 0.05 0.01 0.00 0.01 0.01
0.00 0.00 0.00 0.00 0.00 0.00 0.00 0.00 0.00 0.02 0.08 0.01 0.00 0.00 0.00 0.00 0.00 0.00 0.00 0.00 0.00 0.00 0.00 0.00 0.00 0.00 0.01 0.04 0.01 0.05 0.01 0.00 0.00 0.00 0.00 0.01 0.01 0.01 0.02 0.07 0.03 0.01 0.00 0.08 0.08 0.00 0.00 0.00 0.00
0.00 0.00 0.00 0.00 0.00 0.00 0.00 0.00 0.00 0.00 0.02 0.01 0.00 0.00 0.00 0.00 0.00 0.00 0.00 0.00 0.00 0.00 0.00 0.00 0.00 0.00 0.00 0.02 0.01 0.03 0.01 0.00 0.00 0.00 0.00 0.01 0.03 0.00 0.00 0.00 0.02 0.01 0.00 0.02 0.08 0.02 0.00 0.00 0.00
0.00 0.00 0.00 0.00 0.00 0.00 0.00 0.01 0.00 0.00 0.00 0.00 0.01 0.00 0.00 0.00 0.00 0.00 0.00 0.00 0.00 0.00 0.00 0.00 0.00 0.00 0.00 0.01 0.00 0.02 0.01 0.00 0.00 0.00 0.00 0.00 0.00 0.00 0.00 0.00 0.02 0.02 0.00 0.00 0.01 0.00 0.00 0.00 0.00
0.00 0.00 0.00 0.00 0.00 0.00 0.00 0.00 0.00 0.00 0.00 0.00 0.01 0.01 0.00 0.00 0.00 0.00 0.00 0.00 0.00 0.00 0.00 0.00 0.00 0.00 0.00 0.00 0.00 0.00 0.01 0.00 0.00 0.00 0.00 0.00 0.00 0.00 0.00 0.00 0.02 0.00 0.00 0.00 0.00 0.00 0.00 0.00 0.00
0.00 0.00 0.00 0.00 0.00 0.00 0.00 0.00 0.00 0.00 0.00 0.00 0.00 0.00 0.00 0.00 0.00 0.00 0.00 0.00 0.00 0.00 0.00 0.00 0.00 0.00 0.00 0.00 0.00 0.00 0.00 0.00 0.00 0.00 0.00 0.00 0.00 0.00 0.00 0.00 0.00 0.00 0.00 0.00 0.00 0.00 0.00 0.00 0.00
0.00 0.00 0.00 0.00 0.00 0.00 0.00 0.00 0.00 0.00 0.00 0.00 0.00 0.00 0.00 0.00 0.00 0.00 0.00 0.00 0.00 0.00 0.00 0.00 0.00 0.00 0.00 0.00 0.00 0.00 0.00 0.00 0.00 0.00 0.00 0.00 0.00 0.00 0.00 0.00 0.00 0.00 0.00 0.00 0.00 0.00 0.00 0.00 0.00
0.00 0.00 0.00 0.00 0.00 0.00 0.00 0.00 0.00 0.00 0.00 0.00 0.00 0.00 0.00 0.00 0.00 0.00 0.00 0.00 0.00 0.00 0.00 0.00 0.00 0.00 0.00 0.00 0.00 0.00 0.00 0.00 0.00 0.00 0.00 0.00 0.00 0.00 0.00 0.00 0.00 0.00 0.00 0.00 0.00 0.00 0.00 0.00 0.00
0.00 0.00 0.00 0.00 0.00 0.00 0.00 0.00 0.00 0.00 0.00 0.00 0.00 0.00 0.00 0.00 0.00 0.00 0.00 0.00 0.00 0.00 0.00 0.00 0.00 0.00 0.00 0.00 0.00 0.00 0.00 0.00 0.00 0.00 0.00 0.00 0.00 0.00 0.00 0.00 0.00 0.00 0.00 0.00 0.00 0.00 0.00 0.00 0.00
0.00 0.00 0.00 0.00 0.00 0.00 0.00 0.00 0.00 0.00 0.00 0.00 0.00 0.00 0.00 0.00 0.00 0.00 0.00 0.00 0.00 0.00 0.00 0.00 0.00 0.00 0.00 0.00 0.00 0.00 0.00 0.00 0.00 0.01 0.01 0.00 0.00 0.00 0.00 0.00 0.00 0.00 0.00 0.00 0.00 0.00 0.00 0.00 0.00

GFSSGP_prec_precacc_036.txt.gz
Total_Precipitation_Accumulation
0.01 0.04 0.33 0.70 1.10 0.60 0.88 0.49 0.15 0.12 0.05 0.00 0.01 0.03 0.21 0.21 0.32 0.28 0.18 0.13 0.02 0.09 0.18 0.61 0.98 0.66 0.30 0.17 0.17 0.07 0.01 0.01 0.01 0.01 0.01 0.01 0.01 0.00 0.00 0.01 0.02 0.01 0.02 0.06 0.05 0.03 0.01 0.04 0.09
0.01 0.17 0.92 2.05 1.61 0.84 0.42 0.22 0.14 0.05 0.03 0.02 0.02 0.06 0.01 0.01 0.01 0.07 0.15 0.07 0.00 0.01 0.04 0.30 0.80 0.29 0.18 0.11 0.09 0.05 0.02 0.01 0.02 0.01 0.01 0.01 0.01 0.00 0.00 0.01 0.01 0.01 0.04 0.05 0.07 0.06 0.05 0.09 0.13
0.04 0.65 1.90 1.49 0.62 0.55 0.20 0.12 0.07 0.05 0.10 0.05 0.05 0.11 0.01 0.01 0.02 0.04 0.02 0.00 0.02 0.02 0.03 0.21 0.33 0.19 0.13 0.13 0.06 0.05 0.04 0.01 0.01 0.00 0.00 0.00 0.00 0.00 0.00 0.00 0.02 0.02 0.01 0.01 0.02 0.01 0.03 0.11 0.08
0.26 1.31 1.78 1.36 0.30 0.08 0.06 0.14 0.04 0.11 0.16 0.05 0.03 0.00 0.00 0.01 0.01 0.01 0.00 0.01 0.03 0.02 0.05 0.16 0.17 0.11 0.15 0.12 0.07 0.02 0.01 0.00 0.01 0.01 0.00 0.00 0.00 0.00 0.00 0.01 0.04 0.04 0.01 0.00 0.00 0.00 0.00 0.06 0.15
0.43 0.56 1.05 1.08 0.08 0.06 0.04 0.04 0.07 0.04 0.05 0.03 0.00 0.00 0.03 0.03 0.00 0.00 0.00 0.01 0.01 0.02 0.05 0.05 0.19 0.13 0.11 0.07 0.03 0.02 0.01 0.00 0.00 0.00 0.00 0.00 0.00 0.00 0.00 0.03 0.03 0.03 0.00 0.00 0.00 0.00 0.00 0.00 0.05
1.17 0.95 0.56 0.12 0.04 0.02 0.03 0.06 0.06 0.04 0.02 0.01 0.00 0.00 0.06 0.02 0.00 0.00 0.01 0.01 0.04 0.02 0.02 0.03 0.10 0.14 0.07 0.03 0.01 0.01 0.00 0.00 0.00 0.01 0.00 0.00 0.05 0.01 0.03 0.03 0.04 0.01 0.00 0.01 0.02 0.02 0.01 0.01 0.04
0.25 1.75 0.31 0.03 0.03 0.00 0.02 0.03 0.04 0.00 0.00 0.01 0.00 0.01 0.04 0.02 0.00 0.00 0.01 0.02 0.03 0.02 0.01 0.04 0.07 0.09 0.06 0.03 0.01 0.01 0.00 0.00 0.00 0.00 0.00 0.03 0.07 0.10 0.09 0.12 0.09 0.05 0.04 0.06 0.13 0.10 0.05 0.03 0.08
0.06 0.73 0.52 0.17 0.04 0.01 0.02 0.01 0.01 0.00 0.00 0.00 0.02 0.00 0.02 0.01 0.00 0.00 0.01 0.01 0.02 0.02 0.02 0.04 0.08 0.11 0.05 0.01 0.02 0.03 0.02 0.01 0.02 0.01 0.03 0.05 0.05 0.04 0.05 0.11 0.08 0.04 0.09 0.15 0.11 0.12 0.06 0.10 0.08
0.15 0.19 0.14 0.02 0.01 0.00 0.00 0.00 0.00 0.00 0.00 0.02 0.05 0.01 0.00 0.00 0.00 0.00 0.00 0.01 0.03 0.03 0.03 0.03 0.01 0.05 0.05 0.02 0.03 0.03 0.01 0.01 0.03 0.04 0.08 0.26 0.23 0.16 0.09 0.18 0.10 0.02 0.04 0.06 0.06 0.08 0.13 0.15 0.08
0.03 0.39 0.08 0.01 0.00 0.01 0.00 0.00 0.00 0.00 0.00 0.00 0.00 0.00 0.00 0.00 0.00 0.00 0.00 0.00 0.01 0.01 0.01 0.02 0.01 0.02 0.01 0.02 0.02 0.02 0.00 0.00 0.01 0.06 0.38 0.60 0.24 0.15 0.11 0.16 0.06 0.08 0.07 0.10 0.11 0.13 0.15 0.06 0.00
0.00 0.22 0.06 0.00 0.00 0.02 0.00 0.00 0.00 0.00 0.00 0.00 0.00 0.00 0.00 0.00 0.00 0.00 0.00 0.00 0.00 0.00 0.00 0.00 0.00 0.00 0.00 0.02 0.04 0.04 0.01 0.00 0.00 0.07 0.64 0.75 0.35 0.20 0.31 0.23 0.22 0.14 0.49 0.54 0.47 0.25 0.05 0.03 0.00
0.00 0.03 0.01 0.00 0.00 0.01 0.01 0.01 0.00 0.00 0.00 0.00 0.00 0.00 0.00 0.00 0.00 0.00 0.00 0.00 0.00 0.00 0.00 0.00 0.00 0.01 0.02 0.02 0.02 0.05 0.01 0.01 0.00 0.01 0.09 0.21 0.31 0.24 0.37 0.32 0.15 0.39 0.23 0.53 0.29 0.18 0.05 0.01 0.00
0.00 0.00 0.00 0.00 0.00 0.00 0.02 0.04 0.01 0.00 0.00 0.00 0.00 0.00 0.00 0.00 0.00 0.00 0.00 0.00 0.00 0.00 0.00 0.00 0.00 0.00 0.01 0.00 0.00 0.00 0.01 0.00 0.00 0.00 0.00 0.13 0.13 0.19 0.19 0.18 0.19 0.17 0.13 0.15 0.08 0.12 0.07 0.05 0.00
0.00 0.00 0.00 0.00 0.00 0.00 0.00 0.01 0.01 0.00 0.00 0.00 0.00 0.00 0.00 0.00 0.00 0.00 0.00 0.00 0.00 0.00 0.00 0.00 0.00 0.00 0.01 0.00 0.00 0.01 0.00 0.00 0.00 0.00 0.00 0.01 0.05 0.22 0.17 0.17 0.16 0.08 0.06 0.12 0.18 0.13 0.08 0.02 0.00
0.00 0.00 0.00 0.00 0.00 0.00 0.00 0.01 0.00 0.00 0.00 0.00 0.00 0.00 0.00 0.00 0.00 0.00 0.00 0.00 0.00 0.00 0.00 0.00 0.00 0.00 0.01 0.03 0.01 0.01 0.00 0.00 0.00 0.00 0.00 0.04 0.20 0.24 0.17 0.25 0.17 0.07 0.10 0.15 0.12 0.12 0.07 0.00 0.00
0.00 0.00 0.00 0.00 0.00 0.00 0.00 0.00 0.00 0.00 0.00 0.00 0.00 0.00 0.00 0.00 0.00 0.00 0.00 0.00 0.00 0.00 0.00 0.00 0.00 0.00 0.00 0.01 0.04 0.00 0.00 0.00 0.01 0.05 0.08 0.22 0.20 0.18 0.20 0.38 0.32 0.13 0.10 0.13 0.09 0.12 0.07 0.00 0.00
0.00 0.00 0.00 0.00 0.00 0.00 0.00 0.03 0.02 0.00 0.00 0.00 0.00 0.00 0.00 0.00 0.00 0.00 0.00 0.00 0.00 0.00 0.00 0.00 0.00 0.00 0.00 0.01 0.05 0.04 0.08 0.15 0.13 0.07 0.09 0.12 0.11 0.13 0.23 0.34 0.32 0.13 0.08 0.17 0.13 0.06 0.02 0.00 0.00
0.00 0.00 0.00 0.00 0.00 0.00 0.00 0.09 0.08 0.00 0.00 0.00 0.00 0.00 0.00 0.00 0.00 0.00 0.00 0.00 0.00 0.00 0.00 0.00 0.00 0.03 0.13 0.24 0.24 0.16 0.11 0.09 0.02 0.00 0.06 0.08 0.18 0.08 0.16 0.18 0.22 0.09 0.11 0.10 0.13 0.05 0.00 0.00 0.00
0.00 0.00 0.00 0.00 0.00 0.00 0.00 0.03 0.12 0.00 0.01 0.00 0.00 0.00 0.00 0.00 0.00 0.00 0.00 0.00 0.00 0.00 0.00 0.00 0.00 0.04 0.13 0.11 0.07 0.02 0.02 0.00 0.01 0.04 0.09 0.10 0.08 0.10 0.18 0.21 0.22 0.09 0.05 0.10 0.05 0.02 0.00 0.00 0.00
0.00 0.00 0.00 0.00 0.00 0.00 0.00 0.00 0.00 0.00 0.00 0.00 0.00 0.00 0.00 0.00 0.00 0.00 0.00 0.00 0.00 0.00 0.00 0.00 0.00 0.00 0.08 0.02 0.02 0.02 0.01 0.00 0.01 0.01 0.04 0.02 0.01 0.06 0.09 0.22 0.15 0.07 0.07 0.07 0.07 0.03 0.02 0.00 0.00
0.00 0.00 0.00 0.00 0.00 0.00 0.00 0.00 0.00 0.00 0.00 0.00 0.00 0.00 0.00 0.00 0.00 0.00 0.00 0.00 0.00 0.00 0.00 0.00 0.00 0.00 0.06 0.04 0.05 0.08 0.07 0.03 0.02 0.01 0.02 0.02 0.02 0.04 0.14 0.25 0.09 0.08 0.03 0.19 0.11 0.02 0.00 0.01 0.01
0.00 0.00 0.00 0.00 0.00 0.00 0.00 0.00 0.00 0.02 0.08 0.01 0.00 0.00 0.00 0.00 0.00 0.00 0.00 0.00 0.00 0.00 0.00 0.00 0.00 0.00 0.01 0.04 0.01 0.05 0.01 0.00 0.00 0.00 0.00 0.01 0.01 0.01 0.04 0.07 0.03 0.03 0.03 0.12 0.12 0.00 0.00 0.00 0.00
0.00 0.00 0.00 0.00 0.00 0.00 0.00 0.00 0.00 0.00 0.02 0.01 0.00 0.00 0.00 0.00 0.00 0.00 0.00 0.00 0.00 0.00 0.00 0.00 0.00 0.00 0.00 0.02 0.01 0.03 0.01 0.00 0.00 0.00 0.00 0.01 0.04 0.01 0.00 0.00 0.02 0.02 0.01 0.07 0.11 0.03 0.00 0.00 0.00
0.00 0.00 0.00 0.00 0.00 0.00 0.00 0.01 0.00 0.00 0.00 0.00 0.01 0.00 0.00 0.00 0.00 0.00 0.00 0.00 0.00 0.00 0.00 0.00 0.00 0.00 0.00 0.01 0.00 0.02 0.01 0.00 0.00 0.00 0.00 0.00 0.00 0.00 0.00 0.01 0.03 0.04 0.01 0.02 0.04 0.03 0.00 0.00 0.00
0.00 0.00 0.00 0.00 0.00 0.00 0.00 0.00 0.00 0.00 0.00 0.00 0.01 0.01 0.00 0.00 0.00 0.00 0.00 0.00 0.00 0.00 0.00 0.00 0.00 0.00 0.00 0.00 0.00 0.00 0.01 0.00 0.00 0.00 0.00 0.00 0.00 0.00 0.00 0.01 0.04 0.01 0.01 0.01 0.00 0.01 0.00 0.00 0.00
0.00 0.00 0.00 0.00 0.00 0.00 0.00 0.00 0.00 0.00 0.00 0.00 0.00 0.00 0.00 0.00 0.00 0.00 0.00 0.00 0.00 0.00 0.00 0.00 0.00 0.00 0.00 0.00 0.00 0.00 0.00 0.00 0.00 0.00 0.00 0.00 0.00 0.00 0.00 0.00 0.00 0.00 0.00 0.00 0.00 0.00 0.00 0.00 0.00
0.00 0.00 0.00 0.00 0.00 0.00 0.00 0.00 0.00 0.00 0.00 0.00 0.00 0.00 0.00 0.00 0.00 0.00 0.00 0.00 0.00 0.00 0.00 0.00 0.00 0.00 0.00 0.00 0.00 0.00 0.00 0.00 0.00 0.00 0.00 0.00 0.00 0.00 0.00 0.00 0.00 0.00 0.00 0.00 0.00 0.00 0.00 0.00 0.00
0.00 0.00 0.00 0.00 0.00 0.00 0.00 0.00 0.00 0.00 0.00 0.00 0.00 0.00 0.00 0.00 0.00 0.00 0.00 0.00 0.00 0.00 0.00 0.00 0.00 0.00 0.00 0.00 0.00 0.00 0.00 0.00 0.00 0.00 0.00 0.00 0.00 0.00 0.00 0.00 0.00 0.00 0.00 0.00 0.00 0.00 0.00 0.00 0.00
0.00 0.00 0.00 0.00 0.00 0.00 0.00 0.00 0.00 0.00 0.00 0.00 0.00 0.00 0.00 0.00 0.00 0.00 0.00 0.00 0.00 0.00 0.00 0.00 0.00 0.00 0.00 0.00 0.00 0.00 0.00 0.00 0.00 0.00 0.00 0.00 0.00 0.00 0.00 0.00 0.00 0.00 0.00 0.00 0.00 0.00 0.00 0.00 0.00
0.00 0.00 0.00 0.00 0.00 0.00 0.00 0.00 0.00 0.00 0.00 0.00 0.00 0.00 0.00 0.00 0.00 0.00 0.00 0.00 0.00 0.00 0.00 0.00 0.00 0.00 0.00 0.00 0.00 0.00 0.00 0.00 0.00 0.01 0.01 0.00 0.00 0.00 0.00 0.00 0.00 0.00 0.00 0.00 0.00 0.00 0.00 0.00 0.00

GFSSGP_prec_precacc_042.txt.gz
Total_Precipitation_Accumulation
0.01 0.04 0.34 0.78 1.19 0.70 1.23 0.61 0.23 0.37 0.21 0.03 0.04 0.04 0.33 0.26 0.33 0.28 0.18 0.13 0.02 0.09 0.18 0.62 0.98 0.66 0.31 0.17 0.17 0.08 0.02 0.02 0.01 0.01 0.01 0.01 0.01 0.01 0.01 0.01 0.03 0.01 0.02 0.06 0.05 0.03 0.01 0.04 0.09
0.01 0.19 1.06 2.21 1.83 1.13 1.02 0.34 0.30 0.35 0.09 0.04 0.03 0.06 0.01 0.02 0.01 0.07 0.15 0.07 0.00 0.01 0.04 0.30 0.81 0.30 0.18 0.12 0.09 0.05 0.02 0.02 0.02 0.02 0.02 0.01 0.01 0.01 0.01 0.01 0.01 0.01 0.04 0.05 0.07 0.06 0.05 0.09 0.13
0.04 0.78 2.41 2.37 1.17 0.77 0.64 0.20 0.17 0.10 0.14 0.06 0.05 0.11 0.01 0.01 0.02 0.04 0.02 0.00 0.02 0.02 0.03 0.21 0.33 0.19 0.13 0.14 0.07 0.06 0.05 0.01 0.01 0.00 0.00 0.00 0.00 0.01 0.01 0.01 0.02 0.02 0.01 0.01 0.02 0.01 0.03 0.11 0.08
0.27 1.49 2.26 1.52 0.55 0.26 0.56 0.31 0.09 0.12 0.17 0.09 0.06 0.01 0.00 0.01 0.01 0.01 0.00 0.01 0.03 0.02 0.05 0.16 0.17 0.11 0.16 0.13 0.07 0.03 0.01 0.00 0.01 0.01 0.00 0.00 0.00 0.00 0.00 0.01 0.04 0.04 0.01 0.00 0.00 0.00 0.00 0.06 0.15
0.48 0.79 1.53 1.29 0.43 0.19 0.21 0.22 0.15 0.11 0.13 0.06 0.01 0.00 0.03 0.03 0.00 0.00 0.00 0.01 0.01 0.02 0.05 0.05 0.20 0.15 0.12 0.07 0.03 0.03 0.01 0.00 0.00 0.00 0.00 0.00 0.00 0.00 0.00 0.03 0.03 0.03 0.00 0.00 0.00 0.00 0.00 0.00 0.06
1.34 1.21 0.74 0.30 0.22 0.45 0.21 0.19 0.20 0.12 0.11 0.03 0.00 0.00 0.06 0.02 0.00 0.00 0.01 0.01 0.04 0.02 0.02 0.03 0.10 0.15 0.08 0.03 0.01 0.01 0.00 0.00 0.00 0.01 0.00 0.00 0.05 0.02 0.06 0.03 0.04 0.01 0.00 0.01 0.02 0.02 0.02 0.02 0.04
0.28 2.01 0.62 0.49 0.25 0.18 0.42 0.31 0.20 0.10 0.04 0.02 0.00 0.01 0.05 0.02 0.00 0.00 0.01 0.02 0.03 0.02 0.01 0.04 0.08 0.09 0.06 0.03 0.01 0.01 0.00 0.00 0.00 0.00 0.00 0.03 0.07 0.10 0.10 0.14 0.09 0.05 0.04 0.06 0.13 0.11 0.08 0.06 0.12
0.10 1.76 1.75 0.59 0.41 0.32 0.14 0.14 0.14 0.08 0.01 0.00 0.03 0.01 0.02 0.01 0.00 0.00 0.01 0.01 0.02 0.02 0.02 0.04 0.08 0.11 0.05 0.01 0.02 0.03 0.02 0.01 0.02 0.01 0.03 0.05 0.05 0.05 0.05 0.12 0.09 0.04 0.09 0.15 0.11 0.12 0.07 0.13 0.13
0.20 1.55 0.68 0.13 0.05 0.10 0.18 0.09 0.06 0.04 0.01 0.05 0.07 0.02 0.00 0.00 0.00 0.00 0.00 0.02 0.03 0.03 0.03 0.03 0.01 0.05 0.05 0.02 0.03 0.03 0.01 0.01 0.03 0.06 0.10 0.30 0.26 0.18 0.12 0.19 0.10 0.02 0.04 0.06 0.06 0.08 0.14 0.16 0.13
0.25 0.66 0.25 0.09 0.02 0.04 0.12 0.15 0.02 0.01 0.00 0.02 0.01 0.00 0.00 0.00 0.00 0.00 0.00 0.01 0.01 0.01 0.01 0.02 0.01 0.02 0.01 0.02 0.02 0.02 0.00 0.01 0.03 0.09 0.39 0.69 0.30 0.19 0.14 0.16 0.07 0.08 0.07 0.10 0.11 0.13 0.17 0.07 0.06
0.08 0.28 0.07 0.00 0.00 0.02 0.00 0.07 0.03 0.00 0.00 0.00 0.00 0.00 0.00 0.00 0.00 0.00 0.00 0.00 0.00 0.00 0.00 0.00 0.00 0.00 0.00 0.02 0.04 0.04 0.01 0.00 0.04 0.11 0.66 1.13 0.49 0.29 0.34 0.24 0.23 0.14 0.50 0.54 0.47 0.26 0.05 0.03 0.01
0.01 0.04 0.01 0.00 0.00 0.01 0.04 0.01 0.01 0.00 0.00 0.00 0.00 0.00 0.00 0.00 0.00 0.00 0.00 0.00 0.00 0.00 0.00 0.00 0.00 0.01 0.02 0.02 0.02 0.05 0.01 0.01 0.00 0.04 0.13 0.30 0.63 0.34 0.43 0.36 0.18 0.45 0.26 0.57 0.32 0.19 0.05 0.01 0.00
0.00 0.00 0.00 0.01 0.00 0.00 0.02 0.05 0.01 0.00 0.00 0.00 0.00 0.00 0.00 0.00 0.00 0.00 0.00 0.00 0.00 0.00 0.00 0.00 0.00 0.00 0.01 0.00 0.00 0.00 0.01 0.00 0.00 0.02 0.04 0.23 0.20 0.24 0.21 0.23 0.23 0.19 0.16 0.19 0.11 0.13 0.07 0.05 0.00
0.00 0.00 0.00 0.01 0.00 0.00 0.00 0.01 0.01 0.00 0.00 0.00 0.00 0.00 0.00 0.00 0.00 0.00 0.00 0.00 0.00 0.00 0.00 0.00 0.00 0.00 0.01 0.00 0.00 0.01 0.00 0.00 0.00 0.00 0.00 0.07 0.14 0.23 0.21 0.23 0.19 0.08 0.09 0.14 0.20 0.15 0.08 0.02 0.00
0.00 0.00 0.00 0.01 0.00 0.00 0.00 0.01 0.00 0.02 0.02 0.00 0.00 0.00 0.00 0.00 0.00 0.00 0.00 0.00 0.00 0.00 0.00 0.00 0.00 0.00 0.01 0.03 0.01 0.01 0.00 0.00 0.00 0.00 0.00 0.04 0.22 0.29 0.31 0.31 0.18 0.07 0.11 0.16 0.13 0.12 0.07 0.00 0.00
0.00 0.00 0.00 0.00 0.00 0.00 0.00 0.00 0.00 0.00 0.01 0.00 0.00 0.00 0.00 0.00 0.00 0.00 0.00 0.00 0.00 0.00 0.00 0.00 0.00 0.00 0.00 0.01 0.04 0.00 0.00 0.00 0.01 0.05 0.08 0.22 0.20 0.21 0.33 0.51 0.36 0.14 0.11 0.15 0.11 0.14 0.08 0.00 0.00
0.00 0.00 0.00 0.00 0.00 0.00 0.00 0.03 0.03 0.00 0.04 0.03 0.00 0.00 0.00 0.00 0.00 0.00 0.00 0.00 0.00 0.00 0.00 0.00 0.00 0.00 0.00 0.01 0.05 0.04 0.08 0.15 0.13 0.07 0.09 0.12 0.11 0.14 0.27 0.39 0.34 0.16 0.09 0.17 0.14 0.06 0.03 0.00 0.00
0.00 0.00 0.00 0.00 0.00 0.00 0.00 0.09 0.08 0.00 0.02 0.12 0.07 0.01 0.00 0.00 0.00 0.00 0.00 0.00 0.00 0.00 0.00 0.00 0.00 0.03 0.13 0.24 0.24 0.16 0.11 0.09 0.02 0.00 0.06 0.08 0.18 0.08 0.16 0.22 0.23 0.11 0.13 0.11 0.13 0.05 0.00 0.00 0.00
0.00 0.00 0.00 0.00 0.00 0.00 0.00 0.03 0.12 0.00 0.03 0.21 0.09 0.07 0.03 0.00 0.00 0.00 0.00 0.00 0.00 0.00 0.00 0.00 0.00 0.04 0.13 0.11 0.07 0.02 0.02 0.00 0.01 0.04 0.09 0.10 0.08 0.10 0.19 0.23 0.28 0.09 0.08 0.10 0.05 0.02 0.00 0.00 0.00
0.00 0.00 0.00 0.00 0.00 0.00 0.00 0.00 0.00 0.00 0.00 0.02 0.20 0.16 0.09 0.00 0.00 0.00 0.00 0.00 0.00 0.00 0.00 0.00 0.00 0.00 0.08 0.02 0.02 0.02 0.01 0.00 0.01 0.01 0.04 0.02 0.01 0.06 0.10 0.25 0.17 0.09 0.09 0.09 0.07 0.03 0.02 0.00 0.00
0.00 0.00 0.00 0.00 0.00 0.00 0.00 0.00 0.00 0.00 0.01 0.00 0.06 0.28 0.05 0.01 0.00 0.00 0.00 0.00 0.00 0.00 0.00 0.00 0.00 0.00 0.06 0.04 0.05 0.08 0.07 0.03 0.02 0.01 0.02 0.02 0.02 0.04 0.14 0.25 0.10 0.10 0.04 0.20 0.11 0.02 0.00 0.01 0.01
0.00 0.00 0.00 0.00 0.00 0.00 0.00 0.00 0.00 0.02 0.08 0.01 0.00 0.00 0.01 0.01 0.00 0.00 0.00 0.00 0.00 0.00 0.00 0.00 0.00 0.00 0.01 0.04 0.01 0.05 0.01 0.00 0.00 0.00 0.00 0.01 0.01 0.01 0.04 0.07 0.03 0.03 0.03 0.13 0.13 0.00 0.00 0.00 0.00
0.00 0.00 0.00 0.00 0.00 0.00 0.00 0.00 0.00 0.00 0.02 0.01 0.00 0.00 0.00 0.00 0.01 0.00 0.00 0.00 0.00 0.00 0.00 0.00 0.00 0.00 0.00 0.02 0.01 0.03 0.01 0.00 0.00 0.00 0.00 0.01 0.04 0.01 0.01 0.00 0.03 0.02 0.02 0.07 0.11 0.03 0.00 0.00 0.00
0.00 0.00 0.00 0.00 0.00 0.00 0.00 0.01 0.00 0.00 0.00 0.00 0.01 0.00 0.00 0.00 0.00 0.00 0.00 0.00 0.00 0.00 0.00 0.00 0.00 0.00 0.00 0.01 0.00 0.02 0.01 0.00 0.00 0.00 0.00 0.00 0.00 0.00 0.00 0.01 0.03 0.04 0.02 0.02 0.04 0.03 0.00 0.00 0.00
0.00 0.00 0.00 0.00 0.00 0.00 0.00 0.00 0.00 0.00 0.00 0.00 0.01 0.01 0.00 0.00 0.00 0.00 0.00 0.00 0.00 0.00 0.00 0.00 0.00 0.00 0.00 0.00 0.00 0.00 0.01 0.00 0.00 0.00 0.00 0.00 0.00 0.00 0.00 0.01 0.04 0.01 0.01 0.01 0.00 0.01 0.00 0.00 0.00
0.00 0.00 0.00 0.00 0.00 0.00 0.00 0.00 0.00 0.00 0.00 0.00 0.00 0.00 0.00 0.00 0.00 0.00 0.00 0.00 0.00 0.00 0.00 0.00 0.00 0.00 0.00 0.00 0.00 0.00 0.00 0.00 0.00 0.00 0.00 0.00 0.00 0.00 0.00 0.00 0.00 0.00 0.00 0.00 0.00 0.00 0.00 0.00 0.00
0.00 0.00 0.00 0.00 0.00 0.00 0.00 0.00 0.00 0.00 0.00 0.00 0.00 0.00 0.00 0.00 0.00 0.00 0.00 0.00 0.00 0.00 0.00 0.00 0.00 0.00 0.00 0.00 0.00 0.00 0.00 0.00 0.00 0.00 0.00 0.00 0.00 0.00 0.00 0.00 0.00 0.00 0.00 0.00 0.00 0.00 0.00 0.00 0.00
0.00 0.00 0.00 0.00 0.00 0.00 0.00 0.00 0.00 0.00 0.00 0.00 0.00 0.00 0.00 0.00 0.00 0.00 0.00 0.00 0.00 0.00 0.00 0.00 0.00 0.00 0.00 0.00 0.00 0.00 0.00 0.00 0.00 0.00 0.00 0.00 0.00 0.00 0.00 0.00 0.00 0.00 0.00 0.00 0.00 0.00 0.00 0.00 0.00
0.00 0.00 0.00 0.00 0.00 0.00 0.00 0.00 0.00 0.00 0.00 0.00 0.00 0.00 0.00 0.00 0.00 0.00 0.00 0.00 0.00 0.00 0.00 0.00 0.00 0.00 0.00 0.00 0.00 0.00 0.00 0.00 0.00 0.00 0.00 0.00 0.00 0.00 0.00 0.00 0.00 0.00 0.00 0.00 0.00 0.00 0.00 0.00 0.00
0.00 0.00 0.00 0.00 0.00 0.00 0.00 0.00 0.00 0.00 0.00 0.00 0.00 0.00 0.00 0.00 0.00 0.00 0.00 0.00 0.00 0.00 0.00 0.00 0.00 0.00 0.00 0.00 0.00 0.00 0.00 0.00 0.00 0.01 0.01 0.00 0.00 0.00 0.00 0.00 0.00 0.00 0.00 0.00 0.00 0.00 0.00 0.00 0.00

GFSSGP_prec_precacc_045.txt.gz
Total_Precipitation_Accumulation
0.01 0.04 0.34 0.78 1.23 0.71 1.25 0.63 0.25 0.38 0.22 0.03 0.04 0.05 0.33 0.26 0.33 0.29 0.18 0.13 0.02 0.09 0.18 0.62 0.99 0.66 0.31 0.17 0.17 0.08 0.02 0.02 0.01 0.02 0.02 0.03 0.04 0.03 0.05 0.03 0.03 0.01 0.02 0.06 0.05 0.03 0.01 0.04 0.10
0.01 0.19 1.09 2.31 1.91 1.17 1.06 0.38 0.32 0.38 0.10 0.04 0.03 0.07 0.01 0.02 0.01 0.07 0.15 0.07 0.00 0.01 0.04 0.30 0.81 0.30 0.18 0.12 0.09 0.05 0.02 0.02 0.03 0.05 0.03 0.03 0.02 0.03 0.03 0.02 0.01 0.01 0.04 0.11 0.13 0.12 0.06 0.10 0.17
0.04 0.82 2.68 2.69 1.23 0.81 0.75 0.33 0.22 0.13 0.18 0.08 0.06 0.12 0.01 0.01 0.02 0.04 0.02 0.00 0.02 0.02 0.03 0.21 0.33 0.19 0.13 0.14 0.07 0.06 0.05 0.01 0.01 0.03 0.01 0.03 0.01 0.01 0.01 0.01 0.02 0.02 0.01 0.05 0.06 0.09 0.08 0.12 0.10
0.27 1.54 2.47 1.58 0.60 0.32 0.68 0.52 0.17 0.13 0.18 0.11 0.08 0.01 0.00 0.01 0.01 0.01 0.00 0.01 0.03 0.02 0.05 0.16 0.17 0.11 0.16 0.13 0.07 0.03 0.02 0.00 0.01 0.02 0.01 0.01 0.00 0.00 0.00 0.01 0.04 0.04 0.01 0.00 0.00 0.02 0.05 0.12 0.19
0.48 0.81 1.55 1.30 0.46 0.21 0.31 0.31 0.26 0.23 0.20 0.08 0.01 0.00 0.03 0.03 0.00 0.00 0.00 0.01 0.01 0.02 0.05 0.05 0.20 0.15 0.12 0.07 0.03 0.03 0.01 0.00 0.01 0.01 0.00 0.00 0.00 0.00 0.00 0.03 0.03 0.03 0.00 0.01 0.01 0.03 0.03 0.05 0.10
1.34 1.22 0.74 0.30 0.23 0.46 0.42 0.61 0.53 0.31 0.24 0.09 0.01 0.00 0.06 0.02 0.00 0.00 0.01 0.01 0.04 0.02 0.03 0.03 0.11 0.15 0.08 0.03 0.01 0.01 0.00 0.00 0.00 0.01 0.01 0.00 0.05 0.02 0.06 0.03 0.04 0.01 0.00 0.02 0.04 0.05 0.10 0.09 0.09
0.28 2.01 0.62 0.50 0.29 0.25 0.46 0.55 0.43 0.25 0.14 0.08 0.03 0.01 0.05 0.02 0.00 0.00 0.01 0.02 0.03 0.02 0.01 0.04 0.08 0.09 0.06 0.03 0.01 0.01 0.00 0.00 0.00 0.00 0.00 0.03 0.07 0.10 0.11 0.14 0.09 0.05 0.04 0.06 0.14 0.13 0.11 0.10 0.17
0.10 1.76 1.75 0.60 0.44 0.36 0.16 0.24 0.32 0.20 0.10 0.06 0.04 0.01 0.02 0.01 0.00 0.00 0.01 0.01 0.02 0.02 0.02 0.04 0.08 0.11 0.05 0.01 0.02 0.03 0.02 0.01 0.02 0.01 0.03 0.05 0.05 0.05 0.08 0.13 0.09 0.04 0.09 0.15 0.12 0.16 0.11 0.16 0.15
0.20 1.55 0.68 0.13 0.07 0.12 0.23 0.20 0.16 0.15 0.06 0.05 0.07 0.02 0.00 0.00 0.00 0.00 0.00 0.02 0.03 0.03 0.03 0.03 0.01 0.05 0.05 0.02 0.03 0.03 0.01 0.01 0.03 0.06 0.10 0.30 0.26 0.18 0.12 0.19 0.10 0.02 0.04 0.06 0.09 0.11 0.18 0.19 0.13
0.25 0.66 0.25 0.09 0.03 0.10 0.18 0.24 0.09 0.04 0.01 0.02 0.01 0.00 0.00 0.00 0.00 0.00 0.00 0.01 0.01 0.01 0.01 0.02 0.01 0.02 0.01 0.02 0.02 0.02 0.00 0.01 0.03 0.09 0.39 0.69 0.30 0.19 0.14 0.16 0.07 0.08 0.07 0.10 0.11 0.13 0.17 0.07 0.06
0.11 0.29 0.07 0.00 0.00 0.08 0.00 0.08 0.05 0.00 0.00 0.00 0.00 0.00 0.00 0.00 0.00 0.00 0.00 0.00 0.00 0.00 0.00 0.00 0.00 0.00 0.00 0.02 0.04 0.04 0.01 0.00 0.04 0.11 0.66 1.13 0.49 0.29 0.34 0.24 0.23 0.14 0.50 0.54 0.47 0.26 0.05 0.03 0.01
0.02 0.04 0.01 0.00 0.00 0.01 0.04 0.01 0.01 0.00 0.00 0.00 0.00 0.00 0.00 0.00 0.00 0.00 0.00 0.00 0.00 0.00 0.00 0.00 0.00 0.01 0.02 0.02 0.02 0.05 0.01 0.01 0.00 0.04 0.13 0.30 0.63 0.34 0.43 0.36 0.18 0.45 0.26 0.57 0.32 0.19 0.05 0.01 0.00
0.00 0.00 0.00 0.01 0.00 0.00 0.02 0.05 0.01 0.00 0.00 0.00 0.00 0.00 0.00 0.00 0.00 0.00 0.00 0.00 0.00 0.00 0.00 0.00 0.00 0.00 0.01 0.00 0.00 0.00 0.01 0.00 0.00 0.02 0.04 0.23 0.20 0.24 0.21 0.23 0.23 0.19 0.16 0.19 0.14 0.15 0.07 0.05 0.00
0.00 0.00 0.00 0.01 0.00 0.00 0.00 0.01 0.01 0.00 0.00 0.00 0.00 0.00 0.00 0.00 0.00 0.00 0.00 0.00 0.00 0.00 0.00 0.00 0.00 0.00 0.01 0.00 0.00 0.01 0.00 0.00 0.00 0.00 0.00 0.07 0.14 0.23 0.21 0.23 0.19 0.08 0.09 0.14 0.23 0.16 0.08 0.02 0.00
0.00 0.00 0.00 0.01 0.00 0.00 0.00 0.01 0.00 0.02 0.02 0.00 0.00 0.00 0.00 0.00 0.00 0.00 0.00 0.00 0.00 0.00 0.00 0.00 0.00 0.00 0.01 0.03 0.01 0.01 0.00 0.00 0.00 0.00 0.00 0.04 0.22 0.29 0.31 0.31 0.18 0.07 0.11 0.16 0.13 0.13 0.07 0.00 0.00
0.00 0.00 0.00 0.00 0.00 0.00 0.00 0.00 0.00 0.00 0.01 0.00 0.00 0.00 0.00 0.00 0.00 0.00 0.00 0.00 0.00 0.00 0.00 0.00 0.00 0.00 0.00 0.01 0.04 0.00 0.00 0.00 0.01 0.05 0.08 0.22 0.20 0.21 0.33 0.51 0.36 0.14 0.11 0.15 0.11 0.14 0.08 0.00 0.00
0.00 0.00 0.00 0.00 0.00 0.00 0.00 0.03 0.03 0.00 0.04 0.03 0.00 0.00 0.00 0.00 0.00 0.00 0.00 0.00 0.00 0.00 0.00 0.00 0.00 0.00 0.00 0.01 0.05 0.04 0.08 0.15 0.13 0.07 0.09 0.12 0.11 0.14 0.27 0.39 0.34 0.16 0.10 0.21 0.15 0.07 0.03 0.00 0.00
0.00 0.00 0.00 0.00 0.00 0.00 0.00 0.09 0.08 0.00 0.02 0.12 0.07 0.01 0.00 0.00 0.00 0.00 0.00 0.00 0.00 0.00 0.00 0.00 0.00 0.03 0.13 0.24 0.24 0.16 0.11 0.09 0.02 0.00 0.06 0.08 0.18 0.08 0.16 0.22 0.23 0.11 0.14 0.13 0.13 0.05 0.00 0.00 0.00
0.00 0.00 0.00 0.00 0.00 0.00 0.00 0.03 0.12 0.00 0.03 0.21 0.09 0.07 0.03 0.00 0.00 0.00 0.00 0.00 0.00 0.00 0.00 0.00 0.00 0.04 0.13 0.11 0.07 0.02 0.02 0.00 0.01 0.04 0.09 0.10 0.08 0.10 0.19 0.23 0.28 0.10 0.10 0.10 0.05 0.02 0.00 0.00 0.00
0.00 0.00 0.00 0.00 0.00 0.00 0.00 0.00 0.00 0.00 0.00 0.02 0.20 0.16 0.09 0.00 0.00 0.00 0.00 0.00 0.00 0.00 0.00 0.00 0.00 0.00 0.08 0.02 0.02 0.02 0.01 0.00 0.01 0.01 0.04 0.02 0.01 0.06 0.10 0.25 0.18 0.10 0.10 0.10 0.07 0.04 0.02 0.00 0.00
0.00 0.00 0.00 0.00 0.00 0.00 0.00 0.00 0.00 0.00 0.01 0.00 0.06 0.28 0.05 0.01 0.00 0.00 0.00 0.00 0.00 0.00 0.00 0.00 0.00 0.00 0.06 0.04 0.05 0.08 0.07 0.03 0.02 0.01 0.02 0.02 0.02 0.04 0.14 0.25 0.10 0.10 0.08 0.22 0.11 0.02 0.00 0.01 0.01
0.00 0.00 0.00 0.00 0.00 0.00 0.00 0.00 0.00 0.02 0.08 0.01 0.00 0.00 0.01 0.01 0.00 0.00 0.00 0.00 0.00 0.00 0.00 0.00 0.00 0.00 0.01 0.04 0.01 0.05 0.01 0.00 0.00 0.00 0.00 0.01 0.01 0.01 0.04 0.07 0.03 0.03 0.05 0.16 0.13 0.00 0.00 0.00 0.00
0.00 0.00 0.00 0.00 0.00 0.00 0.00 0.00 0.00 0.00 0.02 0.01 0.00 0.00 0.00 0.00 0.01 0.00 0.00 0.00 0.00 0.00 0.00 0.00 0.00 0.00 0.00 0.02 0.01 0.03 0.01 0.00 0.00 0.00 0.00 0.01 0.04 0.01 0.01 0.00 0.03 0.02 0.02 0.08 0.11 0.03 0.00 0.00 0.00
0.00 0.00 0.00 0.00 0.00 0.00 0.00 0.01 0.00 0.00 0.00 0.00 0.01 0.00 0.00 0.00 0.00 0.00 0.00 0.00 0.00 0.00 0.00 0.00 0.00 0.00 0.00 0.01 0.00 0.02 0.01 0.00 0.00 0.00 0.00 0.00 0.00 0.00 0.00 0.01 0.03 0.04 0.02 0.02 0.04 0.03 0.00 0.00 0.00
0.00 0.00 0.00 0.00 0.00 0.00 0.00 0.00 0.00 0.00 0.00 0.00 0.01 0.01 0.00 0.00 0.00 0.00 0.00 0.00 0.00 0.00 0.00 0.00 0.00 0.00 0.00 0.00 0.00 0.00 0.01 0.00 0.00 0.00 0.00 0.00 0.00 0.00 0.00 0.01 0.04 0.01 0.01 0.01 0.00 0.01 0.00 0.00 0.00
0.00 0.00 0.00 0.00 0.00 0.00 0.00 0.00 0.00 0.00 0.00 0.00 0.00 0.00 0.00 0.00 0.00 0.00 0.00 0.00 0.00 0.00 0.00 0.00 0.00 0.00 0.00 0.00 0.00 0.00 0.00 0.00 0.00 0.00 0.00 0.00 0.00 0.00 0.00 0.00 0.00 0.00 0.00 0.00 0.00 0.00 0.00 0.00 0.00
0.00 0.00 0.00 0.00 0.00 0.00 0.00 0.00 0.00 0.00 0.00 0.00 0.00 0.00 0.00 0.00 0.00 0.00 0.00 0.00 0.00 0.00 0.00 0.00 0.00 0.00 0.00 0.00 0.00 0.00 0.00 0.00 0.00 0.00 0.00 0.00 0.00 0.00 0.00 0.00 0.00 0.00 0.00 0.00 0.00 0.00 0.00 0.00 0.00
0.00 0.00 0.00 0.00 0.00 0.00 0.00 0.00 0.00 0.00 0.00 0.00 0.00 0.00 0.00 0.00 0.00 0.00 0.00 0.00 0.00 0.00 0.00 0.00 0.00 0.00 0.00 0.00 0.00 0.00 0.00 0.00 0.00 0.00 0.00 0.00 0.00 0.00 0.00 0.00 0.00 0.00 0.00 0.00 0.00 0.00 0.00 0.00 0.00
0.00 0.00 0.00 0.00 0.00 0.00 0.00 0.00 0.00 0.00 0.00 0.00 0.00 0.00 0.00 0.00 0.00 0.00 0.00 0.00 0.00 0.00 0.00 0.00 0.00 0.00 0.00 0.00 0.00 0.00 0.00 0.00 0.00 0.00 0.00 0.00 0.00 0.00 0.00 0.00 0.00 0.00 0.00 0.00 0.00 0.00 0.00 0.00 0.00
0.00 0.00 0.00 0.00 0.00 0.00 0.00 0.00 0.00 0.00 0.00 0.00 0.00 0.00 0.00 0.00 0.00 0.00 0.00 0.00 0.00 0.00 0.00 0.00 0.00 0.00 0.00 0.00 0.00 0.00 0.00 0.00 0.00 0.01 0.01 0.00 0.00 0.00 0.00 0.00 0.00 0.00 0.00 0.00 0.00 0.00 0.00 0.00 0.00

GFSSGP_prec_precacc_051.txt.gz
Total_Precipitation_Accumulation
0.01 0.04 0.34 0.79 1.31 0.74 1.26 0.65 0.30 0.41 0.22 0.03 0.04 0.05 0.33 0.26 0.33 0.29 0.18 0.13 0.02 0.10 0.20 0.64 1.02 0.68 0.31 0.18 0.17 0.09 0.03 0.03 0.03 0.04 0.07 0.08 0.15 0.20 0.09 0.09 0.08 0.11 0.08 0.07 0.06 0.04 0.02 0.05 0.12
0.01 0.19 1.14 2.89 2.16 1.24 1.12 0.44 0.40 0.44 0.11 0.05 0.03 0.07 0.01 0.02 0.01 0.08 0.15 0.07 0.00 0.01 0.04 0.31 0.83 0.32 0.19 0.13 0.10 0.06 0.03 0.03 0.04 0.09 0.16 0.14 0.24 0.14 0.09 0.14 0.19 0.32 0.41 0.27 0.17 0.13 0.06 0.12 0.20
0.04 0.85 3.12 3.10 1.44 0.91 0.90 0.43 0.39 0.29 0.25 0.10 0.06 0.12 0.01 0.01 0.02 0.04 0.02 0.00 0.02 0.02 0.03 0.21 0.36 0.21 0.13 0.15 0.09 0.08 0.07 0.03 0.03 0.10 0.12 0.17 0.17 0.07 0.07 0.09 0.11 0.12 0.08 0.09 0.10 0.09 0.11 0.15 0.15
0.27 1.60 2.63 1.67 0.70 0.49 0.96 0.72 0.26 0.31 0.33 0.12 0.11 0.02 0.01 0.01 0.01 0.01 0.00 0.01 0.03 0.02 0.05 0.16 0.19 0.12 0.17 0.15 0.10 0.03 0.02 0.02 0.07 0.15 0.13 0.13 0.09 0.06 0.06 0.06 0.08 0.07 0.02 0.00 0.00 0.02 0.06 0.18 0.32
0.49 0.89 1.63 1.35 0.51 0.30 0.43 0.41 0.38 0.55 0.39 0.22 0.04 0.02 0.04 0.03 0.00 0.00 0.01 0.01 0.01 0.02 0.05 0.06 0.21 0.15 0.14 0.10 0.04 0.03 0.01 0.02 0.10 0.14 0.05 0.03 0.02 0.02 0.03 0.08 0.05 0.04 0.01 0.01 0.03 0.05 0.07 0.09 0.21
1.35 1.23 0.76 0.30 0.27 0.48 0.44 0.69 0.70 0.48 0.68 0.35 0.09 0.04 0.07 0.03 0.00 0.01 0.01 0.01 0.04 0.02 0.03 0.04 0.11 0.16 0.11 0.04 0.01 0.02 0.01 0.01 0.05 0.13 0.05 0.02 0.06 0.05 0.08 0.04 0.06 0.03 0.03 0.04 0.05 0.05 0.11 0.10 0.21
0.29 2.01 0.62 0.50 0.31 0.27 0.47 0.87 0.93 0.37 0.40 0.18 0.07 0.02 0.06 0.05 0.01 0.00 0.01 0.02 0.03 0.02 0.02 0.05 0.09 0.11 0.06 0.04 0.01 0.01 0.01 0.02 0.05 0.07 0.04 0.03 0.07 0.11 0.13 0.17 0.16 0.09 0.12 0.09 0.15 0.13 0.11 0.10 0.22
0.11 1.76 1.75 0.61 0.49 0.43 0.22 0.25 0.34 0.30 0.21 0.09 0.04 0.01 0.03 0.02 0.01 0.00 0.01 0.01 0.02 0.02 0.03 0.04 0.09 0.11 0.05 0.02 0.03 0.03 0.02 0.01 0.04 0.02 0.03 0.05 0.05 0.06 0.11 0.25 0.24 0.11 0.15 0.18 0.16 0.16 0.11 0.16 0.17
0.20 1.55 0.68 0.15 0.12 0.20 0.31 0.21 0.16 0.26 0.12 0.05 0.07 0.02 0.00 0.00 0.00 0.01 0.01 0.03 0.04 0.04 0.03 0.03 0.01 0.05 0.05 0.02 0.03 0.03 0.01 0.01 0.03 0.06 0.11 0.30 0.27 0.18 0.13 0.26 0.19 0.11 0.13 0.13 0.13 0.12 0.18 0.19 0.14
0.25 0.66 0.25 0.09 0.04 0.16 0.25 0.24 0.13 0.15 0.05 0.02 0.01 0.00 0.00 0.00 0.00 0.00 0.00 0.01 0.02 0.01 0.02 0.02 0.01 0.02 0.01 0.02 0.03 0.02 0.01 0.01 0.03 0.10 0.39 0.69 0.30 0.19 0.15 0.24 0.11 0.10 0.10 0.12 0.11 0.14 0.18 0.07 0.07
0.11 0.29 0.07 0.00 0.01 0.08 0.02 0.10 0.10 0.02 0.00 0.00 0.00 0.00 0.00 0.00 0.00 0.00 0.00 0.00 0.00 0.00 0.00 0.01 0.00 0.00 0.00 0.02 0.04 0.04 0.01 0.00 0.04 0.11 0.66 1.13 0.49 0.29 0.34 0.25 0.25 0.16 0.50 0.55 0.47 0.26 0.05 0.03 0.01
0.04 0.04 0.01 0.00 0.00 0.01 0.04 0.02 0.02 0.00 0.00 0.00 0.00 0.00 0.00 0.00 0.00 0.00 0.00 0.00 0.00 0.00 0.00 0.00 0.00 0.01 0.02 0.02 0.02 0.05 0.01 0.01 0.00 0.04 0.13 0.30 0.63 0.34 0.43 0.36 0.18 0.45 0.26 0.57 0.32 0.19 0.05 0.01 0.00
0.00 0.00 0.00 0.01 0.00 0.00 0.02 0.05 0.01 0.00 0.00 0.00 0.00 0.00 0.00 0.00 0.00 0.00 0.00 0.00 0.00 0.00 0.00 0.00 0.00 0.00 0.01 0.00 0.00 0.00 0.01 0.00 0.00 0.02 0.04 0.23 0.20 0.24 0.21 0.23 0.27 0.20 0.17 0.22 0.16 0.16 0.07 0.05 0.00
0.00 0.01 0.01 0.01 0.00 0.00 0.00 0.01 0.01 0.00 0.00 0.00 0.00 0.00 0.00 0.00 0.00 0.00 0.00 0.00 0.00 0.00 0.00 0.00 0.00 0.00 0.01 0.00 0.00 0.01 0.00 0.00 0.00 0.00 0.00 0.07 0.14 0.24 0.24 0.26 0.21 0.10 0.09 0.15 0.23 0.16 0.08 0.02 0.00
0.00 0.00 0.00 0.01 0.00 0.00 0.00 0.01 0.00 0.02 0.02 0.00 0.00 0.00 0.00 0.00 0.00 0.00 0.00 0.00 0.00 0.00 0.00 0.00 0.00 0.00 0.01 0.03 0.01 0.01 0.00 0.00 0.00 0.00 0.00 0.04 0.22 0.29 0.32 0.31 0.19 0.08 0.11 0.17 0.13 0.13 0.07 0.00 0.00
0.00 0.00 0.00 0.00 0.00 0.00 0.00 0.00 0.00 0.00 0.01 0.00 0.00 0.00 0.00 0.00 0.00 0.00 0.00 0.00 0.00 0.00 0.00 0.00 0.00 0.00 0.00 0.01 0.04 0.00 0.00 0.00 0.01 0.05 0.08 0.22 0.21 0.23 0.33 0.51 0.37 0.14 0.11 0.17 0.14 0.15 0.08 0.00 0.00
0.00 0.00 0.00 0.00 0.00 0.00 0.00 0.03 0.03 0.00 0.04 0.03 0.00 0.00 0.00 0.00 0.00 0.00 0.00 0.00 0.00 0.00 0.00 0.00 0.00 0.00 0.00 0.01 0.05 0.04 0.08 0.15 0.13 0.07 0.09 0.12 0.11 0.14 0.28 0.48 0.38 0.16 0.11 0.22 0.17 0.07 0.03 0.00 0.00
0.00 0.00 0.00 0.00 0.00 0.00 0.00 0.09 0.08 0.00 0.02 0.12 0.07 0.01 0.00 0.00 0.00 0.00 0.00 0.00 0.00 0.00 0.00 0.00 0.00 0.03 0.13 0.24 0.24 0.16 0.11 0.09 0.02 0.00 0.06 0.08 0.18 0.08 0.17 0.30 0.26 0.12 0.16 0.15 0.14 0.05 0.00 0.00 0.00
0.00 0.00 0.00 0.00 0.00 0.01 0.00 0.03 0.12 0.00 0.03 0.21 0.09 0.07 0.03 0.00 0.00 0.00 0.00 0.00 0.00 0.00 0.00 0.00 0.00 0.04 0.13 0.11 0.07 0.02 0.02 0.00 0.01 0.04 0.09 0.10 0.08 0.10 0.19 0.24 0.29 0.11 0.16 0.16 0.06 0.02 0.00 0.00 0.00
0.00 0.00 0.00 0.00 0.00 0.00 0.01 0.00 0.00 0.00 0.00 0.02 0.20 0.16 0.09 0.00 0.00 0.00 0.00 0.00 0.00 0.00 0.00 0.00 0.00 0.00 0.08 0.02 0.02 0.02 0.01 0.00 0.01 0.01 0.04 0.02 0.01 0.06 0.10 0.25 0.18 0.17 0.15 0.13 0.08 0.04 0.02 0.00 0.00
0.00 0.00 0.00 0.00 0.00 0.00 0.00 0.01 0.00 0.00 0.01 0.00 0.06 0.28 0.05 0.01 0.00 0.00 0.00 0.00 0.00 0.00 0.00 0.00 0.00 0.00 0.06 0.04 0.05 0.08 0.07 0.03 0.02 0.01 0.02 0.02 0.02 0.04 0.14 0.25 0.10 0.16 0.18 0.24 0.11 0.02 0.00 0.01 0.01
0.00 0.00 0.00 0.00 0.00 0.00 0.00 0.00 0.00 0.02 0.08 0.01 0.00 0.00 0.01 0.01 0.00 0.00 0.00 0.00 0.00 0.00 0.00 0.00 0.00 0.00 0.01 0.04 0.01 0.05 0.01 0.00 0.00 0.00 0.00 0.01 0.01 0.01 0.04 0.07 0.03 0.03 0.09 0.19 0.14 0.00 0.00 0.00 0.00
0.00 0.00 0.00 0.00 0.00 0.00 0.00 0.00 0.00 0.00 0.02 0.01 0.00 0.00 0.00 0.00 0.01 0.00 0.00 0.00 0.00 0.00 0.00 0.00 0.00 0.00 0.00 0.02 0.01 0.03 0.01 0.00 0.00 0.00 0.00 0.01 0.04 0.01 0.01 0.00 0.03 0.02 0.03 0.12 0.14 0.05 0.00 0.00 0.00
0.00 0.00 0.00 0.00 0.00 0.00 0.00 0.01 0.00 0.00 0.00 0.00 0.01 0.00 0.00 0.00 0.00 0.00 0.00 0.00 0.00 0.00 0.00 0.00 0.00 0.00 0.00 0.01 0.00 0.02 0.01 0.00 0.00 0.00 0.00 0.00 0.00 0.00 0.00 0.01 0.03 0.04 0.02 0.03 0.05 0.04 0.01 0.00 0.00
0.00 0.00 0.00 0.00 0.00 0.00 0.00 0.00 0.00 0.00 0.00 0.00 0.01 0.01 0.00 0.00 0.00 0.00 0.00 0.00 0.00 0.00 0.00 0.00 0.00 0.00 0.00 0.00 0.00 0.00 0.01 0.00 0.00 0.00 0.00 0.00 0.00 0.00 0.00 0.01 0.04 0.01 0.01 0.01 0.00 0.01 0.00 0.00 0.00
0.00 0.00 0.00 0.00 0.00 0.00 0.00 0.00 0.00 0.00 0.00 0.00 0.00 0.00 0.00 0.00 0.00 0.00 0.00 0.00 0.00 0.00 0.00 0.00 0.00 0.00 0.00 0.00 0.00 0.00 0.00 0.00 0.00 0.00 0.00 0.00 0.00 0.00 0.00 0.00 0.00 0.00 0.00 0.00 0.00 0.00 0.00 0.00 0.00
0.00 0.00 0.00 0.00 0.00 0.00 0.00 0.00 0.00 0.00 0.00 0.00 0.00 0.00 0.00 0.00 0.00 0.00 0.00 0.00 0.00 0.00 0.00 0.00 0.00 0.00 0.00 0.00 0.00 0.00 0.00 0.00 0.00 0.00 0.00 0.00 0.00 0.00 0.00 0.00 0.00 0.00 0.00 0.00 0.00 0.00 0.00 0.00 0.00
0.00 0.00 0.00 0.00 0.00 0.00 0.00 0.00 0.00 0.00 0.00 0.00 0.00 0.00 0.00 0.00 0.00 0.00 0.00 0.00 0.00 0.00 0.00 0.00 0.00 0.00 0.00 0.00 0.00 0.00 0.00 0.00 0.00 0.00 0.00 0.00 0.00 0.00 0.00 0.00 0.00 0.00 0.00 0.00 0.00 0.00 0.00 0.00 0.00
0.00 0.00 0.00 0.00 0.00 0.00 0.00 0.00 0.00 0.00 0.00 0.00 0.00 0.00 0.00 0.00 0.00 0.00 0.00 0.00 0.00 0.00 0.00 0.00 0.00 0.00 0.00 0.00 0.00 0.00 0.00 0.00 0.00 0.00 0.00 0.00 0.00 0.00 0.00 0.00 0.00 0.00 0.00 0.00 0.00 0.00 0.00 0.00 0.00
0.00 0.00 0.00 0.00 0.00 0.00 0.00 0.00 0.00 0.00 0.00 0.00 0.00 0.00 0.00 0.00 0.00 0.00 0.00 0.00 0.00 0.00 0.00 0.00 0.00 0.00 0.00 0.00 0.00 0.00 0.00 0.00 0.00 0.01 0.01 0.00 0.00 0.00 0.00 0.00 0.00 0.00 0.00 0.00 0.00 0.00 0.00 0.00 0.00

GFSSGP_prec_precacc_054.txt.gz
Total_Precipitation_Accumulation
0.01 0.04 0.34 0.81 1.36 0.75 1.29 0.68 0.33 0.47 0.24 0.03 0.04 0.05 0.33 0.26 0.34 0.33 0.18 0.13 0.02 0.10 0.20 0.65 1.04 0.70 0.36 0.20 0.18 0.09 0.03 0.03 0.03 0.04 0.07 0.08 0.15 0.20 0.09 0.09 0.13 0.12 0.08 0.08 0.08 0.05 0.04 0.11 0.13
0.01 0.19 1.15 2.96 2.23 1.30 1.18 0.44 0.42 0.45 0.11 0.05 0.03 0.07 0.02 0.02 0.01 0.08 0.15 0.07 0.00 0.01 0.04 0.31 0.86 0.34 0.19 0.13 0.11 0.07 0.03 0.03 0.04 0.09 0.16 0.14 0.24 0.15 0.13 0.15 0.21 0.34 0.42 0.27 0.18 0.13 0.07 0.15 0.22
0.04 0.85 3.27 3.26 1.45 0.98 0.97 0.44 0.42 0.30 0.25 0.10 0.06 0.12 0.02 0.02 0.02 0.04 0.02 0.00 0.02 0.02 0.03 0.21 0.37 0.21 0.15 0.17 0.11 0.09 0.07 0.03 0.03 0.10 0.12 0.17 0.17 0.10 0.16 0.09 0.11 0.13 0.09 0.09 0.10 0.09 0.11 0.23 0.24
0.27 1.65 2.73 1.72 0.72 0.51 1.03 0.78 0.33 0.33 0.33 0.12 0.11 0.02 0.01 0.01 0.01 0.01 0.00 0.01 0.03 0.02 0.05 0.17 0.19 0.13 0.17 0.15 0.11 0.05 0.03 0.02 0.07 0.15 0.13 0.15 0.11 0.07 0.08 0.08 0.09 0.07 0.02 0.00 0.00 0.06 0.11 0.18 0.32
0.51 1.02 1.74 1.44 0.55 0.37 0.44 0.44 0.43 0.58 0.40 0.22 0.04 0.02 0.04 0.03 0.00 0.00 0.01 0.01 0.01 0.02 0.05 0.06 0.22 0.17 0.14 0.11 0.05 0.03 0.01 0.02 0.10 0.15 0.06 0.07 0.07 0.05 0.05 0.08 0.06 0.04 0.01 0.01 0.03 0.06 0.09 0.09 0.22
1.39 1.26 0.81 0.35 0.31 0.57 0.45 0.71 0.75 0.49 0.72 0.38 0.09 0.04 0.07 0.04 0.01 0.01 0.01 0.01 0.04 0.02 0.03 0.04 0.12 0.17 0.12 0.04 0.02 0.02 0.01 0.01 0.05 0.16 0.11 0.05 0.09 0.06 0.09 0.05 0.06 0.03 0.03 0.04 0.05 0.06 0.13 0.11 0.22
0.32 2.02 0.63 0.52 0.36 0.39 0.48 0.87 1.00 0.40 0.41 0.22 0.07 0.02 0.07 0.06 0.01 0.00 0.01 0.02 0.03 0.02 0.02 0.05 0.10 0.12 0.08 0.04 0.02 0.02 0.01 0.02 0.06 0.10 0.13 0.05 0.07 0.11 0.13 0.17 0.16 0.09 0.12 0.09 0.16 0.14 0.12 0.11 0.25
0.16 1.76 1.75 0.62 0.56 0.48 0.22 0.25 0.36 0.32 0.22 0.13 0.05 0.01 0.04 0.03 0.01 0.00 0.01 0.01 0.02 0.02 0.03 0.04 0.10 0.11 0.05 0.02 0.04 0.04 0.03 0.02 0.08 0.07 0.04 0.05 0.05 0.06 0.11 0.25 0.25 0.12 0.16 0.18 0.16 0.16 0.13 0.16 0.19
0.21 1.55 0.69 0.16 0.19 0.22 0.31 0.21 0.16 0.29 0.20 0.08 0.08 0.02 0.00 0.01 0.01 0.01 0.01 0.03 0.04 0.04 0.03 0.03 0.02 0.05 0.05 0.02 0.03 0.04 0.02 0.02 0.03 0.07 0.14 0.31 0.27 0.18 0.13 0.26 0.20 0.12 0.14 0.13 0.13 0.12 0.18 0.19 0.14
0.26 0.68 0.26 0.09 0.04 0.16 0.25 0.24 0.13 0.15 0.06 0.02 0.01 0.00 0.00 0.01 0.01 0.00 0.00 0.01 0.02 0.01 0.02 0.02 0.01 0.02 0.01 0.02 0.03 0.02 0.01 0.01 0.03 0.10 0.39 0.69 0.30 0.19 0.15 0.25 0.13 0.10 0.11 0.13 0.12 0.14 0.18 0.07 0.07
0.12 0.29 0.07 0.00 0.01 0.08 0.02 0.10 0.10 0.03 0.02 0.00 0.00 0.00 0.00 0.00 0.00 0.00 0.00 0.00 0.00 0.00 0.00 0.01 0.00 0.01 0.00 0.02 0.05 0.05 0.01 0.00 0.04 0.11 0.66 1.13 0.49 0.29 0.34 0.25 0.26 0.16 0.50 0.55 0.47 0.26 0.05 0.03 0.01
0.04 0.04 0.01 0.00 0.00 0.01 0.04 0.02 0.02 0.00 0.02 0.00 0.00 0.00 0.00 0.00 0.00 0.00 0.00 0.00 0.00 0.00 0.00 0.00 0.00 0.01 0.02 0.02 0.02 0.05 0.01 0.01 0.00 0.04 0.13 0.30 0.63 0.34 0.43 0.36 0.18 0.45 0.26 0.57 0.32 0.19 0.05 0.01 0.00
0.00 0.00 0.00 0.01 0.00 0.00 0.02 0.05 0.01 0.00 0.00 0.00 0.00 0.00 0.00 0.00 0.00 0.00 0.00 0.00 0.00 0.00 0.00 0.00 0.00 0.00 0.01 0.00 0.00 0.00 0.01 0.00 0.00 0.02 0.04 0.23 0.20 0.24 0.21 0.23 0.27 0.20 0.17 0.22 0.16 0.16 0.07 0.05 0.00
0.00 0.01 0.01 0.01 0.01 0.00 0.00 0.01 0.01 0.00 0.00 0.00 0.00 0.00 0.00 0.00 0.00 0.00 0.00 0.00 0.00 0.00 0.00 0.00 0.00 0.00 0.01 0.00 0.00 0.01 0.00 0.00 0.00 0.00 0.00 0.07 0.14 0.24 0.25 0.30 0.23 0.10 0.09 0.15 0.23 0.16 0.08 0.02 0.00
0.00 0.00 0.00 0.02 0.00 0.00 0.00 0.01 0.00 0.02 0.02 0.00 0.00 0.00 0.00 0.00 0.00 0.00 0.00 0.00 0.00 0.00 0.00 0.00 0.00 0.00 0.01 0.03 0.01 0.01 0.00 0.00 0.00 0.00 0.00 0.04 0.22 0.30 0.32 0.32 0.21 0.08 0.11 0.17 0.13 0.13 0.07 0.00 0.00
0.00 0.00 0.00 0.00 0.00 0.00 0.00 0.00 0.00 0.00 0.01 0.00 0.00 0.00 0.00 0.00 0.00 0.00 0.00 0.00 0.00 0.00 0.00 0.00 0.00 0.00 0.00 0.01 0.04 0.00 0.00 0.00 0.01 0.05 0.08 0.22 0.21 0.26 0.44 0.58 0.37 0.14 0.11 0.17 0.14 0.15 0.08 0.00 0.00
0.00 0.00 0.00 0.00 0.00 0.00 0.00 0.03 0.03 0.00 0.04 0.03 0.00 0.00 0.00 0.00 0.00 0.00 0.00 0.00 0.00 0.00 0.00 0.00 0.00 0.00 0.00 0.01 0.05 0.04 0.08 0.15 0.13 0.07 0.09 0.12 0.12 0.22 0.39 0.52 0.45 0.20 0.11 0.22 0.17 0.07 0.03 0.00 0.00
0.00 0.00 0.00 0.00 0.00 0.00 0.00 0.09 0.08 0.00 0.02 0.12 0.07 0.01 0.00 0.00 0.00 0.00 0.00 0.00 0.00 0.00 0.00 0.00 0.00 0.03 0.13 0.24 0.24 0.16 0.11 0.09 0.02 0.00 0.06 0.08 0.18 0.14 0.26 0.34 0.35 0.21 0.16 0.15 0.14 0.05 0.00 0.00 0.00
0.00 0.00 0.00 0.00 0.01 0.01 0.00 0.03 0.12 0.00 0.03 0.21 0.09 0.07 0.03 0.00 0.00 0.00 0.00 0.00 0.00 0.00 0.00 0.00 0.00 0.04 0.13 0.11 0.07 0.02 0.02 0.00 0.01 0.04 0.09 0.10 0.08 0.13 0.25 0.28 0.39 0.20 0.18 0.16 0.07 0.02 0.00 0.00 0.00
0.00 0.00 0.00 0.00 0.00 0.00 0.02 0.00 0.00 0.00 0.00 0.02 0.20 0.16 0.09 0.00 0.00 0.00 0.00 0.00 0.00 0.00 0.00 0.00 0.00 0.00 0.08 0.02 0.02 0.02 0.01 0.00 0.01 0.01 0.04 0.02 0.01 0.06 0.11 0.28 0.25 0.23 0.19 0.19 0.14 0.05 0.02 0.00 0.00
0.00 0.00 0.00 0.00 0.00 0.00 0.00 0.01 0.00 0.00 0.01 0.00 0.06 0.28 0.05 0.01 0.00 0.00 0.00 0.00 0.00 0.00 0.00 0.00 0.00 0.00 0.06 0.04 0.05 0.08 0.07 0.03 0.02 0.01 0.02 0.02 0.02 0.04 0.14 0.29 0.18 0.22 0.22 0.29 0.17 0.04 0.00 0.01 0.01
0.00 0.00 0.00 0.00 0.00 0.00 0.00 0.00 0.00 0.02 0.08 0.01 0.00 0.00 0.01 0.01 0.00 0.00 0.00 0.00 0.00 0.00 0.00 0.00 0.00 0.00 0.01 0.04 0.01 0.05 0.01 0.00 0.00 0.00 0.00 0.01 0.01 0.01 0.04 0.09 0.10 0.11 0.16 0.27 0.19 0.02 0.00 0.00 0.00
0.00 0.00 0.00 0.00 0.00 0.00 0.00 0.00 0.00 0.00 0.02 0.01 0.00 0.00 0.00 0.00 0.01 0.00 0.00 0.00 0.00 0.00 0.00 0.00 0.00 0.00 0.00 0.02 0.01 0.03 0.01 0.00 0.00 0.00 0.00 0.01 0.04 0.01 0.01 0.00 0.05 0.09 0.12 0.20 0.21 0.15 0.03 0.00 0.00
0.00 0.00 0.00 0.00 0.00 0.00 0.00 0.01 0.00 0.00 0.00 0.00 0.01 0.00 0.00 0.00 0.00 0.00 0.00 0.00 0.00 0.00 0.00 0.00 0.00 0.00 0.00 0.01 0.00 0.02 0.01 0.00 0.00 0.00 0.00 0.00 0.00 0.00 0.00 0.01 0.03 0.06 0.04 0.07 0.13 0.12 0.05 0.00 0.00
0.00 0.00 0.00 0.00 0.00 0.00 0.00 0.00 0.00 0.00 0.00 0.00 0.01 0.01 0.00 0.00 0.00 0.00 0.00 0.00 0.00 0.00 0.00 0.00 0.00 0.00 0.00 0.00 0.00 0.00 0.01 0.00 0.00 0.00 0.00 0.00 0.00 0.00 0.00 0.01 0.04 0.01 0.01 0.01 0.05 0.10 0.04 0.00 0.00
0.00 0.00 0.00 0.00 0.00 0.00 0.00 0.00 0.00 0.00 0.00 0.00 0.00 0.00 0.00 0.00 0.00 0.00 0.00 0.00 0.00 0.00 0.00 0.00 0.00 0.00 0.00 0.00 0.00 0.00 0.00 0.00 0.00 0.00 0.00 0.00 0.00 0.00 0.00 0.00 0.00 0.00 0.01 0.00 0.00 0.02 0.01 0.00 0.00
0.00 0.00 0.00 0.00 0.00 0.00 0.00 0.00 0.00 0.00 0.00 0.00 0.00 0.00 0.00 0.00 0.00 0.00 0.00 0.00 0.00 0.00 0.00 0.00 0.00 0.00 0.00 0.00 0.00 0.00 0.00 0.00 0.00 0.00 0.00 0.00 0.00 0.00 0.00 0.00 0.00 0.00 0.00 0.00 0.00 0.00 0.00 0.00 0.01
0.00 0.00 0.00 0.00 0.00 0.00 0.00 0.00 0.00 0.00 0.00 0.00 0.00 0.00 0.00 0.00 0.00 0.00 0.00 0.00 0.00 0.00 0.00 0.00 0.00 0.00 0.00 0.00 0.00 0.00 0.00 0.00 0.00 0.00 0.00 0.00 0.00 0.00 0.00 0.00 0.00 0.00 0.00 0.00 0.00 0.00 0.00 0.00 0.00
0.00 0.00 0.00 0.00 0.00 0.00 0.00 0.00 0.00 0.00 0.00 0.00 0.00 0.00 0.00 0.00 0.00 0.00 0.00 0.00 0.00 0.00 0.00 0.00 0.00 0.00 0.00 0.00 0.00 0.00 0.00 0.00 0.00 0.00 0.00 0.00 0.00 0.00 0.00 0.00 0.00 0.00 0.00 0.00 0.00 0.00 0.00 0.00 0.00
0.00 0.00 0.00 0.00 0.00 0.00 0.00 0.00 0.00 0.00 0.00 0.00 0.00 0.00 0.00 0.00 0.00 0.00 0.00 0.00 0.00 0.00 0.00 0.00 0.00 0.00 0.00 0.00 0.00 0.00 0.00 0.00 0.00 0.01 0.01 0.00 0.00 0.00 0.00 0.00 0.00 0.00 0.00 0.00 0.00 0.00 0.00 0.00 0.00

GFSSGP_prec_precacc_057.txt.gz
Total_Precipitation_Accumulation
0.01 0.04 0.34 0.82 1.39 0.79 1.39 0.78 0.38 0.53 0.25 0.03 0.04 0.05 0.34 0.30 0.42 0.42 0.18 0.13 0.02 0.10 0.20 0.65 1.05 0.70 0.36 0.20 0.18 0.09 0.03 0.03 0.03 0.04 0.07 0.08 0.15 0.20 0.09 0.12 0.16 0.13 0.10 0.08 0.08 0.05 0.17 0.17 0.16
0.01 0.19 1.15 3.05 2.30 1.38 1.33 0.47 0.51 0.49 0.12 0.05 0.03 0.07 0.03 0.02 0.01 0.08 0.15 0.07 0.00 0.01 0.04 0.31 0.86 0.36 0.20 0.14 0.12 0.10 0.04 0.03 0.04 0.09 0.16 0.14 0.24 0.15 0.13 0.15 0.29 0.40 0.42 0.27 0.19 0.13 0.08 0.16 0.23
0.04 0.86 3.32 3.28 1.49 1.09 1.18 0.48 0.46 0.31 0.25 0.10 0.06 0.13 0.02 0.03 0.02 0.04 0.02 0.00 0.02 0.02 0.03 0.21 0.38 0.22 0.16 0.18 0.12 0.13 0.09 0.04 0.03 0.10 0.12 0.17 0.18 0.10 0.16 0.10 0.12 0.14 0.09 0.09 0.10 0.09 0.12 0.23 0.25
0.27 1.68 2.78 1.77 0.75 0.57 1.10 0.92 0.39 0.33 0.33 0.12 0.11 0.04 0.01 0.01 0.01 0.01 0.00 0.01 0.03 0.02 0.05 0.17 0.19 0.15 0.19 0.16 0.12 0.06 0.03 0.02 0.07 0.15 0.13 0.15 0.11 0.07 0.09 0.08 0.09 0.07 0.02 0.00 0.01 0.06 0.12 0.18 0.32
0.51 1.11 1.83 1.52 0.64 0.41 0.47 0.50 0.49 0.61 0.40 0.24 0.07 0.03 0.04 0.03 0.00 0.00 0.01 0.01 0.01 0.02 0.05 0.06 0.23 0.19 0.15 0.11 0.06 0.03 0.01 0.02 0.10 0.15 0.06 0.07 0.08 0.06 0.06 0.08 0.06 0.04 0.01 0.02 0.06 0.09 0.09 0.09 0.22
1.42 1.34 0.91 0.47 0.39 0.65 0.47 0.72 0.79 0.52 0.72 0.38 0.10 0.04 0.07 0.04 0.01 0.01 0.01 0.01 0.04 0.02 0.03 0.04 0.13 0.18 0.13 0.05 0.03 0.02 0.01 0.01 0.05 0.16 0.11 0.06 0.10 0.07 0.09 0.05 0.06 0.03 0.03 0.06 0.07 0.06 0.13 0.11 0.24
0.38 2.13 0.70 0.60 0.40 0.46 0.49 0.88 1.05 0.42 0.42 0.22 0.08 0.06 0.08 0.07 0.01 0.00 0.01 0.02 0.03 0.02 0.02 0.05 0.10 0.13 0.08 0.06 0.03 0.02 0.01 0.02 0.06 0.10 0.14 0.07 0.07 0.11 0.13 0.17 0.16 0.09 0.12 0.09 0.19 0.15 0.12 0.11 0.25
0.22 1.81 1.77 0.66 0.62 0.60 0.23 0.25 0.40 0.39 0.24 0.14 0.06 0.05 0.04 0.03 0.01 0.00 0.01 0.01 0.02 0.02 0.03 0.04 0.10 0.11 0.05 0.03 0.06 0.06 0.03 0.02 0.08 0.07 0.05 0.06 0.05 0.06 0.11 0.26 0.25 0.12 0.16 0.19 0.17 0.18 0.14 0.16 0.20
0.22 1.57 0.71 0.23 0.23 0.28 0.31 0.21 0.17 0.33 0.20 0.08 0.08 0.03 0.00 0.01 0.01 0.01 0.01 0.03 0.04 0.04 0.03 0.03 0.02 0.05 0.05 0.02 0.06 0.07 0.03 0.02 0.03 0.07 0.16 0.33 0.27 0.18 0.13 0.26 0.20 0.12 0.14 0.13 0.13 0.12 0.18 0.19 0.14
0.28 0.71 0.31 0.11 0.06 0.16 0.25 0.25 0.14 0.16 0.06 0.02 0.01 0.00 0.00 0.01 0.01 0.00 0.00 0.01 0.02 0.01 0.02 0.02 0.01 0.02 0.01 0.02 0.03 0.02 0.01 0.01 0.03 0.10 0.39 0.70 0.30 0.19 0.15 0.25 0.13 0.10 0.11 0.13 0.12 0.14 0.18 0.07 0.07
0.12 0.30 0.07 0.01 0.01 0.08 0.03 0.21 0.14 0.04 0.03 0.00 0.00 0.00 0.00 0.00 0.00 0.00 0.00 0.00 0.00 0.00 0.00 0.01 0.00 0.01 0.00 0.02 0.05 0.05 0.01 0.00 0.04 0.11 0.66 1.13 0.49 0.29 0.35 0.25 0.27 0.16 0.51 0.55 0.47 0.28 0.05 0.03 0.02
0.04 0.05 0.03 0.03 0.00 0.01 0.05 0.06 0.04 0.02 0.08 0.01 0.00 0.00 0.00 0.00 0.00 0.00 0.00 0.00 0.00 0.00 0.00 0.00 0.00 0.01 0.02 0.02 0.02 0.05 0.02 0.01 0.00 0.04 0.13 0.30 0.63 0.34 0.44 0.37 0.19 0.46 0.27 0.58 0.34 0.25 0.05 0.01 0.02
0.00 0.02 0.01 0.01 0.02 0.04 0.03 0.05 0.10 0.02 0.02 0.00 0.00 0.00 0.00 0.00 0.00 0.00 0.00 0.00 0.00 0.00 0.00 0.00 0.00 0.00 0.01 0.00 0.00 0.00 0.01 0.00 0.00 0.02 0.04 0.23 0.20 0.24 0.21 0.24 0.30 0.21 0.18 0.22 0.17 0.16 0.07 0.05 0.00
0.00 0.01 0.03 0.01 0.01 0.01 0.01 0.03 0.01 0.00 0.00 0.00 0.00 0.00 0.00 0.00 0.00 0.00 0.00 0.00 0.00 0.00 0.00 0.00 0.00 0.00 0.01 0.00 0.00 0.01 0.00 0.00 0.00 0.00 0.00 0.07 0.14 0.25 0.26 0.30 0.23 0.10 0.09 0.15 0.23 0.16 0.08 0.02 0.00
0.00 0.00 0.00 0.02 0.00 0.00 0.00 0.02 0.00 0.02 0.02 0.00 0.00 0.00 0.00 0.00 0.00 0.00 0.00 0.00 0.00 0.00 0.00 0.00 0.00 0.00 0.01 0.03 0.01 0.01 0.00 0.00 0.00 0.00 0.00 0.04 0.22 0.31 0.37 0.33 0.21 0.08 0.11 0.17 0.13 0.13 0.07 0.00 0.00
0.00 0.00 0.00 0.00 0.00 0.00 0.00 0.00 0.00 0.00 0.01 0.00 0.00 0.00 0.00 0.00 0.00 0.00 0.00 0.00 0.00 0.00 0.00 0.00 0.00 0.00 0.00 0.01 0.04 0.00 0.00 0.00 0.02 0.05 0.08 0.22 0.23 0.31 0.46 0.59 0.38 0.14 0.11 0.17 0.15 0.15 0.08 0.00 0.00
0.00 0.00 0.00 0.01 0.00 0.00 0.00 0.14 0.10 0.00 0.04 0.03 0.00 0.00 0.00 0.00 0.00 0.00 0.00 0.00 0.00 0.00 0.00 0.00 0.00 0.00 0.00 0.01 0.05 0.04 0.08 0.15 0.13 0.07 0.10 0.12 0.15 0.25 0.39 0.52 0.47 0.20 0.11 0.22 0.17 0.07 0.03 0.00 0.00
0.00 0.00 0.00 0.00 0.00 0.00 0.00 0.16 0.29 0.00 0.02 0.12 0.07 0.01 0.00 0.00 0.00 0.00 0.00 0.00 0.00 0.00 0.00 0.00 0.00 0.03 0.13 0.24 0.24 0.16 0.11 0.09 0.02 0.00 0.07 0.08 0.21 0.18 0.26 0.34 0.35 0.21 0.16 0.15 0.14 0.05 0.00 0.00 0.00
0.00 0.00 0.00 0.00 0.02 0.02 0.01 0.05 0.27 0.00 0.03 0.21 0.09 0.07 0.03 0.00 0.00 0.00 0.00 0.00 0.00 0.00 0.00 0.00 0.00 0.04 0.13 0.11 0.07 0.02 0.02 0.00 0.01 0.04 0.09 0.10 0.08 0.14 0.25 0.29 0.39 0.20 0.19 0.19 0.07 0.02 0.00 0.00 0.00
0.00 0.00 0.00 0.00 0.01 0.01 0.05 0.02 0.00 0.00 0.00 0.02 0.20 0.16 0.09 0.00 0.00 0.00 0.00 0.00 0.00 0.00 0.00 0.00 0.00 0.00 0.08 0.02 0.02 0.02 0.01 0.00 0.01 0.01 0.04 0.02 0.01 0.06 0.11 0.32 0.26 0.23 0.19 0.19 0.14 0.05 0.02 0.00 0.00
0.00 0.00 0.00 0.00 0.00 0.00 0.02 0.02 0.01 0.01 0.01 0.00 0.06 0.28 0.05 0.01 0.00 0.00 0.00 0.00 0.00 0.00 0.00 0.00 0.00 0.00 0.06 0.04 0.05 0.08 0.07 0.03 0.02 0.01 0.02 0.02 0.02 0.04 0.14 0.30 0.21 0.22 0.22 0.30 0.17 0.04 0.00 0.01 0.01
0.00 0.00 0.00 0.00 0.00 0.00 0.00 0.00 0.01 0.06 0.08 0.01 0.00 0.00 0.01 0.01 0.00 0.00 0.00 0.00 0.00 0.00 0.00 0.00 0.00 0.00 0.01 0.04 0.01 0.05 0.01 0.00 0.00 0.00 0.00 0.01 0.01 0.01 0.04 0.12 0.11 0.11 0.17 0.29 0.20 0.02 0.00 0.00 0.00
0.00 0.00 0.00 0.00 0.00 0.00 0.00 0.00 0.00 0.00 0.02 0.01 0.00 0.00 0.00 0.00 0.01 0.00 0.00 0.00 0.00 0.00 0.00 0.00 0.00 0.00 0.00 0.02 0.01 0.03 0.01 0.00 0.00 0.00 0.00 0.01 0.04 0.01 0.01 0.01 0.09 0.09 0.12 0.20 0.23 0.17 0.03 0.01 0.00
0.00 0.00 0.00 0.00 0.00 0.00 0.00 0.01 0.00 0.00 0.00 0.00 0.01 0.00 0.00 0.00 0.00 0.00 0.00 0.00 0.00 0.00 0.00 0.00 0.00 0.00 0.00 0.01 0.00 0.02 0.01 0.00 0.00 0.00 0.00 0.00 0.00 0.00 0.00 0.01 0.07 0.07 0.04 0.07 0.13 0.12 0.05 0.00 0.00
0.00 0.00 0.00 0.00 0.00 0.00 0.00 0.00 0.00 0.00 0.00 0.00 0.01 0.01 0.00 0.00 0.00 0.00 0.00 0.00 0.00 0.00 0.00 0.00 0.00 0.00 0.00 0.00 0.00 0.00 0.01 0.00 0.00 0.00 0.00 0.00 0.00 0.00 0.00 0.01 0.04 0.02 0.01 0.01 0.06 0.10 0.09 0.01 0.00
0.00 0.00 0.00 0.00 0.00 0.00 0.00 0.00 0.00 0.00 0.00 0.00 0.01 0.01 0.00 0.00 0.00 0.00 0.00 0.00 0.00 0.00 0.00 0.00 0.00 0.00 0.00 0.00 0.00 0.00 0.00 0.00 0.00 0.00 0.00 0.00 0.00 0.00 0.00 0.00 0.00 0.00 0.01 0.00 0.01 0.02 0.01 0.01 0.00
0.00 0.00 0.00 0.00 0.00 0.00 0.00 0.00 0.00 0.00 0.00 0.00 0.00 0.00 0.00 0.00 0.00 0.00 0.00 0.00 0.00 0.00 0.00 0.00 0.00 0.00 0.00 0.00 0.00 0.00 0.00 0.00 0.00 0.00 0.00 0.00 0.00 0.00 0.00 0.00 0.00 0.00 0.00 0.00 0.00 0.00 0.01 0.02 0.01
0.00 0.00 0.00 0.00 0.00 0.00 0.00 0.00 0.00 0.00 0.00 0.00 0.00 0.00 0.00 0.02 0.00 0.00 0.00 0.00 0.00 0.00 0.00 0.00 0.00 0.00 0.00 0.00 0.00 0.00 0.00 0.00 0.00 0.00 0.00 0.00 0.00 0.00 0.00 0.00 0.00 0.00 0.00 0.00 0.00 0.00 0.00 0.00 0.00
0.00 0.00 0.00 0.00 0.00 0.00 0.00 0.00 0.00 0.00 0.00 0.00 0.00 0.00 0.00 0.00 0.00 0.00 0.00 0.00 0.00 0.00 0.00 0.00 0.00 0.00 0.00 0.00 0.00 0.00 0.00 0.00 0.00 0.00 0.00 0.00 0.00 0.00 0.00 0.00 0.00 0.00 0.00 0.00 0.00 0.00 0.00 0.00 0.00
0.00 0.00 0.00 0.00 0.00 0.00 0.00 0.00 0.00 0.00 0.00 0.00 0.00 0.00 0.00 0.00 0.00 0.00 0.00 0.00 0.00 0.00 0.00 0.00 0.00 0.00 0.00 0.00 0.00 0.00 0.00 0.00 0.00 0.01 0.01 0.00 0.00 0.00 0.00 0.00 0.00 0.00 0.00 0.00 0.00 0.00 0.00 0.00 0.00

GFSSGP_prec_precacc_060.txt.gz
Total_Precipitation_Accumulation
0.01 0.04 0.34 0.82 1.41 0.80 1.49 0.95 0.51 0.56 0.25 0.03 0.04 0.05 0.35 0.34 0.52 0.47 0.18 0.13 0.02 0.10 0.20 0.66 1.07 0.72 0.37 0.21 0.18 0.09 0.06 0.04 0.03 0.04 0.07 0.09 0.15 0.20 0.11 0.16 0.18 0.15 0.15 0.08 0.08 0.05 0.17 0.17 0.16
0.01 0.19 1.15 3.14 2.37 1.47 1.54 0.71 0.55 0.50 0.13 0.05 0.03 0.10 0.08 0.04 0.02 0.08 0.15 0.07 0.00 0.01 0.04 0.31 0.87 0.36 0.20 0.14 0.12 0.10 0.04 0.04 0.04 0.09 0.16 0.15 0.25 0.15 0.14 0.21 0.37 0.41 0.43 0.28 0.19 0.14 0.08 0.16 0.24
0.04 0.87 3.37 3.35 1.55 1.41 2.52 0.73 0.47 0.31 0.25 0.10 0.07 0.14 0.04 0.03 0.02 0.04 0.02 0.00 0.02 0.02 0.03 0.21 0.38 0.22 0.16 0.21 0.14 0.14 0.09 0.04 0.03 0.10 0.13 0.18 0.18 0.10 0.17 0.10 0.14 0.15 0.09 0.09 0.10 0.10 0.13 0.23 0.25
0.27 1.70 2.84 1.83 0.78 0.69 1.29 1.11 0.39 0.35 0.33 0.12 0.12 0.05 0.01 0.01 0.01 0.01 0.00 0.01 0.03 0.02 0.05 0.17 0.20 0.15 0.19 0.16 0.13 0.06 0.05 0.05 0.08 0.15 0.15 0.15 0.11 0.07 0.09 0.09 0.09 0.08 0.02 0.00 0.01 0.06 0.12 0.18 0.33
0.51 1.18 1.91 1.62 0.79 0.48 0.47 0.57 0.51 0.65 0.40 0.28 0.11 0.05 0.04 0.03 0.00 0.00 0.01 0.01 0.01 0.02 0.05 0.06 0.24 0.20 0.15 0.13 0.07 0.04 0.01 0.02 0.10 0.15 0.07 0.08 0.08 0.07 0.06 0.10 0.06 0.05 0.01 0.03 0.06 0.09 0.09 0.09 0.22
1.45 1.42 0.96 0.56 0.50 0.73 0.50 0.74 0.82 0.60 0.72 0.60 0.17 0.04 0.07 0.04 0.01 0.01 0.01 0.01 0.04 0.02 0.03 0.04 0.14 0.21 0.15 0.06 0.03 0.02 0.01 0.02 0.06 0.16 0.12 0.06 0.10 0.07 0.09 0.05 0.06 0.03 0.04 0.08 0.07 0.06 0.13 0.11 0.24
0.40 2.21 0.75 0.65 0.47 0.57 0.53 0.89 1.07 0.42 0.43 0.26 0.10 0.06 0.08 0.07 0.01 0.00 0.01 0.02 0.03 0.02 0.02 0.05 0.10 0.14 0.09 0.07 0.03 0.02 0.01 0.02 0.06 0.10 0.14 0.07 0.07 0.11 0.13 0.17 0.16 0.09 0.12 0.13 0.19 0.15 0.12 0.11 0.25
0.24 1.91 1.83 0.70 0.70 1.14 0.25 0.26 0.61 0.50 0.26 0.16 0.10 0.06 0.04 0.03 0.01 0.00 0.01 0.01 0.02 0.02 0.03 0.04 0.10 0.11 0.05 0.03 0.07 0.06 0.03 0.02 0.08 0.07 0.05 0.06 0.05 0.06 0.11 0.27 0.25 0.12 0.16 0.19 0.17 0.18 0.14 0.16 0.20
0.24 1.67 0.78 0.26 0.29 0.71 0.32 0.21 0.28 0.54 0.21 0.09 0.09 0.04 0.01 0.01 0.01 0.01 0.01 0.03 0.04 0.04 0.03 0.03 0.02 0.05 0.06 0.02 0.07 0.07 0.03 0.02 0.03 0.07 0.17 0.36 0.27 0.18 0.14 0.26 0.20 0.12 0.14 0.13 0.13 0.12 0.18 0.20 0.14
0.29 0.82 0.63 0.14 0.08 0.19 0.25 0.25 0.15 0.16 0.06 0.04 0.02 0.02 0.00 0.01 0.01 0.00 0.00 0.01 0.02 0.01 0.02 0.02 0.01 0.02 0.01 0.02 0.03 0.02 0.01 0.01 0.03 0.10 0.40 0.71 0.31 0.19 0.15 0.25 0.13 0.10 0.11 0.13 0.12 0.15 0.27 0.20 0.10
0.12 0.34 0.13 0.03 0.01 0.10 0.09 0.29 0.30 0.07 0.03 0.01 0.00 0.00 0.00 0.00 0.00 0.00 0.00 0.00 0.00 0.00 0.00 0.01 0.00 0.01 0.00 0.02 0.05 0.05 0.02 0.01 0.04 0.12 0.68 1.15 0.50 0.30 0.37 0.26 0.28 0.16 0.52 0.55 0.48 0.32 0.15 0.09 0.06
0.04 0.05 0.04 0.03 0.01 0.01 0.06 0.30 0.87 0.43 0.19 0.03 0.00 0.00 0.00 0.00 0.00 0.00 0.00 0.00 0.00 0.00 0.00 0.00 0.00 0.01 0.02 0.02 0.02 0.06 0.09 0.01 0.00 0.04 0.13 0.30 0.64 0.37 0.64 0.46 0.25 0.51 0.28 0.60 0.38 0.31 0.12 0.11 0.11
0.00 0.02 0.01 0.02 0.04 0.04 0.04 0.12 0.69 0.26 0.39 0.06 0.00 0.00 0.00 0.00 0.00 0.00 0.00 0.00 0.00 0.00 0.00 0.00 0.00 0.00 0.02 0.00 0.01 0.00 0.01 0.00 0.00 0.02 0.05 0.28 0.22 0.29 0.25 0.32 0.36 0.24 0.20 0.23 0.17 0.16 0.07 0.07 0.01
0.00 0.01 0.03 0.02 0.02 0.04 0.02 0.03 0.03 0.15 0.03 0.00 0.00 0.00 0.00 0.00 0.00 0.00 0.00 0.00 0.00 0.00 0.00 0.00 0.00 0.00 0.02 0.00 0.01 0.01 0.00 0.00 0.00 0.00 0.00 0.14 0.16 0.34 0.30 0.33 0.25 0.15 0.12 0.15 0.24 0.16 0.08 0.03 0.00
0.00 0.00 0.00 0.03 0.01 0.03 0.01 0.07 0.01 0.11 0.06 0.00 0.00 0.00 0.00 0.00 0.00 0.00 0.00 0.00 0.00 0.00 0.00 0.00 0.00 0.00 0.01 0.03 0.01 0.01 0.00 0.00 0.00 0.00 0.00 0.04 0.25 0.35 0.44 0.38 0.23 0.08 0.14 0.17 0.14 0.13 0.07 0.00 0.00
0.00 0.00 0.00 0.00 0.01 0.00 0.01 0.01 0.02 0.10 0.11 0.00 0.00 0.00 0.00 0.00 0.00 0.00 0.00 0.00 0.00 0.00 0.00 0.00 0.00 0.00 0.00 0.01 0.04 0.00 0.00 0.00 0.02 0.05 0.08 0.22 0.24 0.33 0.55 0.67 0.43 0.14 0.11 0.18 0.15 0.15 0.08 0.00 0.00
0.00 0.00 0.00 0.01 0.01 0.00 0.00 0.15 0.19 0.08 0.05 0.03 0.00 0.00 0.00 0.00 0.00 0.00 0.00 0.00 0.00 0.00 0.00 0.00 0.00 0.00 0.00 0.01 0.05 0.05 0.08 0.15 0.13 0.07 0.10 0.12 0.15 0.25 0.48 0.63 0.60 0.21 0.13 0.22 0.17 0.07 0.03 0.00 0.00
0.00 0.00 0.00 0.00 0.01 0.00 0.01 0.16 0.52 0.12 0.05 0.12 0.07 0.01 0.00 0.00 0.00 0.00 0.00 0.00 0.00 0.00 0.00 0.00 0.00 0.03 0.13 0.24 0.24 0.16 0.11 0.10 0.02 0.00 0.07 0.08 0.21 0.18 0.30 0.37 0.36 0.22 0.17 0.15 0.14 0.05 0.00 0.00 0.00
0.00 0.00 0.00 0.00 0.02 0.02 0.02 0.07 0.61 0.09 0.05 0.22 0.09 0.07 0.03 0.00 0.00 0.00 0.00 0.00 0.00 0.00 0.00 0.00 0.00 0.04 0.13 0.11 0.07 0.02 0.02 0.01 0.02 0.04 0.11 0.12 0.09 0.14 0.27 0.32 0.40 0.20 0.21 0.24 0.07 0.02 0.00 0.00 0.00
0.00 0.00 0.00 0.00 0.01 0.01 0.05 0.05 0.13 0.14 0.01 0.03 0.20 0.16 0.09 0.00 0.00 0.00 0.00 0.00 0.00 0.00 0.00 0.00 0.00 0.00 0.08 0.02 0.02 0.02 0.01 0.00 0.03 0.01 0.05 0.02 0.02 0.06 0.11 0.32 0.26 0.24 0.23 0.20 0.15 0.09 0.02 0.00 0.00
0.00 0.00 0.00 0.00 0.00 0.00 0.03 0.06 0.05 0.17 0.19 0.05 0.06 0.28 0.05 0.01 0.00 0.00 0.00 0.00 0.00 0.00 0.00 0.00 0.00 0.00 0.06 0.04 0.05 0.09 0.07 0.03 0.02 0.02 0.03 0.02 0.02 0.04 0.16 0.31 0.22 0.23 0.26 0.30 0.18 0.05 0.02 0.01 0.01
0.00 0.00 0.00 0.00 0.00 0.00 0.00 0.01 0.01 0.11 0.38 0.33 0.02 0.00 0.01 0.01 0.00 0.00 0.00 0.00 0.00 0.00 0.00 0.00 0.00 0.00 0.01 0.04 0.01 0.05 0.01 0.00 0.00 0.00 0.00 0.01 0.01 0.01 0.04 0.12 0.12 0.16 0.23 0.31 0.20 0.03 0.02 0.01 0.00
0.00 0.00 0.00 0.00 0.00 0.00 0.00 0.00 0.00 0.01 0.26 0.32 0.03 0.00 0.00 0.00 0.01 0.00 0.00 0.00 0.00 0.00 0.00 0.00 0.00 0.00 0.00 0.02 0.01 0.03 0.01 0.00 0.00 0.00 0.01 0.02 0.05 0.01 0.01 0.01 0.09 0.13 0.16 0.23 0.24 0.17 0.05 0.03 0.00
0.00 0.00 0.00 0.00 0.00 0.00 0.00 0.01 0.00 0.00 0.00 0.09 0.12 0.03 0.00 0.00 0.00 0.00 0.00 0.00 0.00 0.00 0.00 0.00 0.00 0.00 0.00 0.01 0.00 0.02 0.01 0.00 0.00 0.00 0.00 0.00 0.00 0.00 0.00 0.04 0.09 0.09 0.06 0.09 0.16 0.13 0.05 0.01 0.01
0.00 0.00 0.00 0.00 0.00 0.00 0.00 0.00 0.00 0.00 0.00 0.01 0.11 0.16 0.01 0.00 0.00 0.00 0.00 0.00 0.00 0.00 0.00 0.00 0.00 0.00 0.00 0.00 0.00 0.00 0.01 0.00 0.01 0.01 0.00 0.00 0.00 0.00 0.00 0.01 0.07 0.03 0.04 0.05 0.10 0.12 0.10 0.01 0.00
0.00 0.00 0.00 0.00 0.00 0.00 0.00 0.00 0.00 0.00 0.00 0.00 0.02 0.05 0.04 0.00 0.00 0.00 0.00 0.00 0.00 0.00 0.00 0.00 0.00 0.00 0.00 0.00 0.00 0.00 0.00 0.00 0.00 0.00 0.00 0.00 0.00 0.00 0.00 0.00 0.00 0.01 0.04 0.04 0.06 0.03 0.02 0.02 0.00
0.00 0.00 0.00 0.00 0.00 0.00 0.00 0.00 0.00 0.00 0.00 0.00 0.00 0.08 0.12 0.06 0.01 0.00 0.00 0.00 0.00 0.00 0.00 0.00 0.00 0.00 0.00 0.00 0.00 0.00 0.00 0.00 0.00 0.00 0.00 0.00 0.00 0.00 0.00 0.00 0.00 0.00 0.00 0.01 0.03 0.01 0.04 0.07 0.03
0.00 0.00 0.00 0.00 0.00 0.00 0.00 0.00 0.00 0.00 0.00 0.00 0.00 0.00 0.06 0.08 0.09 0.02 0.00 0.00 0.00 0.00 0.00 0.00 0.00 0.00 0.00 0.00 0.00 0.00 0.00 0.00 0.00 0.00 0.00 0.00 0.00 0.00 0.00 0.00 0.00 0.00 0.00 0.00 0.01 0.00 0.01 0.02 0.02
0.00 0.00 0.00 0.00 0.00 0.00 0.00 0.00 0.00 0.00 0.00 0.00 0.00 0.00 0.01 0.07 0.26 0.27 0.04 0.00 0.00 0.00 0.00 0.00 0.00 0.00 0.00 0.00 0.00 0.00 0.00 0.00 0.00 0.00 0.00 0.00 0.00 0.00 0.00 0.00 0.00 0.00 0.00 0.00 0.00 0.00 0.01 0.01 0.01
0.00 0.00 0.00 0.00 0.00 0.00 0.00 0.00 0.00 0.00 0.00 0.00 0.00 0.00 0.00 0.01 0.09 0.20 0.13 0.01 0.00 0.00 0.00 0.00 0.00 0.00 0.00 0.00 0.00 0.00 0.00 0.00 0.00 0.01 0.01 0.00 0.00 0.00 0.00 0.00 0.00 0.00 0.00 0.00 0.00 0.00 0.00 0.00 0.00

GFSSGP_prec_precacc_063.txt.gz
Total_Precipitation_Accumulation
0.01 0.04 0.34 0.83 1.42 0.81 1.56 1.76 0.66 0.63 0.26 0.04 0.04 0.05 0.35 0.35 0.53 0.48 0.18 0.13 0.02 0.10 0.20 0.67 1.11 0.77 0.44 0.25 0.20 0.11 0.10 0.05 0.05 0.04 0.07 0.09 0.15 0.20 0.11 0.16 0.18 0.15 0.15 0.08 0.08 0.06 0.18 0.17 0.17
0.01 0.19 1.16 3.17 2.38 1.51 1.65 1.53 0.80 0.51 0.13 0.05 0.03 0.11 0.09 0.04 0.02 0.08 0.15 0.07 0.00 0.01 0.04 0.31 0.89 0.38 0.21 0.15 0.12 0.10 0.04 0.04 0.05 0.09 0.17 0.15 0.25 0.15 0.14 0.21 0.37 0.42 0.44 0.29 0.20 0.15 0.09 0.16 0.25
0.04 0.87 3.40 3.41 1.58 1.66 3.08 1.81 0.59 0.31 0.25 0.10 0.09 0.16 0.05 0.03 0.02 0.04 0.02 0.00 0.02 0.02 0.03 0.21 0.39 0.23 0.16 0.21 0.14 0.14 0.09 0.04 0.03 0.11 0.14 0.18 0.18 0.11 0.17 0.11 0.14 0.15 0.09 0.10 0.12 0.10 0.14 0.24 0.25
0.27 1.70 2.88 1.87 0.82 1.13 1.81 1.59 0.51 0.35 0.33 0.14 0.15 0.06 0.01 0.01 0.01 0.01 0.00 0.01 0.03 0.02 0.05 0.17 0.20 0.16 0.19 0.17 0.16 0.09 0.06 0.06 0.09 0.16 0.15 0.16 0.11 0.07 0.09 0.09 0.10 0.09 0.02 0.00 0.01 0.06 0.12 0.18 0.33
0.51 1.20 1.95 1.66 0.97 0.65 0.67 0.71 0.82 0.65 0.42 0.33 0.13 0.05 0.04 0.03 0.00 0.00 0.01 0.01 0.01 0.02 0.05 0.06 0.24 0.21 0.16 0.14 0.09 0.05 0.02 0.03 0.11 0.17 0.07 0.08 0.08 0.08 0.07 0.10 0.07 0.05 0.01 0.03 0.06 0.09 0.09 0.09 0.22
1.45 1.45 0.99 0.61 0.70 1.20 0.61 0.79 0.83 0.62 0.75 0.74 0.18 0.04 0.08 0.04 0.01 0.01 0.01 0.01 0.04 0.02 0.03 0.04 0.14 0.22 0.16 0.08 0.03 0.04 0.02 0.02 0.06 0.17 0.13 0.06 0.10 0.07 0.09 0.05 0.06 0.03 0.04 0.08 0.07 0.06 0.13 0.11 0.24
0.40 2.25 0.79 0.74 0.61 0.85 0.80 0.91 1.09 0.45 0.46 0.29 0.10 0.06 0.08 0.07 0.01 0.00 0.01 0.02 0.03 0.02 0.02 0.05 0.10 0.14 0.09 0.08 0.03 0.03 0.02 0.03 0.06 0.10 0.14 0.07 0.07 0.11 0.13 0.17 0.16 0.09 0.12 0.13 0.19 0.15 0.12 0.11 0.25
0.25 1.96 1.96 0.76 0.74 1.23 0.34 0.32 0.68 0.56 0.35 0.27 0.15 0.08 0.04 0.03 0.01 0.00 0.01 0.01 0.02 0.02 0.03 0.04 0.10 0.11 0.05 0.03 0.07 0.06 0.03 0.02 0.08 0.07 0.06 0.11 0.06 0.06 0.11 0.27 0.25 0.12 0.16 0.19 0.17 0.18 0.14 0.16 0.20
0.24 1.73 0.92 0.31 0.33 0.74 0.33 0.25 0.32 0.63 0.28 0.13 0.16 0.13 0.01 0.01 0.01 0.01 0.01 0.03 0.04 0.04 0.03 0.03 0.02 0.05 0.06 0.02 0.07 0.07 0.03 0.02 0.03 0.08 0.18 0.39 0.28 0.19 0.14 0.26 0.20 0.12 0.14 0.13 0.13 0.12 0.18 0.20 0.14
0.29 0.95 0.80 0.19 0.12 0.28 0.26 0.26 0.18 0.17 0.08 0.21 0.07 0.08 0.00 0.01 0.01 0.00 0.00 0.01 0.02 0.01 0.02 0.02 0.01 0.02 0.01 0.02 0.03 0.02 0.01 0.01 0.06 0.12 0.42 0.72 0.35 0.19 0.15 0.25 0.13 0.10 0.11 0.13 0.12 0.16 0.29 0.21 0.12
0.12 0.37 0.18 0.03 0.04 0.18 0.45 0.44 0.35 0.08 0.06 0.07 0.09 0.06 0.00 0.00 0.00 0.00 0.00 0.00 0.00 0.00 0.00 0.01 0.00 0.01 0.00 0.02 0.05 0.05 0.02 0.02 0.04 0.14 0.70 1.15 0.51 0.30 0.38 0.27 0.28 0.16 0.52 0.55 0.49 0.33 0.20 0.16 0.19
0.04 0.05 0.05 0.04 0.01 0.03 0.22 0.50 0.96 0.60 0.50 0.14 0.09 0.03 0.00 0.00 0.00 0.00 0.00 0.00 0.00 0.00 0.00 0.00 0.00 0.01 0.02 0.02 0.02 0.07 0.09 0.02 0.00 0.04 0.15 0.37 0.68 0.39 0.67 0.47 0.26 0.53 0.28 0.61 0.41 0.35 0.19 0.13 0.19
0.00 0.02 0.01 0.04 0.06 0.07 0.09 0.25 1.06 0.54 0.86 0.28 0.07 0.01 0.00 0.00 0.00 0.00 0.00 0.00 0.00 0.00 0.00 0.00 0.00 0.00 0.02 0.00 0.01 0.01 0.01 0.00 0.00 0.02 0.06 0.36 0.35 0.36 0.33 0.33 0.39 0.27 0.24 0.26 0.18 0.17 0.07 0.11 0.02
0.00 0.01 0.03 0.03 0.05 0.10 0.04 0.04 0.07 0.23 0.27 0.24 0.02 0.00 0.00 0.00 0.00 0.00 0.00 0.00 0.00 0.00 0.00 0.00 0.00 0.01 0.03 0.00 0.01 0.02 0.00 0.00 0.00 0.00 0.00 0.23 0.25 0.40 0.37 0.36 0.31 0.20 0.15 0.17 0.24 0.16 0.08 0.03 0.00
0.00 0.00 0.00 0.03 0.01 0.09 0.08 0.08 0.04 0.33 0.33 0.07 0.01 0.00 0.00 0.00 0.00 0.00 0.00 0.00 0.00 0.00 0.00 0.00 0.00 0.00 0.01 0.03 0.01 0.01 0.00 0.00 0.00 0.00 0.00 0.08 0.28 0.37 0.46 0.41 0.27 0.12 0.17 0.18 0.14 0.13 0.07 0.00 0.00
0.00 0.00 0.00 0.00 0.01 0.01 0.09 0.12 0.12 0.29 0.35 0.01 0.00 0.00 0.00 0.00 0.00 0.00 0.00 0.00 0.00 0.00 0.00 0.00 0.00 0.00 0.00 0.01 0.04 0.00 0.00 0.00 0.02 0.05 0.08 0.23 0.25 0.38 0.57 0.69 0.46 0.15 0.12 0.18 0.15 0.15 0.08 0.00 0.00
0.00 0.00 0.00 0.01 0.01 0.00 0.02 0.18 0.26 0.23 0.18 0.04 0.00 0.00 0.00 0.00 0.00 0.00 0.00 0.00 0.00 0.00 0.00 0.00 0.00 0.00 0.00 0.01 0.05 0.05 0.08 0.15 0.13 0.07 0.10 0.12 0.15 0.29 0.52 0.64 0.62 0.23 0.14 0.22 0.17 0.07 0.03 0.00 0.00
0.00 0.00 0.00 0.00 0.01 0.01 0.03 0.16 0.53 0.42 0.96 0.30 0.08 0.01 0.00 0.00 0.00 0.00 0.00 0.00 0.00 0.00 0.00 0.00 0.00 0.03 0.13 0.24 0.24 0.16 0.11 0.10 0.02 0.00 0.07 0.08 0.21 0.18 0.35 0.38 0.39 0.25 0.18 0.15 0.14 0.05 0.00 0.00 0.00
0.00 0.00 0.00 0.00 0.02 0.02 0.04 0.07 0.61 0.15 0.67 0.77 0.14 0.07 0.03 0.00 0.00 0.00 0.00 0.00 0.00 0.00 0.00 0.00 0.00 0.04 0.13 0.11 0.07 0.02 0.02 0.01 0.02 0.04 0.11 0.12 0.09 0.14 0.29 0.34 0.40 0.23 0.24 0.24 0.07 0.02 0.00 0.00 0.00
0.00 0.00 0.00 0.00 0.01 0.01 0.06 0.06 0.14 0.17 0.06 0.20 0.30 0.18 0.09 0.00 0.00 0.00 0.00 0.00 0.00 0.00 0.00 0.00 0.00 0.00 0.08 0.02 0.02 0.02 0.01 0.00 0.03 0.01 0.06 0.03 0.02 0.06 0.11 0.33 0.27 0.24 0.23 0.21 0.15 0.09 0.02 0.00 0.00
0.00 0.00 0.00 0.00 0.00 0.01 0.03 0.07 0.07 0.21 0.20 0.16 0.23 0.29 0.06 0.01 0.00 0.00 0.00 0.00 0.00 0.00 0.00 0.00 0.00 0.00 0.06 0.04 0.05 0.09 0.08 0.04 0.02 0.05 0.04 0.02 0.02 0.04 0.16 0.31 0.23 0.24 0.26 0.31 0.18 0.05 0.02 0.01 0.01
0.00 0.00 0.00 0.00 0.00 0.00 0.00 0.01 0.01 0.12 0.40 0.57 0.29 0.05 0.02 0.01 0.00 0.00 0.00 0.00 0.00 0.00 0.00 0.00 0.00 0.00 0.01 0.04 0.01 0.05 0.02 0.00 0.00 0.01 0.00 0.01 0.01 0.01 0.04 0.12 0.12 0.16 0.23 0.31 0.20 0.03 0.02 0.01 0.00
0.00 0.00 0.00 0.00 0.00 0.00 0.00 0.00 0.00 0.01 0.26 0.61 0.42 0.14 0.00 0.01 0.01 0.00 0.00 0.00 0.00 0.00 0.00 0.00 0.00 0.00 0.00 0.02 0.01 0.03 0.01 0.00 0.00 0.00 0.01 0.02 0.05 0.01 0.01 0.01 0.09 0.13 0.16 0.23 0.24 0.17 0.05 0.03 0.00
0.00 0.00 0.00 0.00 0.00 0.00 0.00 0.01 0.00 0.00 0.00 0.11 0.18 0.09 0.01 0.00 0.00 0.00 0.00 0.00 0.00 0.00 0.00 0.00 0.00 0.00 0.00 0.01 0.00 0.02 0.01 0.00 0.00 0.00 0.00 0.00 0.01 0.00 0.01 0.04 0.09 0.09 0.06 0.10 0.16 0.13 0.05 0.01 0.01
0.00 0.00 0.00 0.00 0.00 0.00 0.00 0.00 0.00 0.00 0.00 0.01 0.11 0.24 0.03 0.01 0.00 0.00 0.00 0.00 0.00 0.00 0.00 0.00 0.00 0.00 0.00 0.00 0.00 0.00 0.01 0.00 0.01 0.01 0.00 0.00 0.00 0.00 0.00 0.01 0.07 0.04 0.04 0.05 0.10 0.12 0.10 0.01 0.00
0.00 0.00 0.00 0.00 0.00 0.00 0.00 0.00 0.00 0.00 0.00 0.00 0.03 0.14 0.12 0.04 0.00 0.00 0.00 0.00 0.00 0.00 0.00 0.00 0.00 0.00 0.00 0.00 0.00 0.00 0.00 0.00 0.00 0.00 0.00 0.00 0.00 0.00 0.00 0.00 0.00 0.01 0.04 0.04 0.06 0.03 0.02 0.02 0.00
0.00 0.00 0.00 0.00 0.00 0.00 0.00 0.00 0.00 0.00 0.00 0.00 0.00 0.08 0.16 0.19 0.08 0.02 0.00 0.00 0.00 0.00 0.00 0.00 0.00 0.00 0.00 0.00 0.00 0.00 0.00 0.00 0.00 0.00 0.00 0.00 0.00 0.00 0.00 0.00 0.00 0.00 0.00 0.01 0.03 0.01 0.04 0.07 0.03
0.00 0.00 0.00 0.00 0.00 0.00 0.00 0.00 0.00 0.00 0.00 0.00 0.00 0.00 0.06 0.28 0.47 0.18 0.09 0.02 0.01 0.00 0.00 0.00 0.00 0.00 0.00 0.00 0.00 0.00 0.00 0.00 0.00 0.00 0.00 0.00 0.00 0.00 0.00 0.00 0.00 0.00 0.00 0.00 0.01 0.00 0.01 0.02 0.02
0.00 0.00 0.00 0.00 0.00 0.00 0.00 0.00 0.00 0.00 0.00 0.00 0.00 0.00 0.01 0.07 0.34 0.51 0.33 0.04 0.02 0.00 0.00 0.00 0.00 0.00 0.00 0.00 0.00 0.00 0.00 0.00 0.00 0.00 0.00 0.00 0.00 0.00 0.00 0.00 0.00 0.00 0.00 0.00 0.00 0.00 0.01 0.01 0.01
0.00 0.00 0.00 0.00 0.00 0.00 0.00 0.00 0.00 0.00 0.00 0.00 0.00 0.00 0.00 0.01 0.09 0.31 0.51 0.12 0.02 0.00 0.00 0.00 0.00 0.00 0.00 0.00 0.00 0.00 0.00 0.00 0.00 0.01 0.01 0.00 0.00 0.00 0.00 0.00 0.00 0.00 0.00 0.00 0.00 0.00 0.00 0.00 0.00

GFSSGP_prec_precacc_066.txt.gz
Total_Precipitation_Accumulation
0.01 0.04 0.34 0.83 1.42 0.81 1.60 2.11 1.11 0.86 0.30 0.04 0.04 0.05 0.35 0.35 0.53 0.48 0.18 0.13 0.02 0.10 0.20 0.69 1.12 0.78 0.44 0.28 0.22 0.11 0.10 0.05 0.05 0.05 0.07 0.09 0.17 0.22 0.11 0.16 0.18 0.15 0.16 0.09 0.09 0.07 0.18 0.18 0.17
0.01 0.19 1.16 3.17 2.38 1.52 1.68 1.65 1.07 0.57 0.14 0.06 0.03 0.11 0.09 0.04 0.02 0.08 0.15 0.07 0.00 0.01 0.04 0.31 0.89 0.38 0.23 0.20 0.13 0.11 0.04 0.04 0.06 0.10 0.18 0.15 0.26 0.16 0.15 0.21 0.38 0.43 0.44 0.30 0.22 0.15 0.09 0.16 0.25
0.04 0.87 3.40 3.43 1.59 1.73 3.12 2.05 1.05 0.38 0.25 0.10 0.09 0.19 0.07 0.03 0.02 0.04 0.02 0.00 0.02 0.02 0.03 0.21 0.39 0.23 0.16 0.22 0.15 0.14 0.10 0.05 0.04 0.11 0.15 0.18 0.19 0.13 0.17 0.11 0.15 0.15 0.10 0.10 0.12 0.11 0.14 0.24 0.26
0.27 1.70 2.88 1.88 1.00 1.60 2.03 1.97 1.36 0.44 0.37 0.16 0.21 0.08 0.02 0.01 0.01 0.01 0.00 0.01 0.03 0.02 0.05 0.17 0.20 0.16 0.20 0.17 0.16 0.09 0.09 0.09 0.10 0.17 0.16 0.17 0.12 0.09 0.09 0.09 0.10 0.09 0.02 0.01 0.01 0.06 0.12 0.18 0.33
0.51 1.20 1.95 1.67 1.42 1.28 0.78 0.82 1.08 0.72 0.45 0.42 0.16 0.05 0.04 0.03 0.00 0.00 0.01 0.01 0.01 0.02 0.05 0.06 0.25 0.22 0.16 0.14 0.09 0.07 0.07 0.03 0.11 0.17 0.08 0.08 0.10 0.09 0.07 0.10 0.07 0.05 0.01 0.03 0.06 0.09 0.09 0.09 0.26
1.45 1.45 0.99 0.65 0.96 1.98 0.83 0.90 0.90 0.64 0.77 0.79 0.18 0.04 0.08 0.04 0.01 0.01 0.01 0.01 0.04 0.02 0.03 0.04 0.14 0.22 0.16 0.08 0.04 0.05 0.02 0.02 0.06 0.17 0.13 0.07 0.12 0.08 0.09 0.05 0.06 0.03 0.04 0.08 0.07 0.06 0.13 0.11 0.25
0.40 2.26 0.80 0.81 0.76 1.36 1.25 1.13 1.18 0.46 0.47 0.29 0.10 0.06 0.08 0.07 0.01 0.00 0.01 0.02 0.03 0.02 0.02 0.05 0.10 0.14 0.10 0.08 0.04 0.03 0.02 0.03 0.06 0.10 0.14 0.07 0.07 0.11 0.13 0.17 0.16 0.09 0.12 0.13 0.19 0.15 0.13 0.12 0.26
0.25 1.96 1.98 0.77 0.77 1.33 0.47 0.39 0.75 0.58 0.36 0.30 0.15 0.08 0.04 0.03 0.01 0.00 0.01 0.01 0.02 0.02 0.03 0.04 0.10 0.11 0.05 0.03 0.07 0.06 0.03 0.02 0.08 0.07 0.06 0.12 0.07 0.06 0.11 0.27 0.25 0.12 0.16 0.19 0.17 0.18 0.14 0.17 0.21
0.24 1.74 0.93 0.32 0.37 0.76 0.45 0.33 0.37 0.66 0.34 0.14 0.21 0.14 0.01 0.01 0.01 0.01 0.01 0.03 0.04 0.04 0.03 0.03 0.02 0.05 0.06 0.02 0.07 0.07 0.03 0.03 0.08 0.10 0.18 0.40 0.28 0.19 0.14 0.26 0.20 0.12 0.14 0.13 0.13 0.12 0.20 0.22 0.15
0.29 0.95 0.80 0.20 0.15 0.32 0.30 0.30 0.19 0.26 0.19 0.36 0.18 0.09 0.00 0.01 0.01 0.00 0.00 0.01 0.02 0.01 0.02 0.02 0.01 0.02 0.01 0.02 0.03 0.02 0.01 0.03 0.09 0.12 0.42 0.72 0.35 0.19 0.15 0.25 0.13 0.10 0.11 0.13 0.12 0.16 0.29 0.22 0.12
0.12 0.37 0.18 0.04 0.05 0.24 0.53 0.59 0.36 0.13 0.21 0.82 0.37 0.07 0.00 0.00 0.00 0.00 0.00 0.00 0.00 0.00 0.00 0.01 0.00 0.01 0.00 0.02 0.05 0.05 0.02 0.02 0.05 0.16 0.71 1.16 0.51 0.30 0.38 0.27 0.28 0.16 0.52 0.55 0.49 0.33 0.20 0.16 0.19
0.04 0.05 0.05 0.04 0.02 0.08 0.47 0.83 0.99 0.65 0.60 0.32 0.21 0.05 0.00 0.00 0.00 0.00 0.00 0.00 0.00 0.00 0.00 0.00 0.00 0.01 0.02 0.02 0.02 0.07 0.09 0.02 0.00 0.04 0.15 0.38 0.68 0.39 0.67 0.47 0.26 0.53 0.30 0.63 0.42 0.35 0.19 0.13 0.19
0.00 0.02 0.01 0.05 0.07 0.13 0.19 0.35 1.08 0.57 1.19 0.53 0.16 0.03 0.00 0.00 0.00 0.00 0.00 0.00 0.00 0.00 0.00 0.00 0.00 0.00 0.02 0.00 0.01 0.01 0.02 0.00 0.00 0.02 0.06 0.36 0.36 0.37 0.33 0.33 0.39 0.27 0.25 0.26 0.18 0.19 0.07 0.12 0.02
0.00 0.01 0.03 0.03 0.05 0.11 0.12 0.07 0.09 0.24 0.33 0.32 0.08 0.00 0.00 0.00 0.00 0.00 0.00 0.00 0.00 0.00 0.00 0.00 0.00 0.01 0.03 0.00 0.02 0.02 0.00 0.00 0.00 0.00 0.00 0.23 0.25 0.42 0.38 0.36 0.31 0.21 0.16 0.18 0.24 0.17 0.08 0.03 0.00
0.00 0.00 0.00 0.03 0.02 0.09 0.11 0.10 0.06 0.34 0.41 0.15 0.04 0.00 0.00 0.00 0.00 0.00 0.00 0.00 0.00 0.00 0.00 0.00 0.00 0.00 0.01 0.05 0.01 0.01 0.00 0.00 0.00 0.00 0.00 0.08 0.28 0.37 0.46 0.41 0.27 0.13 0.17 0.18 0.14 0.14 0.08 0.00 0.00
0.00 0.00 0.00 0.00 0.02 0.02 0.11 0.13 0.14 0.31 0.36 0.03 0.01 0.00 0.00 0.00 0.00 0.00 0.00 0.00 0.00 0.00 0.00 0.00 0.00 0.00 0.00 0.01 0.04 0.00 0.00 0.00 0.02 0.05 0.08 0.24 0.27 0.38 0.57 0.69 0.48 0.16 0.12 0.18 0.15 0.15 0.08 0.00 0.00
0.00 0.00 0.00 0.01 0.01 0.01 0.04 0.19 0.30 0.25 0.28 0.13 0.01 0.00 0.00 0.00 0.00 0.00 0.00 0.00 0.00 0.00 0.00 0.00 0.00 0.00 0.00 0.02 0.05 0.05 0.08 0.15 0.13 0.07 0.10 0.13 0.17 0.30 0.52 0.64 0.62 0.24 0.14 0.22 0.17 0.07 0.03 0.00 0.00
0.00 0.00 0.00 0.00 0.01 0.01 0.08 0.17 0.57 0.45 1.47 0.64 0.15 0.02 0.00 0.00 0.00 0.00 0.00 0.00 0.00 0.00 0.00 0.00 0.00 0.03 0.13 0.24 0.24 0.16 0.11 0.10 0.02 0.00 0.07 0.09 0.21 0.19 0.35 0.38 0.40 0.26 0.18 0.15 0.14 0.05 0.00 0.00 0.00
0.00 0.00 0.00 0.00 0.02 0.02 0.07 0.07 0.63 0.16 0.73 0.91 0.15 0.08 0.03 0.00 0.00 0.00 0.00 0.00 0.00 0.00 0.00 0.00 0.00 0.04 0.13 0.11 0.07 0.02 0.02 0.01 0.02 0.04 0.11 0.13 0.09 0.15 0.29 0.35 0.40 0.23 0.24 0.24 0.07 0.02 0.00 0.00 0.00
0.00 0.00 0.00 0.00 0.01 0.01 0.06 0.09 0.23 0.22 0.07 0.22 0.31 0.19 0.11 0.01 0.00 0.00 0.00 0.00 0.00 0.00 0.00 0.00 0.00 0.00 0.08 0.02 0.02 0.02 0.01 0.00 0.03 0.01 0.06 0.03 0.02 0.06 0.11 0.33 0.27 0.24 0.23 0.21 0.15 0.09 0.02 0.00 0.00
0.00 0.00 0.00 0.00 0.00 0.02 0.16 0.28 0.15 0.26 0.22 0.18 0.43 0.41 0.10 0.01 0.01 0.00 0.00 0.00 0.00 0.00 0.00 0.00 0.00 0.00 0.06 0.04 0.05 0.09 0.08 0.04 0.02 0.05 0.04 0.02 0.02 0.04 0.16 0.31 0.23 0.24 0.26 0.31 0.18 0.05 0.02 0.01 0.01
0.00 0.00 0.00 0.00 0.00 0.00 0.04 0.17 0.18 0.20 0.41 0.57 0.54 0.42 0.08 0.01 0.00 0.00 0.00 0.00 0.00 0.00 0.00 0.00 0.00 0.00 0.01 0.04 0.01 0.05 0.02 0.00 0.00 0.01 0.00 0.01 0.01 0.01 0.04 0.12 0.12 0.16 0.23 0.31 0.20 0.03 0.02 0.01 0.00
0.00 0.00 0.00 0.00 0.00 0.00 0.00 0.01 0.01 0.04 0.27 0.61 0.43 0.24 0.04 0.01 0.01 0.00 0.00 0.00 0.00 0.00 0.00 0.00 0.00 0.00 0.00 0.02 0.01 0.03 0.01 0.00 0.00 0.00 0.01 0.02 0.05 0.01 0.01 0.01 0.09 0.13 0.16 0.23 0.24 0.17 0.05 0.03 0.00
0.00 0.00 0.00 0.00 0.00 0.00 0.00 0.01 0.00 0.00 0.00 0.11 0.18 0.09 0.01 0.00 0.00 0.00 0.00 0.00 0.00 0.00 0.00 0.00 0.00 0.00 0.00 0.01 0.00 0.02 0.01 0.00 0.00 0.00 0.00 0.00 0.01 0.00 0.01 0.04 0.09 0.09 0.06 0.10 0.16 0.13 0.05 0.01 0.01
0.00 0.00 0.00 0.00 0.00 0.00 0.00 0.00 0.00 0.00 0.00 0.01 0.12 0.25 0.03 0.01 0.00 0.00 0.00 0.00 0.00 0.00 0.00 0.00 0.00 0.00 0.00 0.00 0.00 0.00 0.01 0.00 0.01 0.01 0.00 0.00 0.00 0.00 0.00 0.01 0.07 0.04 0.04 0.05 0.10 0.12 0.10 0.01 0.00
0.00 0.00 0.00 0.00 0.00 0.00 0.00 0.00 0.00 0.00 0.00 0.00 0.03 0.14 0.12 0.04 0.00 0.00 0.00 0.00 0.00 0.00 0.00 0.00 0.00 0.00 0.00 0.00 0.00 0.00 0.00 0.00 0.00 0.00 0.00 0.00 0.00 0.00 0.00 0.00 0.00 0.01 0.04 0.04 0.06 0.03 0.02 0.02 0.00
0.00 0.00 0.00 0.00 0.00 0.00 0.00 0.00 0.00 0.00 0.00 0.00 0.00 0.08 0.16 0.19 0.08 0.02 0.00 0.00 0.00 0.00 0.00 0.00 0.00 0.00 0.00 0.00 0.00 0.00 0.00 0.00 0.00 0.00 0.00 0.00 0.00 0.00 0.00 0.00 0.00 0.00 0.00 0.01 0.03 0.01 0.04 0.07 0.03
0.00 0.00 0.00 0.00 0.00 0.00 0.00 0.00 0.00 0.00 0.00 0.00 0.00 0.00 0.06 0.28 0.47 0.18 0.09 0.03 0.02 0.01 0.00 0.00 0.00 0.00 0.00 0.00 0.00 0.00 0.00 0.00 0.00 0.00 0.00 0.00 0.00 0.00 0.00 0.00 0.00 0.00 0.00 0.00 0.01 0.00 0.01 0.02 0.02
0.00 0.00 0.00 0.00 0.00 0.00 0.00 0.00 0.00 0.00 0.00 0.00 0.00 0.00 0.01 0.07 0.35 0.51 0.35 0.06 0.02 0.00 0.00 0.00 0.00 0.00 0.00 0.00 0.00 0.00 0.00 0.00 0.00 0.00 0.00 0.00 0.00 0.00 0.00 0.00 0.00 0.00 0.00 0.00 0.00 0.00 0.01 0.01 0.01
0.00 0.00 0.00 0.00 0.00 0.00 0.00 0.00 0.00 0.00 0.00 0.00 0.00 0.00 0.00 0.01 0.10 0.31 0.51 0.12 0.02 0.00 0.00 0.00 0.00 0.00 0.00 0.00 0.00 0.00 0.00 0.00 0.00 0.01 0.01 0.00 0.00 0.00 0.00 0.00 0.00 0.00 0.00 0.00 0.00 0.00 0.00 0.00 0.00

GFSSGP_prec_precacc_069.txt.gz
Total_Precipitation_Accumulation
0.01 0.04 0.34 0.83 1.42 0.81 1.60 2.14 1.16 0.93 0.31 0.04 0.04 0.05 0.35 0.35 0.53 0.48 0.18 0.13 0.02 0.10 0.20 0.70 1.12 0.78 0.44 0.28 0.22 0.11 0.10 0.05 0.05 0.05 0.07 0.09 0.17 0.22 0.11 0.16 0.18 0.15 0.16 0.09 0.09 0.07 0.18 0.18 0.17
0.01 0.19 1.16 3.18 2.39 1.57 1.72 1.66 1.16 0.65 0.16 0.06 0.03 0.11 0.09 0.04 0.02 0.08 0.15 0.07 0.00 0.01 0.04 0.33 0.90 0.39 0.23 0.20 0.13 0.11 0.04 0.04 0.06 0.10 0.18 0.15 0.27 0.16 0.16 0.24 0.39 0.44 0.49 0.35 0.23 0.15 0.09 0.17 0.27
0.04 0.87 3.41 3.44 1.66 2.25 3.40 2.12 1.18 0.41 0.26 0.11 0.13 0.19 0.08 0.04 0.02 0.04 0.02 0.00 0.02 0.02 0.03 0.21 0.39 0.24 0.16 0.23 0.16 0.15 0.10 0.06 0.05 0.12 0.15 0.19 0.21 0.14 0.18 0.12 0.17 0.17 0.14 0.13 0.15 0.12 0.15 0.25 0.31
0.27 1.70 2.88 1.89 1.25 2.00 2.04 2.07 1.49 0.49 0.42 0.23 0.30 0.17 0.09 0.01 0.01 0.01 0.00 0.01 0.03 0.02 0.05 0.17 0.20 0.16 0.20 0.19 0.20 0.10 0.10 0.11 0.11 0.19 0.20 0.19 0.12 0.09 0.10 0.10 0.10 0.10 0.04 0.03 0.02 0.06 0.14 0.23 0.37
0.51 1.20 1.96 1.77 1.61 1.49 0.84 0.87 1.20 0.76 0.52 0.47 0.21 0.09 0.09 0.03 0.00 0.00 0.01 0.01 0.01 0.02 0.05 0.06 0.26 0.22 0.16 0.14 0.09 0.08 0.09 0.05 0.12 0.19 0.09 0.09 0.10 0.09 0.09 0.11 0.07 0.06 0.02 0.03 0.06 0.09 0.16 0.16 0.31
1.45 1.45 1.00 0.70 1.11 2.09 1.14 1.09 1.03 0.75 0.83 0.83 0.20 0.04 0.08 0.04 0.01 0.01 0.01 0.01 0.04 0.02 0.03 0.04 0.15 0.23 0.17 0.11 0.07 0.06 0.03 0.03 0.08 0.18 0.13 0.08 0.13 0.09 0.12 0.06 0.06 0.03 0.04 0.08 0.07 0.07 0.21 0.19 0.29
0.40 2.26 0.80 0.83 0.92 2.62 1.72 1.41 1.30 0.55 0.49 0.30 0.11 0.07 0.08 0.07 0.01 0.00 0.01 0.02 0.03 0.02 0.02 0.05 0.11 0.15 0.15 0.13 0.07 0.03 0.02 0.04 0.07 0.11 0.17 0.09 0.08 0.12 0.14 0.17 0.16 0.10 0.13 0.13 0.19 0.16 0.17 0.14 0.27
0.25 1.96 1.99 0.79 0.83 1.52 0.63 0.54 0.86 0.61 0.37 0.30 0.15 0.08 0.04 0.03 0.01 0.00 0.01 0.01 0.02 0.02 0.03 0.04 0.11 0.12 0.06 0.04 0.08 0.07 0.03 0.03 0.08 0.08 0.06 0.13 0.07 0.06 0.11 0.28 0.25 0.12 0.16 0.19 0.17 0.19 0.16 0.17 0.21
0.24 1.74 0.93 0.32 0.38 0.81 0.51 0.45 0.48 0.70 0.35 0.15 0.23 0.14 0.01 0.01 0.01 0.01 0.01 0.03 0.04 0.04 0.03 0.03 0.02 0.05 0.06 0.02 0.07 0.07 0.03 0.03 0.09 0.10 0.19 0.40 0.30 0.20 0.14 0.26 0.20 0.12 0.14 0.13 0.13 0.12 0.21 0.22 0.15
0.31 0.96 0.81 0.20 0.15 0.35 0.34 0.39 0.31 0.30 0.28 0.42 0.22 0.09 0.00 0.01 0.01 0.00 0.00 0.01 0.02 0.01 0.02 0.02 0.01 0.02 0.01 0.02 0.04 0.02 0.01 0.05 0.10 0.12 0.42 0.72 0.36 0.20 0.15 0.25 0.13 0.10 0.11 0.14 0.15 0.16 0.30 0.22 0.12
0.20 0.38 0.18 0.04 0.05 0.30 0.55 0.61 0.46 0.18 0.31 0.97 0.75 0.08 0.00 0.00 0.00 0.00 0.00 0.00 0.00 0.00 0.00 0.01 0.00 0.01 0.00 0.02 0.05 0.05 0.02 0.02 0.05 0.16 0.71 1.16 0.51 0.30 0.38 0.27 0.28 0.16 0.52 0.59 0.51 0.33 0.20 0.16 0.19
0.06 0.05 0.05 0.04 0.02 0.10 0.61 0.85 1.02 0.67 0.69 0.37 0.27 0.05 0.00 0.00 0.00 0.00 0.00 0.00 0.00 0.00 0.00 0.00 0.00 0.01 0.02 0.02 0.02 0.07 0.09 0.02 0.00 0.04 0.15 0.38 0.68 0.39 0.67 0.47 0.26 0.53 0.30 0.63 0.42 0.35 0.19 0.13 0.19
0.00 0.02 0.01 0.05 0.07 0.16 0.31 0.38 1.09 0.63 1.33 0.64 0.21 0.04 0.00 0.00 0.00 0.00 0.00 0.00 0.00 0.00 0.00 0.00 0.00 0.00 0.02 0.00 0.01 0.01 0.02 0.00 0.00 0.03 0.06 0.36 0.36 0.37 0.33 0.33 0.39 0.27 0.25 0.26 0.18 0.19 0.07 0.12 0.02
0.00 0.01 0.03 0.03 0.05 0.12 0.15 0.09 0.10 0.24 0.40 0.48 0.17 0.01 0.00 0.00 0.00 0.00 0.00 0.00 0.00 0.00 0.00 0.00 0.00 0.01 0.03 0.00 0.02 0.02 0.00 0.00 0.00 0.00 0.01 0.23 0.25 0.42 0.38 0.36 0.31 0.21 0.16 0.18 0.24 0.17 0.08 0.03 0.00
0.00 0.00 0.00 0.03 0.02 0.09 0.14 0.11 0.08 0.36 0.43 0.27 0.10 0.00 0.00 0.00 0.00 0.00 0.00 0.00 0.00 0.00 0.00 0.00 0.00 0.00 0.01 0.06 0.02 0.01 0.00 0.00 0.00 0.00 0.00 0.08 0.28 0.37 0.46 0.41 0.27 0.13 0.17 0.18 0.14 0.14 0.08 0.00 0.00
0.00 0.00 0.00 0.00 0.02 0.02 0.12 0.19 0.15 0.33 0.39 0.10 0.07 0.00 0.00 0.00 0.00 0.00 0.00 0.00 0.00 0.00 0.00 0.00 0.00 0.00 0.00 0.01 0.04 0.01 0.00 0.00 0.02 0.05 0.08 0.26 0.27 0.39 0.58 0.69 0.48 0.16 0.12 0.18 0.15 0.15 0.08 0.00 0.00
0.00 0.00 0.00 0.02 0.08 0.01 0.06 0.22 0.30 0.26 0.28 0.13 0.01 0.00 0.00 0.00 0.00 0.00 0.00 0.00 0.00 0.00 0.00 0.00 0.00 0.00 0.00 0.02 0.05 0.05 0.08 0.15 0.13 0.07 0.11 0.14 0.17 0.30 0.52 0.64 0.62 0.24 0.14 0.23 0.17 0.07 0.03 0.00 0.00
0.00 0.00 0.00 0.00 0.02 0.02 0.08 0.18 0.62 0.46 1.47 0.64 0.15 0.02 0.00 0.00 0.00 0.00 0.00 0.00 0.00 0.00 0.00 0.00 0.00 0.03 0.13 0.27 0.25 0.16 0.11 0.10 0.02 0.00 0.11 0.11 0.21 0.19 0.35 0.38 0.41 0.26 0.18 0.15 0.14 0.05 0.00 0.00 0.00
0.00 0.00 0.00 0.00 0.02 0.02 0.07 0.07 0.64 0.16 0.74 0.91 0.15 0.08 0.03 0.00 0.00 0.00 0.00 0.00 0.00 0.00 0.00 0.00 0.00 0.04 0.13 0.12 0.07 0.02 0.02 0.01 0.02 0.04 0.15 0.20 0.11 0.15 0.29 0.35 0.40 0.23 0.24 0.24 0.07 0.02 0.00 0.00 0.00
0.00 0.00 0.00 0.00 0.01 0.01 0.06 0.11 0.30 0.24 0.10 0.22 0.32 0.19 0.11 0.01 0.00 0.00 0.00 0.00 0.00 0.00 0.00 0.00 0.00 0.00 0.08 0.02 0.02 0.02 0.01 0.00 0.03 0.01 0.10 0.12 0.03 0.07 0.11 0.33 0.29 0.25 0.23 0.21 0.15 0.09 0.02 0.00 0.00
0.00 0.00 0.00 0.00 0.00 0.02 0.18 0.37 0.26 0.31 0.24 0.18 0.43 0.41 0.10 0.01 0.01 0.00 0.00 0.00 0.00 0.00 0.00 0.00 0.00 0.00 0.06 0.04 0.05 0.09 0.08 0.04 0.02 0.05 0.05 0.04 0.06 0.07 0.16 0.31 0.23 0.24 0.26 0.31 0.18 0.05 0.02 0.01 0.01
0.00 0.00 0.00 0.00 0.00 0.00 0.05 0.21 0.28 0.34 0.43 0.57 0.54 0.42 0.08 0.01 0.00 0.00 0.00 0.00 0.00 0.00 0.00 0.00 0.00 0.00 0.01 0.04 0.01 0.05 0.02 0.00 0.00 0.01 0.01 0.01 0.01 0.01 0.06 0.12 0.12 0.16 0.23 0.31 0.20 0.03 0.02 0.01 0.00
0.00 0.00 0.00 0.00 0.00 0.00 0.00 0.02 0.03 0.08 0.28 0.61 0.43 0.24 0.04 0.01 0.01 0.00 0.00 0.00 0.00 0.00 0.00 0.00 0.00 0.00 0.00 0.02 0.01 0.03 0.01 0.00 0.00 0.00 0.01 0.02 0.05 0.01 0.01 0.01 0.09 0.13 0.16 0.23 0.24 0.17 0.05 0.03 0.00
0.00 0.00 0.00 0.00 0.00 0.00 0.00 0.01 0.00 0.00 0.00 0.11 0.18 0.09 0.01 0.00 0.00 0.00 0.00 0.00 0.00 0.00 0.00 0.00 0.00 0.00 0.00 0.01 0.00 0.02 0.01 0.00 0.00 0.00 0.00 0.00 0.01 0.00 0.01 0.04 0.09 0.09 0.06 0.10 0.16 0.13 0.05 0.01 0.01
0.00 0.00 0.00 0.00 0.00 0.00 0.00 0.00 0.00 0.00 0.00 0.01 0.12 0.25 0.03 0.01 0.00 0.00 0.00 0.00 0.00 0.00 0.00 0.00 0.00 0.00 0.00 0.00 0.00 0.00 0.01 0.00 0.01 0.01 0.00 0.00 0.00 0.00 0.00 0.01 0.07 0.04 0.04 0.05 0.10 0.12 0.10 0.01 0.00
0.00 0.00 0.00 0.00 0.00 0.00 0.00 0.00 0.00 0.00 0.00 0.00 0.03 0.14 0.12 0.04 0.00 0.00 0.00 0.00 0.00 0.00 0.00 0.00 0.00 0.00 0.00 0.00 0.00 0.00 0.00 0.00 0.00 0.00 0.00 0.00 0.00 0.00 0.00 0.00 0.00 0.01 0.04 0.04 0.06 0.03 0.02 0.02 0.00
0.00 0.00 0.00 0.00 0.00 0.00 0.00 0.00 0.00 0.00 0.00 0.00 0.00 0.08 0.16 0.19 0.08 0.02 0.00 0.00 0.00 0.00 0.00 0.00 0.00 0.00 0.00 0.00 0.00 0.00 0.00 0.00 0.00 0.00 0.00 0.00 0.00 0.00 0.00 0.00 0.00 0.00 0.00 0.01 0.03 0.01 0.04 0.07 0.03
0.00 0.00 0.00 0.00 0.00 0.00 0.00 0.00 0.00 0.00 0.00 0.00 0.00 0.00 0.06 0.28 0.47 0.18 0.09 0.03 0.02 0.01 0.00 0.00 0.00 0.00 0.00 0.00 0.00 0.00 0.00 0.00 0.00 0.00 0.00 0.00 0.00 0.00 0.00 0.00 0.01 0.00 0.00 0.00 0.01 0.00 0.01 0.02 0.02
0.00 0.00 0.00 0.00 0.00 0.00 0.00 0.00 0.00 0.00 0.00 0.00 0.00 0.00 0.01 0.07 0.35 0.51 0.35 0.06 0.02 0.00 0.00 0.00 0.00 0.00 0.00 0.00 0.00 0.00 0.00 0.00 0.00 0.00 0.00 0.00 0.00 0.00 0.00 0.00 0.00 0.00 0.00 0.00 0.00 0.00 0.01 0.01 0.01
0.00 0.00 0.00 0.00 0.00 0.00 0.00 0.00 0.00 0.00 0.00 0.00 0.00 0.00 0.00 0.01 0.10 0.33 0.55 0.18 0.08 0.03 0.01 0.01 0.00 0.00 0.00 0.00 0.00 0.00 0.00 0.00 0.00 0.01 0.01 0.00 0.00 0.00 0.00 0.00 0.00 0.00 0.00 0.00 0.00 0.00 0.00 0.00 0.00

GFSSGP_prec_precacc_075.txt.gz
Total_Precipitation_Accumulation
0.01 0.04 0.34 0.83 1.42 0.81 1.61 2.22 1.32 1.10 0.38 0.04 0.04 0.05 0.35 0.35 0.53 0.48 0.18 0.13 0.02 0.10 0.20 0.70 1.13 0.78 0.44 0.28 0.22 0.11 0.10 0.05 0.06 0.05 0.07 0.10 0.18 0.23 0.12 0.17 0.19 0.17 0.17 0.10 0.11 0.12 0.23 0.22 0.20
0.01 0.19 1.16 3.18 2.39 1.69 1.92 1.69 1.37 0.89 0.21 0.06 0.03 0.11 0.09 0.04 0.02 0.08 0.15 0.07 0.00 0.01 0.04 0.37 0.92 0.39 0.23 0.20 0.13 0.11 0.04 0.05 0.06 0.11 0.23 0.20 0.27 0.19 0.20 0.25 0.40 0.46 0.51 0.36 0.25 0.17 0.13 0.23 0.38
0.04 0.87 3.42 3.46 1.68 2.43 3.70 2.29 1.48 0.56 0.26 0.11 0.14 0.19 0.09 0.04 0.02 0.04 0.02 0.00 0.02 0.02 0.03 0.23 0.41 0.24 0.17 0.23 0.16 0.15 0.11 0.07 0.11 0.19 0.35 0.31 0.27 0.26 0.27 0.16 0.18 0.20 0.21 0.18 0.17 0.16 0.17 0.36 0.57
0.27 1.70 2.88 1.90 1.29 2.13 2.25 2.24 1.67 0.56 0.43 0.30 0.36 0.19 0.10 0.02 0.01 0.01 0.00 0.01 0.03 0.02 0.05 0.17 0.21 0.16 0.20 0.19 0.20 0.10 0.11 0.12 0.13 0.20 0.26 0.22 0.16 0.14 0.12 0.11 0.14 0.17 0.14 0.09 0.06 0.12 0.29 0.47 0.63
0.51 1.20 1.96 1.82 1.78 1.82 0.87 0.89 1.29 0.84 0.58 0.59 0.27 0.15 0.12 0.04 0.00 0.00 0.01 0.01 0.01 0.02 0.06 0.07 0.26 0.22 0.18 0.14 0.09 0.09 0.12 0.09 0.16 0.25 0.15 0.12 0.14 0.12 0.12 0.13 0.09 0.09 0.07 0.06 0.11 0.21 0.33 0.36 0.49
1.45 1.45 1.00 0.72 1.27 2.45 1.29 1.14 1.13 0.95 1.03 1.00 0.32 0.10 0.11 0.04 0.01 0.01 0.01 0.01 0.04 0.02 0.03 0.04 0.15 0.24 0.19 0.11 0.09 0.10 0.06 0.06 0.10 0.21 0.16 0.11 0.15 0.15 0.17 0.06 0.06 0.04 0.04 0.09 0.07 0.10 0.43 0.37 0.39
0.40 2.26 0.81 0.86 0.97 3.08 2.47 1.88 1.54 0.77 0.63 0.45 0.21 0.08 0.12 0.08 0.01 0.00 0.01 0.02 0.03 0.02 0.02 0.05 0.12 0.18 0.20 0.18 0.15 0.08 0.04 0.06 0.09 0.14 0.21 0.13 0.15 0.22 0.18 0.22 0.18 0.10 0.13 0.13 0.22 0.25 0.26 0.21 0.36
0.25 1.96 2.00 0.81 0.88 1.65 0.90 0.83 1.20 0.73 0.41 0.33 0.16 0.08 0.06 0.04 0.01 0.00 0.01 0.01 0.02 0.02 0.03 0.04 0.11 0.13 0.08 0.07 0.12 0.09 0.04 0.04 0.10 0.09 0.07 0.14 0.11 0.13 0.21 0.33 0.27 0.13 0.16 0.19 0.17 0.19 0.16 0.21 0.25
0.24 1.74 0.93 0.33 0.39 0.88 0.69 0.76 1.32 0.99 0.35 0.15 0.23 0.14 0.01 0.01 0.01 0.01 0.02 0.04 0.05 0.04 0.04 0.03 0.02 0.05 0.07 0.03 0.09 0.08 0.05 0.04 0.11 0.11 0.21 0.44 0.34 0.22 0.17 0.29 0.20 0.12 0.14 0.14 0.19 0.12 0.21 0.22 0.20
0.33 0.97 0.81 0.20 0.16 0.50 0.48 0.92 0.53 0.31 0.29 0.43 0.23 0.09 0.01 0.01 0.01 0.00 0.00 0.01 0.02 0.02 0.02 0.02 0.01 0.03 0.01 0.03 0.04 0.03 0.02 0.06 0.11 0.13 0.42 0.72 0.36 0.20 0.16 0.27 0.14 0.10 0.11 0.15 0.16 0.17 0.30 0.22 0.12
0.26 0.41 0.18 0.04 0.07 0.40 0.76 0.87 0.57 0.20 0.40 1.02 0.77 0.08 0.01 0.00 0.00 0.00 0.00 0.00 0.00 0.00 0.01 0.01 0.00 0.01 0.00 0.02 0.05 0.05 0.02 0.02 0.05 0.16 0.71 1.16 0.51 0.30 0.38 0.27 0.28 0.17 0.55 0.61 0.51 0.36 0.20 0.16 0.19
0.13 0.05 0.05 0.04 0.03 0.16 0.90 1.08 1.22 0.75 0.81 0.41 0.28 0.05 0.00 0.00 0.00 0.00 0.00 0.00 0.00 0.00 0.00 0.00 0.00 0.01 0.02 0.02 0.02 0.07 0.09 0.02 0.00 0.04 0.15 0.38 0.68 0.39 0.67 0.47 0.26 0.53 0.30 0.63 0.42 0.35 0.19 0.13 0.19
0.00 0.02 0.01 0.05 0.07 0.19 0.36 0.47 1.25 0.78 1.38 0.73 0.22 0.04 0.00 0.00 0.00 0.00 0.00 0.00 0.00 0.00 0.00 0.00 0.00 0.00 0.02 0.00 0.01 0.01 0.02 0.00 0.00 0.03 0.06 0.36 0.36 0.37 0.33 0.33 0.39 0.27 0.25 0.26 0.18 0.19 0.07 0.12 0.02
0.00 0.01 0.03 0.03 0.05 0.13 0.18 0.14 0.10 0.28 0.43 0.61 0.27 0.03 0.00 0.00 0.00 0.00 0.00 0.00 0.00 0.00 0.00 0.00 0.00 0.01 0.03 0.00 0.02 0.02 0.00 0.00 0.00 0.03 0.02 0.23 0.25 0.42 0.38 0.36 0.31 0.21 0.16 0.18 0.24 0.17 0.09 0.03 0.00
0.00 0.00 0.00 0.03 0.02 0.09 0.22 0.23 0.09 0.40 0.55 0.47 0.25 0.05 0.00 0.00 0.00 0.00 0.00 0.00 0.00 0.00 0.00 0.00 0.00 0.00 0.01 0.06 0.02 0.01 0.00 0.00 0.00 0.00 0.00 0.08 0.28 0.37 0.46 0.41 0.27 0.13 0.17 0.18 0.14 0.15 0.08 0.00 0.00
0.00 0.00 0.00 0.00 0.05 0.10 0.22 0.29 0.16 0.43 0.67 0.23 0.11 0.04 0.00 0.00 0.00 0.00 0.00 0.00 0.00 0.00 0.00 0.00 0.00 0.00 0.00 0.01 0.04 0.01 0.00 0.00 0.02 0.05 0.08 0.26 0.28 0.40 0.58 0.69 0.48 0.16 0.12 0.18 0.15 0.15 0.08 0.00 0.00
0.00 0.00 0.00 0.03 0.11 0.09 0.19 0.33 0.33 0.26 0.33 0.17 0.01 0.01 0.00 0.00 0.00 0.00 0.00 0.00 0.00 0.00 0.00 0.00 0.00 0.00 0.00 0.02 0.05 0.05 0.08 0.15 0.14 0.07 0.11 0.18 0.18 0.31 0.58 0.64 0.62 0.24 0.14 0.23 0.17 0.07 0.03 0.00 0.00
0.00 0.00 0.00 0.00 0.03 0.03 0.08 0.21 0.62 0.51 1.49 0.65 0.16 0.02 0.00 0.00 0.00 0.00 0.00 0.00 0.00 0.00 0.00 0.00 0.00 0.03 0.13 0.28 0.25 0.16 0.11 0.10 0.04 0.01 0.12 0.15 0.22 0.19 0.39 0.39 0.41 0.26 0.18 0.15 0.14 0.05 0.00 0.00 0.00
0.00 0.00 0.00 0.00 0.02 0.02 0.07 0.07 0.64 0.20 0.78 0.91 0.15 0.08 0.03 0.00 0.00 0.00 0.00 0.00 0.00 0.00 0.00 0.00 0.00 0.04 0.13 0.12 0.07 0.02 0.02 0.01 0.02 0.04 0.16 0.22 0.16 0.16 0.30 0.38 0.41 0.23 0.24 0.24 0.07 0.02 0.00 0.00 0.00
0.00 0.00 0.00 0.00 0.01 0.01 0.06 0.11 0.30 0.26 0.20 0.27 0.32 0.19 0.11 0.01 0.00 0.00 0.00 0.00 0.00 0.00 0.00 0.00 0.00 0.00 0.08 0.02 0.02 0.02 0.01 0.00 0.03 0.03 0.10 0.15 0.10 0.17 0.14 0.33 0.30 0.25 0.23 0.21 0.15 0.09 0.02 0.00 0.00
0.00 0.00 0.00 0.00 0.00 0.02 0.18 0.37 0.27 0.31 0.25 0.24 0.50 0.41 0.10 0.01 0.01 0.00 0.00 0.00 0.00 0.00 0.00 0.00 0.00 0.00 0.06 0.04 0.05 0.09 0.08 0.04 0.02 0.05 0.06 0.04 0.09 0.10 0.22 0.32 0.25 0.25 0.26 0.31 0.18 0.05 0.02 0.01 0.01
0.00 0.00 0.00 0.00 0.00 0.00 0.05 0.21 0.28 0.35 0.44 0.58 0.58 0.43 0.08 0.01 0.00 0.00 0.00 0.00 0.00 0.00 0.00 0.00 0.00 0.00 0.01 0.04 0.01 0.05 0.02 0.00 0.00 0.01 0.02 0.01 0.01 0.02 0.11 0.17 0.15 0.17 0.23 0.31 0.20 0.03 0.02 0.01 0.00
0.00 0.00 0.00 0.00 0.00 0.00 0.00 0.02 0.03 0.09 0.30 0.61 0.43 0.27 0.11 0.01 0.01 0.00 0.00 0.00 0.00 0.00 0.00 0.00 0.00 0.00 0.00 0.02 0.01 0.03 0.01 0.00 0.00 0.00 0.01 0.02 0.06 0.01 0.05 0.06 0.12 0.13 0.16 0.23 0.24 0.17 0.05 0.03 0.00
0.00 0.00 0.00 0.00 0.00 0.00 0.00 0.01 0.00 0.01 0.01 0.11 0.18 0.10 0.03 0.00 0.00 0.00 0.00 0.00 0.00 0.00 0.00 0.00 0.00 0.00 0.00 0.01 0.00 0.02 0.01 0.00 0.00 0.00 0.00 0.00 0.01 0.00 0.01 0.07 0.11 0.11 0.06 0.10 0.16 0.13 0.05 0.01 0.02
0.00 0.00 0.00 0.00 0.00 0.00 0.00 0.00 0.00 0.00 0.00 0.01 0.12 0.25 0.03 0.01 0.00 0.00 0.00 0.00 0.00 0.00 0.00 0.00 0.00 0.00 0.00 0.00 0.00 0.00 0.01 0.00 0.01 0.01 0.00 0.00 0.00 0.00 0.00 0.01 0.13 0.13 0.05 0.05 0.10 0.12 0.10 0.01 0.01
0.00 0.00 0.00 0.00 0.00 0.00 0.00 0.00 0.00 0.00 0.00 0.00 0.03 0.14 0.12 0.04 0.00 0.00 0.00 0.00 0.00 0.00 0.00 0.00 0.00 0.00 0.00 0.00 0.00 0.00 0.00 0.00 0.00 0.00 0.00 0.00 0.00 0.00 0.00 0.00 0.02 0.06 0.09 0.04 0.06 0.03 0.02 0.03 0.01
0.00 0.00 0.00 0.00 0.00 0.00 0.00 0.00 0.00 0.00 0.00 0.00 0.00 0.08 0.16 0.19 0.08 0.02 0.00 0.00 0.00 0.00 0.00 0.00 0.00 0.00 0.00 0.00 0.00 0.00 0.00 0.00 0.00 0.00 0.00 0.00 0.00 0.00 0.00 0.01 0.00 0.01 0.04 0.03 0.03 0.02 0.08 0.11 0.04
0.00 0.00 0.00 0.00 0.00 0.00 0.00 0.00 0.00 0.00 0.00 0.00 0.00 0.00 0.07 0.28 0.47 0.18 0.09 0.03 0.02 0.01 0.00 0.00 0.00 0.00 0.00 0.00 0.00 0.00 0.00 0.00 0.00 0.00 0.00 0.00 0.00 0.00 0.00 0.01 0.04 0.07 0.05 0.01 0.02 0.00 0.01 0.03 0.02
0.00 0.00 0.00 0.00 0.00 0.00 0.00 0.00 0.00 0.00 0.00 0.00 0.01 0.00 0.01 0.07 0.35 0.51 0.36 0.07 0.05 0.02 0.00 0.00 0.00 0.00 0.00 0.00 0.00 0.00 0.00 0.00 0.00 0.00 0.00 0.00 0.00 0.00 0.00 0.00 0.00 0.01 0.03 0.02 0.05 0.02 0.01 0.01 0.01
0.00 0.00 0.00 0.00 0.00 0.00 0.00 0.00 0.00 0.00 0.00 0.00 0.01 0.01 0.00 0.01 0.10 0.33 0.58 0.24 0.16 0.06 0.03 0.03 0.02 0.00 0.00 0.00 0.00 0.00 0.00 0.00 0.00 0.01 0.01 0.00 0.00 0.00 0.00 0.00 0.00 0.00 0.00 0.00 0.00 0.01 0.02 0.03 0.01

GFSSGP_prec_precacc_078.txt.gz
Total_Precipitation_Accumulation
0.01 0.04 0.34 0.83 1.42 0.83 1.66 2.27 1.33 1.12 0.38 0.04 0.04 0.05 0.35 0.35 0.53 0.49 0.18 0.13 0.02 0.10 0.20 0.71 1.14 0.78 0.44 0.28 0.22 0.11 0.12 0.07 0.06 0.05 0.07 0.10 0.18 0.23 0.12 0.17 0.20 0.17 0.17 0.11 0.13 0.14 0.27 0.26 0.27
0.01 0.19 1.16 3.20 2.40 1.76 1.96 1.76 1.46 0.98 0.21 0.06 0.03 0.11 0.09 0.04 0.02 0.08 0.15 0.07 0.00 0.01 0.04 0.37 0.93 0.40 0.23 0.20 0.14 0.11 0.04 0.05 0.07 0.12 0.23 0.20 0.28 0.19 0.21 0.29 0.44 0.48 0.52 0.37 0.28 0.19 0.17 0.31 0.43
0.04 0.87 3.45 3.57 1.74 2.48 3.72 2.38 1.58 0.63 0.26 0.11 0.14 0.19 0.09 0.04 0.02 0.04 0.02 0.00 0.02 0.02 0.03 0.23 0.42 0.24 0.17 0.23 0.16 0.15 0.11 0.07 0.11 0.19 0.36 0.32 0.33 0.38 0.29 0.18 0.25 0.22 0.25 0.26 0.19 0.17 0.21 0.40 0.64
0.27 1.70 2.90 1.95 1.35 2.42 2.29 2.29 1.68 0.56 0.43 0.30 0.36 0.19 0.10 0.02 0.01 0.01 0.00 0.01 0.03 0.02 0.05 0.17 0.22 0.16 0.20 0.19 0.20 0.11 0.11 0.12 0.13 0.23 0.30 0.27 0.21 0.18 0.14 0.12 0.15 0.19 0.16 0.10 0.07 0.14 0.35 0.53 0.71
0.51 1.22 2.03 1.90 2.01 2.17 0.90 0.93 1.30 0.86 0.59 0.59 0.27 0.15 0.12 0.04 0.00 0.00 0.01 0.01 0.01 0.02 0.06 0.07 0.26 0.22 0.18 0.14 0.11 0.10 0.12 0.10 0.18 0.33 0.19 0.16 0.17 0.13 0.13 0.14 0.09 0.09 0.07 0.06 0.14 0.30 0.43 0.53 0.54
1.47 1.50 1.05 0.78 1.35 2.51 1.31 1.15 1.20 1.02 1.04 1.00 0.32 0.10 0.12 0.04 0.01 0.01 0.01 0.01 0.04 0.02 0.03 0.04 0.15 0.24 0.21 0.14 0.09 0.11 0.06 0.09 0.16 0.24 0.18 0.12 0.16 0.16 0.17 0.06 0.07 0.04 0.04 0.10 0.12 0.17 0.54 0.49 0.44
0.42 2.32 0.86 0.91 1.00 3.13 2.50 1.89 1.63 0.83 0.64 0.45 0.21 0.08 0.13 0.08 0.01 0.00 0.01 0.02 0.03 0.02 0.02 0.05 0.12 0.21 0.24 0.22 0.16 0.09 0.05 0.08 0.12 0.17 0.23 0.13 0.15 0.23 0.18 0.23 0.18 0.11 0.16 0.19 0.35 0.42 0.38 0.28 0.39
0.26 1.99 2.02 0.86 0.88 1.65 0.94 0.88 1.25 0.74 0.42 0.35 0.16 0.09 0.06 0.04 0.01 0.00 0.01 0.01 0.02 0.02 0.03 0.04 0.11 0.15 0.09 0.08 0.15 0.10 0.05 0.06 0.13 0.10 0.09 0.15 0.11 0.13 0.21 0.34 0.27 0.13 0.22 0.31 0.33 0.30 0.20 0.26 0.28
0.25 1.77 0.94 0.39 0.44 0.89 0.69 0.92 1.50 1.03 0.37 0.15 0.23 0.14 0.01 0.01 0.01 0.01 0.02 0.04 0.05 0.04 0.04 0.03 0.02 0.05 0.07 0.04 0.10 0.10 0.07 0.05 0.14 0.15 0.28 0.46 0.34 0.22 0.18 0.30 0.20 0.13 0.18 0.15 0.20 0.17 0.28 0.32 0.25
0.36 1.06 0.81 0.23 0.23 0.56 0.52 1.04 0.59 0.33 0.30 0.44 0.23 0.09 0.01 0.01 0.01 0.00 0.00 0.01 0.02 0.02 0.02 0.02 0.01 0.03 0.01 0.03 0.06 0.07 0.04 0.12 0.15 0.15 0.42 0.72 0.36 0.20 0.16 0.27 0.14 0.10 0.11 0.15 0.16 0.19 0.34 0.23 0.14
0.29 0.48 0.18 0.04 0.08 0.47 0.83 0.93 0.58 0.21 0.41 1.02 0.77 0.08 0.01 0.00 0.00 0.00 0.00 0.00 0.00 0.00 0.01 0.01 0.01 0.01 0.00 0.02 0.05 0.05 0.02 0.02 0.06 0.16 0.71 1.16 0.51 0.30 0.38 0.27 0.28 0.17 0.55 0.61 0.51 0.36 0.20 0.16 0.19
0.17 0.06 0.05 0.05 0.03 0.26 1.06 1.11 1.25 0.76 0.83 0.41 0.28 0.05 0.00 0.00 0.00 0.00 0.00 0.00 0.00 0.00 0.00 0.00 0.01 0.01 0.02 0.02 0.02 0.07 0.09 0.02 0.00 0.04 0.15 0.38 0.68 0.39 0.67 0.47 0.26 0.53 0.30 0.63 0.42 0.35 0.19 0.13 0.19
0.01 0.02 0.01 0.05 0.07 0.20 0.44 0.57 1.34 0.79 1.38 0.73 0.22 0.04 0.00 0.00 0.00 0.00 0.00 0.00 0.00 0.00 0.00 0.00 0.00 0.01 0.02 0.00 0.01 0.01 0.02 0.00 0.00 0.03 0.06 0.36 0.36 0.37 0.33 0.33 0.39 0.27 0.25 0.26 0.18 0.19 0.07 0.12 0.02
0.00 0.01 0.03 0.03 0.05 0.13 0.22 0.20 0.12 0.29 0.43 0.61 0.27 0.03 0.00 0.00 0.00 0.00 0.00 0.00 0.00 0.00 0.00 0.00 0.00 0.01 0.03 0.00 0.02 0.02 0.00 0.00 0.00 0.03 0.02 0.23 0.25 0.42 0.38 0.36 0.31 0.21 0.16 0.18 0.24 0.17 0.09 0.03 0.00
0.00 0.00 0.00 0.03 0.02 0.09 0.23 0.34 0.17 0.40 0.55 0.47 0.25 0.05 0.00 0.00 0.00 0.00 0.00 0.00 0.00 0.00 0.00 0.00 0.00 0.00 0.01 0.06 0.02 0.01 0.00 0.00 0.00 0.00 0.00 0.08 0.28 0.37 0.46 0.41 0.27 0.13 0.17 0.18 0.14 0.15 0.08 0.00 0.00
0.00 0.00 0.00 0.00 0.05 0.10 0.26 0.43 0.24 0.43 0.67 0.24 0.11 0.04 0.00 0.00 0.00 0.00 0.00 0.00 0.00 0.00 0.00 0.00 0.00 0.00 0.00 0.01 0.04 0.01 0.00 0.00 0.02 0.05 0.08 0.26 0.28 0.40 0.58 0.69 0.48 0.16 0.12 0.18 0.15 0.15 0.08 0.00 0.00
0.00 0.00 0.00 0.03 0.11 0.09 0.23 0.46 0.43 0.28 0.39 0.23 0.01 0.01 0.00 0.00 0.00 0.00 0.00 0.00 0.00 0.00 0.00 0.00 0.00 0.00 0.00 0.02 0.05 0.05 0.08 0.15 0.14 0.07 0.11 0.18 0.18 0.31 0.58 0.64 0.62 0.24 0.14 0.23 0.17 0.07 0.03 0.00 0.00
0.00 0.00 0.00 0.01 0.05 0.04 0.16 0.26 0.63 0.52 1.56 0.71 0.16 0.03 0.00 0.00 0.00 0.00 0.00 0.00 0.00 0.00 0.00 0.00 0.00 0.03 0.13 0.28 0.25 0.16 0.11 0.10 0.04 0.01 0.12 0.15 0.22 0.19 0.39 0.39 0.41 0.26 0.18 0.15 0.14 0.05 0.00 0.00 0.00
0.00 0.00 0.00 0.00 0.02 0.02 0.07 0.08 0.64 0.20 0.78 0.93 0.15 0.10 0.04 0.00 0.00 0.00 0.00 0.00 0.00 0.00 0.00 0.00 0.00 0.04 0.13 0.12 0.07 0.02 0.02 0.01 0.02 0.04 0.16 0.22 0.16 0.16 0.30 0.38 0.41 0.23 0.24 0.24 0.07 0.02 0.00 0.00 0.00
0.00 0.00 0.00 0.00 0.01 0.01 0.06 0.11 0.30 0.26 0.20 0.27 0.32 0.20 0.12 0.01 0.00 0.00 0.00 0.00 0.00 0.00 0.00 0.00 0.00 0.00 0.08 0.02 0.02 0.02 0.01 0.00 0.03 0.03 0.10 0.15 0.10 0.17 0.14 0.33 0.30 0.25 0.23 0.21 0.15 0.09 0.02 0.00 0.00
0.00 0.00 0.00 0.00 0.00 0.02 0.18 0.37 0.27 0.31 0.25 0.24 0.50 0.41 0.10 0.01 0.01 0.00 0.00 0.00 0.00 0.00 0.00 0.00 0.00 0.00 0.06 0.04 0.05 0.09 0.09 0.04 0.02 0.05 0.06 0.04 0.09 0.10 0.22 0.32 0.25 0.25 0.26 0.31 0.18 0.05 0.02 0.01 0.01
0.00 0.00 0.00 0.00 0.00 0.00 0.05 0.22 0.28 0.35 0.44 0.61 0.59 0.43 0.08 0.01 0.00 0.00 0.00 0.00 0.00 0.00 0.00 0.00 0.00 0.00 0.01 0.04 0.01 0.05 0.02 0.00 0.00 0.01 0.02 0.01 0.01 0.07 0.15 0.17 0.15 0.17 0.23 0.31 0.20 0.03 0.02 0.01 0.00
0.00 0.00 0.00 0.00 0.00 0.00 0.00 0.02 0.03 0.09 0.35 0.68 0.44 0.27 0.11 0.01 0.01 0.00 0.00 0.00 0.00 0.00 0.00 0.00 0.00 0.00 0.00 0.02 0.01 0.03 0.01 0.00 0.00 0.00 0.01 0.03 0.09 0.09 0.13 0.12 0.13 0.15 0.16 0.23 0.25 0.18 0.05 0.03 0.00
0.00 0.00 0.00 0.00 0.00 0.00 0.00 0.01 0.00 0.01 0.02 0.12 0.18 0.10 0.03 0.00 0.00 0.00 0.00 0.00 0.00 0.00 0.00 0.00 0.00 0.00 0.00 0.01 0.00 0.02 0.01 0.00 0.00 0.00 0.01 0.00 0.01 0.02 0.06 0.10 0.18 0.15 0.08 0.10 0.17 0.16 0.06 0.02 0.02
0.00 0.00 0.00 0.00 0.00 0.00 0.00 0.00 0.00 0.00 0.00 0.01 0.12 0.25 0.03 0.01 0.00 0.00 0.00 0.00 0.00 0.00 0.00 0.00 0.00 0.00 0.00 0.00 0.00 0.00 0.01 0.00 0.01 0.05 0.01 0.00 0.00 0.00 0.00 0.05 0.21 0.15 0.08 0.08 0.11 0.15 0.11 0.05 0.05
0.00 0.00 0.00 0.00 0.00 0.00 0.00 0.00 0.00 0.00 0.00 0.00 0.03 0.14 0.12 0.04 0.00 0.00 0.00 0.00 0.00 0.00 0.00 0.00 0.00 0.00 0.00 0.00 0.00 0.00 0.00 0.00 0.00 0.00 0.00 0.00 0.00 0.00 0.00 0.01 0.02 0.08 0.12 0.05 0.07 0.06 0.04 0.06 0.03
0.00 0.00 0.00 0.00 0.00 0.00 0.00 0.00 0.00 0.00 0.00 0.00 0.00 0.08 0.16 0.19 0.08 0.02 0.00 0.00 0.00 0.00 0.00 0.00 0.00 0.00 0.00 0.00 0.00 0.00 0.00 0.00 0.00 0.00 0.00 0.00 0.00 0.00 0.00 0.01 0.02 0.03 0.06 0.05 0.04 0.03 0.11 0.15 0.05
0.00 0.00 0.00 0.00 0.00 0.00 0.00 0.00 0.00 0.00 0.00 0.00 0.00 0.01 0.07 0.28 0.47 0.18 0.09 0.03 0.02 0.01 0.00 0.00 0.00 0.00 0.00 0.00 0.00 0.00 0.00 0.00 0.00 0.00 0.00 0.00 0.00 0.00 0.00 0.01 0.06 0.10 0.05 0.01 0.05 0.01 0.01 0.06 0.04
0.00 0.00 0.00 0.00 0.00 0.00 0.00 0.00 0.00 0.00 0.00 0.00 0.01 0.01 0.01 0.08 0.35 0.52 0.36 0.07 0.05 0.03 0.00 0.00 0.00 0.00 0.00 0.00 0.00 0.00 0.00 0.00 0.00 0.00 0.00 0.00 0.00 0.00 0.00 0.00 0.07 0.10 0.04 0.02 0.05 0.02 0.01 0.03 0.02
0.00 0.00 0.00 0.00 0.00 0.00 0.00 0.00 0.00 0.00 0.00 0.01 0.01 0.01 0.00 0.01 0.11 0.38 0.66 0.27 0.17 0.06 0.03 0.03 0.02 0.00 0.00 0.00 0.00 0.00 0.00 0.00 0.00 0.01 0.01 0.00 0.00 0.00 0.00 0.00 0.11 0.07 0.03 0.03 0.02 0.01 0.03 0.07 0.02

GFSSGP_prec_precacc_081.txt.gz
Total_Precipitation_Accumulation
0.01 0.04 0.34 0.83 1.44 0.86 1.67 2.33 1.37 1.13 0.39 0.04 0.04 0.05 0.35 0.35 0.56 0.53 0.18 0.13 0.02 0.10 0.20 0.71 1.14 0.78 0.44 0.29 0.23 0.33 0.22 0.07 0.06 0.05 0.11 0.11 0.19 0.24 0.12 0.17 0.20 0.17 0.17 0.13 0.17 0.19 0.32 0.31 0.28
0.01 0.19 1.16 3.23 2.45 1.88 2.01 1.88 1.56 1.04 0.22 0.06 0.03 0.11 0.09 0.04 0.02 0.08 0.15 0.07 0.00 0.01 0.04 0.37 0.93 0.40 0.23 0.21 0.14 0.14 0.05 0.09 0.15 0.14 0.26 0.22 0.29 0.20 0.21 0.29 0.45 0.49 0.52 0.40 0.31 0.23 0.22 0.35 0.44
0.04 0.87 3.51 3.67 1.85 2.57 3.78 2.52 1.74 0.65 0.26 0.11 0.14 0.19 0.09 0.05 0.02 0.04 0.02 0.00 0.02 0.02 0.03 0.23 0.42 0.24 0.17 0.25 0.20 0.18 0.15 0.08 0.13 0.23 0.36 0.32 0.34 0.38 0.29 0.18 0.25 0.22 0.25 0.28 0.23 0.22 0.31 0.43 0.66
0.27 1.71 2.96 2.10 1.53 2.51 2.33 2.34 1.72 0.56 0.43 0.30 0.36 0.19 0.10 0.02 0.01 0.01 0.00 0.01 0.03 0.02 0.05 0.18 0.22 0.16 0.20 0.21 0.26 0.14 0.13 0.12 0.15 0.24 0.30 0.27 0.21 0.18 0.14 0.12 0.16 0.20 0.17 0.11 0.10 0.20 0.40 0.60 0.72
0.52 1.27 2.16 2.13 2.26 2.29 0.96 0.96 1.31 0.87 0.59 0.59 0.27 0.15 0.12 0.04 0.00 0.00 0.01 0.01 0.01 0.03 0.06 0.07 0.29 0.23 0.18 0.15 0.14 0.11 0.12 0.10 0.18 0.33 0.19 0.16 0.17 0.13 0.14 0.15 0.10 0.10 0.08 0.08 0.15 0.31 0.50 0.54 0.54
1.51 1.62 1.22 0.83 1.41 2.57 1.39 1.19 1.24 1.07 1.05 1.00 0.32 0.10 0.12 0.04 0.01 0.01 0.01 0.01 0.04 0.02 0.03 0.04 0.21 0.27 0.24 0.15 0.11 0.13 0.07 0.10 0.18 0.25 0.18 0.12 0.16 0.16 0.18 0.07 0.07 0.05 0.07 0.18 0.14 0.17 0.54 0.49 0.44
0.47 2.48 1.04 0.97 1.03 3.21 2.58 1.98 1.78 0.89 0.66 0.47 0.21 0.08 0.13 0.08 0.01 0.00 0.01 0.02 0.04 0.02 0.02 0.05 0.12 0.25 0.27 0.25 0.19 0.10 0.06 0.09 0.12 0.18 0.23 0.14 0.16 0.23 0.18 0.24 0.21 0.13 0.19 0.27 0.41 0.44 0.41 0.28 0.39
0.31 2.15 2.20 0.94 0.91 1.68 0.97 0.90 1.26 0.78 0.45 0.36 0.17 0.10 0.06 0.04 0.01 0.00 0.01 0.02 0.03 0.03 0.03 0.04 0.11 0.15 0.09 0.09 0.19 0.11 0.05 0.06 0.13 0.10 0.11 0.15 0.11 0.14 0.21 0.35 0.28 0.15 0.25 0.42 0.43 0.40 0.22 0.27 0.28
0.27 1.92 1.08 0.48 0.44 0.89 0.69 0.92 1.50 1.04 0.37 0.15 0.23 0.14 0.01 0.01 0.01 0.01 0.02 0.04 0.05 0.05 0.04 0.04 0.03 0.06 0.08 0.05 0.11 0.10 0.08 0.05 0.16 0.16 0.32 0.48 0.35 0.22 0.20 0.31 0.21 0.16 0.23 0.20 0.27 0.19 0.29 0.34 0.25
0.45 1.25 0.88 0.27 0.23 0.56 0.52 1.05 0.59 0.34 0.30 0.44 0.23 0.09 0.01 0.01 0.01 0.00 0.00 0.01 0.02 0.02 0.02 0.02 0.01 0.03 0.01 0.03 0.07 0.08 0.05 0.25 0.18 0.16 0.42 0.73 0.36 0.20 0.16 0.27 0.14 0.10 0.12 0.16 0.17 0.19 0.34 0.25 0.14
0.33 0.57 0.20 0.06 0.10 0.47 0.83 0.94 0.58 0.22 0.46 1.05 0.77 0.08 0.01 0.00 0.00 0.00 0.00 0.00 0.00 0.00 0.01 0.01 0.01 0.01 0.01 0.02 0.05 0.05 0.02 0.03 0.06 0.16 0.71 1.16 0.51 0.30 0.38 0.27 0.28 0.17 0.55 0.61 0.51 0.36 0.20 0.16 0.19
0.21 0.08 0.05 0.06 0.03 0.29 1.10 1.11 1.26 0.81 0.92 0.43 0.28 0.05 0.00 0.00 0.00 0.00 0.00 0.00 0.00 0.00 0.00 0.00 0.01 0.01 0.03 0.02 0.02 0.07 0.09 0.02 0.00 0.04 0.15 0.38 0.68 0.39 0.67 0.47 0.26 0.53 0.30 0.63 0.43 0.35 0.19 0.13 0.19
0.02 0.03 0.02 0.05 0.07 0.22 0.47 0.60 1.37 0.82 1.39 0.75 0.22 0.04 0.00 0.00 0.00 0.00 0.00 0.00 0.00 0.00 0.00 0.00 0.00 0.01 0.02 0.00 0.01 0.01 0.02 0.00 0.00 0.03 0.06 0.36 0.36 0.37 0.33 0.33 0.39 0.27 0.25 0.26 0.18 0.19 0.07 0.13 0.02
0.01 0.02 0.04 0.03 0.05 0.14 0.25 0.24 0.14 0.29 0.43 0.61 0.27 0.03 0.00 0.00 0.00 0.00 0.00 0.00 0.00 0.00 0.00 0.00 0.00 0.01 0.03 0.00 0.02 0.02 0.00 0.00 0.00 0.03 0.02 0.23 0.25 0.42 0.38 0.36 0.32 0.21 0.16 0.18 0.24 0.20 0.09 0.04 0.01
0.00 0.00 0.00 0.03 0.02 0.10 0.26 0.47 0.27 0.40 0.55 0.47 0.25 0.05 0.00 0.00 0.00 0.00 0.00 0.00 0.00 0.00 0.00 0.00 0.00 0.00 0.01 0.06 0.02 0.01 0.00 0.00 0.00 0.00 0.00 0.08 0.28 0.37 0.46 0.41 0.28 0.13 0.17 0.18 0.14 0.15 0.08 0.01 0.00
0.00 0.00 0.00 0.01 0.05 0.11 0.33 0.69 0.39 0.43 0.67 0.24 0.11 0.04 0.00 0.00 0.00 0.00 0.00 0.00 0.00 0.00 0.00 0.00 0.00 0.00 0.00 0.01 0.04 0.01 0.00 0.01 0.02 0.05 0.08 0.26 0.28 0.40 0.58 0.69 0.48 0.16 0.12 0.19 0.15 0.15 0.08 0.01 0.00
0.00 0.00 0.00 0.03 0.12 0.10 0.27 0.64 0.65 0.28 0.40 0.24 0.02 0.01 0.00 0.00 0.00 0.00 0.00 0.00 0.00 0.00 0.00 0.00 0.00 0.00 0.00 0.02 0.05 0.05 0.08 0.15 0.15 0.08 0.11 0.18 0.18 0.31 0.58 0.65 0.62 0.24 0.14 0.23 0.17 0.07 0.03 0.00 0.00
0.00 0.00 0.00 0.01 0.05 0.04 0.19 0.29 0.64 0.52 1.62 0.74 0.17 0.03 0.00 0.00 0.00 0.00 0.00 0.00 0.00 0.00 0.00 0.00 0.00 0.03 0.13 0.28 0.25 0.16 0.11 0.10 0.04 0.01 0.12 0.15 0.22 0.19 0.39 0.39 0.41 0.29 0.19 0.15 0.14 0.05 0.00 0.00 0.00
0.00 0.00 0.01 0.01 0.02 0.04 0.08 0.08 0.64 0.20 0.85 0.99 0.16 0.10 0.04 0.00 0.00 0.00 0.00 0.00 0.00 0.00 0.00 0.00 0.00 0.04 0.13 0.12 0.07 0.02 0.02 0.01 0.02 0.04 0.16 0.22 0.16 0.16 0.30 0.38 0.41 0.23 0.24 0.25 0.07 0.02 0.00 0.00 0.00
0.00 0.00 0.00 0.00 0.01 0.02 0.10 0.11 0.30 0.26 0.23 0.32 0.38 0.22 0.12 0.01 0.00 0.00 0.00 0.00 0.00 0.00 0.00 0.00 0.00 0.00 0.08 0.02 0.02 0.02 0.01 0.00 0.03 0.04 0.10 0.15 0.10 0.17 0.14 0.33 0.30 0.25 0.26 0.21 0.15 0.10 0.03 0.00 0.00
0.00 0.00 0.00 0.00 0.00 0.02 0.18 0.37 0.27 0.32 0.30 0.49 0.57 0.43 0.10 0.02 0.01 0.00 0.00 0.00 0.00 0.00 0.00 0.00 0.00 0.00 0.06 0.04 0.05 0.10 0.10 0.04 0.02 0.05 0.06 0.04 0.09 0.10 0.22 0.32 0.26 0.25 0.26 0.31 0.18 0.05 0.02 0.01 0.01
0.00 0.00 0.00 0.00 0.00 0.00 0.05 0.26 0.29 0.36 0.45 0.85 0.76 0.51 0.10 0.02 0.01 0.00 0.00 0.00 0.00 0.00 0.00 0.00 0.00 0.00 0.01 0.04 0.01 0.06 0.02 0.00 0.00 0.01 0.02 0.01 0.01 0.07 0.17 0.17 0.15 0.17 0.24 0.32 0.20 0.03 0.02 0.01 0.00
0.00 0.00 0.00 0.00 0.00 0.00 0.00 0.04 0.21 0.11 0.38 0.79 0.51 0.34 0.18 0.03 0.02 0.00 0.00 0.00 0.00 0.00 0.00 0.00 0.00 0.00 0.00 0.02 0.02 0.03 0.01 0.00 0.01 0.01 0.02 0.09 0.11 0.09 0.13 0.12 0.13 0.17 0.18 0.25 0.25 0.18 0.05 0.03 0.00
0.00 0.00 0.00 0.00 0.00 0.00 0.00 0.01 0.09 0.06 0.02 0.14 0.21 0.10 0.09 0.03 0.01 0.01 0.01 0.00 0.00 0.00 0.00 0.00 0.00 0.00 0.00 0.01 0.00 0.02 0.02 0.00 0.01 0.00 0.01 0.00 0.02 0.02 0.06 0.10 0.18 0.15 0.10 0.13 0.17 0.16 0.06 0.02 0.02
0.00 0.00 0.00 0.00 0.00 0.00 0.00 0.00 0.01 0.01 0.00 0.01 0.12 0.25 0.06 0.02 0.01 0.01 0.00 0.00 0.00 0.00 0.00 0.00 0.00 0.00 0.00 0.00 0.00 0.00 0.01 0.01 0.02 0.06 0.01 0.00 0.01 0.00 0.00 0.05 0.21 0.15 0.08 0.09 0.13 0.15 0.11 0.05 0.05
0.00 0.00 0.00 0.00 0.00 0.00 0.00 0.00 0.00 0.00 0.00 0.00 0.03 0.14 0.12 0.04 0.01 0.01 0.00 0.00 0.00 0.00 0.00 0.00 0.00 0.00 0.00 0.00 0.00 0.00 0.00 0.00 0.00 0.00 0.00 0.00 0.00 0.00 0.01 0.01 0.02 0.08 0.12 0.05 0.09 0.07 0.04 0.07 0.03
0.00 0.00 0.00 0.00 0.00 0.00 0.00 0.00 0.00 0.00 0.00 0.00 0.01 0.08 0.16 0.19 0.09 0.05 0.00 0.01 0.00 0.00 0.00 0.00 0.00 0.00 0.00 0.00 0.00 0.00 0.00 0.00 0.00 0.00 0.00 0.00 0.00 0.01 0.00 0.01 0.02 0.03 0.06 0.05 0.06 0.03 0.11 0.15 0.05
0.00 0.00 0.00 0.00 0.00 0.00 0.00 0.00 0.00 0.00 0.00 0.00 0.00 0.01 0.07 0.28 0.52 0.38 0.16 0.04 0.02 0.01 0.00 0.00 0.00 0.00 0.00 0.00 0.00 0.00 0.00 0.00 0.00 0.00 0.00 0.00 0.00 0.00 0.03 0.02 0.06 0.10 0.05 0.01 0.05 0.01 0.01 0.06 0.04
0.00 0.00 0.00 0.00 0.00 0.00 0.00 0.00 0.00 0.00 0.00 0.00 0.01 0.01 0.02 0.09 0.44 0.75 0.54 0.15 0.08 0.03 0.00 0.00 0.00 0.00 0.00 0.00 0.00 0.00 0.00 0.00 0.00 0.00 0.00 0.00 0.00 0.00 0.00 0.01 0.12 0.10 0.04 0.02 0.07 0.02 0.03 0.04 0.02
0.00 0.00 0.00 0.00 0.00 0.00 0.00 0.03 0.00 0.00 0.00 0.01 0.02 0.01 0.00 0.02 0.16 0.56 0.91 0.49 0.32 0.12 0.05 0.04 0.02 0.00 0.00 0.00 0.00 0.00 0.00 0.00 0.00 0.01 0.01 0.00 0.00 0.00 0.00 0.02 0.15 0.07 0.03 0.03 0.02 0.01 0.03 0.07 0.02

GFSSGP_prec_precacc_084.txt.gz
Total_Precipitation_Accumulation
0.01 0.04 0.34 0.83 1.47 0.96 1.71 2.41 1.44 1.14 0.39 0.04 0.04 0.05 0.35 0.35 0.56 0.54 0.18 0.13 0.02 0.10 0.20 0.71 1.14 0.78 0.45 0.29 0.31 0.47 0.22 0.07 0.06 0.06 0.12 0.11 0.20 0.27 0.13 0.18 0.22 0.19 0.19 0.15 0.17 0.19 0.32 0.31 0.28
0.01 0.19 1.16 3.27 2.53 2.04 2.03 1.97 1.69 1.05 0.22 0.06 0.03 0.11 0.09 0.04 0.02 0.08 0.15 0.07 0.00 0.01 0.04 0.37 0.93 0.41 0.26 0.22 0.23 0.20 0.07 0.09 0.15 0.15 0.28 0.24 0.30 0.26 0.24 0.31 0.47 0.50 0.58 0.41 0.31 0.24 0.23 0.38 0.44
0.04 0.87 3.54 3.76 1.99 2.65 3.94 2.67 1.86 0.66 0.26 0.11 0.14 0.20 0.09 0.05 0.02 0.04 0.02 0.00 0.02 0.03 0.03 0.23 0.42 0.25 0.19 0.27 0.20 0.19 0.16 0.09 0.14 0.23 0.39 0.36 0.34 0.38 0.32 0.21 0.28 0.25 0.29 0.31 0.25 0.25 0.31 0.43 0.66
0.27 1.72 3.02 2.41 2.28 2.59 2.46 2.46 1.73 0.56 0.43 0.30 0.36 0.19 0.10 0.02 0.01 0.01 0.00 0.01 0.04 0.04 0.05 0.18 0.22 0.16 0.23 0.23 0.26 0.16 0.14 0.14 0.17 0.25 0.32 0.28 0.22 0.18 0.16 0.14 0.17 0.22 0.18 0.12 0.13 0.31 0.42 0.61 0.72
0.52 1.30 2.44 2.60 2.62 2.49 1.08 1.00 1.31 0.88 0.59 0.60 0.27 0.15 0.12 0.04 0.00 0.00 0.01 0.02 0.01 0.03 0.06 0.07 0.32 0.24 0.21 0.16 0.15 0.16 0.14 0.13 0.22 0.36 0.23 0.17 0.17 0.13 0.14 0.15 0.11 0.11 0.14 0.10 0.16 0.33 0.53 0.54 0.54
1.54 1.77 1.50 0.91 1.43 2.68 1.44 1.19 1.25 1.07 1.05 1.01 0.32 0.10 0.12 0.04 0.01 0.01 0.01 0.02 0.05 0.03 0.03 0.04 0.25 0.31 0.26 0.16 0.12 0.13 0.07 0.11 0.19 0.26 0.18 0.13 0.16 0.16 0.18 0.07 0.08 0.08 0.16 0.25 0.14 0.17 0.55 0.49 0.44
0.49 2.71 1.27 1.03 1.04 3.29 2.67 2.01 1.81 0.90 0.67 0.48 0.22 0.08 0.13 0.08 0.01 0.00 0.01 0.04 0.05 0.02 0.02 0.05 0.13 0.27 0.28 0.26 0.20 0.10 0.06 0.09 0.12 0.18 0.23 0.14 0.16 0.23 0.19 0.25 0.23 0.16 0.25 0.29 0.41 0.44 0.41 0.28 0.39
0.34 2.39 2.46 1.02 0.96 1.75 1.04 0.92 1.29 0.80 0.47 0.38 0.18 0.10 0.06 0.04 0.01 0.00 0.01 0.05 0.06 0.03 0.03 0.04 0.11 0.15 0.10 0.10 0.19 0.11 0.05 0.06 0.13 0.10 0.12 0.19 0.11 0.14 0.22 0.37 0.29 0.16 0.25 0.42 0.43 0.40 0.22 0.27 0.28
0.35 2.20 1.33 0.68 0.48 0.91 0.70 0.93 1.56 1.08 0.37 0.18 0.24 0.14 0.01 0.01 0.01 0.01 0.02 0.04 0.06 0.05 0.04 0.04 0.03 0.08 0.10 0.05 0.11 0.10 0.08 0.09 0.16 0.16 0.35 0.57 0.37 0.22 0.22 0.33 0.22 0.19 0.23 0.20 0.29 0.24 0.30 0.34 0.25
0.66 1.55 1.05 0.32 0.25 0.56 0.52 1.05 0.60 0.34 0.30 0.45 0.24 0.09 0.01 0.01 0.01 0.00 0.00 0.01 0.02 0.02 0.02 0.10 0.02 0.03 0.01 0.03 0.08 0.08 0.12 0.29 0.19 0.19 0.46 0.78 0.37 0.20 0.16 0.27 0.14 0.10 0.13 0.16 0.19 0.26 0.53 0.32 0.14
0.38 0.64 0.22 0.09 0.12 0.47 0.83 0.94 0.58 0.22 0.52 1.05 0.77 0.08 0.01 0.00 0.00 0.00 0.00 0.00 0.00 0.00 0.01 0.01 0.01 0.02 0.01 0.02 0.05 0.07 0.04 0.03 0.06 0.16 0.71 1.16 0.51 0.30 0.38 0.27 0.29 0.17 0.57 0.63 0.53 0.36 0.20 0.17 0.19
0.32 0.09 0.06 0.07 0.04 0.29 1.10 1.11 1.26 0.85 1.05 0.45 0.28 0.05 0.00 0.00 0.00 0.00 0.00 0.00 0.00 0.00 0.00 0.00 0.01 0.09 0.05 0.02 0.02 0.07 0.09 0.02 0.00 0.04 0.15 0.39 0.68 0.39 0.68 0.49 0.33 0.57 0.34 0.89 0.52 0.36 0.19 0.13 0.19
0.05 0.04 0.02 0.07 0.10 0.23 0.47 0.60 1.38 0.89 1.72 0.77 0.23 0.04 0.00 0.00 0.00 0.00 0.00 0.00 0.00 0.00 0.00 0.00 0.00 0.02 0.02 0.00 0.01 0.01 0.02 0.00 0.00 0.04 0.06 0.36 0.36 0.38 0.34 0.39 0.44 0.32 0.25 0.32 0.25 0.30 0.08 0.13 0.02
0.02 0.03 0.05 0.04 0.06 0.14 0.27 0.30 0.16 0.34 0.56 0.63 0.28 0.03 0.00 0.00 0.00 0.00 0.00 0.00 0.00 0.00 0.00 0.00 0.00 0.01 0.03 0.00 0.02 0.02 0.00 0.00 0.00 0.03 0.03 0.23 0.25 0.44 0.48 0.44 0.40 0.25 0.16 0.18 0.29 0.33 0.09 0.04 0.01
0.01 0.02 0.01 0.03 0.02 0.10 0.29 0.61 0.31 0.41 0.56 0.48 0.25 0.05 0.00 0.00 0.00 0.00 0.00 0.00 0.00 0.00 0.00 0.00 0.00 0.00 0.01 0.06 0.02 0.01 0.00 0.00 0.00 0.00 0.00 0.08 0.29 0.39 0.59 0.52 0.45 0.14 0.17 0.19 0.19 0.16 0.08 0.01 0.00
0.00 0.01 0.00 0.01 0.05 0.11 0.38 1.02 0.49 0.43 0.67 0.24 0.11 0.04 0.00 0.00 0.00 0.00 0.00 0.00 0.00 0.00 0.00 0.00 0.00 0.00 0.00 0.01 0.05 0.02 0.11 0.07 0.02 0.05 0.08 0.26 0.28 0.40 0.59 0.72 0.49 0.16 0.18 0.20 0.21 0.16 0.08 0.01 0.00
0.00 0.00 0.00 0.03 0.12 0.10 0.31 0.98 0.99 0.31 0.40 0.24 0.02 0.01 0.00 0.00 0.00 0.00 0.00 0.00 0.00 0.00 0.00 0.00 0.00 0.00 0.00 0.02 0.05 0.05 0.09 0.16 0.15 0.08 0.11 0.18 0.18 0.31 0.60 0.66 0.62 0.25 0.20 0.23 0.18 0.08 0.03 0.00 0.00
0.00 0.00 0.00 0.01 0.05 0.05 0.24 0.33 0.67 0.53 1.62 0.74 0.17 0.03 0.00 0.00 0.00 0.00 0.00 0.00 0.00 0.00 0.00 0.00 0.00 0.03 0.13 0.28 0.26 0.16 0.12 0.11 0.04 0.01 0.12 0.16 0.23 0.19 0.39 0.41 0.41 0.31 0.19 0.15 0.14 0.06 0.01 0.00 0.00
0.00 0.00 0.02 0.02 0.04 0.05 0.11 0.13 0.65 0.20 0.87 1.00 0.17 0.10 0.04 0.00 0.00 0.00 0.00 0.00 0.00 0.00 0.00 0.00 0.00 0.04 0.14 0.12 0.07 0.02 0.02 0.01 0.02 0.05 0.16 0.25 0.17 0.16 0.31 0.40 0.41 0.24 0.25 0.25 0.07 0.04 0.00 0.00 0.00
0.00 0.00 0.00 0.01 0.10 0.16 0.16 0.31 0.58 0.27 0.24 0.34 0.41 0.22 0.12 0.01 0.00 0.00 0.00 0.00 0.00 0.00 0.00 0.00 0.00 0.00 0.08 0.02 0.02 0.02 0.01 0.00 0.03 0.04 0.10 0.15 0.10 0.17 0.15 0.35 0.32 0.29 0.31 0.21 0.15 0.11 0.03 0.00 0.00
0.00 0.00 0.00 0.00 0.02 0.31 0.22 0.48 0.78 0.36 0.33 0.58 0.65 0.46 0.10 0.02 0.01 0.00 0.00 0.00 0.00 0.00 0.00 0.00 0.00 0.00 0.06 0.04 0.05 0.10 0.10 0.04 0.02 0.05 0.06 0.04 0.09 0.10 0.24 0.33 0.28 0.29 0.29 0.32 0.19 0.05 0.02 0.02 0.01
0.00 0.00 0.00 0.00 0.00 0.01 0.05 0.32 0.42 0.39 0.48 1.26 0.92 0.60 0.12 0.02 0.01 0.00 0.01 0.00 0.00 0.00 0.00 0.00 0.00 0.00 0.01 0.05 0.01 0.07 0.02 0.01 0.00 0.01 0.02 0.02 0.01 0.07 0.17 0.17 0.18 0.21 0.28 0.39 0.21 0.03 0.02 0.01 0.00
0.00 0.00 0.00 0.00 0.00 0.00 0.00 0.05 0.29 0.25 0.47 0.81 0.61 0.97 0.28 0.03 0.02 0.00 0.00 0.00 0.00 0.00 0.00 0.00 0.00 0.00 0.00 0.02 0.05 0.05 0.01 0.05 0.04 0.04 0.05 0.16 0.14 0.09 0.13 0.12 0.14 0.20 0.24 0.29 0.26 0.18 0.05 0.03 0.00
0.00 0.00 0.00 0.00 0.00 0.00 0.00 0.01 0.15 0.42 0.24 0.22 0.23 0.70 1.06 0.48 0.03 0.01 0.01 0.00 0.00 0.00 0.00 0.00 0.00 0.00 0.00 0.01 0.02 0.03 0.05 0.04 0.06 0.05 0.05 0.03 0.07 0.02 0.06 0.11 0.19 0.18 0.16 0.20 0.18 0.16 0.06 0.02 0.03
0.00 0.00 0.00 0.00 0.00 0.00 0.00 0.00 0.02 0.42 0.46 0.12 0.13 0.51 0.71 0.75 0.22 0.02 0.01 0.00 0.00 0.00 0.00 0.00 0.00 0.00 0.00 0.00 0.00 0.00 0.02 0.04 0.06 0.10 0.04 0.05 0.16 0.01 0.02 0.06 0.21 0.16 0.10 0.13 0.15 0.16 0.11 0.05 0.05
0.00 0.00 0.00 0.00 0.00 0.00 0.00 0.00 0.00 0.01 0.05 0.03 0.03 0.16 0.17 0.11 0.31 0.05 0.01 0.00 0.01 0.00 0.00 0.00 0.00 0.00 0.00 0.00 0.00 0.00 0.00 0.01 0.00 0.00 0.00 0.00 0.04 0.05 0.14 0.06 0.03 0.09 0.14 0.06 0.10 0.08 0.05 0.07 0.03
0.00 0.00 0.00 0.00 0.00 0.00 0.00 0.00 0.00 0.00 0.01 0.01 0.01 0.11 0.19 0.21 0.11 0.07 0.04 0.01 0.00 0.00 0.00 0.00 0.00 0.00 0.00 0.00 0.00 0.00 0.00 0.00 0.00 0.00 0.00 0.00 0.00 0.07 0.18 0.13 0.03 0.03 0.06 0.07 0.11 0.05 0.13 0.17 0.06
0.00 0.00 0.00 0.00 0.00 0.00 0.00 0.00 0.00 0.00 0.00 0.00 0.00 0.02 0.09 0.31 0.78 0.58 0.29 0.14 0.04 0.01 0.00 0.00 0.00 0.00 0.00 0.00 0.00 0.00 0.00 0.00 0.00 0.00 0.00 0.00 0.01 0.03 0.22 0.30 0.10 0.11 0.06 0.02 0.06 0.02 0.04 0.09 0.05
0.00 0.00 0.00 0.00 0.00 0.00 0.00 0.07 0.00 0.00 0.00 0.01 0.01 0.01 0.04 0.12 0.57 1.50 1.45 0.68 0.17 0.07 0.02 0.01 0.00 0.00 0.00 0.00 0.00 0.00 0.00 0.00 0.00 0.00 0.00 0.00 0.00 0.03 0.06 0.29 0.16 0.12 0.05 0.04 0.10 0.05 0.06 0.10 0.04
0.00 0.00 0.00 0.00 0.00 0.00 0.01 0.12 0.00 0.00 0.00 0.01 0.02 0.01 0.01 0.03 0.21 0.73 1.56 1.87 0.87 0.25 0.17 0.09 0.07 0.00 0.00 0.00 0.00 0.00 0.00 0.00 0.00 0.01 0.01 0.00 0.00 0.00 0.01 0.03 0.18 0.11 0.06 0.07 0.09 0.02 0.04 0.12 0.05

GFSSGP_prec_precacc_087.txt.gz
Total_Precipitation_Accumulation
0.01 0.04 0.34 0.83 1.50 1.04 1.75 2.66 1.66 1.15 0.39 0.04 0.04 0.05 0.35 0.37 0.57 0.55 0.18 0.13 0.02 0.10 0.20 0.72 1.15 0.78 0.45 0.29 0.31 0.47 0.22 0.07 0.06 0.06 0.12 0.12 0.20 0.27 0.13 0.18 0.25 0.23 0.21 0.16 0.17 0.19 0.32 0.31 0.28
0.01 0.19 1.16 3.29 2.58 2.34 2.08 2.04 1.83 1.07 0.22 0.06 0.03 0.11 0.09 0.05 0.02 0.08 0.16 0.08 0.01 0.01 0.04 0.37 0.93 0.42 0.27 0.23 0.24 0.20 0.07 0.09 0.15 0.15 0.28 0.24 0.30 0.26 0.25 0.31 0.50 0.54 0.59 0.41 0.31 0.24 0.23 0.38 0.44
0.04 0.87 3.55 3.82 2.25 2.90 4.19 2.80 1.96 0.66 0.26 0.11 0.14 0.20 0.09 0.05 0.02 0.04 0.02 0.01 0.02 0.03 0.03 0.23 0.42 0.26 0.20 0.27 0.21 0.19 0.16 0.09 0.14 0.23 0.39 0.36 0.34 0.39 0.35 0.22 0.28 0.25 0.31 0.32 0.25 0.25 0.31 0.43 0.66
0.27 1.72 3.08 2.95 2.90 2.69 2.58 2.50 1.73 0.57 0.43 0.30 0.36 0.19 0.10 0.02 0.01 0.01 0.00 0.01 0.04 0.04 0.05 0.18 0.22 0.16 0.23 0.23 0.26 0.16 0.15 0.14 0.17 0.25 0.33 0.29 0.22 0.19 0.17 0.15 0.18 0.22 0.18 0.12 0.13 0.31 0.42 0.61 0.72
0.52 1.43 3.35 2.99 2.67 2.66 1.41 1.03 1.31 0.88 0.59 0.60 0.27 0.15 0.12 0.04 0.00 0.00 0.01 0.02 0.01 0.03 0.06 0.07 0.34 0.26 0.21 0.16 0.15 0.16 0.14 0.13 0.22 0.36 0.24 0.18 0.18 0.14 0.16 0.16 0.11 0.11 0.14 0.10 0.16 0.33 0.53 0.54 0.54
1.54 1.95 2.14 0.98 1.47 3.14 1.81 1.21 1.25 1.08 1.05 1.01 0.32 0.10 0.12 0.04 0.01 0.01 0.01 0.02 0.05 0.03 0.03 0.04 0.27 0.32 0.27 0.17 0.12 0.13 0.07 0.11 0.19 0.26 0.18 0.13 0.17 0.17 0.18 0.07 0.08 0.08 0.16 0.25 0.14 0.17 0.55 0.49 0.44
0.51 2.88 1.41 1.05 1.06 3.46 2.78 2.04 1.82 0.90 0.67 0.48 0.22 0.08 0.13 0.08 0.01 0.00 0.01 0.05 0.05 0.02 0.02 0.05 0.13 0.27 0.28 0.27 0.20 0.10 0.06 0.09 0.12 0.18 0.23 0.14 0.16 0.23 0.19 0.25 0.23 0.16 0.25 0.29 0.41 0.44 0.41 0.28 0.39
0.37 2.55 2.84 1.09 1.06 2.01 1.13 0.95 1.30 0.81 0.47 0.38 0.19 0.10 0.06 0.04 0.01 0.01 0.06 0.06 0.06 0.03 0.03 0.04 0.11 0.15 0.10 0.10 0.19 0.11 0.05 0.06 0.14 0.13 0.13 0.20 0.11 0.14 0.22 0.37 0.29 0.16 0.25 0.42 0.43 0.40 0.22 0.27 0.28
0.41 2.37 1.66 1.08 0.53 0.96 0.71 0.94 1.60 1.08 0.39 0.22 0.25 0.14 0.01 0.01 0.01 0.02 0.03 0.08 0.06 0.06 0.04 0.05 0.03 0.08 0.10 0.05 0.11 0.10 0.08 0.15 0.24 0.22 0.36 0.59 0.37 0.22 0.22 0.34 0.23 0.19 0.23 0.21 0.31 0.24 0.30 0.34 0.25
0.98 1.71 1.50 0.64 0.26 0.56 0.52 1.06 0.63 0.35 0.32 0.46 0.24 0.09 0.01 0.01 0.01 0.00 0.00 0.02 0.02 0.03 0.03 0.11 0.02 0.03 0.01 0.03 0.08 0.08 0.12 0.29 0.23 0.22 0.46 0.78 0.37 0.20 0.16 0.28 0.15 0.11 0.22 0.28 0.22 0.27 0.57 0.32 0.14
0.75 0.76 0.32 0.15 0.13 0.47 0.83 0.95 0.59 0.22 0.54 1.05 0.77 0.08 0.01 0.00 0.00 0.00 0.00 0.00 0.01 0.00 0.01 0.01 0.01 0.02 0.01 0.02 0.05 0.07 0.04 0.03 0.06 0.17 0.71 1.17 0.51 0.30 0.38 0.28 0.29 0.18 0.66 0.91 0.63 0.38 0.22 0.20 0.20
0.50 0.16 0.18 0.13 0.05 0.30 1.10 1.12 1.27 0.86 1.09 0.45 0.28 0.05 0.00 0.00 0.00 0.00 0.00 0.00 0.00 0.02 0.00 0.01 0.01 0.09 0.05 0.02 0.02 0.07 0.09 0.02 0.00 0.04 0.15 0.39 0.68 0.40 0.69 0.58 0.46 0.60 0.39 0.96 0.59 0.39 0.20 0.15 0.20
0.19 0.10 0.12 0.11 0.11 0.23 0.47 0.60 1.38 0.98 2.21 0.78 0.23 0.04 0.00 0.00 0.00 0.00 0.00 0.00 0.00 0.00 0.00 0.00 0.01 0.02 0.03 0.00 0.01 0.01 0.02 0.00 0.00 0.04 0.06 0.36 0.38 0.43 0.39 0.50 0.50 0.41 0.38 0.41 0.30 0.35 0.10 0.17 0.02
0.08 0.06 0.07 0.06 0.12 0.16 0.29 0.40 0.19 0.39 0.76 0.66 0.28 0.03 0.00 0.00 0.00 0.00 0.00 0.00 0.00 0.00 0.00 0.00 0.00 0.01 0.03 0.00 0.02 0.02 0.00 0.00 0.00 0.03 0.03 0.23 0.26 0.47 0.52 0.45 0.42 0.43 0.22 0.23 0.36 0.41 0.10 0.04 0.01
0.02 0.04 0.01 0.04 0.08 0.11 0.33 0.86 0.42 0.43 0.62 0.49 0.26 0.05 0.00 0.00 0.00 0.00 0.00 0.00 0.00 0.00 0.00 0.00 0.00 0.00 0.01 0.06 0.02 0.01 0.00 0.00 0.00 0.00 0.02 0.10 0.30 0.40 0.60 0.53 0.51 0.24 0.24 0.29 0.28 0.21 0.08 0.01 0.00
0.00 0.04 0.03 0.01 0.07 0.12 0.42 1.39 0.68 0.50 0.70 0.26 0.11 0.04 0.00 0.00 0.00 0.00 0.00 0.00 0.00 0.00 0.00 0.00 0.00 0.00 0.00 0.01 0.05 0.02 0.12 0.08 0.02 0.05 0.08 0.26 0.29 0.44 0.64 0.74 0.51 0.21 0.25 0.25 0.26 0.18 0.08 0.01 0.00
0.00 0.01 0.00 0.03 0.12 0.11 0.34 1.54 1.31 0.40 0.45 0.24 0.02 0.01 0.00 0.00 0.00 0.00 0.00 0.00 0.00 0.00 0.00 0.00 0.00 0.00 0.00 0.02 0.05 0.06 0.10 0.17 0.15 0.08 0.11 0.18 0.18 0.32 0.62 0.66 0.64 0.28 0.22 0.24 0.18 0.08 0.04 0.00 0.00
0.00 0.01 0.03 0.03 0.08 0.07 0.27 0.34 0.70 0.54 1.67 0.76 0.18 0.03 0.00 0.00 0.00 0.00 0.00 0.00 0.00 0.00 0.00 0.00 0.00 0.03 0.13 0.28 0.27 0.17 0.13 0.13 0.04 0.01 0.12 0.17 0.23 0.20 0.42 0.41 0.42 0.34 0.19 0.15 0.15 0.06 0.01 0.00 0.00
0.00 0.00 0.03 0.04 0.12 0.19 0.21 0.17 0.66 0.21 0.88 1.00 0.17 0.10 0.04 0.00 0.00 0.00 0.00 0.00 0.00 0.00 0.00 0.00 0.00 0.04 0.14 0.12 0.07 0.02 0.03 0.02 0.03 0.05 0.16 0.25 0.19 0.17 0.32 0.41 0.42 0.25 0.25 0.27 0.08 0.04 0.00 0.00 0.00
0.00 0.00 0.01 0.02 0.14 0.60 1.14 0.65 0.72 0.29 0.26 0.36 0.41 0.22 0.12 0.01 0.00 0.00 0.00 0.00 0.00 0.00 0.00 0.00 0.00 0.00 0.08 0.02 0.02 0.02 0.01 0.00 0.03 0.04 0.11 0.15 0.10 0.18 0.16 0.35 0.33 0.29 0.31 0.21 0.16 0.12 0.03 0.00 0.00
0.00 0.00 0.00 0.00 0.03 0.39 0.84 1.11 0.90 0.41 0.34 0.59 0.66 0.46 0.10 0.02 0.01 0.00 0.00 0.00 0.00 0.00 0.00 0.00 0.00 0.00 0.06 0.04 0.05 0.11 0.11 0.05 0.03 0.06 0.06 0.04 0.09 0.11 0.29 0.34 0.29 0.29 0.29 0.32 0.19 0.06 0.02 0.02 0.01
0.00 0.00 0.00 0.00 0.00 0.01 0.07 0.40 0.45 0.45 0.48 1.27 0.92 0.63 0.13 0.02 0.01 0.00 0.01 0.00 0.00 0.00 0.00 0.00 0.00 0.00 0.01 0.05 0.01 0.07 0.03 0.01 0.00 0.04 0.03 0.02 0.01 0.07 0.17 0.17 0.19 0.21 0.28 0.39 0.21 0.03 0.02 0.01 0.00
0.00 0.00 0.00 0.00 0.00 0.00 0.00 0.08 0.37 0.44 0.53 0.83 0.61 0.99 0.34 0.04 0.02 0.01 0.01 0.00 0.00 0.00 0.00 0.00 0.00 0.00 0.00 0.02 0.05 0.05 0.01 0.07 0.06 0.08 0.11 0.17 0.14 0.09 0.13 0.12 0.17 0.22 0.25 0.29 0.26 0.18 0.05 0.03 0.01
0.00 0.00 0.00 0.00 0.00 0.00 0.00 0.02 0.24 0.54 0.43 0.53 0.26 0.73 1.11 0.51 0.10 0.05 0.02 0.00 0.00 0.00 0.00 0.00 0.00 0.00 0.00 0.01 0.02 0.04 0.05 0.06 0.08 0.08 0.09 0.03 0.09 0.03 0.06 0.11 0.20 0.19 0.16 0.20 0.19 0.17 0.06 0.02 0.03
0.00 0.00 0.00 0.00 0.00 0.00 0.00 0.00 0.05 0.48 0.49 0.40 0.46 0.71 0.94 1.06 0.39 0.11 0.08 0.01 0.01 0.00 0.00 0.00 0.00 0.00 0.00 0.00 0.00 0.01 0.04 0.05 0.11 0.10 0.05 0.07 0.22 0.03 0.04 0.08 0.23 0.16 0.10 0.13 0.15 0.16 0.11 0.05 0.05
0.00 0.00 0.00 0.00 0.00 0.00 0.00 0.00 0.00 0.01 0.05 0.06 0.19 0.27 0.27 0.27 0.59 0.16 0.04 0.02 0.04 0.00 0.00 0.00 0.00 0.00 0.00 0.00 0.00 0.02 0.02 0.02 0.02 0.01 0.02 0.01 0.06 0.06 0.16 0.10 0.06 0.10 0.14 0.06 0.11 0.08 0.05 0.07 0.03
0.00 0.00 0.00 0.00 0.00 0.00 0.00 0.01 0.01 0.00 0.04 0.04 0.04 0.17 0.28 0.30 0.17 0.15 0.11 0.06 0.09 0.03 0.00 0.00 0.00 0.00 0.00 0.00 0.00 0.00 0.00 0.01 0.01 0.01 0.02 0.01 0.02 0.07 0.19 0.19 0.05 0.03 0.06 0.07 0.12 0.05 0.15 0.17 0.06
0.00 0.00 0.00 0.00 0.00 0.00 0.05 0.05 0.06 0.04 0.05 0.04 0.02 0.03 0.12 0.39 0.84 0.64 0.40 0.30 0.22 0.11 0.01 0.00 0.00 0.00 0.01 0.01 0.01 0.01 0.03 0.01 0.01 0.01 0.00 0.01 0.03 0.03 0.23 0.30 0.11 0.12 0.07 0.02 0.06 0.05 0.05 0.10 0.06
0.00 0.00 0.00 0.00 0.00 0.00 0.07 0.27 0.10 0.05 0.00 0.01 0.02 0.02 0.05 0.16 0.71 1.81 1.65 1.09 0.75 0.36 0.11 0.13 0.06 0.02 0.00 0.00 0.01 0.01 0.00 0.01 0.01 0.00 0.00 0.00 0.01 0.04 0.07 0.29 0.16 0.13 0.06 0.04 0.10 0.06 0.06 0.10 0.04
0.00 0.00 0.00 0.00 0.00 0.00 0.01 0.22 0.13 0.10 0.01 0.01 0.02 0.02 0.02 0.07 0.25 0.88 1.80 2.18 2.11 1.37 0.52 0.41 0.42 0.19 0.11 0.03 0.00 0.00 0.00 0.00 0.00 0.01 0.01 0.00 0.00 0.00 0.01 0.04 0.19 0.12 0.06 0.07 0.09 0.03 0.05 0.12 0.05

GFSSGP_prec_precacc_090.txt.gz
Total_Precipitation_Accumulation
0.01 0.04 0.34 0.83 1.54 1.19 1.79 2.74 1.80 1.20 0.40 0.04 0.05 0.05 0.36 0.37 0.57 0.56 0.18 0.13 0.02 0.10 0.20 0.74 1.16 0.78 0.45 0.29 0.31 0.47 0.22 0.07 0.06 0.07 0.12 0.12 0.21 0.27 0.13 0.18 0.25 0.24 0.23 0.16 0.17 0.19 0.32 0.32 0.30
0.01 0.19 1.16 3.29 2.73 2.65 2.12 2.07 1.90 1.11 0.22 0.06 0.03 0.12 0.10 0.05 0.02 0.08 0.16 0.08 0.01 0.01 0.04 0.37 0.93 0.42 0.27 0.23 0.24 0.20 0.07 0.09 0.15 0.15 0.28 0.24 0.30 0.27 0.26 0.32 0.51 0.56 0.60 0.42 0.32 0.24 0.23 0.38 0.45
0.04 0.87 3.55 3.89 2.61 3.49 4.33 2.84 2.03 0.67 0.27 0.11 0.14 0.20 0.09 0.05 0.02 0.04 0.02 0.01 0.02 0.03 0.03 0.23 0.42 0.26 0.20 0.27 0.21 0.19 0.16 0.09 0.14 0.23 0.39 0.36 0.34 0.40 0.35 0.23 0.28 0.26 0.32 0.32 0.26 0.25 0.31 0.43 0.66
0.27 1.72 3.08 3.06 3.34 2.81 2.65 2.53 1.77 0.59 0.44 0.30 0.36 0.19 0.10 0.02 0.01 0.01 0.00 0.01 0.04 0.04 0.05 0.18 0.23 0.16 0.23 0.24 0.26 0.16 0.15 0.14 0.17 0.25 0.33 0.29 0.23 0.19 0.17 0.16 0.18 0.22 0.18 0.12 0.13 0.31 0.42 0.62 0.73
0.52 1.55 3.59 3.12 2.73 2.72 1.49 1.10 1.32 0.88 0.59 0.60 0.27 0.15 0.13 0.04 0.00 0.00 0.01 0.02 0.01 0.03 0.06 0.07 0.36 0.26 0.22 0.16 0.15 0.16 0.14 0.13 0.22 0.36 0.24 0.18 0.18 0.14 0.17 0.17 0.12 0.11 0.14 0.10 0.16 0.33 0.53 0.57 0.58
1.54 2.21 2.39 1.01 1.56 3.22 1.90 1.25 1.25 1.08 1.05 1.01 0.32 0.10 0.12 0.04 0.01 0.01 0.01 0.02 0.05 0.03 0.03 0.04 0.27 0.32 0.27 0.17 0.12 0.13 0.07 0.11 0.19 0.26 0.18 0.13 0.17 0.18 0.19 0.08 0.08 0.08 0.16 0.25 0.14 0.17 0.55 0.53 0.47
0.53 3.73 1.65 1.06 1.12 3.54 2.91 2.06 1.82 0.90 0.67 0.48 0.22 0.08 0.14 0.08 0.01 0.00 0.01 0.05 0.05 0.02 0.02 0.05 0.13 0.27 0.28 0.27 0.20 0.10 0.06 0.09 0.12 0.18 0.23 0.14 0.16 0.23 0.19 0.25 0.23 0.16 0.25 0.29 0.41 0.44 0.41 0.30 0.39
0.39 2.94 3.64 1.13 1.19 2.16 1.30 0.98 1.31 0.81 0.47 0.38 0.19 0.10 0.07 0.04 0.02 0.04 0.06 0.06 0.06 0.03 0.03 0.04 0.11 0.15 0.10 0.10 0.19 0.11 0.05 0.06 0.14 0.13 0.13 0.20 0.11 0.14 0.23 0.38 0.29 0.16 0.25 0.42 0.43 0.40 0.22 0.27 0.28
0.44 2.56 2.04 1.17 0.69 1.25 0.84 0.95 1.61 1.08 0.39 0.22 0.25 0.14 0.01 0.02 0.01 0.02 0.04 0.08 0.07 0.07 0.10 0.05 0.03 0.08 0.10 0.05 0.11 0.10 0.08 0.15 0.29 0.22 0.36 0.59 0.37 0.23 0.23 0.34 0.24 0.19 0.23 0.21 0.31 0.24 0.30 0.34 0.26
1.12 1.95 2.03 0.75 0.28 0.58 0.52 1.07 0.69 0.38 0.33 0.46 0.24 0.09 0.01 0.01 0.01 0.01 0.01 0.02 0.02 0.03 0.04 0.11 0.02 0.03 0.01 0.03 0.08 0.08 0.12 0.29 0.24 0.22 0.47 0.78 0.38 0.20 0.16 0.28 0.15 0.11 0.22 0.28 0.22 0.27 0.58 0.33 0.14
0.86 1.26 0.46 0.37 0.17 0.48 0.84 1.00 0.63 0.27 0.55 1.05 0.77 0.08 0.01 0.00 0.00 0.00 0.00 0.00 0.01 0.02 0.04 0.01 0.01 0.02 0.01 0.02 0.05 0.07 0.04 0.03 0.06 0.17 0.71 1.17 0.51 0.30 0.38 0.28 0.29 0.19 0.66 0.93 0.63 0.39 0.26 0.22 0.27
0.66 0.47 0.30 0.25 0.17 0.33 1.10 1.12 1.29 0.89 1.10 0.45 0.28 0.05 0.00 0.00 0.00 0.00 0.00 0.00 0.00 0.02 0.01 0.01 0.01 0.09 0.05 0.02 0.02 0.07 0.09 0.02 0.00 0.04 0.15 0.39 0.68 0.40 0.69 0.58 0.47 0.61 0.39 0.96 0.59 0.41 0.21 0.15 0.20
0.22 0.24 0.22 0.23 0.16 0.26 0.48 0.60 1.39 1.01 2.21 0.78 0.23 0.04 0.00 0.00 0.00 0.00 0.00 0.00 0.00 0.01 0.00 0.00 0.01 0.02 0.03 0.00 0.01 0.01 0.02 0.00 0.00 0.04 0.06 0.36 0.38 0.44 0.40 0.50 0.50 0.42 0.40 0.42 0.31 0.37 0.10 0.17 0.02
0.13 0.14 0.18 0.16 0.18 0.21 0.31 0.40 0.23 0.43 0.76 0.66 0.28 0.03 0.00 0.00 0.00 0.00 0.00 0.00 0.00 0.01 0.00 0.00 0.00 0.01 0.03 0.00 0.02 0.02 0.00 0.00 0.00 0.03 0.03 0.23 0.27 0.47 0.52 0.46 0.43 0.44 0.22 0.23 0.36 0.41 0.10 0.04 0.01
0.04 0.11 0.13 0.11 0.12 0.11 0.33 0.88 0.46 0.43 0.62 0.49 0.26 0.05 0.00 0.00 0.00 0.00 0.00 0.00 0.00 0.00 0.00 0.00 0.00 0.00 0.01 0.06 0.02 0.01 0.00 0.00 0.00 0.00 0.02 0.12 0.30 0.40 0.60 0.53 0.51 0.25 0.28 0.29 0.28 0.21 0.08 0.01 0.00
0.00 0.07 0.08 0.07 0.14 0.16 0.45 1.99 0.88 0.52 0.71 0.27 0.12 0.04 0.00 0.00 0.00 0.00 0.00 0.00 0.00 0.00 0.00 0.00 0.00 0.00 0.00 0.01 0.05 0.02 0.12 0.08 0.02 0.05 0.08 0.27 0.32 0.45 0.64 0.74 0.51 0.21 0.26 0.25 0.26 0.18 0.08 0.01 0.00
0.00 0.01 0.02 0.14 0.16 0.19 0.47 1.96 1.63 0.49 0.49 0.25 0.02 0.01 0.00 0.00 0.00 0.00 0.00 0.00 0.00 0.00 0.00 0.00 0.00 0.00 0.00 0.02 0.05 0.06 0.10 0.17 0.15 0.08 0.14 0.23 0.20 0.33 0.62 0.67 0.64 0.29 0.22 0.25 0.18 0.09 0.04 0.00 0.00
0.00 0.01 0.06 0.08 0.27 0.29 0.47 0.36 0.72 0.59 1.76 0.78 0.18 0.03 0.00 0.00 0.00 0.00 0.00 0.00 0.00 0.00 0.00 0.00 0.00 0.03 0.13 0.28 0.27 0.17 0.13 0.13 0.04 0.02 0.12 0.17 0.23 0.21 0.43 0.42 0.42 0.34 0.20 0.15 0.17 0.06 0.01 0.00 0.00
0.00 0.01 0.04 0.08 0.29 0.49 0.41 0.26 0.77 0.24 1.06 1.08 0.18 0.10 0.04 0.00 0.00 0.00 0.00 0.00 0.00 0.00 0.00 0.00 0.00 0.04 0.14 0.12 0.08 0.02 0.04 0.02 0.03 0.05 0.16 0.27 0.21 0.22 0.33 0.41 0.43 0.25 0.25 0.27 0.08 0.04 0.01 0.00 0.00
0.00 0.00 0.01 0.06 0.28 0.99 1.60 0.93 0.88 0.45 0.43 0.44 0.42 0.22 0.12 0.01 0.00 0.00 0.00 0.00 0.00 0.00 0.00 0.00 0.00 0.00 0.08 0.02 0.03 0.03 0.01 0.00 0.04 0.04 0.11 0.16 0.12 0.21 0.16 0.35 0.33 0.29 0.31 0.22 0.17 0.12 0.03 0.00 0.00
0.00 0.00 0.00 0.03 0.12 0.62 1.31 1.55 1.09 0.63 0.57 0.71 0.68 0.47 0.10 0.02 0.01 0.00 0.00 0.00 0.00 0.00 0.00 0.00 0.00 0.00 0.06 0.04 0.05 0.12 0.11 0.05 0.09 0.13 0.06 0.05 0.09 0.11 0.30 0.35 0.29 0.29 0.29 0.33 0.21 0.09 0.02 0.02 0.01
0.00 0.00 0.00 0.00 0.01 0.04 0.14 0.50 0.51 0.64 0.71 1.41 0.93 0.63 0.13 0.02 0.01 0.00 0.01 0.00 0.00 0.00 0.00 0.00 0.00 0.00 0.01 0.05 0.01 0.07 0.03 0.02 0.03 0.06 0.09 0.06 0.02 0.07 0.17 0.17 0.19 0.21 0.28 0.39 0.22 0.04 0.03 0.01 0.00
0.00 0.00 0.00 0.00 0.02 0.02 0.01 0.11 0.38 0.51 0.69 0.98 0.67 0.99 0.35 0.05 0.02 0.01 0.01 0.00 0.00 0.00 0.00 0.00 0.00 0.00 0.00 0.02 0.06 0.05 0.02 0.07 0.06 0.09 0.12 0.22 0.23 0.11 0.13 0.12 0.17 0.22 0.25 0.29 0.26 0.19 0.05 0.04 0.01
0.00 0.00 0.00 0.01 0.04 0.03 0.00 0.03 0.27 0.55 0.46 0.61 0.32 0.74 1.12 0.52 0.11 0.05 0.02 0.00 0.00 0.00 0.00 0.00 0.00 0.00 0.00 0.01 0.03 0.05 0.05 0.06 0.08 0.10 0.12 0.11 0.18 0.09 0.08 0.13 0.20 0.19 0.16 0.20 0.19 0.17 0.06 0.02 0.03
0.00 0.00 0.00 0.00 0.00 0.00 0.00 0.00 0.08 0.49 0.49 0.40 0.46 0.71 0.95 1.07 0.40 0.15 0.09 0.02 0.01 0.00 0.00 0.00 0.00 0.00 0.00 0.00 0.02 0.02 0.04 0.05 0.11 0.13 0.07 0.08 0.23 0.04 0.04 0.09 0.23 0.16 0.10 0.13 0.15 0.16 0.11 0.06 0.06
0.00 0.00 0.00 0.00 0.00 0.00 0.00 0.01 0.01 0.02 0.05 0.06 0.19 0.27 0.27 0.27 0.59 0.18 0.12 0.11 0.05 0.00 0.00 0.00 0.00 0.00 0.00 0.00 0.00 0.02 0.03 0.02 0.02 0.01 0.03 0.01 0.07 0.07 0.19 0.10 0.06 0.10 0.14 0.06 0.12 0.08 0.05 0.07 0.03
0.00 0.00 0.00 0.00 0.00 0.00 0.04 0.02 0.02 0.00 0.04 0.04 0.04 0.17 0.28 0.30 0.18 0.16 0.19 0.18 0.12 0.04 0.00 0.00 0.00 0.00 0.00 0.00 0.00 0.00 0.00 0.01 0.01 0.01 0.05 0.01 0.03 0.11 0.20 0.19 0.05 0.03 0.06 0.07 0.12 0.05 0.15 0.17 0.06
0.00 0.00 0.00 0.00 0.00 0.00 0.11 0.13 0.11 0.06 0.06 0.04 0.02 0.03 0.12 0.39 0.84 0.64 0.42 0.34 0.27 0.12 0.02 0.01 0.00 0.00 0.01 0.01 0.01 0.01 0.03 0.01 0.01 0.02 0.01 0.01 0.03 0.03 0.23 0.30 0.11 0.12 0.07 0.02 0.06 0.05 0.05 0.10 0.06
0.00 0.00 0.00 0.00 0.00 0.00 0.10 0.30 0.19 0.14 0.03 0.03 0.04 0.03 0.05 0.16 0.73 1.81 1.65 1.09 0.76 0.44 0.17 0.28 0.24 0.14 0.05 0.01 0.01 0.01 0.01 0.02 0.01 0.01 0.02 0.00 0.01 0.04 0.08 0.30 0.16 0.13 0.06 0.04 0.10 0.06 0.06 0.10 0.04
0.00 0.00 0.00 0.00 0.00 0.00 0.02 0.26 0.23 0.25 0.12 0.07 0.06 0.04 0.04 0.11 0.30 0.94 1.85 2.20 2.16 1.62 1.29 0.66 0.65 0.44 0.24 0.14 0.08 0.04 0.05 0.05 0.01 0.01 0.01 0.00 0.00 0.00 0.02 0.04 0.19 0.12 0.06 0.07 0.09 0.03 0.05 0.12 0.05

GFSSGP_prec_precacc_093.txt.gz
Total_Precipitation_Accumulation
0.01 0.04 0.34 0.83 1.58 1.19 1.81 2.82 1.82 1.20 0.40 0.04 0.05 0.05 0.36 0.37 0.57 0.56 0.18 0.13 0.02 0.10 0.22 0.80 1.20 0.79 0.45 0.29 0.31 0.47 0.23 0.10 0.06 0.07 0.13 0.12 0.21 0.27 0.15 0.20 0.28 0.28 0.23 0.16 0.17 0.20 0.33 0.32 0.30
0.01 0.19 1.16 3.29 2.78 2.68 2.14 2.08 1.93 1.11 0.22 0.06 0.04 0.12 0.10 0.05 0.02 0.08 0.16 0.08 0.01 0.01 0.04 0.38 0.93 0.42 0.27 0.23 0.24 0.20 0.07 0.09 0.16 0.15 0.30 0.26 0.31 0.27 0.27 0.33 0.52 0.57 0.61 0.42 0.32 0.24 0.24 0.40 0.46
0.04 0.87 3.55 3.93 2.88 3.57 4.34 2.87 2.06 0.67 0.27 0.11 0.15 0.21 0.09 0.05 0.02 0.04 0.02 0.01 0.02 0.03 0.03 0.23 0.42 0.26 0.20 0.29 0.22 0.20 0.16 0.09 0.15 0.24 0.39 0.37 0.36 0.41 0.38 0.23 0.29 0.26 0.32 0.33 0.26 0.25 0.32 0.43 0.66
0.27 1.72 3.09 3.14 3.61 2.83 2.68 2.54 1.78 0.59 0.44 0.30 0.36 0.19 0.10 0.02 0.01 0.01 0.00 0.01 0.04 0.04 0.05 0.18 0.23 0.18 0.26 0.25 0.27 0.19 0.16 0.14 0.17 0.26 0.35 0.32 0.25 0.21 0.18 0.16 0.19 0.23 0.18 0.12 0.13 0.31 0.44 0.65 0.73
0.52 1.60 3.67 3.35 2.85 2.75 1.53 1.12 1.32 0.88 0.59 0.60 0.27 0.15 0.13 0.04 0.00 0.00 0.01 0.02 0.01 0.03 0.06 0.07 0.37 0.27 0.22 0.17 0.16 0.16 0.16 0.15 0.23 0.39 0.28 0.20 0.20 0.15 0.17 0.17 0.12 0.11 0.14 0.10 0.17 0.38 0.57 0.60 0.59
1.59 2.61 2.72 1.03 1.58 3.28 2.05 1.29 1.25 1.08 1.05 1.01 0.32 0.10 0.12 0.04 0.01 0.01 0.01 0.02 0.05 0.03 0.03 0.04 0.28 0.33 0.28 0.18 0.12 0.13 0.07 0.11 0.21 0.28 0.19 0.14 0.18 0.18 0.19 0.08 0.08 0.08 0.16 0.25 0.15 0.22 0.59 0.54 0.47
0.55 4.24 1.80 1.09 1.21 3.72 2.98 2.06 1.82 0.90 0.67 0.48 0.22 0.08 0.14 0.08 0.01 0.00 0.01 0.05 0.05 0.02 0.02 0.05 0.13 0.28 0.29 0.30 0.20 0.10 0.06 0.09 0.13 0.19 0.24 0.14 0.17 0.23 0.19 0.25 0.23 0.16 0.25 0.29 0.41 0.45 0.46 0.35 0.40
0.40 3.05 3.66 1.15 1.70 2.48 1.34 0.99 1.31 0.81 0.47 0.38 0.19 0.10 0.07 0.04 0.02 0.04 0.06 0.06 0.06 0.03 0.03 0.05 0.11 0.16 0.11 0.12 0.20 0.11 0.06 0.06 0.14 0.13 0.14 0.20 0.15 0.16 0.23 0.38 0.29 0.16 0.25 0.42 0.43 0.42 0.26 0.29 0.28
0.48 2.66 2.05 1.22 1.02 1.50 0.88 0.95 1.61 1.08 0.39 0.22 0.25 0.14 0.01 0.02 0.01 0.02 0.04 0.08 0.07 0.07 0.12 0.06 0.03 0.09 0.10 0.05 0.11 0.10 0.08 0.15 0.29 0.23 0.39 0.63 0.50 0.30 0.23 0.34 0.24 0.19 0.23 0.21 0.31 0.24 0.30 0.35 0.26
1.14 1.98 2.09 0.81 0.37 0.66 0.54 1.08 0.69 0.38 0.33 0.46 0.24 0.09 0.01 0.01 0.01 0.01 0.01 0.02 0.02 0.03 0.05 0.12 0.02 0.03 0.01 0.03 0.09 0.15 0.12 0.29 0.24 0.22 0.47 0.79 0.40 0.20 0.16 0.30 0.15 0.11 0.23 0.30 0.25 0.29 0.59 0.34 0.14
0.88 1.65 0.51 0.45 0.18 0.52 0.90 1.05 0.63 0.27 0.55 1.05 0.77 0.08 0.01 0.00 0.00 0.00 0.00 0.00 0.01 0.02 0.04 0.01 0.01 0.02 0.01 0.02 0.06 0.09 0.04 0.03 0.06 0.17 0.71 1.17 0.51 0.31 0.44 0.36 0.31 0.19 0.66 0.93 0.63 0.40 0.27 0.22 0.27
0.67 0.70 0.45 0.34 0.29 0.38 1.17 1.14 1.31 0.90 1.10 0.45 0.28 0.05 0.00 0.01 0.00 0.00 0.00 0.00 0.00 0.02 0.01 0.01 0.01 0.09 0.05 0.02 0.02 0.07 0.09 0.02 0.00 0.04 0.15 0.39 0.68 0.40 0.70 0.59 0.47 0.61 0.39 0.96 0.60 0.42 0.22 0.16 0.20
0.25 0.31 0.40 0.42 0.42 0.39 0.57 0.71 1.45 1.09 2.22 0.78 0.23 0.04 0.00 0.00 0.00 0.00 0.00 0.00 0.00 0.01 0.00 0.00 0.01 0.02 0.03 0.00 0.01 0.01 0.02 0.00 0.00 0.04 0.06 0.36 0.38 0.44 0.40 0.50 0.50 0.42 0.40 0.42 0.31 0.37 0.10 0.17 0.02
0.16 0.24 0.33 0.28 0.43 0.35 0.35 0.50 0.33 0.47 0.77 0.66 0.28 0.03 0.00 0.00 0.00 0.00 0.00 0.00 0.00 0.01 0.00 0.00 0.00 0.01 0.03 0.00 0.02 0.02 0.00 0.00 0.00 0.03 0.03 0.23 0.27 0.47 0.52 0.46 0.43 0.44 0.22 0.23 0.36 0.41 0.10 0.04 0.01
0.05 0.17 0.27 0.17 0.23 0.18 0.41 1.00 0.55 0.44 0.62 0.49 0.26 0.05 0.00 0.00 0.00 0.00 0.00 0.00 0.00 0.00 0.00 0.00 0.00 0.00 0.01 0.06 0.02 0.01 0.00 0.00 0.00 0.01 0.03 0.12 0.30 0.40 0.61 0.53 0.51 0.25 0.28 0.29 0.28 0.21 0.08 0.01 0.00
0.01 0.16 0.30 0.14 0.15 0.18 0.51 2.05 0.95 0.53 0.71 0.27 0.12 0.04 0.00 0.00 0.00 0.00 0.00 0.00 0.00 0.00 0.00 0.00 0.00 0.00 0.00 0.01 0.05 0.02 0.12 0.08 0.02 0.05 0.08 0.27 0.32 0.45 0.64 0.74 0.51 0.21 0.26 0.25 0.26 0.18 0.08 0.01 0.00
0.00 0.09 0.18 0.29 0.23 0.23 0.52 1.99 1.73 0.51 0.51 0.26 0.02 0.01 0.00 0.00 0.00 0.00 0.00 0.00 0.00 0.00 0.00 0.00 0.00 0.00 0.00 0.02 0.05 0.06 0.10 0.17 0.15 0.08 0.15 0.23 0.21 0.34 0.62 0.67 0.65 0.32 0.23 0.25 0.18 0.09 0.04 0.00 0.00
0.00 0.02 0.13 0.21 0.39 0.55 0.64 0.38 0.74 0.60 1.77 0.78 0.18 0.03 0.00 0.00 0.00 0.00 0.00 0.00 0.00 0.00 0.00 0.00 0.00 0.03 0.13 0.28 0.27 0.18 0.13 0.13 0.04 0.03 0.14 0.17 0.27 0.25 0.43 0.42 0.44 0.40 0.20 0.15 0.17 0.06 0.01 0.00 0.00
0.00 0.01 0.04 0.14 0.53 0.74 0.56 0.31 0.88 0.32 1.11 1.20 0.18 0.10 0.04 0.00 0.00 0.00 0.00 0.00 0.00 0.00 0.00 0.00 0.00 0.04 0.14 0.12 0.08 0.02 0.04 0.02 0.03 0.05 0.18 0.28 0.24 0.23 0.33 0.41 0.45 0.26 0.25 0.27 0.08 0.04 0.01 0.00 0.00
0.00 0.00 0.04 0.12 0.45 1.12 2.10 1.07 0.99 0.67 0.49 0.59 0.43 0.22 0.12 0.01 0.00 0.00 0.00 0.00 0.00 0.00 0.00 0.00 0.00 0.00 0.08 0.02 0.03 0.03 0.02 0.01 0.04 0.06 0.12 0.17 0.14 0.21 0.17 0.37 0.33 0.29 0.31 0.24 0.17 0.12 0.03 0.00 0.00
0.00 0.00 0.01 0.05 0.16 0.68 1.51 1.95 1.13 0.74 0.80 0.85 0.72 0.48 0.10 0.02 0.01 0.00 0.00 0.00 0.00 0.00 0.00 0.00 0.00 0.00 0.06 0.04 0.05 0.12 0.11 0.05 0.10 0.15 0.09 0.07 0.09 0.11 0.30 0.35 0.29 0.29 0.29 0.33 0.21 0.09 0.02 0.02 0.01
0.00 0.00 0.00 0.00 0.01 0.04 0.17 0.56 0.52 0.68 0.86 1.61 1.01 0.65 0.13 0.02 0.01 0.00 0.01 0.00 0.00 0.00 0.00 0.00 0.00 0.00 0.01 0.05 0.01 0.07 0.04 0.02 0.04 0.09 0.10 0.13 0.05 0.08 0.18 0.18 0.22 0.23 0.28 0.39 0.22 0.04 0.03 0.02 0.00
0.01 0.00 0.00 0.00 0.02 0.02 0.01 0.11 0.38 0.53 0.78 1.10 0.83 0.99 0.35 0.05 0.02 0.01 0.01 0.00 0.00 0.00 0.00 0.00 0.00 0.00 0.00 0.02 0.06 0.06 0.07 0.08 0.07 0.10 0.12 0.26 0.25 0.15 0.15 0.16 0.21 0.23 0.25 0.29 0.26 0.20 0.06 0.05 0.01
0.00 0.00 0.00 0.01 0.04 0.04 0.00 0.03 0.27 0.55 0.46 0.62 0.33 0.75 1.13 0.52 0.11 0.05 0.02 0.00 0.00 0.00 0.00 0.00 0.00 0.00 0.00 0.01 0.03 0.06 0.06 0.09 0.09 0.10 0.16 0.15 0.18 0.10 0.09 0.14 0.22 0.20 0.17 0.20 0.19 0.19 0.07 0.02 0.03
0.00 0.00 0.00 0.01 0.01 0.00 0.00 0.00 0.08 0.49 0.49 0.40 0.46 0.71 0.95 1.07 0.40 0.16 0.09 0.03 0.01 0.00 0.00 0.00 0.00 0.00 0.00 0.00 0.02 0.02 0.04 0.06 0.13 0.13 0.07 0.08 0.23 0.04 0.04 0.09 0.23 0.17 0.10 0.13 0.15 0.17 0.12 0.06 0.06
0.00 0.00 0.00 0.00 0.00 0.00 0.00 0.01 0.01 0.02 0.05 0.06 0.19 0.27 0.31 0.28 0.61 0.23 0.16 0.11 0.05 0.00 0.00 0.00 0.00 0.00 0.00 0.00 0.00 0.02 0.03 0.02 0.05 0.02 0.03 0.01 0.07 0.07 0.19 0.10 0.07 0.11 0.14 0.06 0.12 0.08 0.05 0.07 0.03
0.00 0.00 0.00 0.00 0.00 0.00 0.04 0.02 0.03 0.01 0.04 0.04 0.04 0.17 0.28 0.31 0.19 0.17 0.24 0.19 0.13 0.04 0.00 0.00 0.00 0.00 0.00 0.00 0.00 0.00 0.00 0.01 0.01 0.01 0.06 0.01 0.03 0.11 0.20 0.21 0.11 0.10 0.08 0.07 0.12 0.05 0.15 0.17 0.06
0.00 0.00 0.00 0.00 0.00 0.00 0.11 0.14 0.12 0.07 0.07 0.04 0.02 0.03 0.12 0.40 0.85 0.64 0.45 0.39 0.32 0.16 0.05 0.01 0.02 0.01 0.02 0.01 0.01 0.01 0.03 0.01 0.01 0.02 0.02 0.01 0.03 0.06 0.25 0.32 0.12 0.13 0.07 0.03 0.06 0.05 0.05 0.10 0.06
0.00 0.00 0.00 0.00 0.00 0.00 0.10 0.31 0.19 0.15 0.04 0.05 0.06 0.04 0.08 0.18 0.75 1.82 1.68 1.16 0.84 0.55 0.20 0.28 0.28 0.20 0.09 0.01 0.01 0.01 0.01 0.02 0.02 0.01 0.02 0.00 0.01 0.05 0.08 0.30 0.16 0.13 0.06 0.04 0.10 0.06 0.06 0.10 0.04
0.00 0.00 0.00 0.00 0.00 0.00 0.02 0.26 0.23 0.25 0.13 0.12 0.13 0.05 0.06 0.11 0.31 0.96 1.87 2.26 2.25 1.72 1.40 0.71 0.76 0.51 0.29 0.16 0.09 0.05 0.05 0.05 0.01 0.04 0.02 0.00 0.02 0.03 0.06 0.07 0.25 0.13 0.06 0.07 0.09 0.03 0.05 0.12 0.05

GFSSGP_prec_precacc_099.txt.gz
Total_Precipitation_Accumulation
0.01 0.04 0.34 0.83 1.59 1.20 1.81 2.82 1.82 1.20 0.40 0.04 0.05 0.05 0.36 0.37 0.57 0.56 0.18 0.13 0.02 0.10 0.27 0.92 1.39 0.95 0.51 0.30 0.32 0.50 0.25 0.14 0.07 0.08 0.13 0.13 0.24 0.33 0.21 0.29 0.38 0.35 0.24 0.17 0.18 0.20 0.33 0.32 0.31
0.01 0.19 1.16 3.30 2.80 2.69 2.14 2.08 1.93 1.11 0.22 0.06 0.04 0.12 0.10 0.05 0.02 0.08 0.16 0.08 0.01 0.01 0.04 0.40 1.06 0.46 0.27 0.23 0.25 0.27 0.11 0.13 0.18 0.17 0.31 0.27 0.35 0.37 0.41 0.49 0.63 0.58 0.63 0.47 0.36 0.27 0.27 0.42 0.46
0.04 0.87 3.55 3.98 3.02 3.58 4.34 2.87 2.06 0.67 0.27 0.11 0.15 0.21 0.09 0.05 0.02 0.04 0.02 0.01 0.02 0.03 0.03 0.23 0.42 0.26 0.21 0.30 0.24 0.21 0.21 0.13 0.18 0.33 0.46 0.42 0.44 0.54 0.48 0.31 0.38 0.30 0.36 0.37 0.34 0.31 0.39 0.57 0.67
0.27 1.72 3.14 3.24 3.76 2.83 2.70 2.54 1.78 0.59 0.44 0.30 0.36 0.20 0.10 0.02 0.01 0.01 0.00 0.01 0.04 0.04 0.05 0.18 0.23 0.21 0.36 0.35 0.32 0.23 0.18 0.20 0.23 0.32 0.40 0.44 0.39 0.33 0.24 0.23 0.30 0.26 0.21 0.14 0.18 0.33 0.46 0.65 0.73
0.52 1.63 3.91 3.59 2.98 2.77 1.55 1.13 1.32 0.88 0.59 0.60 0.27 0.16 0.13 0.05 0.00 0.00 0.01 0.02 0.01 0.03 0.06 0.08 0.44 0.38 0.33 0.34 0.40 0.24 0.20 0.21 0.27 0.46 0.40 0.33 0.28 0.27 0.35 0.30 0.14 0.13 0.14 0.11 0.20 0.38 0.58 0.62 0.60
1.62 2.70 3.09 1.28 1.59 3.36 2.10 1.30 1.25 1.08 1.05 1.01 0.32 0.10 0.13 0.05 0.01 0.01 0.01 0.02 0.05 0.03 0.03 0.06 0.34 0.39 0.34 0.32 0.34 0.25 0.23 0.23 0.32 0.35 0.29 0.28 0.32 0.30 0.25 0.15 0.09 0.08 0.16 0.25 0.15 0.23 0.60 0.55 0.48
0.63 4.45 2.23 1.13 1.24 3.91 3.05 2.06 1.82 0.90 0.67 0.48 0.22 0.08 0.15 0.09 0.01 0.00 0.01 0.05 0.05 0.02 0.02 0.06 0.16 0.32 0.34 0.41 0.37 0.21 0.13 0.14 0.23 0.24 0.35 0.30 0.31 0.40 0.32 0.33 0.23 0.16 0.25 0.30 0.47 0.48 0.49 0.43 0.47
0.45 3.10 3.70 1.20 1.82 2.64 1.35 0.99 1.31 0.81 0.47 0.38 0.19 0.10 0.07 0.04 0.02 0.04 0.06 0.06 0.06 0.03 0.03 0.06 0.12 0.16 0.13 0.17 0.31 0.16 0.09 0.10 0.24 0.29 0.26 0.42 0.43 0.26 0.27 0.40 0.30 0.16 0.25 0.43 0.46 0.44 0.27 0.32 0.32
0.59 2.78 2.10 1.29 1.41 1.55 0.88 0.95 1.61 1.08 0.39 0.22 0.25 0.14 0.01 0.02 0.01 0.02 0.04 0.08 0.07 0.08 0.12 0.07 0.03 0.09 0.13 0.07 0.16 0.14 0.09 0.18 0.35 0.33 0.52 0.74 0.62 0.31 0.23 0.34 0.24 0.19 0.23 0.21 0.31 0.24 0.30 0.37 0.27
1.18 2.04 2.14 0.93 0.67 0.67 0.54 1.08 0.69 0.38 0.33 0.46 0.24 0.09 0.01 0.01 0.01 0.01 0.01 0.02 0.02 0.04 0.05 0.12 0.02 0.03 0.01 0.04 0.10 0.17 0.12 0.29 0.24 0.23 0.47 0.79 0.40 0.23 0.21 0.36 0.19 0.13 0.24 0.33 0.25 0.29 0.59 0.34 0.15
0.92 1.68 0.54 0.60 0.29 0.56 0.90 1.05 0.63 0.27 0.55 1.05 0.77 0.08 0.01 0.00 0.00 0.00 0.00 0.00 0.01 0.02 0.04 0.01 0.01 0.02 0.01 0.03 0.07 0.09 0.04 0.03 0.06 0.17 0.71 1.17 0.51 0.34 0.50 0.44 0.34 0.19 0.66 0.93 0.63 0.40 0.27 0.22 0.27
0.68 0.78 0.59 0.51 0.31 0.44 1.18 1.14 1.31 0.90 1.10 0.45 0.28 0.05 0.00 0.01 0.00 0.00 0.00 0.00 0.00 0.02 0.01 0.01 0.01 0.09 0.05 0.04 0.02 0.07 0.09 0.02 0.00 0.04 0.15 0.39 0.68 0.40 0.70 0.59 0.47 0.61 0.40 0.98 0.62 0.43 0.23 0.16 0.20
0.27 0.51 0.78 0.68 0.52 0.57 0.65 0.75 1.45 1.11 2.22 0.78 0.23 0.04 0.00 0.00 0.00 0.00 0.00 0.00 0.00 0.01 0.00 0.00 0.01 0.02 0.04 0.01 0.01 0.01 0.02 0.00 0.00 0.04 0.06 0.36 0.38 0.44 0.40 0.50 0.50 0.42 0.40 0.42 0.32 0.37 0.10 0.17 0.02
0.20 0.50 0.65 0.70 0.68 0.61 0.57 0.60 0.38 0.52 0.77 0.66 0.28 0.03 0.00 0.00 0.00 0.00 0.00 0.00 0.00 0.01 0.00 0.00 0.00 0.01 0.03 0.00 0.02 0.02 0.00 0.00 0.00 0.03 0.03 0.23 0.27 0.47 0.52 0.46 0.43 0.44 0.22 0.24 0.37 0.41 0.10 0.04 0.01
0.13 0.46 0.54 0.33 0.57 0.43 0.74 1.23 0.78 0.63 0.62 0.49 0.26 0.05 0.00 0.00 0.00 0.00 0.00 0.00 0.00 0.00 0.00 0.00 0.00 0.00 0.01 0.06 0.02 0.01 0.00 0.00 0.00 0.03 0.04 0.12 0.30 0.40 0.64 0.55 0.53 0.25 0.28 0.29 0.30 0.21 0.08 0.01 0.00
0.09 0.30 0.45 0.24 0.63 0.63 1.28 2.63 1.38 0.85 0.72 0.27 0.12 0.04 0.00 0.00 0.00 0.00 0.00 0.00 0.00 0.00 0.00 0.00 0.00 0.00 0.00 0.01 0.05 0.02 0.12 0.08 0.03 0.07 0.12 0.27 0.32 0.45 0.64 0.74 0.54 0.21 0.26 0.25 0.26 0.18 0.08 0.01 0.00
0.04 0.30 0.39 0.62 0.60 1.05 1.88 3.00 2.24 0.67 0.53 0.29 0.03 0.01 0.00 0.00 0.00 0.00 0.00 0.00 0.00 0.00 0.00 0.00 0.00 0.00 0.00 0.02 0.05 0.06 0.10 0.17 0.15 0.08 0.15 0.23 0.21 0.34 0.62 0.67 0.65 0.32 0.23 0.25 0.18 0.09 0.04 0.00 0.00
0.02 0.13 0.26 0.50 0.73 0.87 0.99 0.57 0.98 0.65 1.79 0.83 0.20 0.03 0.00 0.00 0.00 0.00 0.00 0.00 0.00 0.00 0.00 0.00 0.00 0.03 0.13 0.28 0.27 0.18 0.13 0.13 0.04 0.03 0.14 0.17 0.27 0.26 0.45 0.44 0.45 0.40 0.20 0.15 0.17 0.06 0.01 0.00 0.00
0.00 0.03 0.16 0.30 0.85 1.04 0.73 0.39 0.99 0.34 1.14 1.26 0.22 0.12 0.04 0.00 0.00 0.00 0.00 0.00 0.00 0.00 0.00 0.00 0.00 0.04 0.14 0.12 0.08 0.03 0.04 0.02 0.03 0.07 0.19 0.29 0.26 0.23 0.38 0.45 0.46 0.27 0.27 0.28 0.08 0.04 0.01 0.00 0.00
0.00 0.00 0.11 0.18 0.63 1.35 2.39 1.36 1.08 0.72 0.55 0.64 0.46 0.23 0.13 0.02 0.00 0.00 0.00 0.00 0.00 0.00 0.00 0.00 0.00 0.00 0.08 0.02 0.03 0.03 0.02 0.01 0.04 0.09 0.14 0.18 0.15 0.24 0.21 0.44 0.36 0.29 0.32 0.26 0.17 0.12 0.03 0.00 0.00
0.00 0.01 0.10 0.15 0.28 0.76 1.62 2.24 1.33 0.76 0.89 0.96 0.76 0.49 0.11 0.02 0.01 0.00 0.00 0.00 0.00 0.00 0.00 0.00 0.00 0.00 0.06 0.04 0.05 0.12 0.11 0.05 0.11 0.16 0.15 0.15 0.13 0.13 0.35 0.41 0.30 0.31 0.29 0.34 0.21 0.09 0.02 0.02 0.01
0.00 0.01 0.00 0.00 0.02 0.04 0.17 0.58 0.60 0.70 0.89 1.66 1.04 0.67 0.14 0.02 0.01 0.00 0.01 0.00 0.00 0.00 0.00 0.00 0.00 0.00 0.01 0.05 0.01 0.10 0.06 0.06 0.05 0.14 0.21 0.20 0.07 0.09 0.25 0.24 0.25 0.25 0.28 0.39 0.22 0.04 0.03 0.02 0.00
0.01 0.01 0.00 0.00 0.02 0.02 0.01 0.11 0.38 0.53 0.78 1.13 1.00 1.03 0.35 0.05 0.02 0.01 0.01 0.00 0.00 0.00 0.00 0.00 0.00 0.00 0.00 0.02 0.06 0.07 0.08 0.08 0.08 0.12 0.19 0.32 0.29 0.23 0.22 0.24 0.24 0.25 0.25 0.29 0.26 0.20 0.07 0.05 0.01
0.00 0.00 0.00 0.01 0.04 0.04 0.00 0.03 0.27 0.55 0.46 0.62 0.46 0.84 1.13 0.52 0.11 0.06 0.03 0.01 0.00 0.00 0.00 0.00 0.00 0.00 0.00 0.01 0.03 0.06 0.06 0.09 0.11 0.11 0.16 0.15 0.18 0.11 0.10 0.16 0.24 0.22 0.18 0.20 0.19 0.19 0.07 0.02 0.03
0.00 0.00 0.00 0.02 0.02 0.00 0.00 0.00 0.08 0.49 0.49 0.40 0.46 0.73 0.95 1.07 0.40 0.16 0.11 0.06 0.03 0.00 0.00 0.00 0.00 0.00 0.00 0.00 0.02 0.02 0.06 0.06 0.18 0.16 0.07 0.09 0.30 0.09 0.05 0.14 0.31 0.19 0.12 0.13 0.15 0.17 0.13 0.06 0.06
0.00 0.00 0.00 0.00 0.00 0.00 0.00 0.01 0.01 0.02 0.05 0.06 0.20 0.28 0.32 0.29 0.61 0.23 0.21 0.16 0.13 0.05 0.00 0.00 0.00 0.00 0.00 0.00 0.01 0.02 0.05 0.03 0.12 0.04 0.03 0.01 0.09 0.08 0.19 0.12 0.12 0.14 0.17 0.07 0.12 0.08 0.05 0.08 0.03
0.00 0.00 0.00 0.00 0.00 0.00 0.04 0.02 0.03 0.01 0.04 0.04 0.04 0.17 0.28 0.31 0.19 0.17 0.27 0.26 0.16 0.05 0.00 0.00 0.00 0.00 0.00 0.00 0.00 0.01 0.02 0.01 0.02 0.02 0.06 0.01 0.04 0.11 0.20 0.22 0.17 0.21 0.15 0.09 0.12 0.06 0.15 0.17 0.06
0.00 0.00 0.00 0.00 0.00 0.00 0.11 0.14 0.12 0.07 0.07 0.04 0.02 0.03 0.12 0.40 0.85 0.65 0.46 0.40 0.35 0.18 0.05 0.01 0.02 0.01 0.02 0.01 0.01 0.01 0.03 0.02 0.02 0.02 0.02 0.06 0.10 0.11 0.27 0.40 0.17 0.17 0.09 0.09 0.10 0.05 0.05 0.11 0.06
0.00 0.00 0.00 0.00 0.00 0.00 0.10 0.31 0.19 0.15 0.04 0.05 0.09 0.09 0.15 0.21 0.75 1.82 1.68 1.17 0.91 0.64 0.22 0.29 0.33 0.27 0.09 0.01 0.01 0.04 0.02 0.03 0.02 0.03 0.04 0.03 0.11 0.20 0.18 0.38 0.26 0.18 0.07 0.08 0.13 0.11 0.07 0.14 0.06
0.00 0.00 0.00 0.00 0.00 0.00 0.02 0.26 0.23 0.25 0.14 0.13 0.17 0.10 0.13 0.21 0.38 0.99 1.89 2.29 2.33 1.99 1.69 0.86 1.04 0.84 0.46 0.25 0.10 0.06 0.09 0.07 0.03 0.08 0.05 0.01 0.12 0.11 0.15 0.12 0.30 0.19 0.09 0.07 0.10 0.09 0.10 0.24 0.14

GFSSGP_prec_precacc_102.txt.gz
Total_Precipitation_Accumulation
0.01 0.04 0.34 0.83 1.59 1.20 1.81 2.82 1.82 1.20 0.40 0.04 0.05 0.05 0.36 0.37 0.57 0.56 0.18 0.13 0.02 0.10 0.27 0.93 1.48 1.06 0.55 0.31 0.32 0.50 0.25 0.15 0.08 0.09 0.14 0.13 0.26 0.36 0.22 0.29 0.38 0.35 0.25 0.18 0.18 0.21 0.35 0.34 0.32
0.01 0.19 1.16 3.30 2.81 2.69 2.14 2.08 1.93 1.11 0.22 0.06 0.04 0.12 0.10 0.05 0.02 0.08 0.16 0.08 0.01 0.01 0.05 0.42 1.10 0.51 0.28 0.23 0.25 0.27 0.11 0.13 0.19 0.17 0.32 0.28 0.36 0.38 0.43 0.50 0.63 0.59 0.65 0.51 0.42 0.31 0.28 0.42 0.46
0.04 0.87 3.55 3.98 3.05 3.59 4.36 2.88 2.06 0.67 0.27 0.11 0.15 0.21 0.09 0.05 0.02 0.04 0.02 0.01 0.02 0.04 0.04 0.26 0.43 0.26 0.21 0.30 0.24 0.22 0.22 0.13 0.19 0.33 0.48 0.46 0.46 0.54 0.49 0.33 0.38 0.31 0.39 0.43 0.40 0.36 0.40 0.61 0.68
0.27 1.72 3.14 3.25 3.79 2.86 2.72 2.54 1.78 0.59 0.44 0.30 0.36 0.21 0.10 0.02 0.01 0.01 0.00 0.01 0.04 0.04 0.06 0.18 0.23 0.21 0.39 0.36 0.32 0.23 0.19 0.20 0.23 0.34 0.45 0.47 0.45 0.38 0.27 0.26 0.31 0.28 0.21 0.16 0.18 0.33 0.46 0.66 0.74
0.52 1.63 3.95 3.59 3.00 2.80 1.55 1.13 1.32 0.88 0.59 0.60 0.28 0.18 0.13 0.05 0.00 0.00 0.01 0.02 0.01 0.03 0.06 0.08 0.48 0.41 0.34 0.36 0.41 0.24 0.20 0.21 0.27 0.50 0.47 0.46 0.34 0.32 0.38 0.33 0.15 0.14 0.15 0.12 0.21 0.38 0.58 0.63 0.61
1.62 2.72 3.19 1.30 1.60 3.37 2.10 1.30 1.25 1.08 1.05 1.01 0.32 0.10 0.13 0.05 0.01 0.01 0.01 0.02 0.05 0.03 0.03 0.07 0.38 0.42 0.36 0.35 0.39 0.27 0.29 0.23 0.43 0.50 0.44 0.42 0.46 0.33 0.27 0.16 0.10 0.09 0.16 0.25 0.15 0.23 0.60 0.55 0.48
0.64 4.50 2.31 1.15 1.26 3.93 3.06 2.06 1.82 0.90 0.67 0.48 0.22 0.08 0.16 0.10 0.01 0.00 0.01 0.05 0.05 0.02 0.02 0.06 0.16 0.34 0.36 0.46 0.46 0.30 0.18 0.19 0.37 0.35 0.43 0.41 0.40 0.43 0.33 0.35 0.23 0.16 0.25 0.30 0.47 0.48 0.50 0.44 0.47
0.47 3.21 3.74 1.21 1.84 2.67 1.36 0.99 1.31 0.81 0.47 0.38 0.19 0.10 0.08 0.05 0.02 0.05 0.06 0.06 0.06 0.03 0.03 0.07 0.12 0.18 0.14 0.17 0.34 0.20 0.10 0.12 0.26 0.30 0.29 0.49 0.50 0.27 0.28 0.40 0.30 0.16 0.25 0.43 0.46 0.44 0.28 0.33 0.32
0.62 2.90 2.20 1.33 1.43 1.56 0.88 0.95 1.61 1.08 0.39 0.22 0.25 0.14 0.01 0.02 0.01 0.03 0.04 0.08 0.07 0.08 0.12 0.08 0.03 0.11 0.13 0.07 0.17 0.15 0.10 0.19 0.36 0.35 0.61 0.88 0.65 0.31 0.23 0.34 0.24 0.19 0.23 0.21 0.31 0.24 0.30 0.40 0.29
1.25 2.15 2.21 0.94 0.69 0.67 0.54 1.08 0.69 0.38 0.33 0.46 0.24 0.09 0.01 0.01 0.01 0.01 0.01 0.02 0.02 0.04 0.06 0.12 0.02 0.04 0.02 0.04 0.11 0.17 0.12 0.29 0.25 0.26 0.48 0.79 0.40 0.23 0.21 0.36 0.20 0.13 0.24 0.33 0.25 0.29 0.59 0.34 0.15
1.02 1.77 0.59 0.61 0.30 0.56 0.90 1.05 0.63 0.27 0.55 1.05 0.77 0.08 0.01 0.00 0.00 0.00 0.00 0.00 0.01 0.02 0.04 0.01 0.01 0.03 0.01 0.03 0.07 0.09 0.04 0.03 0.07 0.17 0.71 1.17 0.51 0.34 0.50 0.44 0.34 0.19 0.66 0.93 0.63 0.40 0.27 0.22 0.27
0.73 0.81 0.59 0.51 0.31 0.44 1.18 1.14 1.31 0.90 1.10 0.45 0.28 0.05 0.00 0.01 0.00 0.00 0.00 0.00 0.00 0.02 0.01 0.01 0.01 0.10 0.05 0.04 0.02 0.07 0.09 0.02 0.00 0.04 0.15 0.39 0.68 0.40 0.70 0.59 0.47 0.61 0.40 0.98 0.62 0.43 0.23 0.16 0.20
0.30 0.60 0.80 0.69 0.52 0.57 0.65 0.75 1.45 1.11 2.22 0.78 0.23 0.04 0.00 0.00 0.00 0.00 0.00 0.00 0.00 0.01 0.00 0.00 0.01 0.02 0.05 0.01 0.01 0.01 0.02 0.00 0.00 0.04 0.06 0.36 0.38 0.44 0.40 0.50 0.50 0.42 0.40 0.42 0.32 0.37 0.10 0.17 0.02
0.23 0.62 0.72 0.73 0.71 0.62 0.57 0.60 0.38 0.52 0.77 0.66 0.28 0.03 0.00 0.00 0.00 0.00 0.00 0.00 0.00 0.01 0.00 0.00 0.00 0.01 0.03 0.00 0.02 0.02 0.00 0.00 0.00 0.03 0.03 0.23 0.27 0.47 0.52 0.46 0.43 0.44 0.22 0.24 0.37 0.41 0.10 0.04 0.01
0.22 0.57 0.62 0.38 0.60 0.46 0.75 1.24 0.81 0.64 0.62 0.49 0.26 0.05 0.00 0.00 0.00 0.00 0.00 0.00 0.00 0.00 0.00 0.00 0.00 0.00 0.01 0.06 0.02 0.01 0.00 0.00 0.00 0.03 0.04 0.12 0.30 0.40 0.64 0.55 0.53 0.25 0.28 0.29 0.30 0.21 0.08 0.01 0.00
0.28 0.46 0.56 0.36 0.73 0.72 1.40 2.70 1.45 0.87 0.72 0.27 0.12 0.04 0.00 0.00 0.00 0.00 0.00 0.00 0.00 0.00 0.00 0.00 0.00 0.00 0.00 0.01 0.05 0.02 0.12 0.08 0.03 0.07 0.12 0.27 0.32 0.45 0.64 0.74 0.54 0.21 0.26 0.25 0.26 0.18 0.08 0.01 0.00
0.14 0.47 0.54 0.75 0.83 1.79 2.29 3.36 2.43 0.71 0.53 0.29 0.03 0.01 0.00 0.00 0.00 0.00 0.00 0.00 0.00 0.00 0.00 0.00 0.00 0.00 0.00 0.02 0.05 0.06 0.10 0.17 0.15 0.08 0.15 0.23 0.21 0.34 0.62 0.67 0.65 0.32 0.23 0.25 0.18 0.09 0.04 0.00 0.00
0.03 0.26 0.44 0.62 0.99 1.75 1.46 0.95 1.32 0.69 1.81 0.84 0.20 0.03 0.00 0.00 0.00 0.00 0.00 0.00 0.00 0.00 0.00 0.00 0.00 0.03 0.13 0.28 0.27 0.18 0.13 0.13 0.04 0.03 0.14 0.17 0.28 0.27 0.52 0.44 0.45 0.40 0.20 0.15 0.17 0.06 0.01 0.00 0.00
0.00 0.10 0.41 0.50 1.15 1.35 0.92 0.60 1.21 0.38 1.20 1.31 0.23 0.12 0.04 0.00 0.00 0.00 0.00 0.00 0.00 0.00 0.00 0.00 0.00 0.04 0.14 0.12 0.08 0.03 0.04 0.02 0.03 0.07 0.19 0.29 0.27 0.27 0.41 0.47 0.46 0.27 0.27 0.28 0.08 0.04 0.01 0.00 0.00
0.00 0.04 0.30 0.47 0.76 1.47 2.77 1.59 1.25 0.77 0.59 0.66 0.46 0.23 0.13 0.02 0.00 0.00 0.00 0.00 0.00 0.00 0.00 0.00 0.02 0.04 0.09 0.04 0.04 0.03 0.02 0.01 0.04 0.09 0.15 0.19 0.15 0.27 0.23 0.44 0.36 0.29 0.32 0.26 0.17 0.12 0.03 0.00 0.00
0.00 0.01 0.17 0.27 0.31 0.82 1.69 2.47 1.47 0.82 1.00 1.02 0.78 0.49 0.11 0.02 0.01 0.00 0.00 0.00 0.00 0.00 0.00 0.00 0.01 0.04 0.06 0.05 0.05 0.13 0.15 0.09 0.11 0.19 0.20 0.16 0.14 0.15 0.38 0.42 0.30 0.31 0.29 0.34 0.21 0.09 0.02 0.02 0.01
0.00 0.02 0.00 0.01 0.04 0.05 0.18 0.64 0.69 0.75 0.99 1.68 1.05 0.67 0.14 0.02 0.01 0.00 0.01 0.00 0.00 0.00 0.00 0.00 0.01 0.05 0.03 0.05 0.02 0.16 0.12 0.08 0.06 0.15 0.21 0.22 0.15 0.12 0.25 0.24 0.25 0.25 0.28 0.39 0.22 0.04 0.03 0.02 0.00
0.01 0.01 0.00 0.00 0.02 0.02 0.01 0.12 0.38 0.53 0.84 1.17 1.01 1.03 0.35 0.05 0.02 0.01 0.01 0.00 0.00 0.00 0.00 0.00 0.00 0.01 0.01 0.02 0.11 0.12 0.09 0.08 0.08 0.12 0.21 0.35 0.37 0.28 0.23 0.25 0.25 0.27 0.25 0.29 0.26 0.21 0.09 0.05 0.01
0.01 0.00 0.00 0.01 0.04 0.04 0.00 0.03 0.27 0.55 0.46 0.62 0.47 0.85 1.13 0.52 0.11 0.06 0.03 0.01 0.00 0.00 0.00 0.00 0.00 0.00 0.00 0.01 0.06 0.11 0.14 0.13 0.13 0.16 0.22 0.17 0.22 0.19 0.17 0.22 0.31 0.28 0.19 0.20 0.19 0.23 0.11 0.04 0.03
0.00 0.00 0.00 0.03 0.02 0.00 0.00 0.00 0.08 0.49 0.49 0.40 0.46 0.73 0.95 1.07 0.40 0.16 0.11 0.06 0.03 0.00 0.00 0.00 0.00 0.00 0.00 0.00 0.03 0.07 0.11 0.14 0.25 0.19 0.11 0.16 0.33 0.11 0.09 0.19 0.35 0.23 0.15 0.14 0.15 0.20 0.16 0.08 0.06
0.00 0.00 0.00 0.00 0.00 0.00 0.00 0.01 0.01 0.02 0.05 0.06 0.20 0.28 0.32 0.29 0.61 0.23 0.21 0.16 0.13 0.05 0.00 0.00 0.00 0.00 0.00 0.00 0.03 0.11 0.12 0.08 0.15 0.08 0.07 0.08 0.14 0.08 0.21 0.15 0.14 0.18 0.21 0.08 0.12 0.09 0.05 0.08 0.03
0.00 0.00 0.00 0.00 0.00 0.00 0.04 0.02 0.03 0.01 0.04 0.04 0.04 0.17 0.28 0.31 0.19 0.17 0.27 0.26 0.16 0.05 0.00 0.00 0.00 0.00 0.00 0.00 0.01 0.03 0.04 0.04 0.07 0.07 0.15 0.06 0.12 0.14 0.23 0.24 0.21 0.22 0.16 0.11 0.14 0.06 0.15 0.17 0.06
0.00 0.00 0.00 0.00 0.00 0.00 0.11 0.14 0.12 0.07 0.07 0.04 0.02 0.03 0.12 0.40 0.85 0.65 0.46 0.40 0.35 0.18 0.05 0.01 0.02 0.01 0.02 0.01 0.01 0.02 0.05 0.04 0.05 0.11 0.11 0.14 0.22 0.21 0.31 0.40 0.17 0.20 0.18 0.13 0.11 0.05 0.05 0.13 0.07
0.00 0.00 0.00 0.00 0.00 0.00 0.10 0.31 0.19 0.15 0.04 0.05 0.09 0.09 0.15 0.21 0.75 1.82 1.68 1.17 0.91 0.64 0.22 0.29 0.33 0.27 0.09 0.01 0.01 0.10 0.06 0.07 0.05 0.09 0.09 0.13 0.24 0.32 0.27 0.47 0.28 0.24 0.17 0.14 0.14 0.11 0.07 0.15 0.07
0.00 0.00 0.00 0.00 0.00 0.00 0.02 0.26 0.23 0.25 0.14 0.13 0.17 0.10 0.13 0.21 0.38 0.99 1.89 2.29 2.33 2.00 1.70 0.86 1.04 0.84 0.47 0.27 0.10 0.16 0.14 0.09 0.04 0.12 0.08 0.09 0.16 0.18 0.24 0.22 0.39 0.30 0.19 0.18 0.17 0.10 0.11 0.26 0.15

GFSSGP_prec_precacc_105.txt.gz
Total_Precipitation_Accumulation
0.01 0.04 0.34 0.83 1.64 1.21 1.81 2.82 1.82 1.20 0.40 0.04 0.05 0.05 0.36 0.37 0.57 0.56 0.18 0.13 0.02 0.10 0.27 0.93 1.48 1.08 0.57 0.31 0.32 0.52 0.26 0.15 0.08 0.11 0.15 0.15 0.28 0.38 0.22 0.29 0.41 0.38 0.28 0.20 0.21 0.26 0.37 0.34 0.32
0.01 0.19 1.16 3.31 2.87 2.69 2.15 2.08 1.93 1.11 0.22 0.06 0.04 0.12 0.12 0.05 0.02 0.08 0.16 0.08 0.01 0.01 0.06 0.42 1.12 0.54 0.28 0.23 0.25 0.27 0.11 0.13 0.19 0.17 0.32 0.28 0.37 0.40 0.45 0.50 0.66 0.65 0.70 0.55 0.43 0.32 0.29 0.42 0.46
0.04 0.87 3.60 4.01 3.08 3.59 4.36 2.88 2.06 0.67 0.27 0.11 0.15 0.22 0.09 0.05 0.02 0.04 0.02 0.01 0.02 0.05 0.05 0.26 0.43 0.26 0.21 0.30 0.24 0.22 0.22 0.13 0.19 0.33 0.50 0.48 0.50 0.58 0.52 0.36 0.44 0.37 0.43 0.49 0.44 0.40 0.43 0.64 0.69
0.27 1.73 3.17 3.25 3.81 2.87 2.72 2.54 1.78 0.59 0.44 0.30 0.36 0.21 0.10 0.02 0.01 0.01 0.00 0.02 0.06 0.06 0.08 0.18 0.23 0.21 0.39 0.36 0.32 0.23 0.19 0.20 0.24 0.37 0.53 0.54 0.55 0.44 0.30 0.27 0.32 0.29 0.23 0.19 0.20 0.34 0.47 0.68 0.74
0.52 1.64 4.03 3.63 3.04 2.81 1.55 1.13 1.32 0.88 0.59 0.60 0.29 0.19 0.13 0.05 0.00 0.00 0.01 0.04 0.04 0.04 0.06 0.08 0.48 0.41 0.34 0.36 0.41 0.24 0.20 0.22 0.31 0.51 0.53 0.52 0.39 0.35 0.40 0.33 0.16 0.14 0.15 0.12 0.21 0.38 0.58 0.63 0.61
1.64 2.74 3.24 1.37 1.66 3.39 2.10 1.30 1.25 1.08 1.06 1.01 0.32 0.10 0.13 0.05 0.01 0.01 0.01 0.02 0.05 0.03 0.03 0.07 0.38 0.42 0.37 0.35 0.39 0.27 0.29 0.28 0.53 0.51 0.47 0.50 0.48 0.34 0.27 0.16 0.10 0.09 0.17 0.25 0.16 0.23 0.60 0.55 0.48
0.66 4.54 2.37 1.21 1.32 4.00 3.07 2.06 1.82 0.90 0.67 0.49 0.22 0.08 0.16 0.10 0.01 0.00 0.01 0.05 0.06 0.03 0.02 0.06 0.16 0.35 0.36 0.46 0.46 0.30 0.19 0.21 0.40 0.42 0.47 0.43 0.40 0.43 0.33 0.35 0.23 0.16 0.25 0.30 0.47 0.48 0.50 0.44 0.47
0.51 3.33 3.78 1.24 1.90 2.76 1.36 0.99 1.31 0.81 0.48 0.39 0.19 0.10 0.08 0.05 0.02 0.05 0.06 0.06 0.06 0.04 0.04 0.07 0.13 0.18 0.14 0.17 0.34 0.20 0.10 0.12 0.27 0.32 0.29 0.49 0.50 0.27 0.28 0.41 0.30 0.16 0.25 0.43 0.46 0.44 0.28 0.33 0.32
0.63 3.06 2.31 1.38 1.47 1.59 0.89 0.96 1.61 1.08 0.39 0.22 0.25 0.14 0.01 0.02 0.01 0.03 0.04 0.08 0.07 0.08 0.13 0.08 0.03 0.11 0.14 0.07 0.17 0.15 0.10 0.22 0.39 0.37 0.61 0.89 0.65 0.31 0.25 0.35 0.24 0.19 0.23 0.21 0.31 0.24 0.30 0.40 0.29
1.36 2.41 2.47 0.98 0.69 0.67 0.54 1.08 0.69 0.38 0.33 0.46 0.24 0.09 0.01 0.01 0.01 0.01 0.01 0.02 0.03 0.04 0.06 0.13 0.02 0.04 0.02 0.04 0.11 0.17 0.14 0.31 0.26 0.28 0.48 0.79 0.40 0.23 0.21 0.36 0.20 0.13 0.24 0.33 0.25 0.29 0.59 0.34 0.15
1.15 2.01 0.74 0.62 0.31 0.56 0.90 1.05 0.63 0.27 0.55 1.05 0.77 0.08 0.01 0.00 0.00 0.00 0.00 0.00 0.01 0.02 0.04 0.01 0.01 0.03 0.01 0.03 0.07 0.09 0.04 0.03 0.07 0.17 0.71 1.17 0.51 0.34 0.50 0.44 0.34 0.19 0.66 0.93 0.63 0.40 0.27 0.22 0.27
0.81 0.91 0.63 0.52 0.32 0.46 1.18 1.14 1.31 0.90 1.10 0.45 0.28 0.05 0.00 0.01 0.00 0.00 0.00 0.00 0.00 0.02 0.01 0.01 0.01 0.10 0.05 0.04 0.02 0.07 0.09 0.02 0.00 0.04 0.15 0.39 0.68 0.40 0.70 0.59 0.47 0.61 0.40 0.98 0.62 0.43 0.23 0.16 0.20
0.37 0.70 0.80 0.69 0.53 0.59 0.65 0.75 1.45 1.11 2.22 0.78 0.23 0.04 0.00 0.00 0.00 0.00 0.00 0.00 0.00 0.01 0.00 0.00 0.01 0.02 0.05 0.01 0.01 0.01 0.02 0.01 0.00 0.04 0.07 0.36 0.38 0.44 0.40 0.50 0.50 0.42 0.40 0.42 0.32 0.37 0.10 0.17 0.02
0.28 0.65 0.72 0.73 0.72 0.64 0.58 0.60 0.38 0.52 0.77 0.66 0.28 0.03 0.00 0.00 0.00 0.00 0.00 0.00 0.00 0.01 0.00 0.00 0.00 0.01 0.03 0.00 0.02 0.02 0.01 0.00 0.00 0.03 0.03 0.23 0.27 0.47 0.52 0.46 0.43 0.44 0.22 0.24 0.37 0.41 0.10 0.04 0.01
0.29 0.65 0.65 0.42 0.68 0.50 0.78 1.26 0.81 0.64 0.62 0.49 0.26 0.05 0.00 0.00 0.00 0.00 0.00 0.00 0.00 0.00 0.00 0.00 0.00 0.00 0.01 0.06 0.02 0.01 0.00 0.01 0.00 0.03 0.04 0.12 0.30 0.40 0.64 0.55 0.53 0.25 0.28 0.29 0.30 0.21 0.08 0.01 0.00
0.48 0.65 0.65 0.47 0.90 0.78 1.44 2.82 1.49 0.87 0.72 0.27 0.12 0.04 0.00 0.00 0.00 0.00 0.00 0.00 0.00 0.00 0.00 0.00 0.00 0.00 0.00 0.01 0.05 0.02 0.12 0.08 0.03 0.07 0.12 0.27 0.32 0.45 0.64 0.74 0.54 0.21 0.26 0.25 0.26 0.18 0.08 0.01 0.00
0.45 0.71 0.69 0.91 1.00 1.88 2.37 3.47 2.50 0.71 0.53 0.29 0.03 0.01 0.00 0.00 0.00 0.00 0.00 0.00 0.00 0.00 0.00 0.00 0.00 0.00 0.00 0.02 0.05 0.06 0.10 0.17 0.15 0.08 0.16 0.23 0.21 0.34 0.62 0.67 0.65 0.32 0.23 0.25 0.18 0.09 0.04 0.00 0.00
0.26 0.48 0.62 0.76 1.08 1.96 1.73 1.10 1.36 0.70 1.81 0.84 0.20 0.03 0.00 0.00 0.00 0.00 0.00 0.00 0.00 0.00 0.00 0.00 0.00 0.03 0.13 0.28 0.27 0.18 0.13 0.13 0.04 0.03 0.14 0.17 0.28 0.27 0.52 0.44 0.45 0.40 0.20 0.15 0.17 0.06 0.01 0.00 0.00
0.04 0.36 0.65 0.78 1.24 1.53 1.22 0.84 1.32 0.39 1.21 1.32 0.23 0.12 0.04 0.00 0.00 0.00 0.00 0.00 0.00 0.00 0.00 0.00 0.00 0.04 0.14 0.12 0.08 0.03 0.05 0.03 0.03 0.07 0.19 0.29 0.27 0.27 0.41 0.47 0.46 0.27 0.27 0.28 0.08 0.04 0.01 0.00 0.00
0.01 0.12 0.52 1.05 0.98 1.56 3.06 1.91 1.49 0.82 0.64 0.67 0.46 0.23 0.13 0.02 0.00 0.00 0.01 0.00 0.00 0.00 0.00 0.00 0.02 0.06 0.10 0.04 0.04 0.03 0.02 0.01 0.04 0.09 0.15 0.19 0.15 0.27 0.23 0.44 0.36 0.30 0.32 0.26 0.17 0.12 0.03 0.00 0.00
0.00 0.08 0.38 0.69 0.61 1.01 1.85 2.86 1.78 0.89 1.04 1.05 0.78 0.49 0.11 0.02 0.01 0.01 0.00 0.00 0.00 0.00 0.00 0.00 0.02 0.05 0.09 0.05 0.06 0.14 0.19 0.10 0.12 0.19 0.20 0.16 0.14 0.15 0.38 0.42 0.30 0.31 0.29 0.34 0.21 0.09 0.02 0.02 0.01
0.00 0.03 0.25 0.23 0.09 0.09 0.21 0.83 0.89 0.87 1.10 1.72 1.05 0.67 0.14 0.02 0.01 0.01 0.01 0.00 0.00 0.00 0.00 0.00 0.01 0.05 0.05 0.08 0.06 0.26 0.15 0.09 0.08 0.15 0.21 0.22 0.15 0.12 0.25 0.24 0.25 0.25 0.28 0.39 0.22 0.04 0.03 0.02 0.00
0.01 0.01 0.14 0.12 0.04 0.02 0.01 0.15 0.43 0.59 0.93 1.26 1.01 1.03 0.36 0.05 0.02 0.01 0.01 0.00 0.00 0.00 0.00 0.00 0.00 0.01 0.01 0.08 0.27 0.16 0.11 0.12 0.14 0.12 0.21 0.35 0.37 0.28 0.23 0.25 0.25 0.29 0.26 0.29 0.26 0.21 0.09 0.05 0.01
0.01 0.01 0.00 0.02 0.05 0.04 0.00 0.04 0.30 0.55 0.47 0.62 0.47 0.85 1.13 0.53 0.11 0.06 0.03 0.01 0.00 0.00 0.00 0.00 0.00 0.00 0.00 0.04 0.08 0.13 0.16 0.15 0.19 0.18 0.22 0.17 0.22 0.19 0.17 0.22 0.31 0.28 0.19 0.20 0.19 0.23 0.11 0.04 0.03
0.00 0.00 0.02 0.05 0.02 0.00 0.00 0.00 0.08 0.49 0.49 0.40 0.46 0.73 0.95 1.07 0.41 0.16 0.12 0.06 0.03 0.01 0.00 0.00 0.00 0.00 0.00 0.01 0.03 0.08 0.12 0.15 0.30 0.21 0.11 0.32 0.36 0.11 0.09 0.19 0.35 0.24 0.15 0.15 0.15 0.20 0.17 0.08 0.08
0.00 0.00 0.02 0.04 0.01 0.00 0.01 0.01 0.01 0.02 0.05 0.06 0.20 0.28 0.32 0.29 0.61 0.23 0.21 0.16 0.13 0.07 0.02 0.00 0.00 0.00 0.00 0.00 0.05 0.11 0.12 0.08 0.15 0.08 0.18 0.16 0.15 0.10 0.21 0.15 0.14 0.18 0.21 0.08 0.12 0.09 0.05 0.08 0.03
0.00 0.00 0.00 0.00 0.02 0.02 0.06 0.02 0.03 0.01 0.04 0.04 0.04 0.17 0.28 0.31 0.19 0.19 0.27 0.26 0.20 0.05 0.01 0.00 0.00 0.00 0.00 0.00 0.01 0.03 0.04 0.04 0.08 0.23 0.26 0.14 0.13 0.15 0.23 0.24 0.21 0.22 0.16 0.11 0.14 0.06 0.15 0.18 0.06
0.00 0.00 0.00 0.00 0.00 0.01 0.12 0.14 0.12 0.08 0.07 0.04 0.02 0.03 0.12 0.40 0.87 0.66 0.46 0.40 0.35 0.18 0.05 0.01 0.02 0.01 0.02 0.01 0.01 0.02 0.05 0.04 0.05 0.12 0.11 0.39 0.34 0.27 0.41 0.47 0.21 0.21 0.18 0.13 0.11 0.05 0.05 0.13 0.07
0.00 0.00 0.00 0.00 0.00 0.00 0.10 0.31 0.19 0.16 0.04 0.05 0.09 0.09 0.15 0.21 0.76 1.85 1.69 1.22 0.91 0.64 0.22 0.29 0.33 0.27 0.09 0.01 0.01 0.10 0.06 0.07 0.05 0.09 0.09 0.13 0.24 0.34 0.29 0.58 0.40 0.31 0.17 0.15 0.21 0.12 0.10 0.15 0.07
0.00 0.00 0.00 0.00 0.00 0.00 0.02 0.27 0.23 0.25 0.14 0.13 0.17 0.10 0.13 0.21 0.38 0.99 1.90 2.33 2.35 2.00 1.71 0.86 1.04 0.84 0.47 0.27 0.10 0.16 0.14 0.09 0.04 0.12 0.08 0.09 0.16 0.27 0.26 0.24 0.44 0.32 0.19 0.18 0.19 0.10 0.11 0.26 0.15

GFSSGP_prec_precacc_108.txt.gz
Total_Precipitation_Accumulation
0.01 0.04 0.34 0.85 1.76 1.35 1.81 2.82 1.82 1.20 0.40 0.04 0.05 0.05 0.36 0.37 0.57 0.56 0.19 0.16 0.02 0.10 0.27 0.93 1.49 1.09 0.57 0.31 0.32 0.52 0.30 0.17 0.10 0.12 0.20 0.17 0.29 0.38 0.23 0.31 0.43 0.40 0.29 0.22 0.24 0.28 0.38 0.34 0.33
0.01 0.19 1.17 3.38 3.03 2.70 2.15 2.08 1.93 1.11 0.22 0.06 0.04 0.13 0.12 0.05 0.02 0.08 0.16 0.09 0.01 0.02 0.06 0.42 1.13 0.55 0.28 0.23 0.26 0.29 0.13 0.14 0.20 0.21 0.37 0.33 0.39 0.41 0.46 0.51 0.68 0.66 0.70 0.56 0.44 0.33 0.29 0.43 0.46
0.04 0.87 3.67 4.11 3.22 3.61 4.36 2.88 2.06 0.67 0.27 0.11 0.16 0.24 0.09 0.05 0.02 0.04 0.02 0.01 0.03 0.05 0.05 0.26 0.43 0.26 0.21 0.31 0.24 0.23 0.23 0.13 0.20 0.36 0.55 0.51 0.51 0.59 0.53 0.39 0.48 0.40 0.44 0.50 0.45 0.40 0.43 0.64 0.69
0.27 1.74 3.19 3.39 3.89 2.87 2.72 2.54 1.78 0.59 0.44 0.30 0.36 0.21 0.10 0.02 0.01 0.01 0.00 0.02 0.06 0.12 0.10 0.18 0.23 0.21 0.39 0.36 0.34 0.24 0.20 0.21 0.24 0.39 0.55 0.55 0.56 0.44 0.31 0.28 0.34 0.32 0.24 0.20 0.22 0.35 0.48 0.68 0.74
0.52 1.65 4.06 3.71 3.06 2.81 1.55 1.13 1.32 0.88 0.60 0.60 0.29 0.19 0.13 0.05 0.00 0.00 0.01 0.04 0.04 0.05 0.06 0.08 0.48 0.41 0.34 0.37 0.43 0.26 0.20 0.22 0.31 0.51 0.56 0.55 0.42 0.36 0.41 0.34 0.17 0.15 0.15 0.12 0.22 0.38 0.59 0.63 0.61
1.65 2.76 3.28 1.41 1.67 3.39 2.10 1.30 1.25 1.09 1.06 1.03 0.32 0.10 0.13 0.05 0.01 0.01 0.01 0.02 0.05 0.03 0.03 0.07 0.38 0.42 0.37 0.35 0.40 0.27 0.29 0.28 0.54 0.52 0.48 0.54 0.51 0.35 0.29 0.17 0.10 0.09 0.18 0.26 0.16 0.23 0.60 0.55 0.48
0.69 4.61 2.43 1.25 1.34 4.00 3.07 2.06 1.83 0.91 0.67 0.49 0.22 0.08 0.16 0.10 0.01 0.01 0.01 0.05 0.08 0.03 0.02 0.06 0.16 0.35 0.36 0.46 0.46 0.30 0.19 0.21 0.41 0.42 0.48 0.43 0.41 0.43 0.33 0.35 0.23 0.16 0.25 0.30 0.47 0.48 0.50 0.44 0.47
0.59 3.42 3.93 1.33 1.96 2.77 1.36 0.99 1.31 0.81 0.49 0.39 0.19 0.10 0.08 0.05 0.02 0.05 0.06 0.07 0.10 0.04 0.05 0.07 0.13 0.19 0.15 0.17 0.34 0.20 0.10 0.12 0.27 0.32 0.29 0.50 0.50 0.27 0.28 0.42 0.30 0.16 0.25 0.43 0.46 0.44 0.28 0.33 0.32
0.67 3.13 2.49 1.41 1.47 1.60 0.89 0.96 1.61 1.09 0.39 0.22 0.25 0.14 0.01 0.02 0.01 0.03 0.05 0.09 0.07 0.08 0.15 0.08 0.04 0.13 0.14 0.07 0.17 0.15 0.10 0.23 0.39 0.37 0.62 0.96 0.66 0.31 0.26 0.37 0.24 0.19 0.23 0.21 0.31 0.24 0.30 0.40 0.29
1.53 3.07 2.69 1.00 0.70 0.67 0.54 1.08 0.69 0.38 0.33 0.46 0.24 0.09 0.01 0.01 0.01 0.01 0.01 0.02 0.03 0.04 0.07 0.18 0.02 0.04 0.02 0.04 0.11 0.17 0.18 0.35 0.27 0.30 0.67 0.85 0.40 0.23 0.21 0.36 0.20 0.13 0.24 0.33 0.25 0.29 0.59 0.34 0.16
1.24 2.93 1.43 0.72 0.34 0.56 0.90 1.05 0.63 0.27 0.55 1.05 0.77 0.08 0.01 0.00 0.00 0.00 0.00 0.00 0.01 0.02 0.05 0.02 0.01 0.03 0.01 0.03 0.07 0.09 0.05 0.03 0.07 0.20 0.82 1.17 0.51 0.34 0.50 0.44 0.34 0.19 0.67 0.99 0.65 0.40 0.28 0.25 0.28
0.91 1.37 1.15 0.82 0.34 0.47 1.18 1.14 1.31 0.90 1.10 0.45 0.28 0.05 0.00 0.01 0.00 0.00 0.00 0.00 0.00 0.02 0.01 0.01 0.01 0.10 0.06 0.04 0.02 0.07 0.09 0.02 0.00 0.04 0.15 0.39 0.69 0.40 0.87 0.75 0.51 0.61 0.40 1.23 0.70 0.43 0.23 0.16 0.20
0.48 0.81 0.85 0.79 0.56 0.60 0.65 0.75 1.45 1.11 2.22 0.78 0.23 0.04 0.00 0.00 0.00 0.00 0.00 0.00 0.00 0.01 0.00 0.00 0.01 0.02 0.05 0.01 0.01 0.01 0.02 0.01 0.00 0.12 0.11 0.36 0.39 0.44 0.40 0.64 0.64 0.42 0.41 0.42 0.32 0.37 0.10 0.17 0.02
0.30 0.67 0.72 0.74 0.73 0.67 0.58 0.60 0.38 0.52 0.77 0.66 0.28 0.03 0.00 0.00 0.00 0.00 0.00 0.00 0.00 0.01 0.00 0.00 0.00 0.01 0.03 0.00 0.02 0.02 0.02 0.00 0.00 0.07 0.40 0.47 0.27 0.48 0.53 0.48 0.44 0.47 0.23 0.24 0.37 0.41 0.10 0.04 0.01
0.31 0.69 0.67 0.44 0.69 0.62 0.78 1.26 0.81 0.64 0.62 0.49 0.26 0.05 0.00 0.00 0.00 0.00 0.00 0.00 0.00 0.00 0.00 0.00 0.00 0.00 0.01 0.06 0.02 0.01 0.01 0.01 0.00 0.04 0.14 0.24 0.31 0.41 0.68 0.57 0.54 0.25 0.28 0.29 0.30 0.21 0.08 0.01 0.00
0.61 0.79 0.71 0.51 0.95 0.95 1.47 2.85 1.49 0.87 0.72 0.27 0.12 0.04 0.00 0.00 0.00 0.00 0.00 0.00 0.00 0.00 0.00 0.00 0.00 0.00 0.00 0.01 0.05 0.02 0.12 0.08 0.03 0.07 0.12 0.27 0.32 0.45 0.65 0.75 0.54 0.21 0.26 0.25 0.26 0.18 0.08 0.01 0.00
0.64 1.28 0.90 0.98 1.11 1.98 2.44 3.57 2.51 0.71 0.53 0.29 0.03 0.01 0.00 0.00 0.00 0.00 0.00 0.00 0.00 0.00 0.00 0.00 0.00 0.00 0.00 0.02 0.05 0.06 0.10 0.17 0.15 0.08 0.16 0.23 0.21 0.34 0.63 0.67 0.65 0.32 0.23 0.25 0.18 0.09 0.04 0.00 0.00
0.32 0.72 1.01 0.90 1.23 2.13 1.87 1.26 1.38 0.70 1.81 0.84 0.20 0.03 0.00 0.00 0.00 0.00 0.00 0.00 0.00 0.00 0.00 0.00 0.00 0.03 0.13 0.28 0.27 0.18 0.13 0.14 0.04 0.03 0.14 0.17 0.28 0.27 0.53 0.45 0.45 0.42 0.21 0.16 0.17 0.06 0.01 0.00 0.00
0.05 0.72 1.25 1.20 1.44 1.75 1.37 1.06 1.44 0.40 1.21 1.32 0.23 0.12 0.04 0.00 0.00 0.00 0.00 0.00 0.00 0.00 0.00 0.00 0.00 0.04 0.14 0.12 0.08 0.03 0.05 0.03 0.03 0.07 0.19 0.29 0.27 0.27 0.41 0.47 0.47 0.59 0.32 0.28 0.08 0.04 0.01 0.00 0.00
0.05 0.70 0.95 1.28 1.19 1.79 3.32 2.15 1.74 0.85 0.68 0.67 0.47 0.23 0.13 0.02 0.01 0.00 0.01 0.00 0.00 0.00 0.00 0.00 0.02 0.06 0.10 0.04 0.04 0.03 0.02 0.01 0.04 0.09 0.15 0.19 0.15 0.27 0.23 0.45 0.39 0.35 0.34 0.26 0.17 0.12 0.03 0.00 0.00
0.07 0.23 0.57 0.81 0.90 1.28 2.00 3.13 2.11 1.01 1.07 1.06 0.80 0.49 0.12 0.02 0.01 0.01 0.00 0.00 0.00 0.00 0.00 0.00 0.02 0.05 0.09 0.08 0.07 0.15 0.21 0.11 0.14 0.20 0.20 0.16 0.14 0.15 0.40 0.42 0.34 0.32 0.30 0.34 0.21 0.09 0.02 0.02 0.01
0.10 0.06 0.26 0.27 0.20 0.16 0.24 0.95 1.13 1.03 1.13 1.72 1.07 0.68 0.15 0.03 0.01 0.01 0.01 0.00 0.00 0.00 0.00 0.00 0.01 0.05 0.08 0.16 0.09 0.29 0.17 0.10 0.10 0.15 0.21 0.22 0.15 0.12 0.25 0.24 0.25 0.26 0.35 0.43 0.22 0.04 0.04 0.03 0.00
0.02 0.01 0.15 0.31 0.21 0.05 0.02 0.20 0.53 0.70 1.01 1.30 1.01 1.04 0.37 0.07 0.03 0.01 0.01 0.00 0.00 0.00 0.00 0.00 0.01 0.03 0.04 0.15 0.32 0.20 0.15 0.24 0.36 0.20 0.31 0.38 0.37 0.28 0.23 0.25 0.25 0.30 0.29 0.31 0.27 0.21 0.09 0.05 0.02
0.01 0.03 0.03 0.15 0.34 0.21 0.01 0.07 0.32 0.55 0.47 0.63 0.47 0.85 1.14 0.53 0.14 0.06 0.03 0.01 0.00 0.00 0.00 0.00 0.00 0.03 0.03 0.07 0.13 0.25 0.31 0.31 0.35 0.57 0.37 0.22 0.23 0.19 0.17 0.22 0.31 0.29 0.21 0.23 0.19 0.23 0.11 0.04 0.03
0.00 0.01 0.04 0.06 0.06 0.02 0.00 0.01 0.09 0.49 0.49 0.40 0.46 0.73 0.95 1.08 0.42 0.17 0.12 0.07 0.04 0.02 0.00 0.00 0.00 0.01 0.01 0.02 0.06 0.13 0.19 0.23 0.46 0.31 0.24 0.48 0.41 0.12 0.09 0.20 0.35 0.24 0.16 0.16 0.16 0.21 0.17 0.08 0.08
0.00 0.00 0.04 0.07 0.03 0.06 0.05 0.01 0.01 0.02 0.05 0.06 0.20 0.28 0.32 0.29 0.62 0.25 0.22 0.21 0.14 0.08 0.04 0.00 0.00 0.00 0.00 0.01 0.07 0.13 0.14 0.09 0.16 0.11 0.30 0.74 0.41 0.21 0.25 0.16 0.15 0.18 0.23 0.08 0.13 0.09 0.06 0.09 0.03
0.00 0.00 0.00 0.01 0.03 0.03 0.10 0.06 0.06 0.03 0.04 0.04 0.04 0.17 0.28 0.31 0.19 0.20 0.27 0.30 0.28 0.07 0.04 0.05 0.01 0.00 0.00 0.00 0.02 0.03 0.04 0.05 0.11 0.25 0.33 0.43 0.80 0.44 0.37 0.26 0.21 0.22 0.16 0.12 0.15 0.06 0.16 0.22 0.11
0.00 0.00 0.00 0.00 0.00 0.02 0.15 0.17 0.23 0.10 0.07 0.04 0.02 0.03 0.13 0.40 0.87 0.67 0.47 0.43 0.39 0.21 0.06 0.07 0.09 0.01 0.02 0.01 0.01 0.02 0.05 0.04 0.06 0.14 0.16 0.66 0.78 0.50 1.06 0.52 0.21 0.21 0.20 0.13 0.12 0.07 0.07 0.14 0.07
0.00 0.00 0.00 0.00 0.00 0.00 0.14 0.42 0.26 0.16 0.05 0.05 0.09 0.11 0.16 0.22 0.76 1.85 1.70 1.26 0.97 0.65 0.23 0.29 0.34 0.27 0.09 0.01 0.01 0.10 0.06 0.07 0.05 0.09 0.10 0.16 0.28 0.37 0.42 0.64 0.42 0.32 0.19 0.17 0.23 0.17 0.16 0.18 0.07
0.00 0.00 0.00 0.00 0.00 0.00 0.02 0.29 0.26 0.55 0.22 0.14 0.17 0.10 0.13 0.22 0.38 0.99 1.90 2.44 2.83 2.25 1.84 0.97 1.06 0.86 0.47 0.27 0.10 0.16 0.14 0.09 0.04 0.12 0.08 0.09 0.18 0.29 0.33 0.32 0.51 0.32 0.20 0.20 0.23 0.14 0.14 0.28 0.15

GFSSGP_prec_precacc_111.txt.gz
Total_Precipitation_Accumulation
0.01 0.04 0.39 0.95 2.00 1.41 1.82 2.82 1.82 1.20 0.40 0.04 0.06 0.06 0.36 0.37 0.57 0.56 0.19 0.18 0.05 0.10 0.27 0.93 1.49 1.09 0.57 0.31 0.33 0.53 0.30 0.19 0.15 0.13 0.20 0.17 0.29 0.39 0.23 0.31 0.44 0.41 0.29 0.22 0.24 0.28 0.38 0.34 0.33
0.01 0.20 1.20 3.45 3.16 2.72 2.15 2.08 1.93 1.11 0.22 0.06 0.04 0.13 0.12 0.05 0.02 0.08 0.18 0.13 0.01 0.02 0.06 0.42 1.13 0.55 0.28 0.24 0.26 0.30 0.14 0.16 0.21 0.22 0.37 0.34 0.40 0.41 0.46 0.51 0.68 0.66 0.71 0.56 0.45 0.33 0.29 0.43 0.47
0.04 0.92 3.72 4.28 3.34 3.61 4.36 2.88 2.06 0.67 0.27 0.11 0.16 0.24 0.09 0.05 0.02 0.04 0.05 0.03 0.03 0.05 0.05 0.26 0.43 0.26 0.21 0.31 0.24 0.23 0.23 0.14 0.21 0.37 0.56 0.52 0.52 0.59 0.53 0.39 0.48 0.40 0.44 0.50 0.45 0.40 0.43 0.64 0.69
0.27 1.76 3.21 3.43 3.91 2.87 2.72 2.54 1.78 0.59 0.44 0.30 0.36 0.21 0.10 0.02 0.01 0.01 0.08 0.13 0.08 0.13 0.10 0.18 0.23 0.21 0.39 0.37 0.34 0.24 0.20 0.21 0.26 0.41 0.57 0.57 0.58 0.45 0.31 0.28 0.34 0.32 0.24 0.21 0.22 0.35 0.48 0.68 0.74
0.52 1.66 4.18 3.79 3.07 2.81 1.55 1.13 1.32 0.88 0.60 0.60 0.29 0.19 0.13 0.05 0.01 0.01 0.04 0.10 0.11 0.12 0.06 0.08 0.48 0.41 0.34 0.37 0.44 0.27 0.21 0.23 0.32 0.54 0.59 0.57 0.44 0.37 0.42 0.35 0.17 0.15 0.15 0.12 0.22 0.38 0.59 0.63 0.61
1.65 2.76 3.29 1.42 1.67 3.39 2.10 1.30 1.25 1.09 1.06 1.03 0.32 0.10 0.13 0.05 0.01 0.03 0.04 0.06 0.06 0.03 0.03 0.07 0.38 0.42 0.37 0.36 0.41 0.28 0.29 0.28 0.55 0.54 0.49 0.54 0.51 0.36 0.29 0.17 0.10 0.09 0.18 0.26 0.16 0.23 0.60 0.55 0.48
0.70 4.64 2.46 1.27 1.34 4.00 3.07 2.06 1.83 0.91 0.67 0.49 0.22 0.08 0.16 0.10 0.03 0.04 0.02 0.05 0.08 0.03 0.02 0.06 0.16 0.35 0.36 0.47 0.46 0.30 0.21 0.23 0.41 0.43 0.48 0.43 0.41 0.43 0.33 0.35 0.23 0.16 0.25 0.30 0.47 0.48 0.50 0.44 0.47
0.64 3.46 4.04 1.46 1.98 2.77 1.36 0.99 1.31 0.81 0.49 0.39 0.19 0.10 0.08 0.05 0.04 0.07 0.06 0.08 0.12 0.04 0.05 0.07 0.13 0.19 0.15 0.17 0.34 0.20 0.10 0.12 0.27 0.32 0.29 0.50 0.51 0.27 0.28 0.44 0.30 0.16 0.25 0.43 0.46 0.44 0.28 0.33 0.32
0.70 3.20 2.90 1.57 1.50 1.60 0.89 0.97 1.62 1.09 0.39 0.22 0.25 0.14 0.01 0.02 0.01 0.03 0.05 0.11 0.08 0.09 0.16 0.10 0.04 0.13 0.14 0.07 0.17 0.15 0.10 0.27 0.48 0.47 0.74 1.05 0.69 0.32 0.26 0.37 0.24 0.19 0.23 0.21 0.31 0.25 0.32 0.40 0.29
1.71 3.23 3.41 1.28 0.72 0.67 0.54 1.09 0.69 0.38 0.33 0.47 0.24 0.09 0.01 0.01 0.01 0.01 0.01 0.02 0.03 0.10 0.11 0.19 0.02 0.04 0.02 0.04 0.11 0.17 0.19 0.41 0.41 0.51 0.81 0.92 0.42 0.27 0.22 0.36 0.20 0.13 0.24 0.33 0.26 0.39 0.69 0.36 0.16
1.39 3.59 2.27 1.11 0.38 0.57 0.90 1.05 0.63 0.27 0.55 1.05 0.77 0.08 0.01 0.00 0.00 0.00 0.00 0.00 0.01 0.02 0.05 0.03 0.01 0.03 0.01 0.03 0.07 0.09 0.06 0.04 0.08 0.33 0.88 1.21 0.58 0.36 0.51 0.45 0.40 0.20 0.68 1.00 0.66 0.56 0.72 0.26 0.29
1.01 1.75 1.86 1.82 0.52 0.49 1.19 1.14 1.31 0.90 1.10 0.45 0.28 0.05 0.00 0.01 0.00 0.00 0.00 0.00 0.00 0.02 0.01 0.01 0.01 0.10 0.06 0.04 0.03 0.08 0.10 0.02 0.01 0.07 0.20 0.48 0.81 0.81 1.06 0.84 0.89 0.76 0.43 1.24 0.70 0.44 0.23 0.16 0.20
0.56 1.41 1.21 1.47 0.73 0.68 0.65 0.75 1.46 1.11 2.22 0.78 0.23 0.04 0.00 0.00 0.00 0.00 0.00 0.00 0.00 0.01 0.00 0.00 0.01 0.02 0.05 0.02 0.04 0.01 0.03 0.01 0.00 0.15 0.15 0.45 0.50 0.55 0.43 0.72 0.76 0.67 0.50 0.44 0.32 0.37 0.10 0.17 0.02
0.34 0.79 0.82 0.83 0.83 0.68 0.58 0.60 0.38 0.52 0.77 0.66 0.28 0.03 0.00 0.00 0.00 0.00 0.00 0.00 0.00 0.01 0.00 0.00 0.00 0.01 0.03 0.00 0.02 0.02 0.03 0.01 0.01 0.11 0.54 0.52 0.30 0.54 0.58 0.54 0.47 0.56 0.28 0.24 0.38 0.41 0.10 0.04 0.01
0.37 0.83 0.80 0.58 0.73 0.64 0.78 1.26 0.81 0.64 0.62 0.49 0.26 0.05 0.00 0.00 0.00 0.00 0.00 0.00 0.00 0.00 0.00 0.00 0.00 0.00 0.01 0.06 0.02 0.01 0.02 0.01 0.02 0.07 0.16 0.27 0.33 0.43 0.72 0.59 0.54 0.25 0.29 0.30 0.30 0.22 0.08 0.03 0.04
1.20 1.04 0.91 0.69 1.05 1.12 1.55 2.87 1.49 0.87 0.72 0.27 0.12 0.04 0.00 0.00 0.00 0.00 0.00 0.00 0.00 0.00 0.00 0.00 0.00 0.00 0.00 0.01 0.05 0.02 0.13 0.08 0.03 0.07 0.13 0.29 0.35 0.45 0.65 0.75 0.54 0.21 0.27 0.29 0.30 0.18 0.08 0.02 0.01
0.75 1.41 1.14 1.21 1.22 2.06 2.55 3.58 2.51 0.71 0.53 0.29 0.03 0.01 0.00 0.00 0.00 0.00 0.00 0.00 0.00 0.00 0.00 0.00 0.00 0.00 0.00 0.02 0.05 0.06 0.10 0.17 0.15 0.08 0.16 0.23 0.21 0.34 0.64 0.69 0.68 0.33 0.25 0.27 0.20 0.09 0.04 0.00 0.00
0.38 0.75 1.20 1.15 1.30 2.22 2.06 1.28 1.38 0.70 1.81 0.84 0.20 0.03 0.00 0.00 0.00 0.00 0.00 0.00 0.00 0.00 0.00 0.00 0.00 0.03 0.13 0.28 0.27 0.18 0.13 0.14 0.04 0.03 0.14 0.17 0.29 0.28 0.53 0.46 0.46 0.44 0.26 0.16 0.17 0.06 0.01 0.00 0.01
0.07 0.73 1.33 1.51 1.67 1.86 1.60 1.24 1.48 0.41 1.21 1.32 0.23 0.12 0.04 0.00 0.00 0.00 0.00 0.00 0.00 0.00 0.00 0.00 0.00 0.04 0.14 0.12 0.08 0.03 0.05 0.03 0.03 0.07 0.19 0.29 0.27 0.27 0.41 0.48 0.49 0.61 0.34 0.28 0.08 0.04 0.01 0.00 0.00
0.09 0.75 1.12 1.72 1.54 2.04 3.63 2.52 1.84 0.86 0.68 0.67 0.47 0.23 0.13 0.02 0.01 0.00 0.01 0.00 0.00 0.00 0.00 0.00 0.02 0.06 0.10 0.04 0.04 0.03 0.02 0.02 0.04 0.09 0.15 0.19 0.15 0.28 0.24 0.46 0.42 0.39 0.36 0.26 0.17 0.12 0.03 0.00 0.00
0.15 0.28 0.62 0.98 1.08 1.38 2.33 3.50 2.36 1.04 1.08 1.06 0.80 0.49 0.12 0.02 0.01 0.01 0.00 0.00 0.00 0.00 0.00 0.00 0.02 0.05 0.10 0.09 0.07 0.16 0.21 0.12 0.16 0.22 0.20 0.16 0.14 0.15 0.42 0.46 0.39 0.34 0.32 0.35 0.22 0.09 0.03 0.02 0.01
0.40 0.26 0.32 0.29 0.25 0.22 0.32 1.16 1.32 1.12 1.14 1.72 1.07 0.68 0.15 0.03 0.01 0.02 0.01 0.00 0.00 0.00 0.00 0.00 0.01 0.05 0.08 0.17 0.12 0.30 0.20 0.13 0.13 0.20 0.25 0.22 0.15 0.12 0.25 0.24 0.27 0.27 0.38 0.43 0.23 0.04 0.04 0.03 0.00
0.07 0.11 0.18 0.37 0.25 0.10 0.06 0.26 0.60 0.75 1.03 1.30 1.01 1.04 0.37 0.07 0.03 0.02 0.01 0.00 0.00 0.00 0.00 0.00 0.01 0.03 0.04 0.15 0.33 0.23 0.18 0.24 0.37 0.23 0.43 0.45 0.39 0.28 0.23 0.25 0.25 0.31 0.30 0.31 0.27 0.22 0.10 0.06 0.03
0.02 0.10 0.14 0.20 0.37 0.25 0.03 0.08 0.32 0.56 0.47 0.63 0.47 0.85 1.14 0.54 0.15 0.07 0.04 0.01 0.00 0.00 0.00 0.00 0.00 0.03 0.03 0.07 0.15 0.28 0.31 0.32 0.37 0.64 0.47 0.34 0.31 0.20 0.17 0.22 0.31 0.30 0.21 0.23 0.19 0.24 0.11 0.04 0.04
0.04 0.11 0.13 0.10 0.08 0.04 0.02 0.02 0.09 0.49 0.49 0.40 0.46 0.73 0.95 1.08 0.43 0.18 0.13 0.07 0.04 0.02 0.00 0.00 0.00 0.01 0.01 0.03 0.11 0.18 0.23 0.25 0.49 0.37 0.48 0.67 0.54 0.21 0.15 0.24 0.36 0.24 0.16 0.16 0.16 0.21 0.17 0.08 0.08
0.00 0.00 0.05 0.10 0.06 0.08 0.12 0.20 0.04 0.03 0.05 0.06 0.20 0.28 0.32 0.29 0.62 0.25 0.22 0.22 0.14 0.08 0.04 0.00 0.00 0.00 0.00 0.02 0.09 0.17 0.19 0.18 0.20 0.13 0.39 0.77 0.46 0.26 0.30 0.20 0.16 0.18 0.24 0.09 0.13 0.09 0.06 0.09 0.03
0.00 0.00 0.00 0.02 0.03 0.04 0.12 0.13 0.19 0.09 0.04 0.04 0.04 0.17 0.28 0.31 0.19 0.20 0.28 0.32 0.29 0.07 0.04 0.07 0.02 0.00 0.00 0.00 0.02 0.04 0.07 0.10 0.12 0.25 0.34 0.43 1.01 0.61 0.47 0.31 0.24 0.22 0.16 0.12 0.16 0.07 0.16 0.22 0.11
0.00 0.00 0.00 0.00 0.00 0.03 0.15 0.17 0.24 0.14 0.10 0.05 0.03 0.03 0.13 0.40 0.87 0.68 0.48 0.44 0.41 0.21 0.07 0.11 0.14 0.02 0.02 0.01 0.01 0.02 0.06 0.06 0.07 0.15 0.17 0.67 0.88 0.84 1.19 0.57 0.24 0.24 0.20 0.13 0.12 0.08 0.07 0.14 0.07
0.00 0.00 0.00 0.00 0.00 0.00 0.14 0.42 0.31 0.18 0.13 0.14 0.17 0.13 0.18 0.22 0.76 1.85 1.70 1.27 0.99 0.67 0.27 0.33 0.38 0.31 0.12 0.02 0.01 0.10 0.06 0.07 0.07 0.10 0.10 0.17 0.29 0.45 0.46 0.70 0.51 0.34 0.20 0.17 0.25 0.19 0.16 0.19 0.07
0.00 0.00 0.00 0.00 0.00 0.00 0.02 0.29 0.27 0.56 0.26 0.25 0.26 0.19 0.23 0.25 0.39 0.99 1.91 2.45 2.90 2.33 1.86 1.03 1.09 0.87 0.49 0.27 0.11 0.18 0.14 0.09 0.05 0.12 0.08 0.10 0.20 0.36 0.38 0.33 0.53 0.34 0.24 0.22 0.32 0.18 0.16 0.28 0.16

GFSSGP_prec_precacc_114.txt.gz
Total_Precipitation_Accumulation
0.01 0.05 0.43 1.01 2.02 1.41 1.82 2.82 1.82 1.20 0.40 0.05 0.06 0.06 0.36 0.37 0.57 0.56 0.19 0.20 0.05 0.10 0.31 0.94 1.51 1.09 0.57 0.31 0.33 0.54 0.34 0.23 0.17 0.14 0.20 0.17 0.29 0.40 0.25 0.32 0.44 0.41 0.29 0.22 0.24 0.28 0.38 0.34 0.33
0.01 0.22 1.29 3.50 3.16 2.72 2.15 2.08 1.93 1.11 0.22 0.06 0.04 0.13 0.12 0.06 0.02 0.08 0.19 0.16 0.01 0.02 0.06 0.43 1.14 0.56 0.29 0.24 0.26 0.30 0.16 0.18 0.22 0.23 0.41 0.37 0.41 0.43 0.47 0.52 0.68 0.66 0.71 0.56 0.45 0.33 0.29 0.43 0.47
0.04 1.03 3.79 4.32 3.35 3.61 4.36 2.88 2.06 0.67 0.27 0.11 0.16 0.24 0.09 0.05 0.02 0.04 0.05 0.03 0.04 0.05 0.05 0.26 0.43 0.27 0.21 0.31 0.24 0.23 0.24 0.16 0.22 0.38 0.58 0.54 0.52 0.59 0.54 0.39 0.48 0.40 0.44 0.50 0.45 0.40 0.43 0.64 0.69
0.28 1.85 3.23 3.44 3.91 2.87 2.72 2.54 1.78 0.59 0.44 0.30 0.36 0.21 0.10 0.02 0.01 0.01 0.08 0.13 0.08 0.13 0.12 0.18 0.23 0.21 0.40 0.37 0.35 0.25 0.21 0.22 0.27 0.41 0.57 0.57 0.58 0.46 0.32 0.28 0.35 0.32 0.24 0.21 0.22 0.35 0.48 0.68 0.74
0.52 1.67 4.19 3.79 3.07 2.81 1.55 1.13 1.32 0.88 0.60 0.60 0.29 0.19 0.13 0.05 0.01 0.01 0.04 0.10 0.12 0.12 0.06 0.08 0.48 0.41 0.34 0.37 0.44 0.27 0.21 0.23 0.33 0.55 0.60 0.59 0.46 0.39 0.42 0.35 0.18 0.15 0.15 0.12 0.22 0.38 0.59 0.63 0.61
1.65 2.76 3.29 1.42 1.67 3.39 2.10 1.30 1.25 1.09 1.06 1.03 0.32 0.10 0.14 0.07 0.01 0.04 0.05 0.07 0.06 0.03 0.03 0.07 0.38 0.42 0.37 0.36 0.41 0.28 0.29 0.29 0.58 0.57 0.51 0.57 0.53 0.37 0.30 0.17 0.11 0.09 0.18 0.26 0.16 0.23 0.60 0.55 0.48
0.71 4.74 2.57 1.27 1.34 4.00 3.07 2.06 1.83 0.91 0.67 0.49 0.22 0.08 0.19 0.21 0.12 0.10 0.02 0.05 0.08 0.03 0.02 0.06 0.16 0.35 0.36 0.47 0.46 0.30 0.28 0.27 0.44 0.45 0.50 0.44 0.41 0.43 0.33 0.35 0.23 0.16 0.25 0.30 0.47 0.48 0.50 0.44 0.47
0.68 3.54 4.12 1.48 1.98 2.77 1.36 0.99 1.31 0.81 0.49 0.39 0.19 0.10 0.08 0.07 0.08 0.08 0.06 0.09 0.12 0.04 0.05 0.07 0.13 0.19 0.15 0.18 0.35 0.24 0.11 0.12 0.27 0.32 0.29 0.51 0.51 0.28 0.29 0.44 0.30 0.16 0.25 0.43 0.46 0.44 0.28 0.33 0.32
0.74 3.26 2.97 1.66 1.50 1.60 0.89 0.97 1.62 1.09 0.39 0.22 0.25 0.14 0.01 0.02 0.02 0.03 0.05 0.18 0.17 0.09 0.16 0.13 0.05 0.13 0.15 0.08 0.17 0.16 0.12 0.28 0.48 0.47 0.75 1.11 0.75 0.34 0.28 0.38 0.25 0.19 0.23 0.21 0.33 0.27 0.32 0.40 0.29
2.00 3.87 3.67 1.41 0.75 0.69 0.54 1.10 0.69 0.38 0.33 0.47 0.24 0.09 0.01 0.01 0.01 0.01 0.01 0.04 0.08 0.11 0.11 0.21 0.03 0.04 0.02 0.04 0.11 0.17 0.21 0.45 0.42 0.51 0.82 0.95 0.49 0.29 0.25 0.40 0.20 0.13 0.26 0.33 0.26 0.39 0.69 0.36 0.16
1.57 3.89 2.77 1.46 0.47 0.68 0.91 1.05 0.63 0.27 0.55 1.05 0.77 0.08 0.01 0.00 0.00 0.00 0.00 0.01 0.02 0.02 0.05 0.03 0.01 0.03 0.01 0.03 0.07 0.10 0.06 0.04 0.09 0.33 0.89 1.24 0.60 0.39 0.52 0.47 0.41 0.23 0.73 1.03 0.66 0.56 0.72 0.26 0.29
1.08 1.90 2.08 2.02 0.62 0.65 1.23 1.14 1.31 0.90 1.10 0.45 0.28 0.05 0.00 0.01 0.00 0.00 0.00 0.00 0.00 0.04 0.02 0.01 0.01 0.10 0.06 0.04 0.05 0.09 0.10 0.03 0.01 0.08 0.22 0.49 0.81 0.81 1.07 0.89 0.93 0.77 0.44 1.24 0.70 0.44 0.23 0.16 0.20
0.62 1.52 1.31 1.56 0.81 0.75 0.69 0.75 1.46 1.12 2.22 0.78 0.23 0.04 0.00 0.00 0.00 0.00 0.00 0.00 0.00 0.01 0.01 0.00 0.01 0.02 0.05 0.02 0.09 0.03 0.03 0.01 0.00 0.16 0.16 0.46 0.50 0.55 0.44 0.79 0.76 0.69 0.51 0.44 0.32 0.37 0.10 0.17 0.02
0.42 0.92 0.89 0.94 1.03 0.77 0.59 0.60 0.38 0.53 0.77 0.66 0.28 0.03 0.00 0.00 0.00 0.00 0.00 0.00 0.00 0.01 0.00 0.00 0.00 0.01 0.03 0.00 0.03 0.03 0.03 0.01 0.02 0.13 0.54 0.52 0.31 0.56 0.59 0.57 0.48 0.58 0.31 0.26 0.38 0.41 0.10 0.04 0.01
0.49 1.10 1.02 0.92 1.12 0.74 0.79 1.27 0.81 0.64 0.62 0.49 0.26 0.05 0.00 0.00 0.00 0.00 0.00 0.00 0.00 0.00 0.00 0.00 0.00 0.00 0.01 0.06 0.02 0.02 0.02 0.02 0.02 0.07 0.16 0.27 0.40 0.48 0.74 0.61 0.55 0.28 0.33 0.32 0.30 0.22 0.08 0.03 0.05
1.59 1.45 1.40 1.36 1.23 1.16 1.56 2.91 1.49 0.87 0.72 0.27 0.12 0.04 0.00 0.00 0.00 0.00 0.00 0.00 0.00 0.00 0.00 0.00 0.00 0.00 0.00 0.01 0.05 0.02 0.13 0.09 0.05 0.08 0.14 0.30 0.39 0.49 0.68 0.80 0.61 0.34 0.39 0.30 0.30 0.18 0.08 0.03 0.04
1.08 1.87 1.40 1.38 1.29 2.11 2.63 3.63 2.55 0.72 0.53 0.29 0.03 0.01 0.00 0.00 0.00 0.00 0.00 0.00 0.00 0.00 0.00 0.00 0.00 0.00 0.00 0.02 0.05 0.06 0.11 0.17 0.15 0.09 0.17 0.23 0.24 0.39 0.65 0.71 0.71 0.44 0.29 0.28 0.21 0.09 0.04 0.01 0.02
0.41 0.79 1.29 1.32 1.45 2.29 2.25 1.44 1.41 0.71 1.81 0.84 0.20 0.03 0.00 0.00 0.00 0.00 0.00 0.00 0.00 0.00 0.00 0.00 0.00 0.03 0.13 0.28 0.27 0.18 0.13 0.14 0.04 0.03 0.15 0.17 0.29 0.29 0.54 0.46 0.47 0.45 0.26 0.19 0.18 0.06 0.01 0.00 0.01
0.10 0.76 1.34 1.57 1.87 2.02 1.76 1.42 1.52 0.41 1.21 1.32 0.23 0.12 0.04 0.00 0.00 0.00 0.00 0.00 0.00 0.00 0.00 0.00 0.00 0.04 0.14 0.12 0.09 0.03 0.05 0.03 0.03 0.08 0.19 0.30 0.27 0.28 0.41 0.48 0.49 0.62 0.35 0.30 0.10 0.04 0.01 0.00 0.01
0.19 0.82 1.13 1.73 1.67 2.24 3.88 2.72 1.91 0.90 0.69 0.67 0.47 0.23 0.13 0.02 0.01 0.00 0.01 0.00 0.00 0.00 0.00 0.00 0.02 0.06 0.10 0.04 0.04 0.03 0.02 0.02 0.04 0.09 0.15 0.19 0.16 0.28 0.25 0.47 0.42 0.39 0.36 0.28 0.20 0.12 0.03 0.00 0.01
0.18 0.34 0.62 0.98 1.09 1.51 2.63 3.79 2.56 1.08 1.08 1.06 0.80 0.49 0.12 0.02 0.01 0.01 0.00 0.00 0.00 0.00 0.00 0.00 0.02 0.05 0.10 0.09 0.07 0.16 0.21 0.12 0.19 0.26 0.21 0.16 0.15 0.15 0.43 0.47 0.39 0.35 0.32 0.36 0.23 0.10 0.03 0.02 0.02
0.41 0.27 0.33 0.29 0.25 0.23 0.39 1.39 1.40 1.17 1.15 1.72 1.07 0.68 0.15 0.03 0.01 0.02 0.01 0.00 0.00 0.00 0.00 0.00 0.01 0.05 0.08 0.17 0.12 0.30 0.20 0.14 0.13 0.20 0.25 0.22 0.15 0.12 0.25 0.25 0.31 0.28 0.38 0.43 0.25 0.05 0.04 0.03 0.01
0.07 0.12 0.20 0.37 0.25 0.11 0.08 0.32 0.63 0.76 1.04 1.30 1.01 1.04 0.37 0.07 0.03 0.02 0.01 0.00 0.00 0.00 0.00 0.00 0.01 0.03 0.04 0.15 0.34 0.23 0.18 0.26 0.38 0.23 0.43 0.45 0.39 0.28 0.23 0.25 0.25 0.31 0.30 0.32 0.27 0.22 0.10 0.06 0.03
0.02 0.12 0.22 0.23 0.38 0.25 0.03 0.08 0.33 0.56 0.47 0.63 0.47 0.85 1.14 0.54 0.15 0.07 0.04 0.01 0.00 0.00 0.00 0.00 0.00 0.03 0.03 0.07 0.15 0.28 0.32 0.33 0.38 0.64 0.47 0.34 0.32 0.21 0.18 0.23 0.32 0.30 0.21 0.24 0.19 0.26 0.12 0.04 0.04
0.05 0.17 0.18 0.14 0.09 0.05 0.03 0.02 0.09 0.49 0.49 0.40 0.46 0.73 0.95 1.08 0.43 0.18 0.13 0.07 0.04 0.02 0.00 0.00 0.00 0.01 0.01 0.03 0.11 0.18 0.24 0.26 0.49 0.38 0.48 0.68 0.54 0.21 0.15 0.25 0.39 0.24 0.16 0.16 0.16 0.21 0.17 0.08 0.08
0.01 0.00 0.09 0.13 0.09 0.12 0.17 0.23 0.06 0.03 0.05 0.06 0.20 0.28 0.32 0.29 0.62 0.25 0.22 0.22 0.14 0.08 0.04 0.00 0.00 0.00 0.00 0.02 0.09 0.17 0.20 0.19 0.20 0.13 0.39 0.77 0.46 0.26 0.30 0.20 0.16 0.18 0.24 0.09 0.14 0.09 0.06 0.09 0.03
0.00 0.00 0.00 0.02 0.03 0.04 0.13 0.14 0.19 0.09 0.04 0.04 0.04 0.17 0.28 0.31 0.19 0.20 0.28 0.32 0.29 0.07 0.04 0.07 0.02 0.00 0.00 0.00 0.02 0.04 0.11 0.11 0.12 0.25 0.34 0.43 1.01 0.61 0.47 0.32 0.24 0.22 0.16 0.12 0.16 0.07 0.16 0.22 0.11
0.00 0.00 0.00 0.00 0.00 0.03 0.16 0.17 0.24 0.14 0.10 0.05 0.03 0.03 0.13 0.40 0.87 0.68 0.48 0.44 0.41 0.21 0.08 0.12 0.14 0.02 0.02 0.01 0.01 0.02 0.07 0.07 0.07 0.15 0.17 0.67 0.88 0.84 1.19 0.59 0.24 0.24 0.20 0.13 0.12 0.08 0.07 0.15 0.08
0.00 0.00 0.00 0.00 0.00 0.00 0.14 0.42 0.31 0.18 0.13 0.14 0.18 0.13 0.18 0.22 0.76 1.85 1.70 1.27 0.99 0.68 0.27 0.33 0.40 0.32 0.12 0.02 0.01 0.10 0.06 0.08 0.07 0.10 0.10 0.17 0.29 0.45 0.46 0.70 0.51 0.35 0.20 0.20 0.31 0.21 0.16 0.20 0.08
0.00 0.00 0.00 0.00 0.00 0.00 0.02 0.29 0.27 0.56 0.26 0.25 0.26 0.20 0.23 0.25 0.39 0.99 1.91 2.45 2.90 2.34 1.86 1.04 1.10 0.89 0.49 0.27 0.11 0.18 0.14 0.09 0.05 0.12 0.08 0.10 0.20 0.36 0.38 0.34 0.55 0.36 0.24 0.27 0.41 0.21 0.16 0.29 0.18

GFSSGP_prec_precacc_117.txt.gz
Total_Precipitation_Accumulation
0.01 0.05 0.43 1.05 2.03 1.41 1.82 2.82 1.82 1.20 0.42 0.05 0.06 0.06 0.36 0.37 0.57 0.56 0.19 0.20 0.05 0.10 0.31 0.94 1.53 1.14 0.58 0.32 0.34 0.55 0.34 0.23 0.17 0.14 0.21 0.20 0.32 0.41 0.27 0.33 0.46 0.41 0.30 0.22 0.24 0.29 0.40 0.37 0.35
0.01 0.23 1.31 3.57 3.18 2.72 2.15 2.08 1.93 1.11 0.22 0.06 0.04 0.13 0.12 0.06 0.02 0.08 0.19 0.16 0.01 0.02 0.06 0.43 1.15 0.56 0.30 0.26 0.26 0.30 0.16 0.18 0.22 0.25 0.44 0.41 0.44 0.46 0.50 0.53 0.68 0.66 0.71 0.56 0.45 0.34 0.29 0.43 0.47
0.06 1.06 3.79 4.32 3.35 3.61 4.36 2.88 2.06 0.67 0.27 0.11 0.16 0.24 0.09 0.05 0.02 0.04 0.05 0.03 0.04 0.05 0.05 0.26 0.44 0.27 0.21 0.31 0.24 0.23 0.24 0.17 0.23 0.38 0.61 0.59 0.55 0.59 0.54 0.40 0.50 0.41 0.44 0.50 0.45 0.41 0.44 0.64 0.70
0.28 1.85 3.23 3.44 3.91 2.87 2.72 2.54 1.78 0.59 0.44 0.30 0.36 0.21 0.10 0.02 0.01 0.01 0.08 0.13 0.08 0.13 0.12 0.18 0.25 0.22 0.40 0.37 0.35 0.25 0.22 0.25 0.28 0.42 0.58 0.58 0.58 0.46 0.32 0.29 0.35 0.32 0.24 0.21 0.22 0.35 0.48 0.69 0.78
0.52 1.67 4.20 3.79 3.07 2.81 1.55 1.13 1.32 0.88 0.60 0.60 0.29 0.19 0.13 0.05 0.01 0.01 0.04 0.10 0.12 0.12 0.06 0.08 0.49 0.41 0.34 0.37 0.44 0.28 0.23 0.25 0.35 0.56 0.62 0.60 0.47 0.39 0.43 0.35 0.18 0.15 0.15 0.12 0.22 0.38 0.59 0.63 0.61
1.65 2.76 3.29 1.42 1.67 3.39 2.10 1.30 1.25 1.09 1.06 1.03 0.32 0.10 0.15 0.09 0.02 0.04 0.05 0.07 0.09 0.06 0.03 0.07 0.38 0.42 0.37 0.37 0.41 0.28 0.33 0.31 0.59 0.57 0.51 0.57 0.53 0.38 0.30 0.17 0.11 0.09 0.18 0.26 0.16 0.23 0.60 0.55 0.48
0.71 4.74 2.58 1.27 1.34 4.00 3.07 2.06 1.83 0.91 0.67 0.49 0.22 0.08 0.19 0.26 0.16 0.11 0.04 0.07 0.08 0.03 0.02 0.06 0.16 0.35 0.37 0.47 0.48 0.31 0.30 0.31 0.46 0.45 0.50 0.44 0.41 0.43 0.33 0.35 0.23 0.16 0.25 0.30 0.47 0.48 0.50 0.44 0.47
0.70 3.55 4.13 1.48 1.99 2.77 1.36 1.00 1.32 0.81 0.49 0.39 0.19 0.10 0.08 0.08 0.14 0.10 0.06 0.09 0.12 0.04 0.05 0.07 0.13 0.19 0.16 0.20 0.39 0.26 0.11 0.12 0.28 0.32 0.29 0.51 0.51 0.28 0.29 0.44 0.30 0.16 0.25 0.43 0.46 0.44 0.29 0.34 0.32
0.77 3.31 3.00 1.68 1.52 1.61 0.89 0.97 1.62 1.09 0.39 0.22 0.25 0.14 0.01 0.02 0.04 0.03 0.05 0.18 0.17 0.09 0.16 0.13 0.05 0.15 0.17 0.14 0.19 0.17 0.12 0.29 0.48 0.47 0.80 1.16 0.77 0.35 0.28 0.38 0.25 0.19 0.23 0.21 0.33 0.28 0.33 0.40 0.29
2.07 4.11 3.72 1.43 0.76 0.70 0.54 1.10 0.69 0.38 0.33 0.47 0.24 0.09 0.02 0.04 0.01 0.01 0.01 0.04 0.11 0.12 0.11 0.21 0.03 0.04 0.03 0.07 0.15 0.23 0.27 0.51 0.45 0.52 0.84 0.96 0.49 0.29 0.25 0.41 0.22 0.15 0.26 0.33 0.26 0.41 0.71 0.38 0.16
1.60 4.07 2.83 1.46 0.47 0.69 0.91 1.05 0.63 0.27 0.55 1.05 0.77 0.08 0.01 0.01 0.00 0.02 0.00 0.01 0.04 0.03 0.05 0.03 0.01 0.03 0.03 0.15 0.13 0.11 0.07 0.05 0.09 0.33 0.89 1.24 0.60 0.39 0.52 0.47 0.41 0.23 0.73 1.03 0.66 0.56 0.72 0.26 0.29
1.09 1.92 2.16 2.03 0.63 0.67 1.23 1.15 1.31 0.90 1.10 0.45 0.28 0.05 0.00 0.01 0.00 0.03 0.03 0.01 0.00 0.04 0.02 0.01 0.01 0.10 0.07 0.08 0.12 0.11 0.10 0.03 0.03 0.10 0.24 0.49 0.81 0.81 1.08 0.89 0.93 0.77 0.44 1.24 0.70 0.44 0.23 0.16 0.20
0.62 1.54 1.31 1.57 0.85 0.78 0.71 0.77 1.46 1.12 2.22 0.78 0.23 0.04 0.00 0.00 0.00 0.01 0.04 0.00 0.01 0.01 0.01 0.00 0.01 0.02 0.06 0.06 0.12 0.06 0.04 0.03 0.01 0.16 0.16 0.46 0.50 0.55 0.44 0.79 0.76 0.70 0.51 0.45 0.32 0.37 0.10 0.17 0.02
0.45 1.04 0.93 0.95 1.08 0.81 0.70 0.62 0.39 0.56 0.77 0.66 0.28 0.03 0.00 0.00 0.00 0.00 0.00 0.00 0.00 0.01 0.00 0.00 0.00 0.01 0.05 0.04 0.03 0.04 0.04 0.02 0.04 0.15 0.56 0.52 0.31 0.56 0.59 0.57 0.48 0.60 0.33 0.27 0.38 0.41 0.10 0.04 0.01
0.61 1.18 1.04 1.00 1.27 0.82 0.88 1.32 0.83 0.67 0.62 0.49 0.26 0.05 0.00 0.00 0.00 0.00 0.00 0.00 0.00 0.00 0.00 0.00 0.00 0.00 0.02 0.10 0.03 0.02 0.03 0.02 0.02 0.07 0.16 0.27 0.41 0.48 0.74 0.61 0.55 0.28 0.33 0.32 0.31 0.23 0.09 0.03 0.05
1.64 1.97 1.69 1.87 1.65 1.25 1.62 2.94 1.50 0.88 0.73 0.27 0.12 0.04 0.00 0.00 0.00 0.00 0.00 0.00 0.00 0.00 0.00 0.00 0.00 0.00 0.00 0.01 0.05 0.03 0.13 0.10 0.05 0.08 0.16 0.30 0.40 0.49 0.68 0.80 0.61 0.34 0.39 0.30 0.30 0.18 0.08 0.03 0.04
1.08 1.99 2.29 2.27 2.04 2.26 2.67 3.68 2.58 0.74 0.54 0.29 0.03 0.01 0.00 0.00 0.00 0.00 0.00 0.00 0.00 0.00 0.00 0.00 0.00 0.00 0.00 0.02 0.05 0.06 0.11 0.18 0.15 0.09 0.18 0.23 0.24 0.40 0.68 0.74 0.71 0.45 0.30 0.31 0.21 0.09 0.04 0.01 0.02
0.41 0.87 1.57 1.78 1.86 2.49 2.28 1.48 1.45 0.74 1.82 0.84 0.20 0.03 0.00 0.00 0.00 0.00 0.00 0.00 0.00 0.00 0.00 0.00 0.00 0.03 0.13 0.28 0.27 0.18 0.13 0.14 0.05 0.04 0.15 0.18 0.30 0.31 0.56 0.47 0.49 0.53 0.29 0.19 0.18 0.08 0.01 0.00 0.01
0.11 0.79 1.47 1.68 2.00 2.22 1.88 1.55 1.61 0.43 1.21 1.32 0.23 0.12 0.04 0.00 0.00 0.00 0.00 0.00 0.00 0.00 0.00 0.00 0.00 0.04 0.14 0.12 0.10 0.03 0.05 0.04 0.03 0.09 0.20 0.31 0.29 0.29 0.41 0.48 0.50 0.63 0.35 0.30 0.10 0.04 0.01 0.00 0.01
0.21 0.86 1.17 1.75 1.77 2.33 4.04 2.82 2.00 0.92 0.69 0.67 0.47 0.23 0.13 0.02 0.01 0.00 0.01 0.00 0.00 0.00 0.00 0.00 0.02 0.06 0.10 0.04 0.04 0.03 0.02 0.02 0.05 0.09 0.16 0.20 0.16 0.29 0.25 0.47 0.42 0.39 0.36 0.28 0.20 0.12 0.03 0.00 0.01
0.18 0.34 0.64 0.98 1.12 1.56 2.69 3.88 2.65 1.15 1.09 1.06 0.80 0.49 0.12 0.02 0.01 0.01 0.00 0.00 0.00 0.00 0.00 0.00 0.02 0.05 0.10 0.09 0.07 0.16 0.21 0.12 0.19 0.27 0.24 0.19 0.16 0.15 0.43 0.47 0.39 0.35 0.32 0.36 0.24 0.10 0.03 0.02 0.02
0.41 0.27 0.33 0.29 0.25 0.24 0.41 1.43 1.46 1.24 1.16 1.72 1.07 0.68 0.15 0.03 0.01 0.02 0.01 0.00 0.00 0.00 0.00 0.00 0.01 0.05 0.08 0.17 0.12 0.30 0.20 0.14 0.13 0.20 0.25 0.24 0.19 0.14 0.26 0.25 0.31 0.29 0.38 0.43 0.26 0.05 0.04 0.03 0.01
0.07 0.12 0.20 0.37 0.26 0.11 0.08 0.33 0.65 0.83 1.09 1.30 1.01 1.04 0.37 0.07 0.03 0.02 0.01 0.00 0.00 0.00 0.00 0.00 0.01 0.03 0.04 0.15 0.34 0.23 0.18 0.26 0.38 0.23 0.43 0.45 0.40 0.28 0.23 0.25 0.26 0.32 0.31 0.32 0.27 0.22 0.10 0.06 0.03
0.02 0.12 0.22 0.23 0.38 0.25 0.03 0.08 0.34 0.57 0.50 0.63 0.47 0.85 1.14 0.54 0.15 0.07 0.04 0.01 0.00 0.00 0.00 0.00 0.00 0.03 0.03 0.07 0.15 0.28 0.32 0.33 0.38 0.64 0.47 0.34 0.32 0.21 0.18 0.23 0.32 0.30 0.21 0.24 0.19 0.26 0.12 0.04 0.04
0.05 0.17 0.18 0.14 0.11 0.06 0.04 0.02 0.10 0.49 0.49 0.40 0.46 0.73 0.95 1.08 0.43 0.18 0.13 0.07 0.04 0.02 0.00 0.00 0.00 0.01 0.01 0.03 0.11 0.18 0.24 0.26 0.49 0.38 0.48 0.68 0.54 0.21 0.15 0.25 0.39 0.24 0.16 0.16 0.16 0.21 0.17 0.08 0.08
0.01 0.01 0.09 0.17 0.12 0.12 0.18 0.24 0.06 0.03 0.05 0.06 0.20 0.28 0.32 0.29 0.62 0.25 0.22 0.22 0.14 0.08 0.04 0.00 0.00 0.00 0.00 0.02 0.09 0.17 0.20 0.19 0.20 0.13 0.39 0.77 0.46 0.26 0.30 0.20 0.16 0.18 0.24 0.09 0.15 0.09 0.06 0.09 0.03
0.00 0.00 0.00 0.02 0.03 0.04 0.13 0.14 0.19 0.09 0.04 0.04 0.04 0.17 0.28 0.31 0.19 0.20 0.28 0.32 0.29 0.07 0.04 0.07 0.02 0.00 0.00 0.00 0.02 0.04 0.11 0.11 0.12 0.25 0.34 0.43 1.01 0.61 0.47 0.32 0.24 0.22 0.16 0.12 0.16 0.07 0.16 0.22 0.11
0.00 0.00 0.00 0.00 0.00 0.03 0.16 0.17 0.24 0.14 0.10 0.05 0.03 0.03 0.13 0.40 0.87 0.68 0.48 0.44 0.41 0.22 0.08 0.12 0.14 0.02 0.02 0.01 0.01 0.02 0.07 0.07 0.07 0.15 0.17 0.67 0.88 0.84 1.19 0.60 0.24 0.24 0.20 0.13 0.12 0.08 0.07 0.15 0.08
0.00 0.00 0.00 0.00 0.00 0.00 0.14 0.42 0.31 0.18 0.13 0.14 0.18 0.13 0.18 0.22 0.77 1.85 1.71 1.27 0.99 0.71 0.27 0.33 0.40 0.32 0.12 0.02 0.01 0.10 0.06 0.08 0.07 0.10 0.10 0.17 0.29 0.45 0.46 0.70 0.51 0.35 0.20 0.20 0.31 0.21 0.16 0.20 0.10
0.00 0.00 0.00 0.00 0.00 0.00 0.02 0.29 0.27 0.56 0.26 0.25 0.26 0.21 0.23 0.25 0.39 0.99 1.91 2.46 2.90 2.35 1.86 1.04 1.10 0.89 0.49 0.27 0.11 0.18 0.14 0.09 0.05 0.12 0.08 0.10 0.20 0.36 0.38 0.34 0.55 0.38 0.25 0.35 0.46 0.23 0.20 0.30 0.20

GFSSGP_prec_precacc_120.txt.gz
Total_Precipitation_Accumulation
0.01 0.05 0.45 1.05 2.03 1.42 1.82 2.82 1.82 1.20 0.42 0.05 0.07 0.06 0.36 0.37 0.57 0.56 0.19 0.20 0.05 0.10 0.31 1.02 1.64 1.20 0.64 0.36 0.35 0.55 0.34 0.23 0.17 0.14 0.21 0.20 0.33 0.42 0.28 0.35 0.48 0.48 0.31 0.24 0.27 0.32 0.47 0.43 0.40
0.01 0.24 1.31 3.57 3.18 2.72 2.15 2.08 1.93 1.12 0.25 0.07 0.04 0.13 0.12 0.06 0.02 0.08 0.19 0.16 0.01 0.02 0.06 0.45 1.23 0.62 0.32 0.28 0.28 0.31 0.16 0.18 0.22 0.25 0.45 0.41 0.45 0.47 0.51 0.53 0.68 0.69 0.72 0.58 0.53 0.42 0.40 0.61 0.60
0.06 1.06 3.80 4.32 3.35 3.61 4.36 2.88 2.06 0.67 0.27 0.11 0.16 0.24 0.09 0.05 0.02 0.04 0.05 0.03 0.04 0.05 0.05 0.27 0.48 0.29 0.22 0.35 0.29 0.25 0.25 0.17 0.23 0.39 0.62 0.59 0.55 0.60 0.54 0.42 0.51 0.41 0.44 0.51 0.47 0.45 0.54 0.75 0.85
0.28 1.85 3.23 3.44 3.91 2.87 2.72 2.54 1.78 0.59 0.44 0.30 0.36 0.21 0.10 0.02 0.01 0.01 0.08 0.13 0.08 0.13 0.12 0.18 0.27 0.24 0.41 0.38 0.37 0.26 0.22 0.26 0.28 0.42 0.58 0.58 0.60 0.47 0.33 0.29 0.35 0.32 0.24 0.22 0.27 0.43 0.54 0.75 0.85
0.52 1.67 4.20 3.79 3.07 2.81 1.55 1.13 1.32 0.88 0.60 0.60 0.29 0.19 0.13 0.05 0.01 0.01 0.04 0.10 0.12 0.12 0.06 0.08 0.51 0.42 0.35 0.37 0.46 0.28 0.24 0.25 0.35 0.56 0.63 0.60 0.48 0.41 0.44 0.36 0.19 0.16 0.16 0.12 0.22 0.39 0.59 0.67 0.64
1.65 2.76 3.29 1.42 1.67 3.39 2.10 1.30 1.25 1.09 1.06 1.03 0.32 0.10 0.15 0.09 0.02 0.04 0.05 0.07 0.09 0.07 0.03 0.07 0.40 0.43 0.38 0.37 0.43 0.28 0.33 0.32 0.60 0.60 0.54 0.62 0.62 0.44 0.31 0.18 0.11 0.10 0.18 0.26 0.16 0.23 0.60 0.55 0.49
0.71 4.74 2.58 1.27 1.34 4.00 3.07 2.06 1.83 0.91 0.67 0.49 0.22 0.08 0.19 0.27 0.17 0.11 0.04 0.07 0.08 0.03 0.02 0.06 0.17 0.36 0.41 0.56 0.50 0.33 0.34 0.32 0.48 0.46 0.52 0.50 0.44 0.44 0.34 0.35 0.23 0.16 0.25 0.30 0.47 0.48 0.51 0.44 0.47
0.70 3.55 4.13 1.48 1.99 2.77 1.36 1.00 1.32 0.81 0.49 0.39 0.19 0.10 0.08 0.09 0.18 0.10 0.08 0.09 0.12 0.04 0.05 0.08 0.22 0.29 0.19 0.25 0.47 0.32 0.14 0.12 0.28 0.34 0.33 0.54 0.52 0.28 0.29 0.45 0.30 0.16 0.25 0.43 0.46 0.44 0.30 0.36 0.32
0.77 3.31 3.00 1.68 1.53 1.61 0.89 0.97 1.62 1.09 0.39 0.22 0.25 0.14 0.01 0.02 0.04 0.03 0.05 0.18 0.17 0.09 0.16 0.17 0.10 0.20 0.23 0.22 0.21 0.19 0.14 0.29 0.49 0.50 0.84 1.17 0.78 0.35 0.28 0.39 0.25 0.19 0.24 0.23 0.38 0.32 0.35 0.40 0.29
2.08 4.11 3.74 1.44 0.79 0.70 0.54 1.10 0.69 0.38 0.33 0.47 0.24 0.09 0.02 0.04 0.01 0.01 0.01 0.04 0.11 0.12 0.11 0.21 0.03 0.04 0.05 0.13 0.18 0.30 0.33 0.51 0.46 0.54 0.85 0.96 0.49 0.29 0.26 0.44 0.26 0.20 0.28 0.34 0.29 0.44 0.72 0.38 0.16
1.60 4.07 2.84 1.47 0.50 0.69 0.91 1.05 0.63 0.27 0.55 1.05 0.77 0.08 0.01 0.01 0.00 0.02 0.00 0.01 0.04 0.03 0.05 0.03 0.01 0.03 0.09 0.21 0.18 0.12 0.09 0.05 0.09 0.33 0.89 1.24 0.60 0.40 0.52 0.47 0.42 0.24 0.73 1.03 0.66 0.56 0.72 0.26 0.29
1.11 1.93 2.17 2.05 0.65 0.67 1.23 1.15 1.31 0.90 1.10 0.45 0.28 0.05 0.00 0.01 0.00 0.03 0.03 0.01 0.00 0.04 0.02 0.01 0.01 0.10 0.07 0.09 0.12 0.11 0.10 0.03 0.04 0.11 0.24 0.49 0.81 0.81 1.08 0.89 0.93 0.77 0.44 1.24 0.70 0.44 0.23 0.16 0.20
0.65 1.59 1.32 1.58 0.87 0.78 0.71 0.77 1.46 1.12 2.22 0.78 0.23 0.04 0.00 0.00 0.00 0.04 0.05 0.00 0.04 0.02 0.01 0.00 0.01 0.02 0.06 0.07 0.12 0.06 0.04 0.03 0.01 0.16 0.16 0.46 0.50 0.55 0.44 0.79 0.76 0.70 0.51 0.45 0.32 0.37 0.10 0.17 0.02
0.47 1.09 0.98 1.01 1.10 0.82 0.74 0.63 0.40 0.56 0.78 0.66 0.28 0.03 0.00 0.00 0.00 0.00 0.01 0.00 0.01 0.02 0.00 0.00 0.00 0.01 0.06 0.04 0.03 0.05 0.04 0.02 0.04 0.15 0.56 0.53 0.31 0.56 0.59 0.57 0.48 0.60 0.33 0.27 0.38 0.41 0.10 0.04 0.01
0.62 1.22 1.10 1.12 1.30 0.87 0.97 1.38 0.88 0.68 0.63 0.49 0.26 0.05 0.00 0.00 0.00 0.00 0.00 0.00 0.00 0.00 0.00 0.00 0.00 0.00 0.04 0.11 0.06 0.06 0.05 0.02 0.02 0.07 0.16 0.28 0.42 0.48 0.74 0.61 0.55 0.28 0.33 0.32 0.31 0.23 0.09 0.03 0.05
1.66 2.06 1.88 2.11 1.75 1.34 1.68 2.99 1.60 0.89 0.73 0.27 0.12 0.04 0.00 0.00 0.00 0.00 0.00 0.00 0.00 0.00 0.00 0.00 0.00 0.00 0.00 0.01 0.08 0.04 0.16 0.10 0.05 0.09 0.19 0.30 0.41 0.50 0.68 0.80 0.61 0.34 0.39 0.30 0.30 0.18 0.08 0.03 0.04
1.08 2.04 2.52 2.49 2.31 2.40 2.73 3.73 2.61 0.77 0.55 0.29 0.03 0.01 0.00 0.00 0.00 0.00 0.00 0.00 0.00 0.00 0.00 0.00 0.00 0.00 0.02 0.02 0.06 0.10 0.11 0.18 0.15 0.10 0.22 0.32 0.27 0.40 0.68 0.74 0.71 0.45 0.30 0.31 0.21 0.09 0.04 0.01 0.02
0.42 0.88 1.63 2.07 2.10 2.73 2.33 1.55 1.51 0.75 1.82 0.84 0.20 0.03 0.00 0.00 0.00 0.00 0.00 0.00 0.00 0.00 0.00 0.00 0.00 0.03 0.14 0.28 0.27 0.19 0.13 0.15 0.05 0.04 0.16 0.22 0.32 0.31 0.56 0.47 0.49 0.53 0.29 0.19 0.18 0.08 0.01 0.00 0.01
0.11 0.82 1.53 1.77 2.22 2.68 2.04 1.62 1.65 0.44 1.21 1.32 0.23 0.12 0.04 0.00 0.00 0.00 0.00 0.00 0.00 0.00 0.00 0.00 0.00 0.04 0.14 0.12 0.10 0.03 0.05 0.04 0.04 0.09 0.20 0.31 0.29 0.29 0.42 0.48 0.50 0.63 0.35 0.30 0.10 0.04 0.01 0.00 0.01
0.21 0.88 1.20 1.79 1.89 2.53 4.33 3.06 2.08 0.94 0.69 0.67 0.47 0.23 0.13 0.02 0.01 0.00 0.01 0.00 0.00 0.00 0.00 0.00 0.02 0.06 0.10 0.04 0.04 0.03 0.02 0.02 0.05 0.09 0.16 0.20 0.18 0.32 0.25 0.47 0.42 0.39 0.36 0.28 0.20 0.12 0.03 0.00 0.01
0.19 0.34 0.64 0.99 1.15 1.60 2.80 4.06 2.79 1.18 1.09 1.06 0.80 0.49 0.12 0.02 0.01 0.01 0.00 0.00 0.00 0.00 0.00 0.00 0.02 0.05 0.10 0.09 0.07 0.16 0.21 0.12 0.19 0.27 0.24 0.19 0.17 0.16 0.43 0.47 0.39 0.35 0.32 0.36 0.24 0.10 0.03 0.02 0.02
0.41 0.27 0.33 0.29 0.26 0.31 0.45 1.44 1.48 1.32 1.18 1.72 1.07 0.68 0.15 0.03 0.01 0.02 0.01 0.00 0.00 0.00 0.00 0.00 0.01 0.05 0.08 0.17 0.12 0.30 0.20 0.14 0.13 0.20 0.25 0.24 0.19 0.15 0.26 0.25 0.31 0.29 0.38 0.43 0.26 0.05 0.04 0.03 0.01
0.07 0.12 0.20 0.37 0.26 0.11 0.08 0.33 0.65 0.86 1.16 1.30 1.01 1.04 0.37 0.07 0.03 0.02 0.01 0.00 0.00 0.00 0.00 0.00 0.01 0.03 0.04 0.15 0.34 0.23 0.18 0.26 0.38 0.23 0.43 0.45 0.40 0.28 0.23 0.25 0.26 0.32 0.31 0.32 0.27 0.22 0.10 0.06 0.03
0.02 0.12 0.22 0.23 0.38 0.25 0.03 0.08 0.34 0.57 0.50 0.63 0.47 0.85 1.14 0.54 0.15 0.07 0.04 0.01 0.00 0.00 0.00 0.00 0.00 0.03 0.03 0.07 0.15 0.28 0.32 0.33 0.38 0.64 0.47 0.34 0.32 0.21 0.18 0.23 0.33 0.31 0.21 0.24 0.19 0.26 0.12 0.04 0.04
0.05 0.17 0.18 0.15 0.11 0.06 0.04 0.02 0.10 0.49 0.49 0.40 0.46 0.73 0.95 1.08 0.43 0.18 0.13 0.07 0.04 0.02 0.00 0.00 0.00 0.01 0.01 0.03 0.11 0.18 0.24 0.26 0.49 0.38 0.48 0.68 0.54 0.21 0.15 0.25 0.39 0.25 0.16 0.16 0.17 0.21 0.17 0.08 0.08
0.01 0.01 0.09 0.17 0.14 0.13 0.18 0.24 0.06 0.03 0.05 0.06 0.20 0.28 0.32 0.29 0.62 0.25 0.22 0.22 0.14 0.08 0.04 0.00 0.00 0.00 0.00 0.02 0.09 0.17 0.20 0.19 0.20 0.13 0.39 0.77 0.46 0.26 0.30 0.20 0.16 0.18 0.24 0.09 0.15 0.09 0.06 0.09 0.03
0.01 0.02 0.01 0.02 0.04 0.04 0.13 0.14 0.19 0.09 0.04 0.04 0.04 0.17 0.28 0.31 0.19 0.20 0.28 0.32 0.29 0.07 0.04 0.07 0.02 0.00 0.00 0.00 0.02 0.04 0.11 0.11 0.13 0.25 0.34 0.43 1.01 0.61 0.47 0.32 0.24 0.22 0.16 0.12 0.16 0.07 0.16 0.22 0.11
0.02 0.05 0.00 0.00 0.00 0.03 0.16 0.17 0.24 0.14 0.10 0.05 0.03 0.03 0.13 0.40 0.87 0.68 0.48 0.44 0.41 0.22 0.08 0.12 0.14 0.02 0.02 0.01 0.01 0.02 0.07 0.07 0.07 0.15 0.17 0.67 0.88 0.84 1.19 0.61 0.27 0.24 0.21 0.13 0.12 0.08 0.07 0.15 0.08
0.02 0.01 0.00 0.00 0.00 0.00 0.14 0.42 0.31 0.18 0.13 0.15 0.18 0.13 0.18 0.22 0.77 1.85 1.71 1.28 0.99 0.71 0.27 0.33 0.40 0.32 0.12 0.02 0.01 0.10 0.06 0.08 0.07 0.10 0.10 0.17 0.29 0.45 0.46 0.70 0.56 0.40 0.21 0.20 0.31 0.21 0.16 0.20 0.10
0.02 0.00 0.00 0.00 0.00 0.00 0.02 0.29 0.27 0.56 0.26 0.25 0.26 0.21 0.23 0.25 0.40 1.00 1.91 2.46 2.90 2.35 1.86 1.04 1.10 0.89 0.50 0.27 0.11 0.18 0.14 0.09 0.05 0.12 0.08 0.10 0.20 0.36 0.38 0.34 0.56 0.41 0.25 0.35 0.51 0.25 0.20 0.30 0.20

GFSSGP_prec_precacc_123.txt.gz
Total_Precipitation_Accumulation
0.01 0.06 0.45 1.05 2.03 1.42 1.82 2.82 1.82 1.20 0.42 0.05 0.07 0.06 0.36 0.37 0.57 0.56 0.19 0.20 0.05 0.10 0.34 1.10 1.78 1.38 0.85 0.57 0.43 0.56 0.37 0.24 0.18 0.15 0.21 0.21 0.34 0.45 0.31 0.37 0.52 0.50 0.32 0.25 0.32 0.34 0.53 0.49 0.42
0.01 0.24 1.31 3.57 3.18 2.72 2.15 2.08 1.93 1.12 0.25 0.07 0.04 0.13 0.12 0.06 0.02 0.08 0.19 0.16 0.01 0.02 0.08 0.52 1.36 0.79 0.43 0.40 0.31 0.32 0.17 0.18 0.22 0.25 0.45 0.43 0.47 0.48 0.52 0.55 0.69 0.70 0.73 0.65 0.66 0.55 0.49 0.65 0.64
0.06 1.06 3.80 4.32 3.35 3.61 4.36 2.88 2.06 0.67 0.27 0.11 0.16 0.24 0.09 0.05 0.02 0.04 0.05 0.03 0.04 0.05 0.05 0.30 0.55 0.38 0.25 0.39 0.30 0.25 0.25 0.17 0.23 0.39 0.62 0.61 0.55 0.61 0.55 0.43 0.51 0.41 0.45 0.55 0.56 0.56 0.61 0.80 0.86
0.28 1.85 3.23 3.44 3.91 2.87 2.72 2.54 1.78 0.59 0.44 0.30 0.36 0.21 0.10 0.02 0.01 0.01 0.08 0.13 0.08 0.13 0.12 0.18 0.29 0.27 0.42 0.42 0.38 0.26 0.22 0.26 0.29 0.44 0.60 0.59 0.60 0.48 0.36 0.30 0.35 0.32 0.24 0.23 0.31 0.49 0.58 0.76 0.85
0.52 1.67 4.20 3.79 3.07 2.81 1.55 1.13 1.32 0.88 0.60 0.60 0.29 0.19 0.13 0.05 0.01 0.01 0.04 0.10 0.12 0.12 0.06 0.09 0.53 0.42 0.36 0.43 0.48 0.30 0.28 0.27 0.35 0.57 0.64 0.61 0.49 0.41 0.44 0.37 0.20 0.16 0.16 0.12 0.22 0.39 0.59 0.68 0.65
1.65 2.76 3.29 1.42 1.67 3.39 2.10 1.30 1.25 1.09 1.06 1.03 0.32 0.10 0.15 0.09 0.02 0.04 0.05 0.07 0.09 0.07 0.03 0.07 0.40 0.44 0.39 0.40 0.47 0.30 0.33 0.34 0.66 0.63 0.57 0.64 0.63 0.45 0.33 0.19 0.13 0.11 0.18 0.26 0.16 0.23 0.60 0.56 0.50
0.71 4.74 2.58 1.27 1.34 4.00 3.07 2.06 1.83 0.91 0.67 0.49 0.22 0.08 0.19 0.27 0.17 0.11 0.04 0.07 0.08 0.03 0.02 0.06 0.17 0.37 0.46 0.64 0.52 0.35 0.36 0.37 0.55 0.50 0.55 0.53 0.46 0.45 0.34 0.35 0.23 0.16 0.25 0.30 0.47 0.48 0.51 0.44 0.47
0.70 3.55 4.13 1.48 1.99 2.77 1.36 1.00 1.32 0.81 0.49 0.39 0.19 0.10 0.08 0.09 0.18 0.10 0.08 0.09 0.12 0.04 0.05 0.10 0.23 0.33 0.28 0.36 0.52 0.35 0.16 0.14 0.29 0.35 0.34 0.57 0.53 0.29 0.30 0.45 0.30 0.16 0.25 0.43 0.46 0.44 0.30 0.36 0.32
0.77 3.31 3.00 1.69 1.53 1.61 0.89 0.97 1.62 1.09 0.39 0.22 0.25 0.14 0.01 0.02 0.04 0.03 0.05 0.18 0.17 0.09 0.17 0.19 0.10 0.24 0.40 0.35 0.24 0.23 0.16 0.31 0.51 0.51 0.86 1.17 0.78 0.35 0.28 0.39 0.26 0.20 0.25 0.24 0.38 0.32 0.35 0.40 0.29
2.08 4.12 3.77 1.47 0.79 0.70 0.54 1.10 0.69 0.38 0.33 0.47 0.24 0.09 0.02 0.04 0.01 0.01 0.01 0.04 0.11 0.12 0.11 0.21 0.03 0.04 0.11 0.23 0.20 0.32 0.34 0.53 0.46 0.54 0.85 0.96 0.50 0.32 0.26 0.45 0.26 0.21 0.29 0.34 0.29 0.44 0.72 0.38 0.16
1.62 4.09 2.85 1.50 0.51 0.69 0.91 1.05 0.63 0.27 0.55 1.05 0.77 0.08 0.01 0.01 0.00 0.02 0.00 0.01 0.04 0.03 0.05 0.03 0.01 0.05 0.12 0.22 0.18 0.13 0.10 0.05 0.09 0.33 0.89 1.24 0.60 0.40 0.52 0.47 0.42 0.24 0.73 1.03 0.66 0.56 0.72 0.26 0.29
1.11 1.93 2.17 2.07 0.66 0.67 1.23 1.15 1.31 0.90 1.10 0.45 0.28 0.05 0.00 0.01 0.00 0.03 0.03 0.01 0.00 0.04 0.02 0.01 0.01 0.10 0.07 0.09 0.12 0.11 0.10 0.03 0.04 0.11 0.24 0.49 0.81 0.81 1.08 0.89 0.93 0.77 0.44 1.24 0.70 0.44 0.23 0.16 0.20
0.65 1.59 1.32 1.60 0.87 0.78 0.71 0.77 1.46 1.12 2.22 0.78 0.23 0.04 0.00 0.00 0.00 0.04 0.05 0.00 0.04 0.02 0.01 0.00 0.01 0.02 0.06 0.07 0.12 0.06 0.04 0.03 0.01 0.16 0.16 0.46 0.50 0.55 0.44 0.79 0.76 0.70 0.51 0.45 0.32 0.37 0.10 0.17 0.02
0.51 1.14 0.99 1.01 1.11 0.82 0.74 0.63 0.40 0.56 0.78 0.66 0.28 0.03 0.00 0.00 0.00 0.00 0.01 0.00 0.01 0.02 0.00 0.00 0.00 0.01 0.06 0.04 0.03 0.05 0.04 0.02 0.04 0.15 0.56 0.53 0.31 0.56 0.59 0.57 0.48 0.60 0.33 0.27 0.38 0.41 0.10 0.04 0.01
0.63 1.24 1.12 1.22 1.43 0.90 1.00 1.39 0.88 0.68 0.63 0.49 0.26 0.05 0.00 0.00 0.00 0.00 0.00 0.00 0.00 0.00 0.00 0.00 0.00 0.00 0.04 0.11 0.06 0.06 0.10 0.05 0.02 0.07 0.16 0.28 0.42 0.48 0.74 0.61 0.55 0.28 0.33 0.32 0.31 0.23 0.09 0.03 0.05
1.66 2.06 1.89 2.23 1.98 1.38 1.72 3.02 1.65 0.89 0.73 0.27 0.12 0.04 0.00 0.00 0.00 0.00 0.00 0.00 0.00 0.00 0.00 0.00 0.00 0.00 0.00 0.01 0.08 0.04 0.17 0.10 0.05 0.09 0.19 0.31 0.42 0.50 0.68 0.80 0.61 0.34 0.39 0.30 0.30 0.18 0.08 0.03 0.04
1.08 2.04 2.52 2.54 2.40 2.49 2.78 3.79 2.67 0.80 0.56 0.29 0.03 0.01 0.00 0.00 0.00 0.00 0.00 0.00 0.00 0.00 0.00 0.00 0.00 0.00 0.02 0.02 0.07 0.11 0.11 0.18 0.15 0.10 0.23 0.32 0.27 0.40 0.68 0.74 0.71 0.45 0.30 0.31 0.21 0.09 0.04 0.01 0.02
0.42 0.88 1.63 2.13 2.19 2.92 2.35 1.58 1.55 0.81 1.84 0.84 0.20 0.03 0.00 0.00 0.00 0.00 0.00 0.00 0.00 0.00 0.00 0.00 0.00 0.03 0.14 0.28 0.27 0.19 0.13 0.15 0.05 0.04 0.16 0.23 0.32 0.31 0.57 0.47 0.49 0.53 0.29 0.19 0.18 0.08 0.01 0.00 0.01
0.11 0.83 1.53 1.78 2.33 2.82 2.12 1.65 1.70 0.48 1.22 1.32 0.23 0.12 0.04 0.00 0.00 0.00 0.00 0.00 0.00 0.00 0.00 0.00 0.00 0.04 0.14 0.12 0.10 0.03 0.05 0.04 0.04 0.09 0.20 0.32 0.31 0.29 0.43 0.48 0.50 0.63 0.35 0.30 0.10 0.04 0.01 0.00 0.01
0.21 0.89 1.22 1.79 1.91 2.66 4.42 3.09 2.11 0.97 0.70 0.68 0.47 0.23 0.13 0.02 0.01 0.00 0.01 0.00 0.00 0.00 0.00 0.00 0.02 0.06 0.10 0.04 0.04 0.03 0.02 0.02 0.05 0.10 0.17 0.20 0.18 0.32 0.25 0.47 0.42 0.39 0.36 0.28 0.20 0.12 0.03 0.00 0.01
0.21 0.36 0.65 0.99 1.16 1.63 2.91 4.16 2.85 1.28 1.11 1.06 0.80 0.49 0.12 0.02 0.01 0.01 0.00 0.00 0.00 0.00 0.00 0.00 0.02 0.05 0.10 0.09 0.07 0.16 0.21 0.12 0.20 0.30 0.28 0.20 0.17 0.16 0.43 0.47 0.39 0.35 0.32 0.36 0.24 0.10 0.03 0.02 0.02
0.42 0.27 0.33 0.31 0.26 0.33 0.51 1.52 1.54 1.36 1.18 1.72 1.07 0.68 0.15 0.03 0.01 0.02 0.01 0.00 0.00 0.00 0.00 0.00 0.01 0.05 0.08 0.17 0.12 0.30 0.20 0.16 0.16 0.25 0.29 0.26 0.19 0.15 0.26 0.25 0.31 0.29 0.38 0.43 0.26 0.05 0.04 0.03 0.01
0.08 0.12 0.20 0.38 0.26 0.11 0.10 0.34 0.66 0.88 1.17 1.30 1.01 1.04 0.37 0.07 0.03 0.02 0.01 0.00 0.00 0.00 0.00 0.00 0.01 0.03 0.04 0.15 0.35 0.25 0.19 0.29 0.40 0.23 0.45 0.49 0.42 0.28 0.23 0.27 0.26 0.32 0.31 0.32 0.27 0.22 0.10 0.06 0.03
0.02 0.12 0.22 0.23 0.38 0.25 0.03 0.08 0.34 0.57 0.50 0.63 0.47 0.85 1.14 0.54 0.15 0.07 0.04 0.01 0.00 0.00 0.00 0.00 0.00 0.03 0.03 0.07 0.15 0.28 0.32 0.34 0.38 0.64 0.47 0.35 0.33 0.21 0.18 0.23 0.33 0.33 0.22 0.24 0.19 0.26 0.12 0.04 0.04
0.05 0.17 0.19 0.15 0.12 0.06 0.04 0.02 0.10 0.49 0.49 0.40 0.46 0.73 0.95 1.08 0.43 0.18 0.13 0.07 0.04 0.02 0.00 0.00 0.00 0.01 0.01 0.03 0.11 0.18 0.24 0.26 0.49 0.38 0.48 0.68 0.54 0.21 0.17 0.29 0.42 0.28 0.16 0.16 0.17 0.21 0.17 0.08 0.08
0.01 0.01 0.10 0.18 0.15 0.13 0.19 0.24 0.06 0.03 0.05 0.06 0.20 0.28 0.32 0.29 0.62 0.25 0.22 0.22 0.14 0.08 0.04 0.00 0.00 0.00 0.00 0.02 0.09 0.17 0.20 0.19 0.20 0.13 0.40 0.77 0.46 0.26 0.31 0.21 0.21 0.22 0.26 0.09 0.15 0.09 0.06 0.09 0.03
0.01 0.03 0.03 0.02 0.04 0.04 0.13 0.14 0.19 0.09 0.04 0.04 0.04 0.17 0.28 0.31 0.19 0.20 0.28 0.32 0.29 0.07 0.04 0.07 0.02 0.00 0.00 0.00 0.02 0.04 0.11 0.11 0.13 0.25 0.34 0.44 1.01 0.61 0.47 0.32 0.24 0.22 0.17 0.14 0.16 0.07 0.16 0.22 0.11
0.05 0.10 0.05 0.01 0.00 0.03 0.16 0.17 0.24 0.14 0.10 0.05 0.03 0.03 0.13 0.40 0.87 0.68 0.48 0.44 0.41 0.22 0.08 0.12 0.14 0.02 0.02 0.01 0.01 0.02 0.07 0.07 0.07 0.15 0.17 0.67 0.88 0.84 1.19 0.61 0.27 0.24 0.21 0.13 0.13 0.11 0.08 0.15 0.08
0.03 0.02 0.04 0.00 0.00 0.00 0.14 0.42 0.31 0.18 0.13 0.15 0.18 0.13 0.18 0.22 0.77 1.85 1.71 1.28 0.99 0.71 0.27 0.33 0.40 0.32 0.12 0.02 0.01 0.10 0.06 0.08 0.07 0.10 0.10 0.17 0.29 0.45 0.46 0.70 0.56 0.40 0.21 0.20 0.34 0.28 0.21 0.23 0.12
0.02 0.00 0.03 0.00 0.00 0.00 0.02 0.29 0.27 0.56 0.27 0.25 0.26 0.21 0.23 0.25 0.40 1.00 1.91 2.46 2.90 2.35 1.86 1.04 1.10 0.89 0.50 0.27 0.11 0.18 0.14 0.09 0.05 0.12 0.08 0.10 0.20 0.36 0.38 0.34 0.56 0.41 0.25 0.35 0.55 0.31 0.27 0.36 0.23

GFSSGP_prec_precacc_126.txt.gz
Total_Precipitation_Accumulation
0.01 0.06 0.45 1.05 2.03 1.42 1.82 2.82 1.82 1.20 0.42 0.05 0.07 0.06 0.36 0.38 0.57 0.59 0.19 0.20 0.05 0.10 0.34 1.11 1.85 1.43 0.89 0.70 0.49 0.62 0.38 0.26 0.23 0.18 0.24 0.24 0.35 0.45 0.31 0.37 0.53 0.52 0.33 0.28 0.36 0.41 0.61 0.52 0.45
0.01 0.24 1.31 3.57 3.18 2.72 2.15 2.08 1.93 1.12 0.25 0.07 0.04 0.13 0.12 0.06 0.02 0.08 0.19 0.16 0.01 0.02 0.08 0.53 1.43 0.91 0.59 0.53 0.36 0.36 0.20 0.26 0.30 0.33 0.51 0.47 0.49 0.49 0.53 0.55 0.70 0.71 0.78 0.69 0.72 0.58 0.49 0.66 0.66
0.06 1.06 3.80 4.32 3.35 3.61 4.36 2.88 2.06 0.67 0.27 0.11 0.16 0.24 0.09 0.05 0.02 0.04 0.05 0.03 0.04 0.05 0.05 0.31 0.63 0.53 0.40 0.45 0.33 0.26 0.30 0.25 0.32 0.47 0.67 0.64 0.56 0.62 0.55 0.43 0.52 0.45 0.48 0.59 0.57 0.60 0.62 0.80 0.86
0.28 1.85 3.23 3.44 3.91 2.87 2.72 2.54 1.78 0.59 0.44 0.30 0.36 0.21 0.10 0.02 0.01 0.01 0.08 0.13 0.08 0.14 0.13 0.20 0.33 0.36 0.53 0.44 0.39 0.27 0.28 0.34 0.34 0.49 0.62 0.60 0.61 0.49 0.36 0.30 0.35 0.33 0.25 0.25 0.31 0.49 0.58 0.76 0.85
0.52 1.67 4.20 3.79 3.07 2.81 1.55 1.13 1.32 0.88 0.60 0.60 0.29 0.19 0.13 0.05 0.01 0.01 0.04 0.10 0.12 0.12 0.06 0.09 0.54 0.45 0.45 0.47 0.49 0.32 0.31 0.30 0.36 0.58 0.65 0.62 0.51 0.42 0.44 0.37 0.20 0.16 0.16 0.13 0.22 0.39 0.59 0.68 0.65
1.65 2.76 3.29 1.42 1.67 3.39 2.10 1.30 1.25 1.09 1.06 1.03 0.32 0.10 0.15 0.09 0.02 0.04 0.05 0.07 0.09 0.07 0.03 0.07 0.40 0.45 0.47 0.43 0.51 0.33 0.35 0.35 0.67 0.64 0.57 0.64 0.63 0.46 0.33 0.19 0.13 0.11 0.18 0.26 0.16 0.23 0.60 0.56 0.50
0.71 4.74 2.58 1.27 1.34 4.00 3.07 2.06 1.83 0.91 0.67 0.49 0.22 0.08 0.19 0.27 0.17 0.11 0.04 0.07 0.08 0.03 0.02 0.06 0.17 0.38 0.53 0.73 0.56 0.39 0.41 0.39 0.56 0.51 0.57 0.54 0.46 0.45 0.35 0.35 0.23 0.16 0.25 0.30 0.47 0.48 0.51 0.44 0.47
0.70 3.55 4.13 1.48 1.99 2.77 1.36 1.00 1.32 0.81 0.49 0.39 0.19 0.10 0.08 0.09 0.18 0.10 0.08 0.09 0.12 0.04 0.05 0.10 0.24 0.37 0.42 0.42 0.57 0.40 0.21 0.17 0.31 0.37 0.37 0.57 0.53 0.29 0.30 0.45 0.30 0.16 0.25 0.43 0.46 0.44 0.30 0.36 0.32
0.77 3.32 3.02 1.69 1.53 1.61 0.89 0.97 1.62 1.09 0.39 0.22 0.25 0.14 0.01 0.02 0.04 0.03 0.05 0.18 0.17 0.09 0.17 0.19 0.11 0.25 0.45 0.47 0.31 0.29 0.21 0.33 0.52 0.53 0.88 1.18 0.78 0.35 0.28 0.39 0.26 0.20 0.25 0.24 0.38 0.32 0.35 0.40 0.29
2.08 4.13 3.79 1.47 0.79 0.70 0.54 1.10 0.69 0.38 0.33 0.47 0.24 0.09 0.02 0.04 0.01 0.01 0.01 0.04 0.11 0.12 0.11 0.21 0.03 0.05 0.14 0.33 0.27 0.42 0.36 0.53 0.46 0.54 0.85 0.96 0.50 0.32 0.27 0.45 0.27 0.21 0.29 0.34 0.29 0.44 0.72 0.38 0.16
1.63 4.12 2.85 1.50 0.51 0.69 0.91 1.05 0.63 0.27 0.55 1.05 0.77 0.08 0.01 0.01 0.00 0.02 0.00 0.01 0.04 0.03 0.05 0.03 0.01 0.05 0.12 0.23 0.18 0.13 0.10 0.05 0.09 0.33 0.89 1.24 0.60 0.40 0.52 0.47 0.42 0.24 0.73 1.03 0.66 0.56 0.72 0.26 0.29
1.18 1.96 2.19 2.07 0.66 0.67 1.23 1.15 1.31 0.90 1.10 0.45 0.28 0.05 0.00 0.01 0.00 0.03 0.03 0.01 0.00 0.04 0.02 0.01 0.01 0.10 0.07 0.09 0.12 0.11 0.10 0.03 0.04 0.11 0.24 0.49 0.81 0.81 1.08 0.89 0.93 0.77 0.44 1.24 0.70 0.44 0.23 0.16 0.20
0.71 1.60 1.32 1.60 0.87 0.78 0.71 0.77 1.46 1.12 2.22 0.78 0.23 0.04 0.00 0.00 0.00 0.04 0.05 0.00 0.04 0.02 0.01 0.00 0.01 0.02 0.06 0.07 0.12 0.06 0.04 0.03 0.01 0.16 0.16 0.46 0.50 0.55 0.44 0.79 0.76 0.70 0.51 0.45 0.32 0.37 0.10 0.17 0.02
0.55 1.14 0.99 1.03 1.12 0.82 0.74 0.63 0.40 0.56 0.78 0.66 0.28 0.03 0.00 0.00 0.00 0.00 0.01 0.00 0.01 0.02 0.00 0.00 0.00 0.01 0.06 0.04 0.03 0.05 0.04 0.02 0.04 0.15 0.56 0.53 0.31 0.56 0.59 0.57 0.48 0.60 0.33 0.27 0.38 0.41 0.10 0.04 0.01
0.63 1.36 1.20 1.24 1.46 0.90 1.03 1.48 0.88 0.68 0.63 0.49 0.26 0.05 0.00 0.00 0.00 0.00 0.00 0.00 0.00 0.00 0.00 0.00 0.00 0.00 0.04 0.11 0.06 0.06 0.10 0.05 0.02 0.07 0.16 0.28 0.42 0.48 0.74 0.61 0.55 0.28 0.33 0.32 0.31 0.23 0.09 0.03 0.05
1.66 2.11 1.97 2.25 2.00 1.41 1.81 3.09 1.65 0.89 0.73 0.27 0.12 0.04 0.00 0.00 0.00 0.00 0.00 0.00 0.00 0.00 0.00 0.00 0.00 0.00 0.00 0.01 0.08 0.04 0.17 0.10 0.05 0.09 0.19 0.31 0.42 0.50 0.68 0.80 0.61 0.34 0.39 0.30 0.30 0.18 0.08 0.03 0.04
1.09 2.09 2.57 2.55 2.41 2.57 2.87 3.97 2.69 0.80 0.56 0.29 0.03 0.01 0.00 0.00 0.00 0.00 0.00 0.00 0.00 0.00 0.00 0.00 0.00 0.00 0.02 0.02 0.07 0.11 0.11 0.18 0.15 0.10 0.23 0.32 0.27 0.40 0.68 0.74 0.71 0.45 0.30 0.31 0.21 0.09 0.04 0.01 0.02
0.43 0.91 1.67 2.14 2.20 3.04 2.47 1.72 1.58 0.81 1.84 0.84 0.20 0.03 0.00 0.00 0.00 0.00 0.00 0.00 0.00 0.00 0.00 0.00 0.01 0.03 0.14 0.28 0.27 0.19 0.13 0.15 0.05 0.04 0.16 0.23 0.32 0.31 0.57 0.47 0.49 0.53 0.29 0.19 0.18 0.08 0.01 0.00 0.01
0.11 0.83 1.53 1.79 2.34 2.97 2.33 1.78 1.80 0.49 1.23 1.32 0.23 0.12 0.04 0.00 0.00 0.00 0.00 0.00 0.00 0.00 0.00 0.01 0.04 0.08 0.15 0.12 0.10 0.04 0.05 0.04 0.04 0.09 0.20 0.32 0.32 0.31 0.43 0.48 0.50 0.63 0.35 0.30 0.10 0.04 0.01 0.00 0.01
0.21 0.91 1.26 1.81 1.91 2.78 4.62 3.14 2.17 0.98 0.71 0.68 0.47 0.23 0.13 0.02 0.01 0.00 0.01 0.00 0.00 0.00 0.00 0.00 0.04 0.08 0.12 0.04 0.04 0.04 0.04 0.02 0.05 0.10 0.17 0.20 0.19 0.34 0.26 0.47 0.42 0.39 0.36 0.28 0.20 0.12 0.03 0.00 0.01
0.21 0.36 0.68 1.05 1.16 1.68 3.05 4.21 2.86 1.28 1.12 1.06 0.80 0.49 0.12 0.02 0.01 0.01 0.00 0.00 0.00 0.00 0.00 0.00 0.02 0.09 0.21 0.14 0.07 0.16 0.24 0.17 0.25 0.32 0.29 0.21 0.17 0.16 0.43 0.47 0.39 0.35 0.32 0.36 0.24 0.10 0.03 0.02 0.02
0.42 0.27 0.33 0.35 0.32 0.41 0.60 1.63 1.55 1.38 1.23 1.72 1.07 0.68 0.15 0.03 0.01 0.02 0.01 0.00 0.00 0.00 0.00 0.00 0.01 0.05 0.10 0.21 0.14 0.34 0.21 0.16 0.18 0.26 0.31 0.30 0.21 0.15 0.26 0.25 0.31 0.29 0.38 0.43 0.26 0.05 0.04 0.03 0.01
0.08 0.12 0.20 0.39 0.27 0.13 0.13 0.38 0.68 0.88 1.20 1.30 1.01 1.04 0.37 0.07 0.03 0.02 0.01 0.00 0.00 0.00 0.00 0.00 0.01 0.03 0.04 0.18 0.46 0.31 0.20 0.30 0.40 0.25 0.49 0.51 0.44 0.29 0.23 0.27 0.27 0.32 0.31 0.32 0.27 0.22 0.11 0.06 0.03
0.02 0.12 0.22 0.23 0.38 0.27 0.04 0.10 0.36 0.57 0.51 0.65 0.47 0.85 1.14 0.54 0.15 0.07 0.04 0.01 0.00 0.00 0.00 0.00 0.00 0.03 0.03 0.10 0.20 0.32 0.39 0.38 0.40 0.69 0.49 0.36 0.34 0.21 0.18 0.25 0.38 0.35 0.23 0.24 0.19 0.26 0.12 0.06 0.07
0.05 0.17 0.20 0.20 0.14 0.09 0.04 0.03 0.11 0.49 0.49 0.41 0.46 0.73 0.95 1.08 0.43 0.18 0.13 0.07 0.04 0.02 0.00 0.00 0.00 0.01 0.01 0.03 0.11 0.20 0.28 0.29 0.52 0.43 0.49 0.68 0.54 0.21 0.18 0.34 0.47 0.31 0.21 0.19 0.18 0.25 0.18 0.08 0.09
0.01 0.01 0.11 0.24 0.18 0.15 0.21 0.27 0.08 0.03 0.05 0.06 0.20 0.28 0.32 0.29 0.62 0.25 0.22 0.22 0.14 0.08 0.04 0.00 0.00 0.00 0.00 0.02 0.09 0.17 0.26 0.23 0.21 0.15 0.40 0.78 0.46 0.26 0.31 0.21 0.21 0.22 0.27 0.10 0.17 0.11 0.06 0.09 0.03
0.01 0.03 0.03 0.03 0.04 0.05 0.14 0.14 0.20 0.09 0.04 0.04 0.04 0.17 0.28 0.31 0.19 0.20 0.28 0.32 0.29 0.07 0.04 0.07 0.02 0.00 0.00 0.00 0.02 0.04 0.12 0.12 0.13 0.29 0.38 0.45 1.01 0.61 0.47 0.32 0.25 0.27 0.19 0.17 0.17 0.07 0.16 0.23 0.11
0.05 0.10 0.07 0.02 0.04 0.06 0.16 0.17 0.26 0.14 0.10 0.05 0.03 0.03 0.13 0.40 0.87 0.68 0.48 0.44 0.41 0.22 0.08 0.12 0.14 0.02 0.02 0.01 0.01 0.02 0.07 0.07 0.07 0.21 0.21 0.67 0.88 0.85 1.22 0.61 0.27 0.27 0.23 0.16 0.21 0.12 0.08 0.16 0.08
0.03 0.02 0.04 0.02 0.01 0.01 0.15 0.43 0.31 0.19 0.13 0.15 0.18 0.13 0.18 0.22 0.77 1.85 1.71 1.28 0.99 0.71 0.27 0.33 0.40 0.32 0.12 0.02 0.01 0.10 0.06 0.08 0.07 0.10 0.15 0.17 0.29 0.45 0.46 0.70 0.56 0.41 0.23 0.22 0.42 0.33 0.22 0.24 0.14
0.03 0.00 0.03 0.01 0.03 0.00 0.03 0.29 0.27 0.56 0.27 0.25 0.26 0.21 0.23 0.25 0.40 1.00 1.92 2.46 2.90 2.35 1.86 1.04 1.10 0.89 0.50 0.27 0.11 0.18 0.14 0.09 0.05 0.12 0.08 0.10 0.20 0.36 0.38 0.34 0.56 0.41 0.25 0.37 0.64 0.34 0.28 0.37 0.23

GFSSGP_prec_precacc_129.txt.gz
Total_Precipitation_Accumulation
0.01 0.06 0.45 1.05 2.11 1.42 1.82 2.82 1.82 1.20 0.42 0.06 0.07 0.07 0.37 0.39 0.61 0.63 0.19 0.20 0.05 0.10 0.34 1.11 1.85 1.43 0.89 0.70 0.54 0.63 0.40 0.28 0.25 0.19 0.26 0.25 0.36 0.47 0.34 0.42 0.56 0.53 0.34 0.29 0.39 0.48 0.67 0.56 0.46
0.01 0.24 1.31 3.60 3.23 2.73 2.15 2.08 1.93 1.12 0.25 0.07 0.04 0.13 0.12 0.06 0.02 0.08 0.19 0.16 0.02 0.02 0.08 0.53 1.44 0.93 0.59 0.54 0.39 0.36 0.20 0.27 0.32 0.36 0.51 0.47 0.49 0.50 0.57 0.57 0.70 0.72 0.78 0.69 0.72 0.58 0.50 0.68 0.66
0.06 1.06 3.80 4.35 3.36 3.62 4.36 2.88 2.06 0.67 0.27 0.11 0.16 0.24 0.09 0.05 0.02 0.04 0.05 0.04 0.07 0.09 0.06 0.31 0.65 0.55 0.43 0.48 0.35 0.29 0.32 0.27 0.35 0.50 0.68 0.65 0.57 0.62 0.57 0.45 0.53 0.46 0.48 0.60 0.58 0.60 0.62 0.80 0.86
0.28 1.85 3.23 3.44 3.91 2.87 2.72 2.54 1.78 0.59 0.44 0.30 0.36 0.21 0.10 0.02 0.01 0.01 0.08 0.15 0.11 0.20 0.14 0.20 0.36 0.41 0.55 0.46 0.42 0.36 0.37 0.45 0.38 0.53 0.63 0.62 0.62 0.50 0.37 0.31 0.35 0.34 0.26 0.25 0.32 0.49 0.58 0.76 0.86
0.52 1.67 4.20 3.79 3.07 2.81 1.55 1.13 1.32 0.88 0.60 0.61 0.30 0.19 0.13 0.05 0.01 0.01 0.04 0.11 0.14 0.14 0.06 0.09 0.57 0.51 0.46 0.49 0.54 0.42 0.40 0.36 0.38 0.59 0.66 0.64 0.51 0.42 0.45 0.37 0.20 0.16 0.16 0.13 0.22 0.39 0.59 0.68 0.65
1.65 2.76 3.33 1.42 1.67 3.39 2.10 1.30 1.25 1.09 1.06 1.03 0.33 0.10 0.15 0.09 0.02 0.04 0.05 0.07 0.10 0.07 0.05 0.07 0.40 0.47 0.49 0.47 0.56 0.36 0.37 0.38 0.71 0.66 0.58 0.64 0.64 0.46 0.33 0.19 0.13 0.11 0.18 0.26 0.16 0.23 0.60 0.56 0.50
0.74 4.76 2.58 1.28 1.34 4.00 3.07 2.06 1.84 0.91 0.67 0.49 0.22 0.08 0.19 0.27 0.17 0.11 0.04 0.07 0.08 0.04 0.03 0.06 0.17 0.39 0.55 0.79 0.60 0.41 0.41 0.39 0.56 0.53 0.58 0.55 0.46 0.45 0.35 0.35 0.23 0.16 0.25 0.30 0.47 0.48 0.51 0.44 0.47
0.70 3.56 4.14 1.48 1.99 2.77 1.36 1.00 1.32 0.81 0.49 0.39 0.19 0.10 0.08 0.09 0.18 0.10 0.08 0.09 0.12 0.04 0.05 0.10 0.24 0.37 0.46 0.43 0.65 0.44 0.22 0.17 0.31 0.38 0.37 0.57 0.53 0.29 0.30 0.45 0.30 0.16 0.25 0.43 0.46 0.44 0.30 0.36 0.32
0.77 3.43 3.12 1.69 1.53 1.61 0.89 0.97 1.62 1.09 0.39 0.22 0.25 0.15 0.01 0.02 0.04 0.03 0.05 0.18 0.17 0.09 0.17 0.19 0.11 0.26 0.50 0.54 0.36 0.30 0.21 0.34 0.56 0.53 0.88 1.19 0.78 0.35 0.28 0.39 0.26 0.20 0.25 0.24 0.38 0.32 0.35 0.40 0.29
2.08 4.16 3.91 1.48 0.79 0.70 0.55 1.10 0.69 0.38 0.33 0.47 0.24 0.09 0.02 0.04 0.01 0.01 0.01 0.04 0.11 0.12 0.12 0.24 0.03 0.05 0.14 0.36 0.33 0.44 0.36 0.53 0.46 0.54 0.85 0.96 0.50 0.32 0.27 0.45 0.27 0.21 0.29 0.34 0.29 0.44 0.72 0.38 0.16
1.63 4.18 2.86 1.50 0.51 0.69 0.91 1.05 0.63 0.27 0.55 1.05 0.77 0.08 0.01 0.01 0.00 0.02 0.00 0.01 0.04 0.04 0.06 0.04 0.01 0.05 0.12 0.23 0.19 0.13 0.10 0.05 0.09 0.33 0.89 1.24 0.60 0.40 0.52 0.47 0.42 0.24 0.73 1.03 0.66 0.56 0.72 0.26 0.29
1.22 1.98 2.19 2.07 0.66 0.67 1.24 1.15 1.31 0.90 1.10 0.45 0.28 0.05 0.00 0.01 0.00 0.03 0.03 0.01 0.00 0.04 0.02 0.01 0.01 0.10 0.08 0.09 0.12 0.11 0.10 0.03 0.04 0.11 0.24 0.49 0.81 0.81 1.08 0.89 0.93 0.77 0.44 1.24 0.70 0.44 0.23 0.16 0.20
0.71 1.60 1.32 1.60 0.87 0.78 0.71 0.77 1.46 1.12 2.22 0.78 0.23 0.04 0.00 0.00 0.00 0.04 0.05 0.00 0.04 0.02 0.01 0.00 0.01 0.02 0.06 0.07 0.12 0.06 0.04 0.03 0.01 0.16 0.16 0.46 0.50 0.55 0.44 0.79 0.76 0.70 0.51 0.45 0.32 0.37 0.10 0.17 0.02
0.55 1.14 0.99 1.03 1.12 0.82 0.74 0.63 0.40 0.56 0.78 0.66 0.28 0.03 0.00 0.00 0.00 0.00 0.01 0.00 0.01 0.02 0.00 0.00 0.01 0.01 0.06 0.05 0.03 0.05 0.04 0.02 0.04 0.15 0.56 0.53 0.31 0.56 0.59 0.57 0.48 0.60 0.33 0.27 0.38 0.41 0.10 0.04 0.01
0.63 1.38 1.31 1.30 1.47 0.91 1.06 1.54 0.89 0.68 0.63 0.49 0.26 0.05 0.00 0.00 0.00 0.00 0.00 0.00 0.00 0.00 0.00 0.00 0.00 0.00 0.04 0.11 0.06 0.06 0.10 0.05 0.02 0.08 0.16 0.28 0.42 0.48 0.74 0.61 0.55 0.28 0.33 0.32 0.31 0.23 0.09 0.03 0.05
1.66 2.15 2.11 2.30 2.01 1.41 1.85 3.14 1.66 0.89 0.73 0.27 0.12 0.04 0.00 0.00 0.00 0.00 0.00 0.00 0.00 0.00 0.00 0.00 0.00 0.00 0.00 0.01 0.08 0.04 0.17 0.10 0.05 0.09 0.19 0.31 0.42 0.50 0.68 0.80 0.61 0.34 0.39 0.30 0.30 0.18 0.08 0.03 0.04
1.09 2.14 2.64 2.62 2.41 2.58 2.89 4.01 2.71 0.80 0.56 0.29 0.03 0.01 0.00 0.00 0.00 0.00 0.00 0.00 0.00 0.00 0.00 0.00 0.00 0.00 0.02 0.02 0.07 0.11 0.11 0.18 0.15 0.10 0.23 0.32 0.27 0.40 0.68 0.74 0.71 0.48 0.33 0.31 0.21 0.09 0.04 0.01 0.02
0.45 0.92 1.69 2.20 2.21 3.04 2.49 1.74 1.78 0.81 1.84 0.84 0.20 0.03 0.00 0.00 0.00 0.00 0.00 0.00 0.00 0.00 0.00 0.00 0.01 0.03 0.14 0.28 0.27 0.19 0.13 0.16 0.05 0.04 0.16 0.23 0.32 0.31 0.57 0.47 0.49 0.88 0.40 0.20 0.18 0.08 0.01 0.00 0.01
0.11 0.83 1.56 1.81 2.34 2.97 2.34 1.80 1.90 0.51 1.24 1.33 0.23 0.12 0.04 0.00 0.00 0.00 0.00 0.00 0.00 0.00 0.00 0.01 0.05 0.11 0.18 0.12 0.10 0.04 0.05 0.04 0.04 0.09 0.20 0.32 0.32 0.31 0.43 0.48 0.50 0.69 0.42 0.30 0.10 0.04 0.01 0.00 0.01
0.21 0.91 1.27 1.84 1.91 2.79 4.72 3.26 2.29 1.00 0.72 0.68 0.47 0.23 0.13 0.02 0.01 0.00 0.01 0.00 0.00 0.00 0.00 0.00 0.05 0.09 0.14 0.04 0.04 0.04 0.04 0.02 0.05 0.10 0.17 0.20 0.19 0.34 0.26 0.47 0.42 0.40 0.38 0.28 0.20 0.12 0.03 0.00 0.01
0.21 0.37 0.71 1.08 1.18 1.71 3.15 4.39 3.01 1.35 1.15 1.07 0.81 0.49 0.12 0.02 0.01 0.01 0.00 0.00 0.00 0.00 0.00 0.00 0.02 0.10 0.23 0.16 0.07 0.17 0.25 0.18 0.25 0.32 0.29 0.21 0.17 0.16 0.43 0.47 0.41 0.35 0.32 0.37 0.24 0.10 0.03 0.07 0.02
0.42 0.27 0.33 0.35 0.40 0.56 0.67 1.86 1.68 1.45 1.30 1.76 1.07 0.68 0.15 0.03 0.01 0.02 0.01 0.00 0.00 0.00 0.00 0.00 0.01 0.06 0.10 0.22 0.16 0.34 0.21 0.16 0.18 0.26 0.31 0.30 0.21 0.15 0.26 0.25 0.31 0.29 0.38 0.43 0.26 0.05 0.04 0.03 0.01
0.08 0.12 0.20 0.39 0.27 0.20 0.18 0.57 0.79 0.90 1.26 1.35 1.01 1.04 0.37 0.07 0.03 0.02 0.01 0.00 0.00 0.00 0.00 0.00 0.01 0.03 0.04 0.19 0.49 0.32 0.20 0.31 0.41 0.25 0.49 0.51 0.44 0.29 0.23 0.27 0.27 0.32 0.31 0.33 0.27 0.22 0.11 0.06 0.03
0.02 0.12 0.22 0.23 0.38 0.31 0.09 0.14 0.52 0.59 0.52 0.66 0.47 0.86 1.14 0.54 0.15 0.07 0.04 0.01 0.00 0.00 0.00 0.00 0.00 0.03 0.03 0.12 0.20 0.32 0.39 0.38 0.40 0.70 0.49 0.36 0.34 0.21 0.18 0.25 0.38 0.35 0.23 0.24 0.20 0.26 0.12 0.06 0.07
0.05 0.17 0.20 0.22 0.15 0.12 0.10 0.07 0.17 0.50 0.49 0.41 0.46 0.73 0.95 1.08 0.43 0.18 0.13 0.07 0.04 0.02 0.00 0.00 0.00 0.01 0.01 0.03 0.11 0.20 0.28 0.29 0.52 0.43 0.49 0.68 0.54 0.21 0.18 0.34 0.47 0.31 0.21 0.19 0.18 0.26 0.18 0.08 0.09
0.01 0.01 0.11 0.26 0.19 0.19 0.24 0.31 0.19 0.03 0.05 0.06 0.20 0.28 0.32 0.29 0.62 0.25 0.22 0.22 0.14 0.08 0.04 0.00 0.00 0.00 0.00 0.02 0.09 0.17 0.27 0.24 0.21 0.15 0.40 0.79 0.46 0.27 0.31 0.21 0.21 0.22 0.27 0.10 0.17 0.11 0.06 0.09 0.04
0.01 0.03 0.04 0.03 0.05 0.06 0.20 0.15 0.22 0.09 0.04 0.04 0.04 0.17 0.29 0.31 0.19 0.20 0.28 0.32 0.29 0.07 0.04 0.07 0.02 0.00 0.00 0.00 0.02 0.04 0.12 0.12 0.13 0.29 0.39 0.46 1.01 0.62 0.49 0.33 0.26 0.27 0.19 0.17 0.17 0.07 0.16 0.23 0.11
0.07 0.14 0.07 0.02 0.06 0.08 0.18 0.21 0.31 0.16 0.11 0.05 0.03 0.03 0.13 0.41 0.87 0.68 0.48 0.44 0.41 0.22 0.08 0.12 0.14 0.02 0.02 0.01 0.01 0.02 0.07 0.07 0.07 0.21 0.21 0.67 0.88 0.87 1.27 0.62 0.29 0.27 0.24 0.19 0.23 0.13 0.08 0.18 0.08
0.04 0.03 0.04 0.02 0.02 0.10 0.22 0.46 0.31 0.22 0.14 0.15 0.18 0.13 0.21 0.23 0.78 1.85 1.71 1.28 0.99 0.71 0.27 0.33 0.40 0.32 0.12 0.02 0.01 0.10 0.06 0.08 0.07 0.10 0.15 0.17 0.29 0.45 0.49 0.71 0.56 0.41 0.29 0.30 0.51 0.38 0.22 0.25 0.15
0.17 0.04 0.14 0.02 0.04 0.11 0.14 0.31 0.27 0.56 0.27 0.25 0.26 0.21 0.32 0.34 0.42 1.00 1.92 2.46 2.90 2.35 1.86 1.04 1.10 0.89 0.50 0.27 0.11 0.18 0.14 0.09 0.05 0.12 0.08 0.10 0.20 0.36 0.38 0.35 0.56 0.41 0.25 0.37 0.70 0.39 0.29 0.44 0.25

GFSSGP_prec_precacc_132.txt.gz
Total_Precipitation_Accumulation
0.01 0.07 0.47 1.67 2.80 1.46 1.83 2.82 1.82 1.20 0.43 0.06 0.08 0.08 0.40 0.52 0.67 0.66 0.19 0.20 0.05 0.10 0.34 1.11 1.86 1.43 0.93 0.71 0.54 0.68 0.44 0.30 0.27 0.21 0.29 0.27 0.38 0.49 0.36 0.44 0.58 0.53 0.35 0.29 0.41 0.51 0.69 0.57 0.47
0.02 0.28 1.42 4.28 3.39 2.73 2.15 2.08 1.93 1.12 0.25 0.07 0.06 0.14 0.13 0.06 0.02 0.08 0.19 0.16 0.02 0.03 0.09 0.53 1.44 0.93 0.60 0.54 0.40 0.38 0.22 0.29 0.34 0.39 0.54 0.49 0.50 0.53 0.59 0.57 0.70 0.72 0.79 0.70 0.73 0.60 0.52 0.69 0.67
0.07 1.08 4.26 5.19 3.38 3.62 4.36 2.88 2.06 0.67 0.27 0.12 0.16 0.24 0.09 0.05 0.02 0.04 0.05 0.04 0.08 0.12 0.07 0.31 0.65 0.55 0.43 0.48 0.38 0.30 0.33 0.28 0.37 0.51 0.70 0.68 0.59 0.63 0.58 0.48 0.53 0.47 0.50 0.62 0.59 0.60 0.63 0.80 0.86
0.30 1.86 3.33 3.47 3.91 2.87 2.72 2.54 1.78 0.59 0.44 0.31 0.36 0.21 0.10 0.02 0.01 0.01 0.08 0.17 0.22 0.27 0.14 0.20 0.36 0.41 0.56 0.48 0.47 0.42 0.40 0.47 0.39 0.54 0.64 0.63 0.63 0.50 0.37 0.31 0.35 0.35 0.27 0.28 0.32 0.49 0.58 0.76 0.86
0.52 1.81 4.57 3.81 3.07 2.81 1.55 1.13 1.32 0.91 0.60 0.62 0.30 0.19 0.13 0.05 0.01 0.01 0.04 0.11 0.15 0.16 0.06 0.09 0.57 0.51 0.47 0.53 0.61 0.47 0.43 0.37 0.39 0.60 0.68 0.66 0.52 0.43 0.45 0.38 0.20 0.16 0.16 0.13 0.22 0.39 0.59 0.68 0.65
1.72 3.10 3.65 1.42 1.67 3.39 2.10 1.30 1.26 1.09 1.11 1.04 0.33 0.10 0.15 0.09 0.02 0.05 0.06 0.08 0.12 0.08 0.05 0.07 0.40 0.48 0.51 0.50 0.60 0.39 0.38 0.39 0.72 0.67 0.59 0.64 0.64 0.46 0.33 0.19 0.13 0.11 0.18 0.26 0.16 0.23 0.60 0.56 0.50
1.71 5.37 2.60 1.28 1.34 4.00 3.07 2.06 1.84 0.91 0.67 0.51 0.22 0.08 0.19 0.27 0.17 0.12 0.05 0.10 0.16 0.05 0.03 0.06 0.17 0.39 0.55 0.81 0.61 0.42 0.42 0.39 0.57 0.53 0.58 0.55 0.46 0.45 0.35 0.35 0.23 0.16 0.25 0.30 0.47 0.48 0.51 0.44 0.47
1.20 3.85 4.16 1.49 2.00 2.79 1.36 1.00 1.32 0.82 0.50 0.39 0.19 0.10 0.08 0.09 0.18 0.10 0.10 0.10 0.12 0.05 0.06 0.11 0.24 0.37 0.47 0.43 0.66 0.44 0.22 0.17 0.31 0.38 0.37 0.58 0.53 0.29 0.30 0.45 0.30 0.16 0.25 0.43 0.46 0.44 0.30 0.36 0.32
0.80 4.01 3.31 1.77 1.53 1.61 0.89 0.97 1.62 1.09 0.39 0.23 0.27 0.15 0.01 0.02 0.04 0.05 0.06 0.18 0.17 0.11 0.19 0.29 0.21 0.27 0.53 0.54 0.37 0.31 0.21 0.34 0.56 0.53 0.89 1.22 0.78 0.35 0.28 0.39 0.26 0.20 0.25 0.24 0.38 0.32 0.35 0.40 0.29
2.21 4.51 4.25 1.60 0.84 0.71 0.55 1.10 0.69 0.38 0.33 0.47 0.25 0.10 0.02 0.04 0.01 0.01 0.01 0.04 0.11 0.12 0.35 0.54 0.19 0.07 0.15 0.36 0.33 0.44 0.38 0.54 0.46 0.54 0.93 1.16 0.50 0.32 0.27 0.45 0.27 0.21 0.29 0.34 0.29 0.44 0.72 0.38 0.16
1.73 4.41 2.92 1.51 0.54 0.70 0.91 1.05 0.63 0.27 0.55 1.05 0.79 0.08 0.01 0.01 0.01 0.02 0.00 0.01 0.04 0.05 0.12 0.39 0.27 0.41 0.13 0.23 0.19 0.13 0.10 0.06 0.09 0.33 0.90 1.24 0.62 0.43 0.53 0.47 0.42 0.24 0.73 1.03 0.66 0.56 0.72 0.26 0.29
1.26 1.98 2.19 2.07 0.72 0.68 1.24 1.15 1.31 0.91 1.10 0.45 0.28 0.05 0.00 0.01 0.00 0.03 0.04 0.01 0.01 0.04 0.04 0.04 0.05 0.18 0.09 0.15 0.19 0.11 0.10 0.03 0.04 0.11 0.24 0.50 0.86 0.91 1.10 0.89 0.93 0.77 0.44 1.24 0.70 0.44 0.23 0.16 0.20
0.79 1.60 1.32 1.60 0.87 0.80 0.74 0.78 1.46 1.12 2.22 0.78 0.23 0.04 0.00 0.00 0.00 0.05 0.06 0.00 0.04 0.02 0.01 0.00 0.01 0.06 0.15 0.32 0.27 0.06 0.04 0.03 0.01 0.16 0.44 0.58 0.50 0.55 0.44 0.79 0.77 0.70 0.51 0.45 0.32 0.37 0.10 0.17 0.02
0.71 1.14 0.99 1.03 1.12 0.84 0.85 0.67 0.40 0.56 0.78 0.66 0.28 0.03 0.00 0.00 0.00 0.01 0.01 0.00 0.01 0.02 0.00 0.00 0.01 0.01 0.07 0.05 0.04 0.05 0.06 0.02 0.04 0.15 0.56 0.53 0.31 0.56 0.59 0.57 0.48 0.60 0.33 0.27 0.38 0.41 0.10 0.04 0.01
0.63 1.39 1.31 1.30 1.47 0.92 1.49 1.81 0.90 0.69 0.63 0.49 0.26 0.05 0.00 0.00 0.02 0.00 0.00 0.00 0.00 0.00 0.00 0.00 0.00 0.01 0.05 0.11 0.06 0.08 0.15 0.05 0.02 0.08 0.16 0.28 0.43 0.48 0.74 0.61 0.56 0.28 0.33 0.32 0.31 0.23 0.09 0.03 0.05
1.66 2.17 2.14 2.31 2.01 1.41 1.95 3.34 1.68 0.90 0.73 0.27 0.12 0.04 0.00 0.00 0.00 0.00 0.00 0.00 0.00 0.00 0.00 0.00 0.00 0.00 0.00 0.01 0.08 0.05 0.17 0.10 0.05 0.09 0.19 0.31 0.43 0.50 0.68 0.81 0.62 0.35 0.42 0.32 0.31 0.18 0.08 0.03 0.04
1.12 2.18 2.87 2.69 2.41 2.58 2.91 4.04 2.76 0.84 0.56 0.29 0.03 0.01 0.00 0.00 0.00 0.00 0.00 0.00 0.00 0.00 0.00 0.00 0.00 0.00 0.04 0.02 0.07 0.11 0.11 0.18 0.16 0.10 0.23 0.32 0.27 0.40 0.70 1.08 0.84 0.74 1.01 0.41 0.23 0.09 0.04 0.01 0.02
0.47 0.96 1.86 2.39 2.22 3.04 2.50 1.76 1.93 0.89 1.85 0.85 0.20 0.03 0.00 0.00 0.00 0.00 0.00 0.00 0.00 0.00 0.00 0.00 0.01 0.03 0.14 0.28 0.28 0.19 0.21 0.17 0.05 0.04 0.17 0.24 0.34 0.31 0.62 0.57 0.62 1.51 0.66 0.51 0.23 0.08 0.01 0.00 0.01
0.11 0.84 1.75 1.95 2.34 2.97 2.35 1.82 2.28 0.80 1.29 1.33 0.23 0.12 0.04 0.00 0.00 0.00 0.00 0.00 0.00 0.00 0.00 0.01 0.05 0.11 0.18 0.12 0.10 0.05 0.05 0.04 0.04 0.09 0.21 0.37 0.37 0.31 0.47 0.58 0.64 1.68 1.17 0.51 0.10 0.04 0.01 0.00 0.01
0.21 0.91 1.30 1.89 1.91 2.79 4.72 3.26 2.34 1.23 0.82 0.69 0.47 0.23 0.13 0.02 0.01 0.00 0.01 0.00 0.00 0.00 0.00 0.00 0.06 0.09 0.14 0.04 0.05 0.05 0.05 0.02 0.05 0.10 0.17 0.20 0.19 0.34 0.28 0.54 1.07 1.15 0.61 0.33 0.20 0.13 0.05 0.05 0.04
0.21 0.37 0.72 1.11 1.19 1.71 3.15 4.39 3.02 1.36 1.33 1.23 0.81 0.49 0.12 0.02 0.01 0.01 0.00 0.00 0.00 0.00 0.00 0.00 0.03 0.11 0.23 0.18 0.12 0.20 0.26 0.18 0.25 0.32 0.29 0.21 0.17 0.16 0.47 0.47 0.52 0.53 1.09 0.85 0.25 0.11 0.09 0.63 0.16
0.42 0.28 0.33 0.36 0.41 0.63 0.68 1.87 1.72 1.48 1.46 2.60 1.18 0.68 0.15 0.03 0.01 0.02 0.01 0.00 0.00 0.00 0.00 0.00 0.01 0.07 0.10 0.22 0.18 0.37 0.22 0.16 0.18 0.26 0.31 0.30 0.21 0.15 0.26 0.25 0.31 0.31 0.52 0.57 0.27 0.05 0.06 0.10 0.52
0.08 0.13 0.20 0.39 0.27 0.23 0.20 0.57 0.95 0.99 1.32 1.71 1.29 1.04 0.37 0.07 0.03 0.02 0.01 0.00 0.00 0.00 0.00 0.00 0.01 0.06 0.07 0.21 0.53 0.33 0.21 0.53 0.47 0.26 0.49 0.51 0.44 0.29 0.23 0.27 0.27 0.32 0.32 0.36 0.29 0.24 0.13 0.08 0.10
0.02 0.12 0.22 0.23 0.38 0.32 0.10 0.15 0.62 0.70 0.54 0.71 0.49 0.87 1.14 0.54 0.15 0.07 0.04 0.01 0.00 0.00 0.00 0.00 0.00 0.04 0.07 0.14 0.22 0.35 0.44 0.62 0.47 0.74 0.50 0.36 0.34 0.21 0.18 0.25 0.38 0.36 0.24 0.26 0.22 0.28 0.13 0.06 0.08
0.05 0.17 0.20 0.23 0.15 0.15 0.14 0.13 0.22 0.52 0.50 0.42 0.47 0.73 0.96 1.08 0.43 0.18 0.13 0.07 0.04 0.02 0.00 0.00 0.00 0.02 0.01 0.03 0.12 0.22 0.31 0.34 0.55 0.44 0.49 0.68 0.54 0.21 0.18 0.35 0.48 0.31 0.22 0.19 0.19 0.29 0.19 0.09 0.10
0.01 0.01 0.11 0.33 0.22 0.23 0.28 0.39 0.29 0.05 0.05 0.06 0.23 0.30 0.33 0.29 0.62 0.25 0.22 0.22 0.14 0.08 0.04 0.00 0.00 0.00 0.00 0.02 0.09 0.18 0.28 0.25 0.21 0.15 0.40 0.79 0.47 0.28 0.39 0.28 0.22 0.22 0.27 0.11 0.17 0.11 0.06 0.10 0.13
0.01 0.03 0.04 0.05 0.08 0.06 0.24 0.55 0.35 0.13 0.05 0.04 0.04 0.22 0.32 0.33 0.19 0.20 0.28 0.32 0.29 0.07 0.04 0.07 0.02 0.00 0.00 0.00 0.02 0.05 0.13 0.12 0.13 0.30 0.40 0.48 1.03 0.68 0.72 0.42 0.29 0.28 0.20 0.18 0.18 0.07 0.16 0.24 0.14
0.07 0.15 0.07 0.02 0.07 0.09 0.22 0.51 0.71 0.25 0.51 0.08 0.04 0.04 0.14 0.50 0.88 0.68 0.48 0.44 0.41 0.22 0.08 0.12 0.14 0.02 0.02 0.01 0.01 0.02 0.08 0.07 0.08 0.27 0.31 0.71 0.96 1.14 1.52 0.72 0.31 0.28 0.26 0.21 0.25 0.13 0.10 0.22 0.10
0.05 0.04 0.04 0.02 0.03 0.14 0.33 0.55 0.55 0.44 0.25 0.16 0.18 0.13 0.21 0.26 0.79 1.85 1.71 1.28 0.99 0.71 0.27 0.33 0.40 0.32 0.12 0.02 0.01 0.10 0.06 0.08 0.07 0.14 0.20 0.19 0.34 0.53 0.53 0.75 0.58 0.42 0.31 0.33 0.57 0.43 0.28 0.33 0.21
0.20 0.11 0.15 0.03 0.11 0.22 0.23 0.40 0.30 0.58 0.27 0.25 0.26 0.21 0.36 0.47 0.55 1.04 1.92 2.46 2.90 2.35 1.86 1.04 1.10 0.89 0.50 0.27 0.11 0.18 0.14 0.09 0.05 0.12 0.09 0.11 0.23 0.41 0.41 0.41 0.62 0.44 0.28 0.42 0.75 0.42 0.36 0.57 0.31

GFSSGP_prec_precacc_135.txt.gz
Total_Precipitation_Accumulation
0.01 0.11 0.53 1.94 3.02 1.50 1.83 2.82 1.82 1.20 0.43 0.06 0.08 0.09 0.42 0.58 0.71 0.67 0.20 0.20 0.05 0.10 0.34 1.12 1.88 1.45 0.94 0.72 0.56 0.72 0.47 0.32 0.29 0.23 0.30 0.27 0.39 0.49 0.36 0.45 0.59 0.54 0.37 0.30 0.42 0.52 0.70 0.57 0.47
0.04 0.31 1.51 4.32 3.41 2.74 2.15 2.08 1.93 1.12 0.25 0.08 0.07 0.14 0.13 0.06 0.03 0.08 0.19 0.16 0.02 0.03 0.09 0.53 1.46 0.94 0.62 0.55 0.41 0.40 0.26 0.31 0.36 0.41 0.56 0.50 0.52 0.54 0.59 0.58 0.71 0.76 0.84 0.71 0.73 0.60 0.52 0.69 0.67
0.17 1.24 4.41 5.21 3.39 3.62 4.36 2.88 2.06 0.67 0.27 0.12 0.16 0.24 0.09 0.05 0.02 0.04 0.05 0.04 0.08 0.17 0.09 0.31 0.66 0.56 0.44 0.48 0.38 0.31 0.34 0.30 0.38 0.51 0.72 0.69 0.60 0.65 0.59 0.48 0.53 0.47 0.50 0.62 0.60 0.60 0.63 0.80 0.86
0.47 2.38 4.61 3.59 3.92 2.87 2.72 2.54 1.78 0.59 0.44 0.31 0.36 0.21 0.10 0.02 0.01 0.01 0.08 0.17 0.24 0.29 0.14 0.20 0.36 0.41 0.56 0.48 0.47 0.43 0.43 0.50 0.41 0.54 0.65 0.63 0.63 0.51 0.37 0.31 0.36 0.35 0.27 0.28 0.32 0.49 0.58 0.76 0.86
0.83 2.11 5.28 3.86 3.07 2.81 1.55 1.13 1.32 0.93 0.60 0.62 0.30 0.19 0.13 0.05 0.01 0.01 0.04 0.13 0.17 0.16 0.07 0.09 0.57 0.51 0.47 0.53 0.61 0.49 0.45 0.40 0.40 0.61 0.68 0.66 0.52 0.43 0.45 0.38 0.20 0.16 0.16 0.13 0.22 0.39 0.59 0.68 0.65
2.06 3.38 3.70 1.45 1.67 3.39 2.10 1.30 1.26 1.09 1.11 1.04 0.33 0.10 0.15 0.09 0.02 0.05 0.06 0.11 0.15 0.08 0.05 0.07 0.40 0.48 0.51 0.50 0.60 0.41 0.39 0.39 0.72 0.67 0.59 0.64 0.64 0.46 0.33 0.19 0.13 0.11 0.18 0.26 0.16 0.23 0.60 0.56 0.50
1.98 5.58 2.66 1.30 1.35 4.00 3.07 2.06 1.84 0.91 0.67 0.51 0.22 0.08 0.19 0.27 0.17 0.14 0.07 0.15 0.27 0.06 0.03 0.06 0.17 0.40 0.56 0.81 0.61 0.42 0.42 0.39 0.57 0.53 0.58 0.55 0.46 0.45 0.35 0.35 0.23 0.16 0.25 0.30 0.47 0.48 0.51 0.44 0.47
1.73 3.93 4.24 1.52 2.01 2.79 1.36 1.00 1.32 0.82 0.50 0.39 0.19 0.10 0.08 0.09 0.18 0.12 0.16 0.14 0.19 0.13 0.08 0.11 0.24 0.37 0.47 0.44 0.66 0.44 0.22 0.17 0.32 0.39 0.37 0.58 0.53 0.29 0.30 0.45 0.30 0.16 0.25 0.43 0.46 0.44 0.30 0.36 0.32
1.10 4.07 3.36 1.86 1.56 1.61 0.89 0.97 1.62 1.09 0.39 0.23 0.28 0.15 0.01 0.02 0.04 0.06 0.07 0.23 0.24 0.18 0.30 0.38 0.25 0.27 0.53 0.55 0.37 0.31 0.21 0.35 0.58 0.56 0.94 1.25 0.78 0.35 0.28 0.39 0.26 0.20 0.25 0.24 0.38 0.32 0.35 0.40 0.29
3.23 4.83 4.39 1.80 0.90 0.72 0.55 1.10 0.69 0.38 0.33 0.47 0.25 0.10 0.02 0.04 0.02 0.01 0.01 0.06 0.11 0.13 0.51 0.95 0.64 0.14 0.15 0.36 0.34 0.45 0.39 0.59 0.53 0.61 1.09 1.22 0.51 0.32 0.27 0.45 0.27 0.21 0.29 0.34 0.29 0.44 0.72 0.38 0.16
2.52 4.46 2.95 1.64 0.74 0.71 0.91 1.05 0.63 0.27 0.55 1.05 0.79 0.08 0.01 0.01 0.01 0.02 0.01 0.01 0.06 0.12 0.18 1.04 0.52 0.56 0.14 0.23 0.25 0.17 0.10 0.06 0.10 0.38 0.97 1.25 0.62 0.43 0.53 0.47 0.42 0.24 0.73 1.03 0.66 0.56 0.72 0.26 0.29
1.54 2.05 2.20 2.09 0.81 0.71 1.25 1.15 1.31 0.91 1.10 0.45 0.28 0.05 0.00 0.01 0.01 0.03 0.04 0.01 0.05 0.09 0.15 0.17 0.18 0.40 0.18 0.18 0.30 0.23 0.13 0.04 0.05 0.12 0.25 0.51 0.89 1.03 1.12 0.89 0.93 0.77 0.44 1.24 0.70 0.44 0.23 0.16 0.20
1.15 1.74 1.33 1.60 0.95 0.98 0.74 0.78 1.46 1.13 2.22 0.78 0.23 0.04 0.00 0.00 0.00 0.05 0.06 0.00 0.04 0.02 0.06 0.08 0.09 0.17 0.20 0.41 0.45 0.14 0.09 0.03 0.03 0.16 0.53 0.66 0.55 0.57 0.45 0.79 0.77 0.70 0.51 0.45 0.32 0.37 0.10 0.17 0.02
0.84 1.24 1.00 1.04 1.21 0.89 1.08 0.68 0.40 0.56 0.78 0.66 0.28 0.03 0.00 0.00 0.00 0.02 0.01 0.00 0.01 0.03 0.07 0.01 0.03 0.04 0.13 0.18 0.24 0.08 0.08 0.03 0.04 0.15 0.59 0.57 0.33 0.56 0.60 0.58 0.49 0.61 0.33 0.27 0.38 0.41 0.10 0.04 0.01
0.74 1.41 1.31 1.30 1.51 0.97 1.54 1.88 0.91 0.69 0.63 0.49 0.26 0.05 0.01 0.00 0.02 0.00 0.00 0.00 0.00 0.00 0.00 0.00 0.01 0.04 0.06 0.12 0.07 0.10 0.16 0.05 0.03 0.08 0.16 0.28 0.43 0.48 0.77 0.67 0.59 0.34 0.39 0.33 0.31 0.23 0.09 0.03 0.05
1.96 2.22 2.19 2.32 2.01 1.45 1.95 3.44 1.72 0.90 0.73 0.27 0.12 0.04 0.00 0.00 0.00 0.00 0.00 0.00 0.00 0.00 0.00 0.00 0.00 0.01 0.01 0.01 0.08 0.09 0.19 0.12 0.07 0.09 0.19 0.31 0.44 0.54 0.78 0.93 0.65 0.42 0.44 0.32 0.31 0.18 0.08 0.03 0.04
1.21 2.22 2.88 2.70 2.42 2.58 2.93 4.09 2.85 0.87 0.56 0.29 0.03 0.01 0.00 0.00 0.00 0.00 0.00 0.00 0.00 0.00 0.00 0.00 0.00 0.00 0.04 0.02 0.09 0.13 0.13 0.19 0.21 0.13 0.23 0.32 0.30 0.47 0.86 1.47 0.88 0.75 1.02 0.48 0.27 0.09 0.04 0.01 0.02
0.47 0.96 1.88 2.58 2.26 3.09 2.54 1.83 2.04 0.93 1.86 0.85 0.20 0.03 0.00 0.00 0.00 0.00 0.00 0.00 0.00 0.00 0.00 0.00 0.01 0.03 0.14 0.30 0.29 0.19 0.22 0.20 0.07 0.07 0.20 0.25 0.39 0.37 0.72 0.93 0.65 1.51 0.71 0.60 0.36 0.11 0.07 0.02 0.03
0.11 0.84 1.77 2.42 2.43 3.02 2.40 1.88 2.34 0.84 1.35 1.33 0.23 0.12 0.04 0.00 0.00 0.00 0.00 0.00 0.00 0.00 0.00 0.01 0.05 0.11 0.18 0.12 0.10 0.05 0.06 0.07 0.04 0.11 0.25 0.41 0.41 0.48 0.67 0.68 0.67 1.69 1.36 0.82 0.33 0.35 0.11 0.10 0.04
0.21 0.91 1.31 2.27 1.99 2.80 4.75 3.27 2.36 1.26 0.88 0.71 0.47 0.23 0.13 0.02 0.01 0.00 0.01 0.00 0.00 0.00 0.00 0.00 0.06 0.09 0.14 0.05 0.06 0.06 0.05 0.02 0.06 0.10 0.18 0.21 0.20 0.41 0.30 0.71 1.53 1.19 0.69 0.51 0.43 0.32 0.26 0.23 0.08
0.21 0.37 0.72 1.13 1.20 1.72 3.15 4.40 3.02 1.37 1.36 1.31 0.82 0.49 0.12 0.02 0.01 0.01 0.00 0.00 0.00 0.00 0.00 0.00 0.03 0.11 0.24 0.19 0.12 0.21 0.26 0.19 0.26 0.33 0.29 0.21 0.18 0.17 0.51 0.60 0.58 0.71 1.43 0.91 0.40 0.55 0.23 0.68 0.19
0.42 0.28 0.33 0.36 0.42 0.67 0.70 1.87 1.72 1.48 1.48 2.77 1.26 0.68 0.15 0.03 0.02 0.02 0.01 0.00 0.00 0.00 0.00 0.00 0.01 0.07 0.11 0.24 0.21 0.38 0.22 0.18 0.20 0.27 0.31 0.30 0.21 0.16 0.29 0.28 0.37 0.42 0.55 0.64 0.45 0.27 0.16 0.15 0.55
0.08 0.13 0.20 0.39 0.27 0.23 0.21 0.57 0.95 0.99 1.32 1.74 1.40 1.05 0.37 0.07 0.03 0.02 0.01 0.00 0.00 0.00 0.00 0.00 0.01 0.06 0.07 0.22 0.54 0.34 0.22 0.53 0.47 0.27 0.52 0.52 0.44 0.29 0.24 0.28 0.28 0.35 0.34 0.42 0.31 0.27 0.16 0.12 0.21
0.02 0.12 0.22 0.23 0.38 0.32 0.10 0.15 0.63 0.70 0.54 0.71 0.57 0.88 1.15 0.54 0.15 0.07 0.04 0.01 0.00 0.00 0.00 0.00 0.00 0.04 0.07 0.15 0.23 0.35 0.45 0.62 0.47 0.75 0.52 0.36 0.34 0.21 0.18 0.26 0.39 0.36 0.25 0.28 0.23 0.28 0.15 0.09 0.13
0.05 0.17 0.20 0.23 0.15 0.20 0.20 0.17 0.22 0.52 0.51 0.43 0.50 0.76 0.96 1.08 0.43 0.18 0.13 0.07 0.04 0.02 0.00 0.00 0.00 0.02 0.01 0.04 0.12 0.23 0.31 0.35 0.55 0.44 0.50 0.69 0.55 0.21 0.18 0.36 0.51 0.32 0.23 0.20 0.19 0.29 0.20 0.10 0.11
0.01 0.01 0.11 0.34 0.24 0.26 0.34 0.44 0.31 0.05 0.07 0.11 0.26 0.37 0.36 0.29 0.64 0.26 0.22 0.22 0.14 0.08 0.04 0.00 0.00 0.00 0.00 0.02 0.09 0.18 0.28 0.25 0.21 0.16 0.41 0.80 0.48 0.29 0.43 0.34 0.32 0.26 0.30 0.12 0.18 0.12 0.07 0.11 0.13
0.01 0.03 0.04 0.05 0.09 0.07 0.29 0.58 0.35 0.13 0.06 0.06 0.06 0.28 0.41 0.34 0.27 0.23 0.28 0.32 0.29 0.07 0.04 0.07 0.02 0.00 0.00 0.00 0.02 0.06 0.14 0.12 0.14 0.32 0.41 0.49 1.05 0.71 0.74 0.45 0.33 0.32 0.23 0.19 0.20 0.09 0.18 0.25 0.15
0.07 0.15 0.07 0.02 0.07 0.10 0.28 0.53 0.73 0.30 0.55 0.14 0.06 0.09 0.45 0.57 0.97 0.74 0.48 0.44 0.41 0.22 0.08 0.12 0.14 0.02 0.02 0.01 0.01 0.02 0.08 0.07 0.11 0.30 0.32 0.72 0.99 1.17 1.66 0.76 0.36 0.32 0.32 0.26 0.28 0.20 0.16 0.23 0.11
0.05 0.04 0.04 0.02 0.04 0.21 0.41 0.61 0.61 1.20 0.41 0.20 0.24 0.15 0.42 0.57 0.88 1.89 1.71 1.28 0.99 0.71 0.27 0.33 0.40 0.32 0.12 0.02 0.01 0.10 0.06 0.08 0.09 0.16 0.22 0.22 0.37 0.55 0.56 0.82 0.62 0.45 0.34 0.34 0.57 0.45 0.29 0.34 0.21
0.20 0.11 0.15 0.03 0.14 0.27 0.33 0.47 0.32 1.00 0.52 0.30 0.32 0.24 0.37 0.51 0.57 1.07 1.94 2.47 2.93 2.35 1.86 1.04 1.10 0.89 0.50 0.27 0.11 0.18 0.14 0.09 0.05 0.14 0.10 0.14 0.25 0.41 0.44 0.45 0.65 0.46 0.30 0.42 0.75 0.42 0.36 0.57 0.32

GFSSGP_prec_precacc_138.txt.gz
Total_Precipitation_Accumulation
0.02 0.11 0.53 1.94 3.03 1.51 1.83 2.82 1.82 1.20 0.43 0.07 0.09 0.09 0.45 0.61 0.71 0.67 0.20 0.20 0.05 0.10 0.34 1.14 1.90 1.49 0.95 0.72 0.56 0.72 0.47 0.33 0.30 0.23 0.30 0.28 0.39 0.49 0.36 0.45 0.59 0.55 0.37 0.30 0.42 0.52 0.70 0.57 0.47
0.05 0.31 1.51 4.32 3.41 2.74 2.15 2.08 1.93 1.12 0.26 0.09 0.07 0.14 0.15 0.12 0.03 0.08 0.19 0.16 0.02 0.03 0.11 0.58 1.51 0.98 0.63 0.55 0.42 0.41 0.27 0.33 0.37 0.42 0.57 0.50 0.52 0.54 0.59 0.58 0.72 0.78 0.85 0.71 0.73 0.60 0.52 0.69 0.68
0.18 1.25 4.41 5.21 3.39 3.62 4.36 2.88 2.06 0.67 0.27 0.12 0.16 0.24 0.09 0.05 0.02 0.04 0.05 0.04 0.08 0.17 0.10 0.34 0.68 0.59 0.46 0.51 0.40 0.35 0.37 0.32 0.40 0.54 0.74 0.69 0.60 0.65 0.60 0.48 0.54 0.47 0.51 0.62 0.60 0.60 0.63 0.80 0.87
0.51 2.45 4.69 3.63 3.92 2.87 2.72 2.54 1.78 0.59 0.44 0.31 0.36 0.21 0.10 0.02 0.01 0.01 0.08 0.17 0.25 0.31 0.20 0.24 0.41 0.46 0.58 0.49 0.48 0.44 0.43 0.51 0.43 0.58 0.67 0.64 0.66 0.51 0.39 0.32 0.37 0.35 0.27 0.28 0.32 0.49 0.58 0.76 0.86
0.89 2.14 5.30 3.87 3.07 2.81 1.55 1.13 1.32 0.93 0.60 0.62 0.30 0.19 0.13 0.05 0.01 0.01 0.04 0.13 0.19 0.18 0.11 0.12 0.60 0.53 0.49 0.53 0.62 0.50 0.46 0.40 0.40 0.62 0.69 0.69 0.54 0.44 0.48 0.42 0.21 0.16 0.16 0.13 0.22 0.39 0.59 0.68 0.65
2.09 3.40 3.71 1.46 1.67 3.39 2.10 1.31 1.26 1.09 1.11 1.04 0.33 0.10 0.15 0.09 0.02 0.05 0.07 0.11 0.16 0.08 0.05 0.07 0.41 0.48 0.51 0.50 0.60 0.41 0.40 0.40 0.73 0.68 0.60 0.66 0.65 0.48 0.34 0.19 0.13 0.11 0.18 0.26 0.16 0.23 0.60 0.56 0.50
2.03 5.65 2.77 1.42 1.38 4.00 3.07 2.07 1.84 0.91 0.67 0.51 0.22 0.08 0.19 0.28 0.17 0.14 0.13 0.26 0.29 0.10 0.05 0.07 0.17 0.40 0.56 0.81 0.62 0.42 0.42 0.40 0.57 0.54 0.59 0.56 0.46 0.45 0.35 0.35 0.23 0.16 0.25 0.30 0.47 0.48 0.51 0.44 0.47
1.82 4.11 4.47 1.64 2.07 2.80 1.36 1.00 1.32 0.82 0.50 0.39 0.19 0.10 0.09 0.11 0.18 0.12 0.19 0.19 0.27 0.21 0.17 0.14 0.24 0.37 0.48 0.46 0.66 0.44 0.22 0.17 0.32 0.39 0.38 0.58 0.53 0.29 0.30 0.45 0.30 0.16 0.25 0.43 0.46 0.44 0.30 0.36 0.32
1.36 4.18 4.01 1.95 1.62 1.64 0.89 0.98 1.62 1.09 0.39 0.23 0.28 0.15 0.01 0.02 0.04 0.06 0.08 0.26 0.25 0.24 0.36 0.39 0.25 0.28 0.59 0.60 0.39 0.32 0.21 0.35 0.59 0.56 0.94 1.25 0.78 0.35 0.28 0.39 0.26 0.20 0.25 0.24 0.38 0.32 0.35 0.40 0.29
3.28 4.91 4.55 1.87 0.96 0.75 0.56 1.11 0.69 0.38 0.33 0.47 0.25 0.10 0.02 0.04 0.02 0.01 0.01 0.06 0.11 0.15 0.53 0.95 0.64 0.15 0.18 0.38 0.38 0.49 0.39 0.61 0.54 0.62 1.11 1.22 0.51 0.32 0.27 0.45 0.27 0.21 0.29 0.34 0.29 0.44 0.72 0.38 0.16
2.55 4.47 3.05 1.76 0.91 0.75 0.92 1.06 0.63 0.27 0.55 1.05 0.79 0.08 0.01 0.02 0.01 0.02 0.01 0.01 0.07 0.13 0.18 1.04 0.54 0.58 0.16 0.26 0.29 0.19 0.12 0.07 0.10 0.38 0.98 1.25 0.62 0.43 0.53 0.47 0.42 0.24 0.73 1.03 0.66 0.56 0.72 0.26 0.29
1.74 2.12 2.20 2.12 0.96 0.81 1.32 1.17 1.32 0.91 1.10 0.45 0.28 0.05 0.00 0.01 0.01 0.03 0.04 0.01 0.05 0.10 0.16 0.17 0.22 0.41 0.19 0.22 0.30 0.25 0.13 0.05 0.05 0.14 0.26 0.51 0.89 1.03 1.12 0.89 0.93 0.77 0.45 1.26 0.71 0.44 0.23 0.16 0.20
1.19 1.89 1.40 1.62 1.02 1.09 0.80 0.79 1.46 1.13 2.22 0.78 0.23 0.04 0.00 0.00 0.00 0.05 0.07 0.03 0.05 0.05 0.07 0.08 0.10 0.19 0.21 0.45 0.46 0.14 0.12 0.08 0.05 0.19 0.53 0.66 0.55 0.57 0.45 0.80 0.78 0.71 0.53 0.47 0.33 0.38 0.10 0.17 0.02
0.87 1.39 1.02 1.09 1.29 0.92 1.10 0.68 0.40 0.56 0.78 0.66 0.28 0.03 0.01 0.02 0.01 0.03 0.05 0.04 0.02 0.03 0.07 0.02 0.03 0.06 0.13 0.21 0.26 0.08 0.08 0.03 0.07 0.16 0.62 0.59 0.34 0.58 0.64 0.61 0.52 0.64 0.37 0.28 0.38 0.42 0.10 0.04 0.01
0.77 1.50 1.35 1.33 1.58 1.01 1.55 1.90 0.92 0.69 0.63 0.49 0.26 0.05 0.01 0.01 0.02 0.00 0.01 0.02 0.00 0.00 0.01 0.00 0.02 0.05 0.07 0.12 0.10 0.10 0.18 0.06 0.04 0.08 0.19 0.29 0.43 0.49 0.79 0.68 0.60 0.37 0.46 0.38 0.32 0.24 0.09 0.03 0.05
2.26 2.39 2.25 2.33 2.03 1.46 1.96 3.52 1.74 0.90 0.73 0.27 0.12 0.05 0.00 0.01 0.00 0.00 0.01 0.00 0.00 0.00 0.00 0.01 0.01 0.01 0.03 0.02 0.09 0.10 0.20 0.13 0.09 0.10 0.19 0.32 0.44 0.55 0.78 0.94 0.65 0.43 0.45 0.33 0.31 0.18 0.08 0.03 0.04
1.31 2.30 2.91 2.71 2.42 2.58 2.95 4.11 2.88 0.91 0.57 0.29 0.03 0.01 0.00 0.00 0.00 0.00 0.00 0.00 0.00 0.00 0.00 0.00 0.00 0.00 0.04 0.02 0.12 0.14 0.16 0.22 0.22 0.13 0.23 0.35 0.30 0.47 0.87 1.48 0.88 0.75 1.02 0.48 0.28 0.10 0.04 0.01 0.02
0.49 0.97 1.88 2.58 2.26 3.09 2.54 1.84 2.05 0.94 1.86 0.85 0.20 0.03 0.00 0.00 0.00 0.00 0.00 0.00 0.00 0.00 0.00 0.00 0.01 0.03 0.14 0.30 0.37 0.20 0.27 0.23 0.07 0.07 0.22 0.27 0.40 0.37 0.72 0.93 0.65 1.51 0.71 0.60 0.37 0.12 0.09 0.03 0.04
0.11 0.84 1.77 2.42 2.44 3.04 2.42 1.89 2.34 0.85 1.35 1.34 0.23 0.12 0.04 0.00 0.00 0.00 0.00 0.00 0.00 0.00 0.00 0.01 0.05 0.11 0.18 0.13 0.12 0.06 0.06 0.07 0.04 0.11 0.25 0.42 0.43 0.51 0.67 0.68 0.67 1.69 1.36 0.84 0.36 0.44 0.13 0.12 0.06
0.21 0.91 1.31 2.27 1.99 2.82 4.78 3.28 2.38 1.26 0.88 0.72 0.47 0.23 0.13 0.02 0.01 0.00 0.01 0.00 0.00 0.00 0.00 0.00 0.06 0.09 0.14 0.05 0.06 0.06 0.05 0.04 0.06 0.11 0.18 0.23 0.24 0.44 0.30 0.71 1.53 1.19 0.70 0.52 0.45 0.37 0.27 0.24 0.09
0.21 0.37 0.72 1.13 1.20 1.73 3.19 4.40 3.02 1.37 1.36 1.31 0.82 0.49 0.12 0.02 0.01 0.01 0.00 0.00 0.00 0.00 0.00 0.00 0.03 0.11 0.24 0.19 0.13 0.22 0.27 0.22 0.29 0.35 0.30 0.23 0.21 0.18 0.51 0.60 0.58 0.71 1.43 0.91 0.40 0.55 0.23 0.68 0.20
0.42 0.28 0.33 0.36 0.43 0.67 0.70 1.87 1.72 1.48 1.48 2.77 1.26 0.68 0.15 0.03 0.02 0.02 0.01 0.00 0.00 0.00 0.00 0.00 0.01 0.07 0.11 0.25 0.21 0.39 0.22 0.19 0.21 0.27 0.31 0.30 0.23 0.17 0.30 0.29 0.37 0.42 0.56 0.64 0.45 0.27 0.16 0.15 0.55
0.08 0.13 0.20 0.39 0.27 0.24 0.22 0.57 0.95 0.99 1.32 1.74 1.40 1.05 0.37 0.07 0.03 0.02 0.01 0.00 0.00 0.00 0.00 0.00 0.01 0.06 0.07 0.23 0.54 0.34 0.22 0.53 0.49 0.28 0.52 0.52 0.45 0.29 0.25 0.29 0.28 0.35 0.34 0.42 0.32 0.30 0.22 0.13 0.21
0.02 0.12 0.22 0.23 0.39 0.33 0.10 0.16 0.63 0.70 0.54 0.71 0.57 0.88 1.15 0.54 0.15 0.07 0.04 0.01 0.00 0.00 0.00 0.00 0.00 0.04 0.07 0.15 0.23 0.35 0.45 0.62 0.47 0.76 0.52 0.37 0.34 0.21 0.20 0.28 0.39 0.36 0.25 0.28 0.23 0.29 0.17 0.10 0.13
0.05 0.17 0.20 0.23 0.15 0.21 0.21 0.19 0.25 0.52 0.51 0.43 0.50 0.76 0.96 1.08 0.44 0.19 0.13 0.07 0.04 0.02 0.00 0.00 0.00 0.02 0.01 0.04 0.12 0.23 0.31 0.35 0.55 0.45 0.50 0.70 0.55 0.21 0.19 0.36 0.51 0.32 0.23 0.20 0.19 0.29 0.20 0.10 0.12
0.01 0.01 0.11 0.34 0.24 0.26 0.34 0.45 0.31 0.06 0.07 0.11 0.26 0.37 0.37 0.31 0.65 0.27 0.22 0.22 0.14 0.08 0.04 0.00 0.00 0.00 0.00 0.02 0.09 0.18 0.28 0.25 0.22 0.16 0.42 0.80 0.48 0.29 0.44 0.35 0.32 0.27 0.30 0.12 0.18 0.12 0.08 0.12 0.14
0.01 0.03 0.04 0.05 0.09 0.07 0.29 0.59 0.35 0.13 0.06 0.07 0.08 0.30 0.42 0.34 0.28 0.24 0.29 0.32 0.29 0.07 0.04 0.07 0.02 0.00 0.00 0.00 0.02 0.06 0.14 0.12 0.14 0.32 0.41 0.49 1.05 0.71 0.76 0.47 0.34 0.32 0.23 0.19 0.22 0.09 0.18 0.25 0.16
0.07 0.15 0.07 0.02 0.07 0.10 0.28 0.54 0.76 0.30 0.56 0.21 0.18 0.14 0.47 0.60 0.99 0.78 0.51 0.45 0.41 0.22 0.08 0.12 0.14 0.02 0.02 0.01 0.01 0.02 0.08 0.07 0.11 0.31 0.32 0.72 0.99 1.17 1.66 0.76 0.36 0.32 0.32 0.26 0.29 0.20 0.16 0.23 0.11
0.05 0.04 0.04 0.02 0.04 0.21 0.41 0.62 0.63 1.20 0.41 0.22 0.34 0.26 0.46 0.62 0.92 1.96 1.71 1.28 1.00 0.71 0.27 0.33 0.40 0.32 0.12 0.02 0.01 0.10 0.06 0.08 0.09 0.16 0.22 0.22 0.37 0.55 0.56 0.82 0.62 0.45 0.34 0.34 0.57 0.45 0.30 0.34 0.21
0.20 0.11 0.15 0.03 0.14 0.27 0.33 0.47 0.32 1.00 0.54 0.30 0.37 0.36 0.47 0.62 0.63 1.19 1.98 2.48 2.93 2.36 1.87 1.04 1.10 0.89 0.50 0.27 0.11 0.18 0.14 0.09 0.05 0.14 0.10 0.14 0.25 0.41 0.44 0.45 0.65 0.46 0.30 0.42 0.75 0.42 0.36 0.57 0.32

GFSSGP_prec_precacc_144.txt.gz
Total_Precipitation_Accumulation
0.02 0.11 0.53 1.94 3.03 1.52 1.83 2.82 1.82 1.21 0.43 0.10 0.10 0.14 0.56 0.68 0.72 0.67 0.20 0.20 0.05 0.10 0.34 1.15 1.91 1.52 1.01 0.85 0.70 0.87 0.62 0.46 0.45 0.36 0.33 0.30 0.41 0.53 0.38 0.48 0.65 0.71 0.42 0.31 0.43 0.53 0.70 0.58 0.47
0.05 0.31 1.51 4.32 3.41 2.74 2.16 2.08 1.93 1.12 0.27 0.13 0.08 0.18 0.29 0.21 0.04 0.08 0.19 0.16 0.02 0.03 0.16 0.64 1.64 1.14 0.80 0.74 0.57 0.59 0.45 0.54 0.53 0.51 0.59 0.51 0.55 0.56 0.64 0.65 0.78 0.91 0.95 0.84 0.75 0.61 0.54 0.73 0.75
0.19 1.25 4.41 5.21 3.39 3.62 4.36 2.88 2.06 0.67 0.27 0.12 0.16 0.25 0.09 0.05 0.02 0.04 0.05 0.04 0.08 0.17 0.12 0.39 0.84 0.72 0.61 0.69 0.55 0.55 0.61 0.52 0.47 0.58 0.76 0.73 0.64 0.71 0.77 0.64 0.66 0.62 0.62 0.70 0.62 0.63 0.66 0.88 0.97
0.51 2.45 4.69 3.63 3.92 2.87 2.72 2.54 1.78 0.59 0.44 0.31 0.36 0.21 0.10 0.02 0.01 0.01 0.08 0.17 0.25 0.31 0.24 0.37 0.51 0.60 0.71 0.59 0.56 0.56 0.77 0.75 0.53 0.62 0.69 0.68 0.80 0.68 0.57 0.48 0.47 0.39 0.29 0.28 0.33 0.55 0.69 0.87 0.94
0.89 2.14 5.30 3.87 3.07 2.81 1.55 1.13 1.32 0.93 0.60 0.62 0.30 0.19 0.13 0.05 0.01 0.01 0.04 0.13 0.19 0.18 0.14 0.25 0.72 0.64 0.54 0.63 0.71 0.58 0.66 0.59 0.50 0.69 0.79 0.88 0.69 0.53 0.53 0.45 0.23 0.16 0.16 0.13 0.23 0.42 0.64 0.73 0.67
2.09 3.40 3.71 1.47 1.67 3.39 2.10 1.31 1.26 1.09 1.11 1.04 0.33 0.10 0.15 0.09 0.02 0.05 0.07 0.11 0.16 0.08 0.10 0.30 0.54 0.56 0.60 0.62 0.72 0.47 0.50 0.49 0.83 0.76 0.73 0.84 0.87 0.62 0.41 0.22 0.13 0.11 0.18 0.26 0.16 0.23 0.60 0.56 0.50
2.03 5.66 2.80 1.47 1.39 4.00 3.07 2.07 1.84 0.91 0.67 0.51 0.22 0.08 0.19 0.28 0.17 0.14 0.13 0.26 0.29 0.12 0.14 0.20 0.38 0.52 0.63 0.86 0.67 0.47 0.46 0.42 0.61 0.59 0.71 0.65 0.54 0.46 0.35 0.35 0.23 0.16 0.25 0.30 0.47 0.48 0.51 0.45 0.48
1.82 4.15 4.71 1.79 2.16 2.85 1.36 1.00 1.32 0.82 0.50 0.39 0.19 0.10 0.09 0.11 0.18 0.12 0.19 0.19 0.27 0.24 0.27 0.28 0.38 0.56 0.66 0.54 0.68 0.48 0.26 0.19 0.32 0.41 0.40 0.59 0.54 0.29 0.30 0.45 0.30 0.16 0.25 0.43 0.46 0.44 0.30 0.38 0.34
1.36 4.27 4.38 2.07 1.81 1.81 0.92 0.98 1.62 1.09 0.39 0.23 0.28 0.15 0.01 0.02 0.04 0.06 0.08 0.26 0.25 0.24 0.37 0.45 0.30 0.31 0.63 0.63 0.40 0.35 0.24 0.35 0.59 0.57 0.94 1.25 0.78 0.35 0.28 0.39 0.26 0.20 0.25 0.24 0.38 0.32 0.35 0.40 0.29
3.28 4.94 4.75 1.91 1.04 0.94 0.62 1.11 0.69 0.38 0.33 0.47 0.25 0.10 0.02 0.04 0.02 0.02 0.04 0.06 0.11 0.15 0.54 0.96 0.64 0.15 0.19 0.38 0.42 0.50 0.39 0.62 0.56 0.62 1.11 1.22 0.51 0.32 0.27 0.45 0.27 0.21 0.29 0.34 0.29 0.44 0.72 0.38 0.16
2.55 4.49 3.12 1.79 0.95 0.80 0.96 1.09 0.65 0.28 0.56 1.05 0.79 0.08 0.01 0.02 0.02 0.03 0.05 0.06 0.07 0.13 0.21 1.04 0.54 0.58 0.16 0.26 0.29 0.19 0.14 0.08 0.10 0.38 0.98 1.25 0.62 0.43 0.53 0.47 0.42 0.24 0.73 1.03 0.66 0.56 0.72 0.26 0.29
1.74 2.13 2.21 2.16 1.05 0.86 1.40 1.18 1.33 0.92 1.11 0.45 0.28 0.05 0.00 0.01 0.02 0.04 0.04 0.01 0.05 0.11 0.18 0.18 0.22 0.41 0.19 0.22 0.30 0.26 0.14 0.05 0.05 0.14 0.26 0.51 0.89 1.03 1.12 0.89 0.93 0.77 0.45 1.26 0.71 0.44 0.23 0.16 0.20
1.19 1.90 1.42 1.64 1.16 1.17 0.89 0.88 1.48 1.14 2.23 0.78 0.23 0.04 0.00 0.00 0.01 0.07 0.07 0.03 0.05 0.06 0.07 0.08 0.10 0.19 0.21 0.45 0.46 0.14 0.12 0.08 0.05 0.19 0.53 0.66 0.55 0.57 0.45 0.80 0.78 0.71 0.53 0.47 0.33 0.38 0.10 0.17 0.02
0.88 1.48 1.11 1.16 1.41 1.03 1.27 0.80 0.48 0.56 0.78 0.66 0.28 0.03 0.02 0.02 0.01 0.04 0.06 0.06 0.02 0.04 0.07 0.02 0.03 0.06 0.13 0.21 0.26 0.08 0.08 0.03 0.07 0.16 0.63 0.61 0.35 0.58 0.64 0.61 0.52 0.64 0.37 0.28 0.38 0.42 0.10 0.04 0.01
0.83 1.68 1.56 1.42 1.68 1.16 1.62 2.02 0.94 0.69 0.63 0.49 0.26 0.05 0.03 0.01 0.02 0.01 0.02 0.04 0.02 0.00 0.01 0.00 0.02 0.05 0.07 0.12 0.10 0.10 0.18 0.06 0.04 0.08 0.24 0.31 0.44 0.49 0.79 0.68 0.60 0.37 0.46 0.38 0.32 0.24 0.09 0.03 0.05
2.29 2.44 2.36 2.38 2.03 1.46 2.04 3.79 1.80 0.92 0.73 0.27 0.12 0.05 0.01 0.01 0.00 0.00 0.02 0.04 0.02 0.00 0.03 0.01 0.01 0.01 0.03 0.02 0.09 0.10 0.20 0.13 0.09 0.10 0.20 0.33 0.45 0.55 0.78 0.94 0.65 0.43 0.45 0.33 0.31 0.18 0.08 0.03 0.04
1.33 2.33 2.92 2.76 2.42 2.59 2.97 4.45 3.12 0.96 0.58 0.29 0.03 0.01 0.00 0.00 0.00 0.00 0.02 0.00 0.00 0.01 0.03 0.00 0.00 0.00 0.05 0.03 0.12 0.16 0.16 0.22 0.22 0.14 0.23 0.35 0.30 0.48 0.88 1.48 0.88 0.75 1.02 0.48 0.28 0.10 0.04 0.01 0.02
0.50 0.98 1.88 2.58 2.26 3.10 2.55 1.86 2.07 0.96 1.89 0.85 0.20 0.03 0.00 0.00 0.00 0.00 0.02 0.03 0.01 0.01 0.01 0.00 0.01 0.03 0.15 0.31 0.38 0.21 0.28 0.25 0.07 0.07 0.22 0.27 0.40 0.37 0.72 0.93 0.65 1.51 0.71 0.60 0.37 0.12 0.09 0.03 0.04
0.11 0.84 1.77 2.42 2.44 3.07 2.43 1.89 2.35 0.87 1.37 1.34 0.23 0.12 0.04 0.00 0.00 0.00 0.01 0.03 0.01 0.02 0.00 0.01 0.05 0.11 0.18 0.13 0.13 0.07 0.08 0.09 0.05 0.11 0.26 0.42 0.43 0.51 0.67 0.68 0.67 1.69 1.36 0.84 0.36 0.44 0.13 0.12 0.06
0.21 0.91 1.31 2.27 1.99 2.82 4.78 3.28 2.38 1.29 0.93 0.80 0.49 0.23 0.13 0.03 0.01 0.00 0.01 0.00 0.00 0.01 0.00 0.00 0.06 0.09 0.14 0.05 0.06 0.06 0.05 0.04 0.06 0.11 0.20 0.23 0.24 0.45 0.30 0.71 1.53 1.19 0.70 0.52 0.45 0.37 0.27 0.24 0.09
0.21 0.37 0.72 1.13 1.20 1.74 3.27 4.42 3.02 1.37 1.37 1.35 0.85 0.52 0.13 0.05 0.01 0.01 0.00 0.00 0.00 0.00 0.00 0.00 0.03 0.11 0.24 0.20 0.13 0.22 0.29 0.23 0.30 0.36 0.30 0.23 0.21 0.18 0.51 0.60 0.58 0.71 1.43 0.91 0.40 0.55 0.23 0.68 0.20
0.42 0.28 0.33 0.36 0.43 0.68 0.76 1.87 1.72 1.49 1.49 2.78 1.27 0.75 0.18 0.06 0.02 0.02 0.01 0.00 0.00 0.00 0.00 0.00 0.01 0.07 0.11 0.25 0.21 0.39 0.22 0.19 0.21 0.27 0.31 0.30 0.23 0.18 0.30 0.29 0.37 0.42 0.56 0.65 0.45 0.27 0.16 0.15 0.55
0.08 0.13 0.20 0.39 0.28 0.25 0.24 0.58 0.95 0.99 1.32 1.76 1.42 1.08 0.41 0.08 0.03 0.02 0.01 0.00 0.00 0.00 0.00 0.00 0.01 0.06 0.07 0.23 0.54 0.34 0.22 0.53 0.49 0.28 0.53 0.52 0.45 0.30 0.28 0.30 0.28 0.35 0.35 0.43 0.32 0.30 0.22 0.13 0.21
0.02 0.12 0.22 0.26 0.42 0.33 0.10 0.17 0.63 0.71 0.54 0.72 0.59 0.90 1.16 0.54 0.17 0.07 0.06 0.01 0.00 0.00 0.00 0.00 0.00 0.04 0.07 0.15 0.23 0.35 0.45 0.62 0.47 0.76 0.52 0.37 0.34 0.22 0.24 0.31 0.42 0.39 0.26 0.28 0.23 0.29 0.17 0.10 0.13
0.05 0.17 0.20 0.23 0.15 0.21 0.21 0.20 0.26 0.53 0.51 0.43 0.50 0.77 0.98 1.16 0.53 0.26 0.13 0.07 0.04 0.02 0.00 0.00 0.00 0.02 0.01 0.04 0.12 0.23 0.31 0.35 0.55 0.45 0.50 0.70 0.55 0.21 0.19 0.37 0.52 0.33 0.23 0.20 0.19 0.29 0.20 0.10 0.12
0.01 0.01 0.11 0.34 0.24 0.26 0.34 0.45 0.31 0.06 0.07 0.12 0.26 0.37 0.38 0.35 0.76 0.35 0.24 0.22 0.15 0.08 0.04 0.00 0.00 0.00 0.00 0.02 0.09 0.18 0.28 0.25 0.22 0.16 0.42 0.80 0.48 0.29 0.44 0.35 0.32 0.27 0.31 0.12 0.18 0.12 0.08 0.12 0.14
0.01 0.03 0.04 0.05 0.09 0.07 0.29 0.59 0.35 0.13 0.06 0.07 0.09 0.31 0.43 0.35 0.28 0.28 0.33 0.34 0.30 0.07 0.04 0.07 0.02 0.00 0.00 0.00 0.02 0.06 0.14 0.12 0.14 0.32 0.41 0.49 1.05 0.71 0.76 0.49 0.35 0.32 0.26 0.20 0.22 0.09 0.18 0.25 0.16
0.07 0.15 0.07 0.02 0.07 0.10 0.28 0.54 0.76 0.30 0.56 0.21 0.19 0.18 0.51 0.61 0.99 0.80 0.54 0.48 0.41 0.22 0.08 0.12 0.14 0.02 0.02 0.01 0.01 0.02 0.08 0.07 0.11 0.31 0.32 0.72 0.99 1.17 1.67 0.76 0.37 0.32 0.32 0.26 0.30 0.27 0.17 0.23 0.11
0.05 0.04 0.04 0.02 0.04 0.21 0.41 0.62 0.63 1.20 0.41 0.22 0.34 0.28 0.49 0.64 0.94 2.01 1.76 1.31 1.03 0.72 0.28 0.33 0.40 0.32 0.12 0.02 0.01 0.10 0.06 0.08 0.09 0.16 0.22 0.22 0.37 0.55 0.57 0.83 0.62 0.45 0.34 0.34 0.57 0.47 0.30 0.34 0.21
0.20 0.11 0.15 0.03 0.14 0.27 0.33 0.47 0.32 1.00 0.54 0.30 0.37 0.40 0.50 0.65 0.69 1.25 2.04 2.49 2.95 2.37 1.87 1.04 1.10 0.89 0.50 0.27 0.11 0.18 0.14 0.09 0.05 0.14 0.10 0.14 0.25 0.41 0.44 0.45 0.65 0.46 0.30 0.42 0.76 0.42 0.36 0.57 0.32

GFSSGP_prec_precacc_147.txt.gz
Total_Precipitation_Accumulation
0.02 0.11 0.53 1.94 3.03 1.52 1.83 2.82 1.82 1.21 0.43 0.10 0.10 0.14 0.56 0.68 0.72 0.67 0.20 0.20 0.05 0.10 0.34 1.15 1.91 1.52 1.02 0.89 0.74 0.91 0.68 0.60 0.70 0.50 0.37 0.34 0.43 0.54 0.39 0.48 0.67 0.72 0.43 0.31 0.43 0.53 0.70 0.58 0.47
0.05 0.31 1.51 4.32 3.41 2.74 2.16 2.08 1.93 1.12 0.27 0.13 0.08 0.18 0.29 0.21 0.04 0.08 0.19 0.16 0.02 0.03 0.16 0.64 1.64 1.14 0.80 0.74 0.57 0.59 0.47 0.69 0.72 0.71 0.68 0.58 0.58 0.59 0.67 0.68 0.82 0.94 0.99 0.86 0.76 0.62 0.55 0.74 0.77
0.19 1.25 4.41 5.21 3.39 3.62 4.37 2.88 2.06 0.67 0.27 0.12 0.16 0.25 0.09 0.05 0.02 0.04 0.05 0.04 0.08 0.17 0.12 0.39 0.84 0.72 0.61 0.69 0.55 0.55 0.61 0.58 0.68 0.79 0.85 0.79 0.74 0.81 0.90 0.69 0.69 0.66 0.65 0.76 0.66 0.69 0.69 0.91 1.00
0.51 2.45 4.69 3.63 3.92 2.87 2.72 2.54 1.78 0.59 0.44 0.31 0.36 0.21 0.10 0.02 0.01 0.01 0.08 0.17 0.25 0.31 0.25 0.40 0.52 0.61 0.71 0.60 0.58 0.57 0.79 0.83 0.77 0.82 0.78 0.76 0.93 0.84 0.73 0.56 0.51 0.40 0.30 0.30 0.38 0.59 0.72 0.88 0.95
0.89 2.14 5.30 3.87 3.07 2.81 1.55 1.13 1.32 0.93 0.60 0.62 0.30 0.19 0.13 0.05 0.01 0.01 0.04 0.13 0.19 0.19 0.19 0.30 0.81 0.72 0.61 0.70 0.76 0.62 0.75 0.76 0.71 0.83 0.93 0.96 0.74 0.59 0.56 0.46 0.23 0.17 0.16 0.13 0.23 0.42 0.64 0.73 0.67
2.09 3.40 3.72 1.47 1.67 3.39 2.10 1.31 1.26 1.09 1.11 1.04 0.33 0.10 0.15 0.09 0.02 0.05 0.07 0.11 0.16 0.10 0.19 0.40 0.67 0.73 0.75 0.68 0.80 0.53 0.58 0.65 1.02 0.97 0.94 0.91 0.88 0.64 0.42 0.22 0.13 0.11 0.18 0.26 0.16 0.23 0.60 0.56 0.50
2.03 5.66 2.82 1.47 1.39 4.00 3.07 2.07 1.84 0.91 0.67 0.51 0.22 0.08 0.19 0.28 0.17 0.14 0.13 0.26 0.29 0.12 0.15 0.24 0.47 0.68 0.75 0.95 0.81 0.57 0.56 0.67 0.84 0.77 0.85 0.73 0.55 0.47 0.35 0.35 0.23 0.16 0.25 0.30 0.47 0.48 0.51 0.45 0.48
1.82 4.15 4.71 1.79 2.16 2.85 1.36 1.00 1.32 0.82 0.50 0.39 0.19 0.10 0.09 0.11 0.18 0.12 0.19 0.19 0.27 0.29 0.34 0.37 0.50 0.71 0.79 0.65 0.82 0.59 0.33 0.32 0.48 0.53 0.43 0.60 0.54 0.30 0.30 0.45 0.30 0.16 0.25 0.43 0.46 0.44 0.30 0.38 0.34
1.36 4.27 4.40 2.07 1.81 1.81 0.92 0.98 1.62 1.09 0.39 0.23 0.28 0.15 0.01 0.02 0.04 0.06 0.08 0.26 0.25 0.26 0.41 0.50 0.41 0.40 0.70 0.69 0.47 0.40 0.25 0.38 0.62 0.58 0.94 1.25 0.78 0.35 0.28 0.39 0.26 0.20 0.25 0.24 0.38 0.32 0.35 0.40 0.29
3.28 4.94 4.75 1.91 1.04 0.94 0.62 1.11 0.69 0.38 0.33 0.47 0.25 0.10 0.02 0.04 0.02 0.02 0.04 0.06 0.11 0.15 0.54 0.99 0.71 0.19 0.20 0.40 0.47 0.53 0.40 0.62 0.56 0.62 1.11 1.22 0.51 0.32 0.27 0.45 0.27 0.21 0.29 0.34 0.29 0.44 0.72 0.38 0.16
2.55 4.49 3.12 1.79 0.95 0.80 0.96 1.09 0.65 0.28 0.56 1.05 0.79 0.08 0.01 0.02 0.02 0.03 0.05 0.06 0.07 0.13 0.21 1.04 0.54 0.58 0.16 0.27 0.31 0.19 0.14 0.08 0.10 0.38 0.98 1.25 0.62 0.43 0.53 0.47 0.42 0.24 0.73 1.03 0.66 0.56 0.72 0.26 0.29
1.74 2.13 2.21 2.16 1.06 0.86 1.40 1.18 1.33 0.92 1.11 0.45 0.28 0.05 0.00 0.01 0.02 0.04 0.04 0.01 0.05 0.11 0.18 0.18 0.22 0.41 0.19 0.22 0.30 0.26 0.14 0.05 0.05 0.14 0.26 0.51 0.89 1.03 1.12 0.89 0.93 0.77 0.45 1.26 0.71 0.44 0.23 0.16 0.20
1.19 1.91 1.43 1.65 1.18 1.18 0.89 0.88 1.48 1.14 2.23 0.78 0.23 0.04 0.00 0.00 0.01 0.07 0.07 0.03 0.05 0.06 0.07 0.08 0.10 0.19 0.21 0.45 0.46 0.14 0.12 0.08 0.05 0.19 0.53 0.66 0.55 0.57 0.45 0.80 0.78 0.71 0.53 0.47 0.33 0.38 0.10 0.17 0.02
0.88 1.48 1.13 1.22 1.47 1.03 1.27 0.80 0.48 0.56 0.78 0.66 0.28 0.03 0.02 0.02 0.01 0.04 0.06 0.06 0.02 0.04 0.07 0.02 0.03 0.06 0.13 0.21 0.26 0.08 0.08 0.03 0.07 0.16 0.63 0.61 0.35 0.58 0.64 0.61 0.52 0.64 0.37 0.28 0.38 0.42 0.10 0.04 0.01
0.83 1.69 1.58 1.42 1.68 1.17 1.64 2.10 0.96 0.69 0.63 0.49 0.26 0.05 0.03 0.01 0.02 0.01 0.02 0.04 0.02 0.00 0.01 0.00 0.02 0.05 0.07 0.12 0.10 0.10 0.18 0.06 0.04 0.08 0.24 0.31 0.44 0.49 0.79 0.68 0.60 0.37 0.46 0.38 0.32 0.24 0.09 0.03 0.05
2.29 2.46 2.41 2.42 2.03 1.46 2.12 3.96 1.82 0.93 0.73 0.27 0.12 0.05 0.01 0.01 0.00 0.00 0.02 0.04 0.02 0.00 0.03 0.01 0.01 0.01 0.03 0.02 0.09 0.10 0.20 0.13 0.09 0.10 0.20 0.33 0.45 0.55 0.78 0.94 0.65 0.43 0.45 0.33 0.31 0.18 0.08 0.03 0.04
1.34 2.34 2.95 2.81 2.42 2.59 3.04 4.73 3.23 0.97 0.58 0.29 0.03 0.01 0.00 0.00 0.00 0.00 0.02 0.00 0.00 0.01 0.03 0.00 0.00 0.00 0.05 0.03 0.12 0.16 0.16 0.22 0.22 0.14 0.23 0.35 0.30 0.48 0.88 1.48 0.88 0.75 1.02 0.48 0.28 0.10 0.04 0.01 0.02
0.50 0.98 1.88 2.59 2.26 3.10 2.62 1.91 2.08 0.96 1.89 0.85 0.20 0.03 0.00 0.00 0.00 0.00 0.02 0.03 0.01 0.01 0.01 0.00 0.01 0.03 0.15 0.31 0.38 0.21 0.28 0.25 0.07 0.07 0.22 0.27 0.40 0.37 0.72 0.93 0.65 1.51 0.71 0.60 0.37 0.12 0.09 0.03 0.04
0.11 0.84 1.77 2.42 2.44 3.10 2.49 1.91 2.35 0.87 1.37 1.34 0.23 0.12 0.04 0.00 0.00 0.00 0.01 0.03 0.01 0.02 0.00 0.01 0.05 0.11 0.18 0.13 0.13 0.07 0.08 0.09 0.05 0.11 0.26 0.42 0.43 0.51 0.67 0.68 0.67 1.69 1.36 0.84 0.36 0.44 0.13 0.12 0.06
0.21 0.91 1.31 2.27 1.99 2.84 4.81 3.30 2.38 1.29 0.94 0.80 0.49 0.23 0.13 0.03 0.01 0.00 0.01 0.00 0.00 0.01 0.00 0.00 0.06 0.09 0.14 0.05 0.06 0.06 0.05 0.04 0.06 0.11 0.20 0.23 0.24 0.45 0.30 0.71 1.53 1.19 0.70 0.52 0.45 0.37 0.27 0.24 0.09
0.21 0.37 0.72 1.13 1.20 1.74 3.28 4.43 3.02 1.37 1.38 1.35 0.85 0.52 0.13 0.05 0.01 0.01 0.00 0.00 0.00 0.00 0.00 0.00 0.03 0.11 0.24 0.20 0.13 0.22 0.29 0.23 0.30 0.36 0.30 0.23 0.21 0.18 0.51 0.60 0.58 0.71 1.43 0.91 0.40 0.55 0.23 0.68 0.20
0.42 0.28 0.33 0.36 0.43 0.69 0.76 1.88 1.72 1.49 1.49 2.78 1.27 0.75 0.18 0.07 0.03 0.02 0.01 0.00 0.00 0.00 0.00 0.00 0.01 0.07 0.11 0.25 0.21 0.39 0.22 0.19 0.22 0.27 0.31 0.30 0.23 0.18 0.30 0.29 0.37 0.42 0.56 0.65 0.45 0.27 0.16 0.15 0.55
0.08 0.13 0.20 0.39 0.28 0.25 0.24 0.58 0.95 0.99 1.32 1.76 1.42 1.08 0.41 0.08 0.03 0.02 0.01 0.00 0.00 0.00 0.00 0.00 0.01 0.06 0.07 0.23 0.54 0.34 0.22 0.53 0.49 0.28 0.53 0.52 0.45 0.30 0.28 0.30 0.28 0.35 0.35 0.44 0.34 0.31 0.22 0.13 0.21
0.02 0.12 0.22 0.26 0.42 0.33 0.10 0.17 0.63 0.71 0.54 0.72 0.59 0.90 1.16 0.54 0.17 0.07 0.06 0.01 0.00 0.00 0.00 0.00 0.00 0.04 0.07 0.15 0.23 0.35 0.46 0.62 0.47 0.76 0.52 0.37 0.34 0.22 0.24 0.31 0.46 0.45 0.30 0.28 0.25 0.33 0.17 0.10 0.13
0.05 0.17 0.20 0.23 0.15 0.21 0.21 0.20 0.26 0.53 0.51 0.43 0.50 0.77 0.98 1.16 0.53 0.26 0.13 0.07 0.04 0.02 0.00 0.00 0.00 0.02 0.01 0.04 0.12 0.23 0.32 0.35 0.57 0.47 0.50 0.70 0.55 0.21 0.19 0.38 0.53 0.36 0.24 0.21 0.19 0.29 0.20 0.10 0.12
0.01 0.01 0.11 0.34 0.24 0.26 0.34 0.45 0.31 0.06 0.07 0.12 0.26 0.37 0.38 0.35 0.76 0.35 0.24 0.22 0.15 0.08 0.04 0.00 0.00 0.00 0.00 0.02 0.09 0.18 0.28 0.25 0.22 0.16 0.42 0.80 0.48 0.29 0.44 0.35 0.32 0.27 0.31 0.12 0.18 0.13 0.10 0.13 0.16
0.01 0.03 0.04 0.05 0.09 0.07 0.29 0.59 0.35 0.13 0.06 0.07 0.09 0.31 0.43 0.35 0.28 0.28 0.33 0.34 0.30 0.07 0.04 0.07 0.02 0.00 0.00 0.00 0.02 0.06 0.14 0.12 0.14 0.32 0.41 0.49 1.05 0.71 0.76 0.49 0.35 0.32 0.26 0.20 0.23 0.12 0.27 0.32 0.24
0.07 0.15 0.07 0.02 0.07 0.10 0.28 0.54 0.76 0.30 0.56 0.21 0.19 0.18 0.51 0.61 0.99 0.80 0.55 0.48 0.41 0.22 0.08 0.12 0.14 0.02 0.02 0.01 0.01 0.02 0.08 0.07 0.11 0.31 0.32 0.72 0.99 1.17 1.67 0.76 0.37 0.32 0.32 0.26 0.32 0.32 0.22 0.32 0.20
0.05 0.04 0.04 0.02 0.04 0.21 0.41 0.62 0.63 1.20 0.41 0.22 0.34 0.28 0.49 0.64 0.94 2.01 1.77 1.33 1.03 0.72 0.28 0.33 0.40 0.32 0.12 0.02 0.01 0.10 0.06 0.08 0.09 0.16 0.22 0.22 0.37 0.55 0.57 0.83 0.62 0.45 0.34 0.35 0.57 0.48 0.31 0.40 0.28
0.20 0.11 0.15 0.03 0.14 0.27 0.33 0.47 0.32 1.00 0.54 0.30 0.37 0.40 0.50 0.65 0.71 1.26 2.04 2.49 2.95 2.37 1.87 1.04 1.10 0.89 0.50 0.27 0.11 0.18 0.14 0.09 0.05 0.14 0.10 0.14 0.25 0.41 0.44 0.45 0.65 0.46 0.30 0.42 0.76 0.45 0.38 0.58 0.33

GFSSGP_prec_precacc_150.txt.gz
Total_Precipitation_Accumulation
0.02 0.11 0.53 1.94 3.03 1.52 1.83 2.82 1.82 1.21 0.43 0.10 0.10 0.14 0.58 0.71 0.75 0.71 0.20 0.20 0.05 0.11 0.38 1.19 1.97 1.53 1.03 0.93 0.83 0.94 0.72 0.73 0.85 0.62 0.44 0.37 0.44 0.55 0.39 0.48 0.67 0.72 0.43 0.31 0.43 0.53 0.70 0.58 0.47
0.05 0.31 1.51 4.32 3.41 2.74 2.17 2.08 1.93 1.13 0.27 0.13 0.08 0.19 0.30 0.23 0.04 0.08 0.19 0.16 0.02 0.06 0.20 0.64 1.67 1.14 0.84 0.78 0.58 0.59 0.49 0.83 0.85 0.93 0.89 0.66 0.60 0.62 0.68 0.68 0.82 0.94 0.99 0.86 0.76 0.62 0.55 0.74 0.77
0.19 1.25 4.41 5.21 3.39 3.62 4.38 2.88 2.06 0.67 0.27 0.12 0.16 0.26 0.09 0.05 0.02 0.04 0.05 0.04 0.08 0.18 0.13 0.40 0.91 0.74 0.62 0.69 0.55 0.55 0.66 0.67 0.69 0.98 1.09 0.93 0.83 0.85 0.92 0.70 0.69 0.66 0.65 0.76 0.67 0.70 0.70 0.91 1.01
0.51 2.45 4.69 3.63 3.92 2.87 2.72 2.54 1.78 0.59 0.44 0.31 0.36 0.21 0.10 0.02 0.01 0.01 0.08 0.17 0.26 0.32 0.26 0.52 0.61 0.64 0.72 0.60 0.58 0.57 0.80 0.85 0.81 1.01 0.95 0.90 1.09 0.96 0.77 0.57 0.52 0.40 0.30 0.30 0.38 0.59 0.72 0.88 0.95
0.89 2.14 5.30 3.87 3.07 2.81 1.55 1.13 1.32 0.93 0.60 0.62 0.30 0.19 0.13 0.05 0.01 0.01 0.04 0.13 0.19 0.20 0.21 0.35 0.85 0.78 0.62 0.70 0.76 0.62 0.75 0.76 0.75 0.99 1.20 1.22 0.96 0.77 0.62 0.47 0.24 0.18 0.16 0.13 0.23 0.42 0.64 0.73 0.67
2.09 3.40 3.76 1.48 1.67 3.39 2.10 1.31 1.26 1.09 1.11 1.04 0.33 0.10 0.15 0.09 0.02 0.05 0.07 0.11 0.16 0.10 0.20 0.42 0.78 0.82 0.80 0.70 0.80 0.54 0.58 0.66 1.12 1.17 1.19 1.11 1.01 0.76 0.45 0.23 0.13 0.11 0.18 0.26 0.16 0.23 0.60 0.56 0.50
2.03 5.67 2.84 1.48 1.39 4.00 3.07 2.07 1.84 0.91 0.67 0.51 0.22 0.08 0.19 0.28 0.17 0.14 0.13 0.26 0.29 0.12 0.15 0.25 0.51 0.74 0.78 0.96 0.81 0.57 0.57 0.70 0.97 0.98 1.09 0.92 0.64 0.47 0.35 0.35 0.23 0.16 0.25 0.30 0.47 0.48 0.51 0.45 0.48
1.82 4.16 4.76 1.81 2.16 2.88 1.36 1.00 1.32 0.82 0.50 0.39 0.19 0.10 0.09 0.11 0.18 0.12 0.19 0.19 0.27 0.29 0.34 0.37 0.53 0.82 0.86 0.66 0.85 0.61 0.35 0.41 0.70 0.74 0.56 0.68 0.58 0.31 0.30 0.45 0.30 0.16 0.25 0.43 0.46 0.44 0.30 0.38 0.34
1.36 4.31 4.51 2.14 1.83 1.84 0.92 0.98 1.62 1.09 0.39 0.23 0.28 0.15 0.01 0.02 0.04 0.06 0.08 0.26 0.25 0.26 0.41 0.51 0.46 0.51 0.75 0.74 0.53 0.47 0.30 0.54 0.80 0.69 0.99 1.28 0.78 0.35 0.28 0.39 0.26 0.20 0.25 0.24 0.38 0.32 0.35 0.40 0.29
3.28 4.99 4.83 1.94 1.04 0.94 0.62 1.11 0.69 0.38 0.33 0.47 0.25 0.10 0.02 0.04 0.02 0.02 0.04 0.06 0.11 0.15 0.54 1.00 0.75 0.25 0.25 0.47 0.52 0.57 0.46 0.72 0.66 0.66 1.11 1.22 0.51 0.32 0.27 0.45 0.27 0.21 0.29 0.34 0.29 0.44 0.72 0.38 0.16
2.55 4.52 3.13 1.79 0.95 0.80 0.96 1.09 0.65 0.28 0.56 1.05 0.79 0.08 0.01 0.02 0.02 0.03 0.05 0.06 0.07 0.13 0.21 1.04 0.55 0.62 0.18 0.31 0.32 0.20 0.17 0.09 0.10 0.38 0.98 1.25 0.62 0.43 0.53 0.47 0.42 0.24 0.73 1.03 0.66 0.56 0.72 0.26 0.29
1.74 2.13 2.21 2.16 1.06 0.86 1.40 1.18 1.33 0.92 1.11 0.45 0.28 0.05 0.00 0.01 0.02 0.04 0.04 0.01 0.05 0.11 0.18 0.18 0.22 0.41 0.19 0.22 0.30 0.26 0.14 0.05 0.05 0.14 0.26 0.51 0.89 1.03 1.12 0.89 0.93 0.77 0.45 1.26 0.71 0.44 0.23 0.16 0.20
1.20 1.92 1.43 1.65 1.18 1.18 0.89 0.88 1.48 1.14 2.23 0.78 0.23 0.04 0.00 0.00 0.01 0.07 0.07 0.03 0.05 0.06 0.07 0.08 0.10 0.19 0.21 0.45 0.46 0.14 0.12 0.08 0.05 0.19 0.53 0.66 0.55 0.57 0.45 0.80 0.78 0.71 0.53 0.47 0.33 0.38 0.10 0.17 0.02
0.90 1.48 1.13 1.23 1.48 1.03 1.29 0.80 0.48 0.56 0.78 0.66 0.28 0.03 0.02 0.02 0.01 0.04 0.06 0.06 0.02 0.04 0.07 0.02 0.03 0.06 0.13 0.21 0.26 0.08 0.08 0.03 0.07 0.16 0.63 0.61 0.35 0.58 0.64 0.61 0.52 0.64 0.37 0.28 0.38 0.42 0.10 0.04 0.01
0.83 1.71 1.60 1.44 1.71 1.17 1.68 2.19 0.97 0.69 0.63 0.49 0.26 0.05 0.03 0.01 0.02 0.01 0.02 0.04 0.02 0.00 0.01 0.00 0.02 0.05 0.07 0.12 0.10 0.10 0.18 0.06 0.04 0.08 0.24 0.31 0.44 0.50 0.79 0.68 0.60 0.37 0.46 0.38 0.32 0.24 0.09 0.03 0.05
2.34 2.56 2.56 2.48 2.04 1.47 2.13 4.08 1.84 0.93 0.73 0.27 0.12 0.05 0.01 0.01 0.00 0.00 0.02 0.04 0.02 0.00 0.03 0.01 0.01 0.01 0.03 0.02 0.09 0.10 0.20 0.13 0.09 0.10 0.20 0.33 0.45 0.55 0.78 0.94 0.65 0.43 0.45 0.33 0.31 0.18 0.08 0.03 0.04
1.35 2.38 3.04 2.92 2.42 2.65 3.06 4.79 3.23 0.97 0.58 0.29 0.03 0.01 0.00 0.00 0.00 0.00 0.02 0.00 0.00 0.01 0.03 0.00 0.00 0.00 0.05 0.03 0.12 0.16 0.16 0.22 0.22 0.14 0.23 0.35 0.30 0.48 0.88 1.48 0.88 0.75 1.02 0.48 0.28 0.10 0.04 0.01 0.02
0.50 0.98 1.90 2.67 2.29 3.18 2.66 1.91 2.08 0.96 1.89 0.85 0.20 0.03 0.00 0.00 0.00 0.00 0.02 0.03 0.01 0.01 0.01 0.00 0.01 0.03 0.15 0.31 0.38 0.21 0.28 0.25 0.07 0.07 0.22 0.27 0.40 0.37 0.72 0.93 0.65 1.51 0.71 0.60 0.37 0.12 0.09 0.03 0.04
0.11 0.84 1.77 2.42 2.44 3.15 2.52 1.91 2.35 0.87 1.37 1.34 0.23 0.12 0.04 0.00 0.00 0.00 0.01 0.03 0.01 0.02 0.00 0.01 0.05 0.11 0.18 0.13 0.13 0.07 0.08 0.09 0.05 0.11 0.26 0.42 0.43 0.51 0.67 0.68 0.67 1.69 1.36 0.84 0.36 0.44 0.13 0.12 0.06
0.21 0.91 1.31 2.27 1.99 2.89 4.85 3.31 2.38 1.29 0.94 0.80 0.49 0.23 0.13 0.03 0.01 0.00 0.01 0.00 0.00 0.01 0.00 0.00 0.06 0.09 0.14 0.05 0.06 0.06 0.05 0.04 0.06 0.11 0.20 0.23 0.24 0.45 0.30 0.71 1.53 1.19 0.70 0.52 0.45 0.37 0.27 0.24 0.09
0.21 0.37 0.72 1.13 1.20 1.74 3.31 4.45 3.02 1.37 1.38 1.35 0.85 0.52 0.13 0.05 0.01 0.01 0.00 0.00 0.00 0.00 0.00 0.00 0.03 0.11 0.24 0.20 0.13 0.22 0.29 0.23 0.30 0.36 0.30 0.24 0.22 0.18 0.51 0.60 0.58 0.71 1.43 0.91 0.40 0.55 0.23 0.68 0.20
0.42 0.28 0.33 0.36 0.43 0.69 0.77 1.88 1.72 1.49 1.49 2.78 1.27 0.75 0.18 0.07 0.03 0.02 0.01 0.00 0.00 0.00 0.00 0.00 0.01 0.07 0.11 0.25 0.21 0.40 0.23 0.19 0.22 0.27 0.31 0.30 0.23 0.18 0.30 0.29 0.37 0.42 0.56 0.65 0.45 0.27 0.16 0.15 0.55
0.08 0.13 0.20 0.39 0.28 0.25 0.24 0.58 0.95 0.99 1.32 1.76 1.42 1.08 0.41 0.08 0.03 0.02 0.01 0.00 0.00 0.00 0.00 0.00 0.01 0.06 0.07 0.23 0.56 0.39 0.24 0.53 0.49 0.28 0.54 0.52 0.45 0.30 0.28 0.30 0.28 0.35 0.35 0.44 0.34 0.31 0.22 0.14 0.21
0.02 0.12 0.22 0.26 0.42 0.33 0.10 0.17 0.63 0.71 0.54 0.72 0.59 0.90 1.16 0.54 0.17 0.07 0.06 0.01 0.00 0.00 0.00 0.00 0.00 0.04 0.07 0.15 0.23 0.39 0.52 0.65 0.48 0.78 0.53 0.37 0.34 0.22 0.24 0.31 0.46 0.45 0.30 0.28 0.27 0.37 0.22 0.12 0.13
0.05 0.17 0.20 0.23 0.15 0.21 0.21 0.20 0.26 0.53 0.51 0.43 0.50 0.77 0.98 1.16 0.53 0.26 0.13 0.07 0.04 0.02 0.00 0.00 0.00 0.02 0.01 0.04 0.12 0.23 0.38 0.42 0.61 0.49 0.51 0.70 0.56 0.21 0.19 0.38 0.53 0.36 0.24 0.21 0.19 0.29 0.20 0.10 0.13
0.01 0.01 0.11 0.34 0.24 0.26 0.34 0.45 0.31 0.06 0.07 0.12 0.26 0.37 0.38 0.35 0.76 0.35 0.24 0.22 0.15 0.08 0.04 0.00 0.00 0.00 0.00 0.02 0.09 0.18 0.35 0.29 0.23 0.17 0.42 0.80 0.48 0.29 0.44 0.35 0.32 0.27 0.31 0.12 0.21 0.15 0.12 0.17 0.19
0.01 0.03 0.04 0.05 0.09 0.07 0.29 0.59 0.35 0.13 0.06 0.07 0.09 0.31 0.43 0.35 0.28 0.28 0.33 0.34 0.30 0.07 0.04 0.07 0.02 0.00 0.00 0.00 0.02 0.06 0.15 0.13 0.14 0.33 0.42 0.49 1.05 0.71 0.76 0.49 0.37 0.34 0.26 0.20 0.26 0.19 0.29 0.35 0.25
0.07 0.15 0.07 0.02 0.07 0.10 0.28 0.54 0.76 0.30 0.56 0.21 0.19 0.18 0.51 0.61 0.99 0.80 0.55 0.48 0.41 0.22 0.08 0.12 0.14 0.02 0.02 0.01 0.01 0.02 0.08 0.07 0.11 0.32 0.32 0.72 0.99 1.17 1.70 0.80 0.41 0.37 0.38 0.27 0.44 0.39 0.27 0.36 0.22
0.05 0.04 0.04 0.02 0.04 0.21 0.41 0.62 0.63 1.20 0.41 0.22 0.34 0.28 0.49 0.64 0.94 2.01 1.77 1.33 1.03 0.72 0.28 0.33 0.40 0.32 0.12 0.02 0.01 0.10 0.06 0.08 0.09 0.16 0.22 0.22 0.37 0.55 0.60 0.87 0.66 0.51 0.39 0.36 0.64 0.61 0.36 0.45 0.31
0.20 0.11 0.15 0.03 0.14 0.27 0.33 0.47 0.32 1.00 0.54 0.30 0.37 0.40 0.50 0.65 0.71 1.26 2.04 2.49 2.95 2.37 1.87 1.04 1.10 0.89 0.50 0.27 0.11 0.18 0.14 0.09 0.05 0.14 0.10 0.14 0.25 0.41 0.44 0.45 0.68 0.52 0.37 0.45 0.78 0.51 0.39 0.60 0.36

GFSSGP_prec_precacc_153.txt.gz
Total_Precipitation_Accumulation
0.02 0.11 0.53 1.94 3.10 1.55 1.83 2.82 1.83 1.22 0.45 0.10 0.10 0.15 0.59 0.78 0.88 0.84 0.20 0.20 0.06 0.15 0.40 1.22 1.99 1.53 1.03 0.96 0.85 0.94 0.73 0.79 0.91 0.70 0.47 0.37 0.45 0.58 0.43 0.49 0.68 0.74 0.45 0.33 0.46 0.53 0.70 0.58 0.48
0.05 0.31 1.51 4.32 3.46 2.75 2.17 2.08 1.93 1.13 0.27 0.13 0.08 0.21 0.33 0.26 0.04 0.08 0.19 0.16 0.05 0.08 0.22 0.68 1.74 1.24 0.89 0.81 0.58 0.59 0.50 0.92 0.87 0.95 0.98 0.69 0.61 0.65 0.70 0.71 0.83 0.96 1.00 0.86 0.76 0.62 0.55 0.74 0.77
0.19 1.25 4.43 5.24 3.41 3.62 4.38 2.88 2.06 0.67 0.27 0.12 0.16 0.26 0.09 0.05 0.02 0.04 0.05 0.05 0.10 0.19 0.14 0.44 0.96 0.78 0.70 0.77 0.62 0.56 0.68 0.74 0.70 1.01 1.19 1.08 0.89 0.86 0.96 0.76 0.70 0.67 0.67 0.77 0.67 0.70 0.70 0.91 1.01
0.51 2.45 4.69 3.65 3.92 2.87 2.73 2.54 1.78 0.59 0.44 0.31 0.36 0.21 0.10 0.02 0.01 0.01 0.08 0.17 0.27 0.33 0.27 0.56 0.63 0.64 0.75 0.68 0.66 0.62 0.83 1.01 0.82 1.02 1.04 1.05 1.29 1.04 0.82 0.61 0.55 0.42 0.31 0.30 0.38 0.59 0.72 0.88 0.95
0.89 2.14 5.32 3.89 3.07 2.81 1.55 1.13 1.32 0.93 0.60 0.62 0.30 0.19 0.13 0.05 0.01 0.01 0.04 0.13 0.20 0.23 0.23 0.38 0.90 0.82 0.63 0.74 0.79 0.69 0.77 0.77 0.75 1.03 1.39 1.41 1.17 1.01 0.80 0.53 0.26 0.18 0.16 0.13 0.23 0.42 0.64 0.73 0.67
2.09 3.40 3.85 1.65 1.68 3.39 2.10 1.31 1.26 1.09 1.11 1.04 0.33 0.10 0.15 0.09 0.02 0.05 0.07 0.11 0.17 0.11 0.20 0.43 0.84 0.91 0.88 0.71 0.80 0.56 0.59 0.66 1.12 1.25 1.48 1.23 1.18 1.03 0.60 0.26 0.14 0.11 0.18 0.26 0.16 0.23 0.60 0.56 0.50
2.03 5.67 2.86 1.51 1.40 4.01 3.07 2.07 1.84 0.91 0.67 0.51 0.22 0.08 0.19 0.28 0.17 0.14 0.13 0.27 0.29 0.12 0.15 0.26 0.53 0.78 0.81 0.96 0.81 0.57 0.57 0.70 0.98 1.12 1.36 1.17 0.84 0.57 0.39 0.36 0.23 0.16 0.25 0.30 0.47 0.48 0.51 0.45 0.48
1.82 4.16 4.76 1.82 2.17 2.89 1.36 1.00 1.32 0.82 0.50 0.39 0.19 0.11 0.09 0.11 0.18 0.12 0.19 0.20 0.27 0.29 0.34 0.37 0.55 0.88 0.92 0.68 0.85 0.61 0.35 0.41 0.75 0.90 0.81 0.89 0.60 0.32 0.30 0.45 0.30 0.16 0.25 0.43 0.46 0.44 0.30 0.38 0.34
1.36 4.37 4.56 2.24 1.84 1.84 0.92 0.98 1.62 1.09 0.39 0.23 0.28 0.15 0.01 0.02 0.04 0.06 0.08 0.26 0.26 0.26 0.42 0.51 0.47 0.51 0.81 0.79 0.53 0.47 0.31 0.57 0.84 0.78 1.09 1.35 0.79 0.35 0.30 0.40 0.26 0.20 0.25 0.24 0.38 0.32 0.35 0.40 0.29
3.28 5.08 4.96 2.35 1.10 0.94 0.62 1.11 0.69 0.38 0.33 0.47 0.25 0.10 0.02 0.04 0.02 0.02 0.05 0.07 0.13 0.17 0.57 1.00 0.77 0.26 0.26 0.48 0.52 0.61 0.51 0.75 0.76 0.75 1.11 1.24 0.51 0.32 0.27 0.45 0.27 0.21 0.29 0.34 0.29 0.44 0.72 0.38 0.16
2.55 4.65 3.23 1.85 0.96 0.80 0.96 1.09 0.65 0.29 0.56 1.05 0.79 0.08 0.01 0.02 0.02 0.03 0.05 0.06 0.08 0.15 0.23 1.04 0.58 0.66 0.18 0.34 0.35 0.25 0.20 0.11 0.11 0.40 0.98 1.25 0.62 0.43 0.53 0.47 0.42 0.24 0.73 1.03 0.66 0.56 0.72 0.26 0.29
1.74 2.15 2.22 2.16 1.06 0.86 1.41 1.18 1.33 0.94 1.12 0.45 0.28 0.05 0.00 0.01 0.02 0.04 0.04 0.02 0.05 0.11 0.19 0.18 0.22 0.47 0.22 0.22 0.31 0.27 0.14 0.05 0.05 0.14 0.26 0.51 0.89 1.03 1.12 0.89 0.93 0.77 0.45 1.26 0.71 0.44 0.23 0.16 0.20
1.20 2.02 1.45 1.66 1.18 1.18 0.89 0.89 1.48 1.14 2.23 0.78 0.23 0.04 0.00 0.01 0.03 0.08 0.08 0.03 0.05 0.06 0.07 0.08 0.10 0.21 0.22 0.45 0.46 0.14 0.12 0.08 0.05 0.19 0.53 0.66 0.55 0.57 0.45 0.80 0.78 0.71 0.53 0.47 0.33 0.38 0.10 0.17 0.02
0.92 1.48 1.15 1.25 1.48 1.03 1.31 0.80 0.50 0.57 0.78 0.66 0.28 0.03 0.02 0.02 0.02 0.04 0.06 0.06 0.02 0.04 0.07 0.02 0.03 0.06 0.13 0.21 0.27 0.08 0.08 0.03 0.07 0.16 0.63 0.61 0.35 0.59 0.64 0.61 0.52 0.64 0.37 0.28 0.38 0.42 0.10 0.04 0.01
0.83 1.73 1.72 1.50 1.71 1.17 1.71 2.27 1.04 0.69 0.63 0.49 0.26 0.06 0.03 0.01 0.02 0.02 0.03 0.04 0.02 0.00 0.01 0.00 0.02 0.05 0.07 0.12 0.11 0.11 0.18 0.06 0.04 0.08 0.24 0.31 0.44 0.52 0.82 0.68 0.60 0.37 0.46 0.38 0.32 0.24 0.09 0.03 0.05
2.34 2.58 2.77 2.61 2.04 1.47 2.18 4.23 1.87 0.93 0.73 0.27 0.12 0.05 0.01 0.01 0.00 0.00 0.02 0.04 0.02 0.00 0.03 0.01 0.01 0.01 0.03 0.02 0.09 0.10 0.20 0.13 0.09 0.10 0.20 0.33 0.45 0.55 0.78 0.94 0.65 0.43 0.45 0.33 0.31 0.18 0.08 0.03 0.04
1.37 2.42 3.12 3.03 2.43 2.68 3.09 4.84 3.26 0.97 0.59 0.29 0.03 0.01 0.00 0.00 0.01 0.00 0.02 0.00 0.00 0.02 0.03 0.00 0.00 0.00 0.05 0.03 0.12 0.16 0.17 0.22 0.22 0.14 0.23 0.35 0.30 0.48 0.88 1.48 0.88 0.75 1.02 0.48 0.28 0.10 0.04 0.01 0.02
0.52 0.98 1.91 2.69 2.31 3.22 2.68 1.91 2.08 0.96 1.89 0.88 0.20 0.03 0.00 0.01 0.01 0.00 0.02 0.03 0.01 0.01 0.01 0.00 0.01 0.03 0.15 0.31 0.38 0.21 0.28 0.25 0.07 0.07 0.22 0.27 0.40 0.37 0.72 0.93 0.65 1.51 0.71 0.60 0.37 0.12 0.09 0.03 0.04
0.11 0.84 1.77 2.42 2.44 3.18 2.54 1.91 2.35 0.87 1.37 1.35 0.23 0.12 0.04 0.01 0.03 0.02 0.01 0.03 0.01 0.02 0.00 0.01 0.05 0.11 0.18 0.13 0.13 0.07 0.08 0.09 0.05 0.12 0.26 0.42 0.43 0.51 0.67 0.68 0.67 1.69 1.36 0.84 0.36 0.44 0.13 0.12 0.06
0.21 0.91 1.31 2.28 1.99 2.89 4.86 3.32 2.38 1.29 0.94 0.80 0.49 0.23 0.14 0.03 0.03 0.00 0.02 0.00 0.00 0.01 0.00 0.00 0.06 0.09 0.14 0.05 0.06 0.06 0.05 0.04 0.06 0.11 0.20 0.23 0.24 0.45 0.30 0.71 1.53 1.19 0.70 0.52 0.45 0.37 0.27 0.24 0.09
0.21 0.37 0.72 1.15 1.20 1.75 3.31 4.48 3.02 1.37 1.38 1.35 0.85 0.53 0.13 0.05 0.01 0.01 0.00 0.00 0.00 0.00 0.00 0.00 0.03 0.11 0.24 0.20 0.13 0.22 0.29 0.23 0.30 0.36 0.30 0.24 0.22 0.18 0.51 0.60 0.58 0.71 1.43 0.91 0.40 0.55 0.23 0.68 0.20
0.42 0.28 0.33 0.36 0.45 0.82 0.78 2.06 1.75 1.49 1.49 2.78 1.27 0.75 0.19 0.08 0.03 0.02 0.01 0.00 0.00 0.00 0.00 0.00 0.01 0.07 0.11 0.25 0.21 0.40 0.23 0.19 0.22 0.27 0.31 0.30 0.23 0.18 0.30 0.29 0.37 0.42 0.56 0.65 0.45 0.27 0.16 0.15 0.55
0.08 0.13 0.20 0.39 0.28 0.25 0.24 0.59 0.98 0.99 1.32 1.76 1.42 1.08 0.41 0.08 0.05 0.02 0.01 0.00 0.00 0.00 0.00 0.00 0.01 0.06 0.07 0.23 0.56 0.40 0.24 0.54 0.50 0.28 0.54 0.52 0.45 0.30 0.28 0.30 0.28 0.35 0.36 0.45 0.34 0.31 0.23 0.14 0.21
0.02 0.12 0.22 0.26 0.42 0.33 0.10 0.17 0.63 0.72 0.55 0.73 0.59 0.90 1.16 0.54 0.18 0.08 0.06 0.01 0.00 0.00 0.00 0.00 0.00 0.04 0.07 0.15 0.23 0.40 0.54 0.66 0.51 0.79 0.53 0.37 0.34 0.22 0.24 0.31 0.46 0.45 0.30 0.28 0.28 0.37 0.24 0.12 0.13
0.05 0.17 0.20 0.23 0.15 0.22 0.21 0.20 0.26 0.53 0.51 0.43 0.50 0.77 0.98 1.16 0.53 0.26 0.14 0.07 0.04 0.02 0.00 0.00 0.00 0.02 0.01 0.04 0.12 0.23 0.38 0.43 0.66 0.51 0.51 0.70 0.56 0.21 0.19 0.38 0.53 0.37 0.25 0.21 0.19 0.30 0.20 0.10 0.13
0.01 0.01 0.11 0.34 0.24 0.26 0.34 0.45 0.31 0.06 0.07 0.12 0.26 0.37 0.38 0.35 0.76 0.35 0.24 0.22 0.15 0.08 0.04 0.00 0.00 0.00 0.00 0.02 0.09 0.18 0.36 0.29 0.23 0.17 0.42 0.80 0.49 0.29 0.44 0.35 0.32 0.27 0.31 0.12 0.21 0.16 0.13 0.18 0.20
0.01 0.03 0.04 0.05 0.09 0.07 0.29 0.59 0.35 0.13 0.06 0.07 0.09 0.31 0.43 0.35 0.28 0.28 0.33 0.34 0.30 0.07 0.04 0.07 0.02 0.00 0.00 0.00 0.02 0.06 0.15 0.13 0.14 0.33 0.42 0.49 1.05 0.71 0.76 0.49 0.37 0.34 0.26 0.20 0.27 0.20 0.29 0.35 0.26
0.07 0.15 0.07 0.02 0.07 0.10 0.28 0.54 0.76 0.30 0.56 0.21 0.19 0.18 0.51 0.61 0.99 0.80 0.55 0.48 0.41 0.22 0.08 0.12 0.14 0.02 0.02 0.01 0.01 0.02 0.08 0.07 0.11 0.32 0.32 0.72 1.00 1.18 1.77 0.81 0.42 0.37 0.38 0.31 0.47 0.39 0.28 0.36 0.23
0.05 0.04 0.04 0.02 0.04 0.21 0.41 0.62 0.63 1.20 0.41 0.22 0.34 0.28 0.49 0.64 0.94 2.01 1.77 1.33 1.03 0.72 0.28 0.33 0.40 0.32 0.12 0.02 0.01 0.10 0.06 0.08 0.09 0.16 0.22 0.22 0.37 0.56 0.63 0.88 0.67 0.53 0.40 0.37 0.72 0.61 0.36 0.45 0.32
0.20 0.11 0.15 0.03 0.14 0.27 0.33 0.47 0.32 1.00 0.54 0.30 0.37 0.40 0.50 0.65 0.71 1.26 2.04 2.49 2.95 2.37 1.87 1.04 1.10 0.89 0.50 0.27 0.11 0.18 0.14 0.09 0.05 0.14 0.10 0.14 0.25 0.41 0.44 0.46 0.69 0.57 0.38 0.47 0.88 0.56 0.39 0.63 0.41

GFSSGP_prec_precacc_156.txt.gz
Total_Precipitation_Accumulation
0.03 0.12 0.53 2.01 3.36 1.67 1.84 2.82 1.83 1.23 0.46 0.11 0.10 0.16 0.60 0.84 0.96 0.96 0.21 0.20 0.07 0.15 0.40 1.22 1.99 1.53 1.03 0.96 0.86 0.94 0.73 0.80 0.97 0.77 0.53 0.40 0.50 0.68 0.56 0.58 0.73 0.79 0.61 0.47 0.47 0.53 0.71 0.59 0.48
0.08 0.32 1.51 4.64 3.61 2.77 2.18 2.08 1.93 1.14 0.28 0.13 0.08 0.21 0.33 0.26 0.04 0.08 0.19 0.16 0.06 0.09 0.25 0.69 1.81 1.27 0.90 0.81 0.58 0.59 0.50 0.92 0.88 0.95 1.00 0.82 0.71 0.76 0.78 0.77 0.95 1.09 1.04 0.87 0.76 0.62 0.55 0.74 0.77
0.21 1.25 4.57 6.03 3.51 3.62 4.38 2.88 2.06 0.67 0.27 0.12 0.17 0.27 0.10 0.05 0.02 0.04 0.06 0.05 0.14 0.22 0.20 0.45 1.03 0.88 0.79 0.80 0.63 0.56 0.68 0.75 0.70 1.01 1.19 1.15 1.02 0.90 1.03 0.79 0.70 0.71 0.69 0.77 0.68 0.70 0.70 0.91 1.01
0.51 2.46 4.82 3.76 3.93 2.87 2.73 2.54 1.78 0.59 0.44 0.31 0.36 0.21 0.10 0.02 0.01 0.01 0.08 0.17 0.29 0.35 0.30 0.57 0.69 0.74 0.87 0.80 0.73 0.62 0.84 1.03 0.82 1.02 1.04 1.08 1.45 1.18 0.93 0.67 0.61 0.45 0.31 0.30 0.38 0.59 0.72 0.88 0.95
0.89 2.17 6.09 4.04 3.07 2.81 1.55 1.13 1.32 0.93 0.60 0.62 0.30 0.19 0.13 0.05 0.01 0.01 0.04 0.14 0.20 0.27 0.23 0.38 0.91 0.86 0.71 0.81 0.90 0.74 0.80 0.77 0.75 1.03 1.40 1.44 1.30 1.15 0.99 0.60 0.27 0.18 0.16 0.13 0.23 0.42 0.64 0.73 0.67
2.10 3.47 4.53 2.15 1.73 3.39 2.10 1.31 1.26 1.09 1.11 1.04 0.33 0.10 0.15 0.09 0.02 0.05 0.07 0.12 0.17 0.11 0.20 0.43 0.86 0.97 0.94 0.78 0.88 0.65 0.70 0.66 1.12 1.25 1.50 1.25 1.22 1.17 0.75 0.33 0.15 0.11 0.18 0.26 0.16 0.23 0.60 0.56 0.50
2.03 5.69 3.04 1.83 1.49 4.02 3.07 2.07 1.84 0.91 0.67 0.51 0.22 0.08 0.19 0.28 0.17 0.14 0.14 0.27 0.29 0.12 0.15 0.26 0.53 0.84 0.83 1.02 0.93 0.62 0.60 0.70 0.98 1.13 1.39 1.20 0.91 0.68 0.42 0.37 0.23 0.16 0.25 0.30 0.47 0.48 0.51 0.45 0.48
1.82 4.16 4.80 1.97 2.26 2.90 1.36 1.00 1.32 0.82 0.50 0.39 0.19 0.11 0.09 0.11 0.18 0.12 0.19 0.20 0.27 0.29 0.34 0.37 0.55 0.88 0.92 0.70 0.94 0.62 0.35 0.41 0.75 0.94 0.83 0.91 0.60 0.32 0.30 0.45 0.30 0.16 0.25 0.43 0.46 0.44 0.30 0.38 0.34
1.36 4.38 4.60 2.37 1.93 1.86 0.92 0.98 1.62 1.09 0.39 0.23 0.28 0.15 0.01 0.02 0.04 0.06 0.08 0.26 0.26 0.26 0.42 0.51 0.47 0.51 0.82 0.86 0.58 0.47 0.31 0.57 0.84 0.79 1.09 1.36 0.82 0.36 0.30 0.40 0.26 0.20 0.25 0.24 0.38 0.32 0.35 0.40 0.29
3.28 5.15 5.08 2.75 1.38 0.96 0.62 1.11 0.69 0.38 0.33 0.47 0.25 0.10 0.02 0.04 0.02 0.02 0.05 0.07 0.13 0.17 0.57 1.00 0.77 0.26 0.29 0.51 0.61 0.63 0.51 0.75 0.76 0.75 1.13 1.28 0.64 0.33 0.27 0.45 0.27 0.21 0.29 0.34 0.29 0.44 0.72 0.38 0.16
2.55 4.73 3.47 2.97 1.24 0.83 0.96 1.09 0.65 0.29 0.56 1.05 0.79 0.08 0.01 0.02 0.02 0.03 0.05 0.06 0.09 0.17 0.23 1.04 0.58 0.66 0.19 0.37 0.36 0.26 0.23 0.13 0.11 0.40 1.00 1.27 0.66 0.43 0.53 0.47 0.42 0.24 0.74 1.03 0.66 0.56 0.72 0.26 0.29
1.74 2.15 2.30 2.33 1.09 0.86 1.42 1.18 1.33 0.94 1.12 0.45 0.28 0.05 0.00 0.01 0.03 0.04 0.04 0.04 0.07 0.12 0.19 0.18 0.22 0.49 0.25 0.23 0.31 0.27 0.33 0.19 0.06 0.14 0.26 0.51 0.89 1.03 1.12 0.89 0.94 0.79 0.46 1.26 0.77 0.45 0.23 0.16 0.20
1.21 2.07 1.48 1.68 1.19 1.22 0.93 0.89 1.48 1.14 2.23 0.78 0.23 0.04 0.00 0.01 0.08 0.08 0.08 0.07 0.07 0.08 0.07 0.08 0.10 0.24 0.25 0.47 0.47 0.15 0.16 0.13 0.05 0.19 0.53 0.66 0.55 0.57 0.47 0.81 0.93 1.12 0.56 0.47 0.36 0.38 0.10 0.17 0.02
0.92 1.48 1.16 1.29 1.49 1.08 1.41 0.87 0.50 0.57 0.78 0.66 0.28 0.03 0.02 0.02 0.05 0.05 0.08 0.08 0.03 0.05 0.08 0.02 0.03 0.06 0.14 0.23 0.29 0.08 0.08 0.03 0.07 0.16 0.63 0.61 0.35 0.61 0.67 0.84 0.65 0.96 0.56 0.28 0.38 0.42 0.10 0.04 0.02
0.83 1.73 1.75 1.58 1.72 1.35 2.03 2.40 1.16 0.70 0.63 0.49 0.26 0.06 0.03 0.01 0.02 0.02 0.03 0.04 0.02 0.00 0.01 0.00 0.02 0.05 0.07 0.12 0.11 0.11 0.18 0.06 0.04 0.08 0.24 0.31 0.47 0.69 1.09 0.89 0.71 0.38 0.46 0.38 0.32 0.24 0.09 0.03 0.05
2.42 2.59 2.80 2.65 2.05 1.52 2.26 4.58 2.27 0.93 0.73 0.27 0.12 0.05 0.01 0.01 0.00 0.02 0.03 0.04 0.02 0.00 0.03 0.01 0.01 0.01 0.03 0.02 0.09 0.10 0.23 0.13 0.09 0.10 0.20 0.33 0.54 0.56 0.85 1.13 0.65 0.43 0.45 0.33 0.31 0.18 0.09 0.03 0.04
1.87 2.47 3.12 3.03 2.43 2.72 3.11 4.97 3.29 0.98 0.59 0.29 0.03 0.01 0.00 0.04 0.10 0.00 0.02 0.01 0.01 0.02 0.03 0.00 0.00 0.00 0.05 0.03 0.13 0.31 0.17 0.22 0.22 0.14 0.23 0.35 0.30 0.48 0.88 1.54 0.88 0.75 1.02 0.48 0.30 0.11 0.05 0.01 0.05
1.48 1.11 1.91 2.69 2.31 3.23 2.68 1.91 2.08 0.97 1.94 0.88 0.21 0.03 0.01 0.05 0.05 0.01 0.02 0.03 0.02 0.01 0.01 0.00 0.01 0.03 0.15 0.31 0.40 0.33 0.29 0.25 0.08 0.07 0.22 0.27 0.40 0.37 0.72 0.93 0.65 1.51 0.71 0.60 0.37 0.12 0.09 0.03 0.04
0.22 0.94 1.78 2.42 2.44 3.18 2.54 1.92 2.35 0.87 1.40 1.41 0.24 0.13 0.04 0.02 0.09 0.11 0.02 0.03 0.01 0.02 0.00 0.01 0.05 0.11 0.18 0.13 0.13 0.08 0.09 0.09 0.05 0.12 0.26 0.42 0.43 0.51 0.67 0.68 0.67 1.69 1.36 0.84 0.36 0.44 0.13 0.12 0.06
0.22 0.91 1.32 2.28 1.99 2.89 4.87 3.43 2.40 1.29 0.94 0.80 0.50 0.24 0.16 0.04 0.08 0.06 0.03 0.01 0.00 0.01 0.00 0.00 0.06 0.09 0.14 0.05 0.06 0.06 0.05 0.04 0.06 0.12 0.21 0.23 0.24 0.45 0.30 0.71 1.53 1.19 0.70 0.52 0.45 0.37 0.27 0.24 0.09
0.21 0.38 0.72 1.15 1.20 1.78 3.41 4.60 3.11 1.38 1.38 1.35 0.89 0.60 0.14 0.09 0.08 0.02 0.01 0.01 0.05 0.01 0.00 0.00 0.03 0.11 0.24 0.20 0.13 0.22 0.30 0.24 0.35 0.43 0.30 0.24 0.22 0.18 0.51 0.60 0.58 0.71 1.43 0.92 0.40 0.55 0.23 0.68 0.20
0.42 0.28 0.33 0.36 0.47 1.07 0.84 2.39 1.97 1.53 1.49 2.78 1.27 0.83 0.21 0.12 0.14 0.06 0.01 0.00 0.21 0.12 0.00 0.00 0.01 0.07 0.11 0.25 0.21 0.40 0.23 0.19 0.22 0.28 0.31 0.30 0.23 0.18 0.30 0.29 0.37 0.42 0.56 0.66 0.45 0.27 0.17 0.15 0.55
0.08 0.13 0.20 0.39 0.28 0.26 0.24 0.62 1.16 1.06 1.34 1.76 1.42 1.08 0.41 0.09 0.05 0.08 0.04 0.01 0.00 0.00 0.00 0.00 0.01 0.06 0.08 0.23 0.58 0.42 0.24 0.57 0.60 0.31 0.55 0.54 0.46 0.30 0.28 0.30 0.28 0.35 0.38 0.46 0.37 0.33 0.23 0.14 0.22
0.02 0.12 0.22 0.26 0.42 0.33 0.11 0.17 0.63 0.75 0.70 1.12 0.66 0.90 1.16 0.54 0.21 0.26 0.14 0.05 0.01 0.00 0.00 0.00 0.00 0.05 0.08 0.15 0.25 0.42 0.55 0.74 0.78 0.89 0.58 0.37 0.34 0.22 0.25 0.31 0.46 0.45 0.34 0.33 0.30 0.37 0.24 0.13 0.13
0.05 0.17 0.20 0.23 0.16 0.22 0.21 0.20 0.26 0.54 0.52 0.51 0.53 0.82 1.02 1.17 0.54 0.31 0.16 0.14 0.04 0.02 0.00 0.00 0.00 0.02 0.02 0.04 0.12 0.24 0.40 0.47 0.71 0.53 0.52 0.70 0.56 0.21 0.19 0.39 0.53 0.38 0.29 0.24 0.22 0.31 0.20 0.11 0.14
0.01 0.01 0.11 0.34 0.24 0.27 0.34 0.45 0.31 0.06 0.07 0.12 0.26 0.37 0.38 0.35 0.76 0.39 0.31 0.32 0.18 0.09 0.04 0.00 0.00 0.00 0.00 0.02 0.09 0.18 0.37 0.30 0.24 0.17 0.42 0.80 0.51 0.30 0.45 0.39 0.34 0.29 0.35 0.13 0.23 0.18 0.15 0.21 0.21
0.01 0.03 0.04 0.05 0.09 0.07 0.29 0.59 0.35 0.13 0.06 0.07 0.09 0.31 0.43 0.35 0.29 0.29 0.39 0.61 0.36 0.09 0.04 0.07 0.02 0.00 0.00 0.00 0.02 0.06 0.15 0.13 0.14 0.34 0.42 0.49 1.06 0.75 0.93 0.55 0.38 0.34 0.27 0.20 0.30 0.24 0.31 0.37 0.27
0.07 0.15 0.07 0.02 0.07 0.10 0.28 0.54 0.76 0.30 0.56 0.21 0.19 0.18 0.51 0.61 0.99 0.80 0.57 0.68 0.60 0.24 0.08 0.12 0.14 0.02 0.02 0.01 0.01 0.02 0.08 0.07 0.11 0.32 0.36 0.74 1.03 1.24 2.36 1.11 0.43 0.38 0.38 0.31 0.48 0.42 0.32 0.40 0.24
0.05 0.04 0.04 0.02 0.04 0.21 0.41 0.62 0.63 1.20 0.41 0.22 0.34 0.28 0.49 0.64 0.94 2.01 1.77 1.35 1.07 0.85 0.42 0.42 0.41 0.32 0.12 0.02 0.01 0.10 0.06 0.08 0.09 0.16 0.23 0.24 0.40 0.66 0.77 1.09 0.69 0.53 0.40 0.38 0.77 0.66 0.43 0.52 0.34
0.20 0.11 0.15 0.03 0.14 0.27 0.33 0.47 0.32 1.00 0.54 0.30 0.37 0.40 0.50 0.65 0.71 1.26 2.04 2.49 2.95 2.39 1.95 1.51 1.45 0.91 0.50 0.27 0.11 0.18 0.14 0.09 0.05 0.14 0.10 0.15 0.27 0.43 0.47 0.49 0.75 0.61 0.39 0.49 0.93 0.58 0.40 0.69 0.47

GFSSGP_prec_precacc_159.txt.gz
Total_Precipitation_Accumulation
0.04 0.20 0.70 2.37 3.70 1.72 1.84 2.82 1.85 1.23 0.49 0.11 0.11 0.17 0.60 0.86 1.04 1.01 0.21 0.20 0.07 0.18 0.41 1.22 1.99 1.53 1.03 0.96 0.86 0.94 0.73 0.81 1.00 0.80 0.54 0.41 0.53 0.73 0.58 0.59 0.76 0.84 0.72 0.55 0.47 0.54 0.71 0.59 0.48
0.12 0.40 1.66 4.96 3.69 2.78 2.18 2.08 1.93 1.14 0.30 0.13 0.08 0.21 0.33 0.26 0.04 0.08 0.20 0.19 0.07 0.10 0.26 0.69 1.82 1.28 0.90 0.81 0.58 0.59 0.50 0.93 0.92 0.95 1.00 0.85 0.81 0.81 0.80 0.77 0.97 1.12 1.08 0.88 0.77 0.62 0.55 0.74 0.77
0.26 1.34 4.70 6.08 3.52 3.62 4.38 2.88 2.06 0.67 0.27 0.12 0.17 0.27 0.10 0.05 0.02 0.05 0.06 0.06 0.15 0.24 0.22 0.47 1.13 0.91 0.79 0.80 0.63 0.56 0.68 0.75 0.70 1.01 1.19 1.16 1.05 0.95 1.04 0.79 0.71 0.71 0.69 0.78 0.68 0.70 0.70 0.91 1.01
0.52 2.58 4.98 3.98 4.00 2.87 2.73 2.54 1.78 0.59 0.44 0.31 0.36 0.21 0.10 0.02 0.01 0.02 0.09 0.18 0.30 0.39 0.30 0.59 0.76 0.80 0.93 0.81 0.73 0.62 0.84 1.03 0.82 1.02 1.04 1.08 1.45 1.22 0.97 0.68 0.62 0.45 0.32 0.30 0.38 0.59 0.72 0.88 0.95
0.95 2.41 6.62 4.19 3.09 2.81 1.55 1.13 1.32 0.93 0.60 0.62 0.30 0.19 0.14 0.05 0.01 0.02 0.05 0.15 0.21 0.27 0.23 0.39 0.93 0.88 0.82 0.88 0.91 0.75 0.81 0.77 0.75 1.03 1.40 1.44 1.30 1.15 1.01 0.62 0.27 0.18 0.16 0.13 0.23 0.42 0.64 0.73 0.67
2.21 4.14 5.54 2.77 1.86 3.39 2.10 1.31 1.26 1.09 1.11 1.04 0.33 0.10 0.15 0.10 0.02 0.06 0.08 0.12 0.17 0.11 0.20 0.43 0.86 0.99 1.02 0.92 0.92 0.68 0.71 0.66 1.12 1.25 1.50 1.25 1.22 1.17 0.75 0.34 0.16 0.11 0.18 0.26 0.16 0.23 0.60 0.56 0.50
2.21 5.94 3.43 2.20 1.80 4.02 3.07 2.07 1.84 0.91 0.67 0.51 0.22 0.08 0.19 0.28 0.17 0.14 0.14 0.27 0.29 0.12 0.15 0.26 0.54 0.85 0.84 1.12 1.02 0.63 0.60 0.70 0.98 1.13 1.39 1.20 0.91 0.68 0.43 0.39 0.26 0.16 0.25 0.30 0.47 0.48 0.51 0.45 0.48
1.93 4.17 4.84 2.28 2.66 2.99 1.36 1.00 1.32 0.82 0.50 0.39 0.19 0.11 0.09 0.11 0.18 0.12 0.19 0.20 0.27 0.29 0.34 0.37 0.55 0.88 0.92 0.73 1.09 0.65 0.35 0.41 0.75 0.94 0.83 0.91 0.60 0.32 0.30 0.46 0.30 0.16 0.25 0.43 0.46 0.44 0.30 0.38 0.34
1.39 4.39 4.66 2.48 2.16 1.88 0.92 0.98 1.62 1.09 0.39 0.23 0.28 0.15 0.01 0.02 0.04 0.06 0.08 0.26 0.26 0.26 0.42 0.51 0.47 0.51 0.82 0.86 0.59 0.47 0.31 0.57 0.84 0.79 1.09 1.36 0.83 0.38 0.30 0.40 0.26 0.20 0.25 0.24 0.38 0.32 0.35 0.40 0.29
3.31 5.19 5.12 2.82 1.44 0.96 0.62 1.11 0.69 0.38 0.33 0.47 0.25 0.10 0.02 0.04 0.02 0.02 0.05 0.07 0.13 0.17 0.57 1.00 0.77 0.26 0.29 0.51 0.61 0.63 0.51 0.75 0.76 0.75 1.14 1.28 0.65 0.34 0.27 0.45 0.27 0.21 0.29 0.34 0.29 0.44 0.72 0.38 0.16
2.66 4.78 3.51 3.06 1.25 0.84 0.96 1.09 0.65 0.29 0.56 1.05 0.79 0.08 0.01 0.02 0.02 0.03 0.05 0.06 0.09 0.17 0.23 1.04 0.58 0.66 0.21 0.37 0.36 0.26 0.25 0.14 0.11 0.40 1.01 1.28 0.66 0.43 0.54 0.48 0.42 0.24 0.74 1.03 0.66 0.56 0.72 0.26 0.30
1.84 2.22 2.38 2.40 1.11 0.90 1.42 1.18 1.33 0.94 1.12 0.45 0.28 0.05 0.00 0.01 0.03 0.04 0.04 0.05 0.07 0.12 0.19 0.18 0.22 0.49 0.25 0.23 0.31 0.27 0.34 0.19 0.07 0.14 0.26 0.51 0.89 1.03 1.12 0.91 1.00 0.81 0.47 1.28 0.79 0.45 0.23 0.16 0.20
1.23 2.14 1.58 1.86 1.48 1.30 0.94 0.90 1.48 1.14 2.23 0.78 0.23 0.04 0.00 0.01 0.09 0.08 0.11 0.08 0.07 0.08 0.07 0.08 0.10 0.24 0.25 0.48 0.47 0.15 0.18 0.13 0.06 0.19 0.53 0.66 0.56 0.60 0.53 0.86 0.99 1.18 0.62 0.52 0.40 0.39 0.11 0.18 0.03
0.95 1.50 1.24 1.39 1.68 1.19 1.47 0.89 0.51 0.57 0.78 0.66 0.28 0.03 0.02 0.02 0.05 0.05 0.12 0.08 0.03 0.07 0.08 0.02 0.03 0.06 0.14 0.23 0.30 0.08 0.09 0.03 0.08 0.16 0.63 0.61 0.39 0.65 0.75 0.90 0.67 1.36 0.77 0.32 0.38 0.42 0.10 0.05 0.09
0.85 1.74 1.76 1.59 1.73 1.44 2.15 2.60 1.16 0.70 0.63 0.49 0.26 0.06 0.03 0.01 0.02 0.02 0.03 0.04 0.02 0.00 0.02 0.00 0.02 0.05 0.07 0.13 0.11 0.11 0.18 0.06 0.04 0.08 0.24 0.32 0.52 0.73 1.12 1.12 0.87 0.47 0.48 0.39 0.32 0.24 0.11 0.08 0.08
2.48 2.66 2.85 2.66 2.06 1.56 2.33 4.97 2.38 0.93 0.73 0.28 0.12 0.05 0.01 0.03 0.00 0.02 0.03 0.04 0.02 0.00 0.04 0.01 0.01 0.01 0.03 0.03 0.10 0.12 0.23 0.13 0.10 0.10 0.20 0.34 0.59 0.58 0.93 1.41 0.74 0.45 0.48 0.35 0.32 0.20 0.13 0.09 0.06
2.00 2.51 3.19 3.06 2.45 2.74 3.14 4.99 3.30 0.99 0.59 0.30 0.04 0.01 0.01 0.05 0.11 0.00 0.02 0.01 0.01 0.02 0.03 0.00 0.00 0.00 0.05 0.03 0.14 0.32 0.17 0.23 0.23 0.14 0.23 0.35 0.31 0.52 0.99 1.87 0.91 0.76 1.03 0.49 0.33 0.14 0.11 0.06 0.07
1.64 1.16 1.94 2.70 2.31 3.23 2.68 1.91 2.09 1.00 1.94 0.88 0.22 0.04 0.01 0.07 0.05 0.02 0.02 0.03 0.02 0.01 0.02 0.00 0.01 0.03 0.15 0.31 0.42 0.37 0.29 0.26 0.08 0.07 0.22 0.27 0.40 0.38 0.73 0.95 0.66 1.51 0.71 0.60 0.37 0.12 0.09 0.04 0.05
0.27 1.07 1.81 2.43 2.44 3.22 2.56 1.92 2.35 0.87 1.40 1.41 0.24 0.14 0.05 0.02 0.09 0.13 0.04 0.03 0.01 0.02 0.00 0.01 0.05 0.11 0.18 0.13 0.14 0.09 0.09 0.09 0.05 0.12 0.26 0.42 0.44 0.51 0.67 0.69 0.67 1.69 1.36 0.84 0.36 0.44 0.13 0.12 0.06
0.22 0.94 1.38 2.31 2.00 3.01 4.99 3.46 2.40 1.29 0.95 0.80 0.50 0.24 0.19 0.05 0.08 0.07 0.04 0.04 0.00 0.01 0.00 0.00 0.06 0.09 0.14 0.05 0.06 0.06 0.05 0.04 0.06 0.13 0.22 0.23 0.24 0.45 0.30 0.71 1.53 1.19 0.70 0.52 0.45 0.37 0.27 0.24 0.09
0.21 0.38 0.72 1.17 1.25 1.90 3.64 4.70 3.16 1.40 1.43 1.37 0.89 0.60 0.15 0.14 0.09 0.02 0.03 0.07 0.11 0.01 0.00 0.00 0.03 0.11 0.24 0.20 0.13 0.22 0.30 0.24 0.38 0.45 0.31 0.24 0.22 0.18 0.51 0.60 0.58 0.71 1.43 0.92 0.40 0.55 0.24 0.69 0.20
0.42 0.28 0.33 0.36 0.47 1.08 0.84 2.40 2.07 1.57 1.54 2.79 1.28 0.83 0.21 0.13 0.20 0.06 0.02 0.03 0.26 0.17 0.00 0.00 0.01 0.07 0.11 0.25 0.21 0.40 0.24 0.23 0.30 0.30 0.33 0.30 0.23 0.18 0.30 0.29 0.37 0.42 0.56 0.66 0.45 0.27 0.17 0.15 0.55
0.08 0.13 0.20 0.39 0.28 0.26 0.25 0.62 1.16 1.06 1.38 1.77 1.43 1.08 0.41 0.10 0.06 0.09 0.22 0.16 0.09 0.05 0.01 0.00 0.01 0.06 0.08 0.23 0.58 0.42 0.25 0.57 0.61 0.33 0.57 0.54 0.46 0.30 0.28 0.30 0.28 0.35 0.38 0.46 0.38 0.35 0.24 0.14 0.23
0.02 0.12 0.22 0.26 0.42 0.33 0.11 0.17 0.63 0.75 0.77 1.26 0.67 0.90 1.16 0.55 0.22 0.28 0.26 0.17 0.14 0.04 0.06 0.02 0.00 0.05 0.08 0.15 0.26 0.42 0.55 0.74 0.78 0.89 0.58 0.38 0.35 0.23 0.25 0.31 0.46 0.45 0.34 0.34 0.33 0.40 0.25 0.13 0.13
0.05 0.17 0.20 0.24 0.17 0.24 0.24 0.22 0.26 0.54 0.52 0.53 0.53 0.83 1.03 1.17 0.55 0.35 0.18 0.25 0.11 0.16 0.03 0.01 0.00 0.02 0.02 0.04 0.12 0.24 0.40 0.47 0.72 0.53 0.52 0.70 0.58 0.23 0.19 0.40 0.53 0.38 0.29 0.26 0.23 0.32 0.21 0.11 0.14
0.01 0.01 0.11 0.34 0.25 0.30 0.37 0.47 0.31 0.06 0.07 0.12 0.26 0.37 0.38 0.38 0.82 0.46 0.39 0.34 0.21 0.56 0.35 0.03 0.00 0.00 0.00 0.02 0.09 0.18 0.37 0.30 0.24 0.17 0.43 0.81 0.54 0.35 0.46 0.40 0.36 0.31 0.36 0.14 0.24 0.19 0.15 0.22 0.22
0.01 0.03 0.04 0.05 0.09 0.07 0.31 0.59 0.35 0.13 0.06 0.07 0.09 0.31 0.43 0.36 0.34 0.41 0.53 0.67 0.38 0.19 0.34 0.25 0.04 0.00 0.00 0.01 0.02 0.06 0.16 0.13 0.14 0.34 0.42 0.49 1.08 0.77 1.08 0.69 0.47 0.37 0.28 0.21 0.31 0.25 0.32 0.38 0.29
0.07 0.15 0.07 0.02 0.07 0.10 0.31 0.56 0.76 0.30 0.56 0.21 0.19 0.18 0.51 0.61 1.01 0.89 0.69 0.82 0.72 0.31 0.17 0.34 0.24 0.02 0.02 0.02 0.01 0.03 0.08 0.07 0.11 0.32 0.36 0.74 1.06 1.26 2.68 1.51 0.48 0.41 0.40 0.32 0.51 0.45 0.35 0.42 0.26
0.05 0.04 0.04 0.02 0.04 0.21 0.42 0.64 0.63 1.20 0.41 0.22 0.34 0.28 0.49 0.64 0.94 2.01 1.79 1.40 1.15 0.89 0.55 0.90 1.01 0.61 0.19 0.02 0.02 0.12 0.09 0.09 0.10 0.18 0.23 0.24 0.42 0.68 0.78 1.11 0.70 0.57 0.40 0.38 0.77 0.67 0.43 0.53 0.35
0.20 0.11 0.15 0.03 0.14 0.27 0.34 0.48 0.32 1.01 0.55 0.30 0.37 0.40 0.50 0.65 0.71 1.26 2.05 2.51 3.01 2.47 2.02 2.07 2.68 1.59 0.92 0.44 0.19 0.23 0.19 0.13 0.08 0.15 0.10 0.15 0.27 0.43 0.47 0.49 0.75 0.61 0.39 0.49 0.93 0.58 0.42 0.69 0.47